<?xml version="1.0"?>
<gpx xmlns="http://www.topografix.com/GPX/1/1" xmlns:xsi="http://www.w3.org/2001/XMLSchema-instance" version="1.1" creator="GPX RubyGem 1.0.0 -- http://dougfales.github.io/gpx/" xsi:schemaLocation="http://www.topografix.com/GPX/1/1 http://www.topografix.com/GPX/1/1/gpx.xsd">
  <metadata>
    <name/>
    <time>2026-05-07T22:08:00+00:00</time>
    <bound minlat="90.0" minlon="180.0" maxlat="-90.0" maxlon="-180.0"/>
  </metadata>
  <trk>
    <name/>
    <trkseg>
      <trkpt lat="46.485717" lon="8.266866">
        <time>1970-01-01T00:00:00+00:00</time>
        <ele>1364.0</ele>
      </trkpt>
      <trkpt lat="46.485651" lon="8.266757">
        <time>1970-01-01T00:00:00+00:00</time>
        <ele>1363.0</ele>
      </trkpt>
      <trkpt lat="46.485734" lon="8.266694">
        <time>1970-01-01T00:00:00+00:00</time>
        <ele>1366.0</ele>
      </trkpt>
      <trkpt lat="46.485942" lon="8.267233">
        <time>1970-01-01T00:00:00+00:00</time>
        <ele>1367.0</ele>
      </trkpt>
      <trkpt lat="46.485915" lon="8.267209">
        <time>1970-01-01T00:00:00+00:00</time>
        <ele>1367.0</ele>
      </trkpt>
      <trkpt lat="46.486141" lon="8.266772">
        <time>1970-01-01T00:00:00+00:00</time>
        <ele>1372.0</ele>
      </trkpt>
      <trkpt lat="46.486056" lon="8.266485">
        <time>1970-01-01T00:00:00+00:00</time>
        <ele>1371.0</ele>
      </trkpt>
      <trkpt lat="46.486064" lon="8.266121">
        <time>1970-01-01T00:00:00+00:00</time>
        <ele>1371.0</ele>
      </trkpt>
      <trkpt lat="46.486376" lon="8.265646">
        <time>1970-01-01T00:00:00+00:00</time>
        <ele>1375.0</ele>
      </trkpt>
      <trkpt lat="46.486382" lon="8.265102">
        <time>1970-01-01T00:00:00+00:00</time>
        <ele>1376.0</ele>
      </trkpt>
      <trkpt lat="46.486495" lon="8.264941">
        <time>1970-01-01T00:00:00+00:00</time>
        <ele>1377.0</ele>
      </trkpt>
      <trkpt lat="46.486517" lon="8.264747">
        <time>1970-01-01T00:00:00+00:00</time>
        <ele>1378.0</ele>
      </trkpt>
      <trkpt lat="46.48698" lon="8.264252">
        <time>1970-01-01T00:00:00+00:00</time>
        <ele>1386.0</ele>
      </trkpt>
      <trkpt lat="46.487118" lon="8.264323">
        <time>1970-01-01T00:00:00+00:00</time>
        <ele>1388.0</ele>
      </trkpt>
      <trkpt lat="46.487024" lon="8.264208">
        <time>1970-01-01T00:00:00+00:00</time>
        <ele>1386.0</ele>
      </trkpt>
      <trkpt lat="46.487178" lon="8.264064">
        <time>1970-01-01T00:00:00+00:00</time>
        <ele>1389.0</ele>
      </trkpt>
      <trkpt lat="46.487278" lon="8.264181">
        <time>1970-01-01T00:00:00+00:00</time>
        <ele>1391.0</ele>
      </trkpt>
      <trkpt lat="46.487346" lon="8.264066">
        <time>1970-01-01T00:00:00+00:00</time>
        <ele>1392.0</ele>
      </trkpt>
      <trkpt lat="46.487437" lon="8.26357">
        <time>1970-01-01T00:00:00+00:00</time>
        <ele>1391.0</ele>
      </trkpt>
      <trkpt lat="46.487377" lon="8.263404">
        <time>1970-01-01T00:00:00+00:00</time>
        <ele>1389.0</ele>
      </trkpt>
      <trkpt lat="46.487285" lon="8.263353">
        <time>1970-01-01T00:00:00+00:00</time>
        <ele>1387.0</ele>
      </trkpt>
      <trkpt lat="46.487655" lon="8.263729">
        <time>1970-01-01T00:00:00+00:00</time>
        <ele>1394.0</ele>
      </trkpt>
      <trkpt lat="46.487103" lon="8.263106">
        <time>1970-01-01T00:00:00+00:00</time>
        <ele>1381.0</ele>
      </trkpt>
      <trkpt lat="46.487297" lon="8.263343">
        <time>1970-01-01T00:00:00+00:00</time>
        <ele>1387.0</ele>
      </trkpt>
      <trkpt lat="46.487577" lon="8.263303">
        <time>1970-01-01T00:00:00+00:00</time>
        <ele>1391.0</ele>
      </trkpt>
      <trkpt lat="46.487733" lon="8.263205">
        <time>1970-01-01T00:00:00+00:00</time>
        <ele>1392.0</ele>
      </trkpt>
      <trkpt lat="46.487815" lon="8.262983">
        <time>1970-01-01T00:00:00+00:00</time>
        <ele>1391.0</ele>
      </trkpt>
      <trkpt lat="46.487954" lon="8.262076">
        <time>1970-01-01T00:00:00+00:00</time>
        <ele>1394.0</ele>
      </trkpt>
      <trkpt lat="46.488038" lon="8.262032">
        <time>1970-01-01T00:00:00+00:00</time>
        <ele>1397.0</ele>
      </trkpt>
      <trkpt lat="46.488143" lon="8.262219">
        <time>1970-01-01T00:00:00+00:00</time>
        <ele>1395.0</ele>
      </trkpt>
      <trkpt lat="46.48809" lon="8.262333">
        <time>1970-01-01T00:00:00+00:00</time>
        <ele>1393.0</ele>
      </trkpt>
      <trkpt lat="46.487973" lon="8.262152">
        <time>1970-01-01T00:00:00+00:00</time>
        <ele>1393.0</ele>
      </trkpt>
      <trkpt lat="46.487723" lon="8.261996">
        <time>1970-01-01T00:00:00+00:00</time>
        <ele>1389.0</ele>
      </trkpt>
      <trkpt lat="46.487389" lon="8.26131">
        <time>1970-01-01T00:00:00+00:00</time>
        <ele>1392.0</ele>
      </trkpt>
      <trkpt lat="46.487213" lon="8.261115">
        <time>1970-01-01T00:00:00+00:00</time>
        <ele>1388.0</ele>
      </trkpt>
      <trkpt lat="46.486923" lon="8.260235">
        <time>1970-01-01T00:00:00+00:00</time>
        <ele>1399.0</ele>
      </trkpt>
      <trkpt lat="46.486652" lon="8.259862">
        <time>1970-01-01T00:00:00+00:00</time>
        <ele>1406.0</ele>
      </trkpt>
      <trkpt lat="46.486512" lon="8.258906">
        <time>1970-01-01T00:00:00+00:00</time>
        <ele>1421.0</ele>
      </trkpt>
      <trkpt lat="46.486588" lon="8.258847">
        <time>1970-01-01T00:00:00+00:00</time>
        <ele>1425.0</ele>
      </trkpt>
      <trkpt lat="46.486337" lon="8.25823">
        <time>1970-01-01T00:00:00+00:00</time>
        <ele>1425.0</ele>
      </trkpt>
      <trkpt lat="46.485782" lon="8.25764">
        <time>1970-01-01T00:00:00+00:00</time>
        <ele>1419.0</ele>
      </trkpt>
      <trkpt lat="46.485846" lon="8.25743">
        <time>1970-01-01T00:00:00+00:00</time>
        <ele>1428.0</ele>
      </trkpt>
      <trkpt lat="46.485599" lon="8.256755">
        <time>1970-01-01T00:00:00+00:00</time>
        <ele>1436.0</ele>
      </trkpt>
      <trkpt lat="46.485251" lon="8.255938">
        <time>1970-01-01T00:00:00+00:00</time>
        <ele>1442.0</ele>
      </trkpt>
      <trkpt lat="46.48514" lon="8.255896">
        <time>1970-01-01T00:00:00+00:00</time>
        <ele>1438.0</ele>
      </trkpt>
      <trkpt lat="46.484889" lon="8.255367">
        <time>1970-01-01T00:00:00+00:00</time>
        <ele>1444.0</ele>
      </trkpt>
      <trkpt lat="46.484906" lon="8.255247">
        <time>1970-01-01T00:00:00+00:00</time>
        <ele>1449.0</ele>
      </trkpt>
      <trkpt lat="46.48481" lon="8.255196">
        <time>1970-01-01T00:00:00+00:00</time>
        <ele>1448.0</ele>
      </trkpt>
      <trkpt lat="46.484981" lon="8.254626">
        <time>1970-01-01T00:00:00+00:00</time>
        <ele>1470.0</ele>
      </trkpt>
      <trkpt lat="46.484459" lon="8.254489">
        <time>1970-01-01T00:00:00+00:00</time>
        <ele>1451.0</ele>
      </trkpt>
      <trkpt lat="46.484224" lon="8.253772">
        <time>1970-01-01T00:00:00+00:00</time>
        <ele>1465.0</ele>
      </trkpt>
      <trkpt lat="46.483915" lon="8.253137">
        <time>1970-01-01T00:00:00+00:00</time>
        <ele>1468.0</ele>
      </trkpt>
      <trkpt lat="46.483829" lon="8.253089">
        <time>1970-01-01T00:00:00+00:00</time>
        <ele>1465.0</ele>
      </trkpt>
      <trkpt lat="46.483588" lon="8.252272">
        <time>1970-01-01T00:00:00+00:00</time>
        <ele>1477.0</ele>
      </trkpt>
      <trkpt lat="46.483368" lon="8.252022">
        <time>1970-01-01T00:00:00+00:00</time>
        <ele>1483.0</ele>
      </trkpt>
      <trkpt lat="46.482956" lon="8.251962">
        <time>1970-01-01T00:00:00+00:00</time>
        <ele>1476.0</ele>
      </trkpt>
      <trkpt lat="46.482727" lon="8.251434">
        <time>1970-01-01T00:00:00+00:00</time>
        <ele>1488.0</ele>
      </trkpt>
      <trkpt lat="46.482572" lon="8.251393">
        <time>1970-01-01T00:00:00+00:00</time>
        <ele>1482.0</ele>
      </trkpt>
      <trkpt lat="46.482425" lon="8.250804">
        <time>1970-01-01T00:00:00+00:00</time>
        <ele>1495.0</ele>
      </trkpt>
      <trkpt lat="46.482339" lon="8.250715">
        <time>1970-01-01T00:00:00+00:00</time>
        <ele>1495.0</ele>
      </trkpt>
      <trkpt lat="46.482187" lon="8.25077">
        <time>1970-01-01T00:00:00+00:00</time>
        <ele>1488.0</ele>
      </trkpt>
      <trkpt lat="46.482156" lon="8.250638">
        <time>1970-01-01T00:00:00+00:00</time>
        <ele>1494.0</ele>
      </trkpt>
      <trkpt lat="46.482266" lon="8.250119">
        <time>1970-01-01T00:00:00+00:00</time>
        <ele>1515.0</ele>
      </trkpt>
      <trkpt lat="46.482264" lon="8.250308">
        <time>1970-01-01T00:00:00+00:00</time>
        <ele>1510.0</ele>
      </trkpt>
      <trkpt lat="46.482106" lon="8.249936">
        <time>1970-01-01T00:00:00+00:00</time>
        <ele>1515.0</ele>
      </trkpt>
      <trkpt lat="46.482124" lon="8.249894">
        <time>1970-01-01T00:00:00+00:00</time>
        <ele>1517.0</ele>
      </trkpt>
      <trkpt lat="46.48235" lon="8.25009">
        <time>1970-01-01T00:00:00+00:00</time>
        <ele>1518.0</ele>
      </trkpt>
      <trkpt lat="46.482298" lon="8.2503">
        <time>1970-01-01T00:00:00+00:00</time>
        <ele>1511.0</ele>
      </trkpt>
      <trkpt lat="46.482394" lon="8.250317">
        <time>1970-01-01T00:00:00+00:00</time>
        <ele>1514.0</ele>
      </trkpt>
      <trkpt lat="46.482538" lon="8.250257">
        <time>1970-01-01T00:00:00+00:00</time>
        <ele>1523.0</ele>
      </trkpt>
      <trkpt lat="46.482316" lon="8.250304">
        <time>1970-01-01T00:00:00+00:00</time>
        <ele>1511.0</ele>
      </trkpt>
      <trkpt lat="46.482121" lon="8.250013">
        <time>1970-01-01T00:00:00+00:00</time>
        <ele>1513.0</ele>
      </trkpt>
      <trkpt lat="46.48252" lon="8.25029">
        <time>1970-01-01T00:00:00+00:00</time>
        <ele>1521.0</ele>
      </trkpt>
      <trkpt lat="46.482616" lon="8.249947">
        <time>1970-01-01T00:00:00+00:00</time>
        <ele>1537.0</ele>
      </trkpt>
      <trkpt lat="46.482458" lon="8.250378">
        <time>1970-01-01T00:00:00+00:00</time>
        <ele>1515.0</ele>
      </trkpt>
      <trkpt lat="46.482571" lon="8.250092">
        <time>1970-01-01T00:00:00+00:00</time>
        <ele>1529.0</ele>
      </trkpt>
      <trkpt lat="46.482704" lon="8.250069">
        <time>1970-01-01T00:00:00+00:00</time>
        <ele>1538.0</ele>
      </trkpt>
      <trkpt lat="46.482858" lon="8.250303">
        <time>1970-01-01T00:00:00+00:00</time>
        <ele>1539.0</ele>
      </trkpt>
      <trkpt lat="46.482822" lon="8.250452">
        <time>1970-01-01T00:00:00+00:00</time>
        <ele>1531.0</ele>
      </trkpt>
      <trkpt lat="46.482908" lon="8.250474">
        <time>1970-01-01T00:00:00+00:00</time>
        <ele>1534.0</ele>
      </trkpt>
      <trkpt lat="46.482952" lon="8.25028">
        <time>1970-01-01T00:00:00+00:00</time>
        <ele>1545.0</ele>
      </trkpt>
      <trkpt lat="46.483565" lon="8.250837">
        <time>1970-01-01T00:00:00+00:00</time>
        <ele>1547.0</ele>
      </trkpt>
      <trkpt lat="46.483106" lon="8.250442">
        <time>1970-01-01T00:00:00+00:00</time>
        <ele>1548.0</ele>
      </trkpt>
      <trkpt lat="46.483125" lon="8.250501">
        <time>1970-01-01T00:00:00+00:00</time>
        <ele>1546.0</ele>
      </trkpt>
      <trkpt lat="46.483649" lon="8.25074">
        <time>1970-01-01T00:00:00+00:00</time>
        <ele>1556.0</ele>
      </trkpt>
      <trkpt lat="46.483835" lon="8.250701">
        <time>1970-01-01T00:00:00+00:00</time>
        <ele>1567.0</ele>
      </trkpt>
      <trkpt lat="46.483768" lon="8.250813">
        <time>1970-01-01T00:00:00+00:00</time>
        <ele>1557.0</ele>
      </trkpt>
      <trkpt lat="46.483913" lon="8.25059">
        <time>1970-01-01T00:00:00+00:00</time>
        <ele>1578.0</ele>
      </trkpt>
      <trkpt lat="46.484004" lon="8.250273">
        <time>1970-01-01T00:00:00+00:00</time>
        <ele>1601.0</ele>
      </trkpt>
      <trkpt lat="46.484167" lon="8.250853">
        <time>1970-01-01T00:00:00+00:00</time>
        <ele>1568.0</ele>
      </trkpt>
      <trkpt lat="46.484793" lon="8.250714">
        <time>1970-01-01T00:00:00+00:00</time>
        <ele>1595.0</ele>
      </trkpt>
      <trkpt lat="46.484846" lon="8.25091">
        <time>1970-01-01T00:00:00+00:00</time>
        <ele>1589.0</ele>
      </trkpt>
      <trkpt lat="46.485675" lon="8.250557">
        <time>1970-01-01T00:00:00+00:00</time>
        <ele>1649.0</ele>
      </trkpt>
      <trkpt lat="46.484912" lon="8.251659">
        <time>1970-01-01T00:00:00+00:00</time>
        <ele>1572.0</ele>
      </trkpt>
      <trkpt lat="46.485025" lon="8.251997">
        <time>1970-01-01T00:00:00+00:00</time>
        <ele>1568.0</ele>
      </trkpt>
      <trkpt lat="46.4856" lon="8.252061">
        <time>1970-01-01T00:00:00+00:00</time>
        <ele>1599.0</ele>
      </trkpt>
      <trkpt lat="46.485587" lon="8.251834">
        <time>1970-01-01T00:00:00+00:00</time>
        <ele>1607.0</ele>
      </trkpt>
      <trkpt lat="46.485516" lon="8.252302">
        <time>1970-01-01T00:00:00+00:00</time>
        <ele>1583.0</ele>
      </trkpt>
      <trkpt lat="46.486576" lon="8.251405">
        <time>1970-01-01T00:00:00+00:00</time>
        <ele>1669.0</ele>
      </trkpt>
      <trkpt lat="46.48569" lon="8.252275">
        <time>1970-01-01T00:00:00+00:00</time>
        <ele>1596.0</ele>
      </trkpt>
      <trkpt lat="46.485921" lon="8.25236">
        <time>1970-01-01T00:00:00+00:00</time>
        <ele>1608.0</ele>
      </trkpt>
      <trkpt lat="46.486012" lon="8.252696">
        <time>1970-01-01T00:00:00+00:00</time>
        <ele>1603.0</ele>
      </trkpt>
      <trkpt lat="46.486237" lon="8.253135">
        <time>1970-01-01T00:00:00+00:00</time>
        <ele>1604.0</ele>
      </trkpt>
      <trkpt lat="46.486586" lon="8.253227">
        <time>1970-01-01T00:00:00+00:00</time>
        <ele>1620.0</ele>
      </trkpt>
      <trkpt lat="46.486741" lon="8.253429">
        <time>1970-01-01T00:00:00+00:00</time>
        <ele>1624.0</ele>
      </trkpt>
      <trkpt lat="46.48674" lon="8.253573">
        <time>1970-01-01T00:00:00+00:00</time>
        <ele>1620.0</ele>
      </trkpt>
      <trkpt lat="46.487072" lon="8.25383">
        <time>1970-01-01T00:00:00+00:00</time>
        <ele>1625.0</ele>
      </trkpt>
      <trkpt lat="46.487396" lon="8.253737">
        <time>1970-01-01T00:00:00+00:00</time>
        <ele>1644.0</ele>
      </trkpt>
      <trkpt lat="46.488079" lon="8.25412">
        <time>1970-01-01T00:00:00+00:00</time>
        <ele>1652.0</ele>
      </trkpt>
      <trkpt lat="46.488276" lon="8.254416">
        <time>1970-01-01T00:00:00+00:00</time>
        <ele>1649.0</ele>
      </trkpt>
      <trkpt lat="46.487971" lon="8.254444">
        <time>1970-01-01T00:00:00+00:00</time>
        <ele>1638.0</ele>
      </trkpt>
      <trkpt lat="46.488939" lon="8.254438">
        <time>1970-01-01T00:00:00+00:00</time>
        <ele>1670.0</ele>
      </trkpt>
      <trkpt lat="46.489148" lon="8.254771">
        <time>1970-01-01T00:00:00+00:00</time>
        <ele>1665.0</ele>
      </trkpt>
      <trkpt lat="46.488951" lon="8.255036">
        <time>1970-01-01T00:00:00+00:00</time>
        <ele>1656.0</ele>
      </trkpt>
      <trkpt lat="46.488997" lon="8.254581">
        <time>1970-01-01T00:00:00+00:00</time>
        <ele>1668.0</ele>
      </trkpt>
      <trkpt lat="46.489415" lon="8.25419">
        <time>1970-01-01T00:00:00+00:00</time>
        <ele>1683.0</ele>
      </trkpt>
      <trkpt lat="46.489052" lon="8.254805">
        <time>1970-01-01T00:00:00+00:00</time>
        <ele>1663.0</ele>
      </trkpt>
      <trkpt lat="46.489163" lon="8.254881">
        <time>1970-01-01T00:00:00+00:00</time>
        <ele>1662.0</ele>
      </trkpt>
      <trkpt lat="46.489453" lon="8.255345">
        <time>1970-01-01T00:00:00+00:00</time>
        <ele>1655.0</ele>
      </trkpt>
      <trkpt lat="46.489815" lon="8.25566">
        <time>1970-01-01T00:00:00+00:00</time>
        <ele>1648.0</ele>
      </trkpt>
      <trkpt lat="46.489755" lon="8.255749">
        <time>1970-01-01T00:00:00+00:00</time>
        <ele>1644.0</ele>
      </trkpt>
      <trkpt lat="46.489882" lon="8.255619">
        <time>1970-01-01T00:00:00+00:00</time>
        <ele>1650.0</ele>
      </trkpt>
      <trkpt lat="46.489772" lon="8.255483">
        <time>1970-01-01T00:00:00+00:00</time>
        <ele>1653.0</ele>
      </trkpt>
      <trkpt lat="46.490269" lon="8.256024">
        <time>1970-01-01T00:00:00+00:00</time>
        <ele>1634.0</ele>
      </trkpt>
      <trkpt lat="46.49041" lon="8.255873">
        <time>1970-01-01T00:00:00+00:00</time>
        <ele>1632.0</ele>
      </trkpt>
      <trkpt lat="46.490672" lon="8.255777">
        <time>1970-01-01T00:00:00+00:00</time>
        <ele>1619.0</ele>
      </trkpt>
      <trkpt lat="46.490214" lon="8.255825">
        <time>1970-01-01T00:00:00+00:00</time>
        <ele>1642.0</ele>
      </trkpt>
      <trkpt lat="46.489963" lon="8.255305">
        <time>1970-01-01T00:00:00+00:00</time>
        <ele>1663.0</ele>
      </trkpt>
      <trkpt lat="46.489554" lon="8.255201">
        <time>1970-01-01T00:00:00+00:00</time>
        <ele>1662.0</ele>
      </trkpt>
      <trkpt lat="46.489835" lon="8.255651">
        <time>1970-01-01T00:00:00+00:00</time>
        <ele>1648.0</ele>
      </trkpt>
      <trkpt lat="46.489806" lon="8.25571">
        <time>1970-01-01T00:00:00+00:00</time>
        <ele>1646.0</ele>
      </trkpt>
      <trkpt lat="46.489754" lon="8.255684">
        <time>1970-01-01T00:00:00+00:00</time>
        <ele>1646.0</ele>
      </trkpt>
      <trkpt lat="46.489797" lon="8.255469">
        <time>1970-01-01T00:00:00+00:00</time>
        <ele>1654.0</ele>
      </trkpt>
      <trkpt lat="46.489721" lon="8.255636">
        <time>1970-01-01T00:00:00+00:00</time>
        <ele>1648.0</ele>
      </trkpt>
      <trkpt lat="46.489911" lon="8.25542">
        <time>1970-01-01T00:00:00+00:00</time>
        <ele>1658.0</ele>
      </trkpt>
      <trkpt lat="46.489787" lon="8.255372">
        <time>1970-01-01T00:00:00+00:00</time>
        <ele>1657.0</ele>
      </trkpt>
      <trkpt lat="46.489744" lon="8.255432">
        <time>1970-01-01T00:00:00+00:00</time>
        <ele>1655.0</ele>
      </trkpt>
      <trkpt lat="46.489766" lon="8.255478">
        <time>1970-01-01T00:00:00+00:00</time>
        <ele>1653.0</ele>
      </trkpt>
      <trkpt lat="46.489836" lon="8.255418">
        <time>1970-01-01T00:00:00+00:00</time>
        <ele>1656.0</ele>
      </trkpt>
      <trkpt lat="46.489951" lon="8.255094">
        <time>1970-01-01T00:00:00+00:00</time>
        <ele>1669.0</ele>
      </trkpt>
      <trkpt lat="46.490287" lon="8.25543">
        <time>1970-01-01T00:00:00+00:00</time>
        <ele>1657.0</ele>
      </trkpt>
      <trkpt lat="46.490248" lon="8.255588">
        <time>1970-01-01T00:00:00+00:00</time>
        <ele>1651.0</ele>
      </trkpt>
      <trkpt lat="46.489891" lon="8.255139">
        <time>1970-01-01T00:00:00+00:00</time>
        <ele>1667.0</ele>
      </trkpt>
      <trkpt lat="46.489681" lon="8.255123">
        <time>1970-01-01T00:00:00+00:00</time>
        <ele>1665.0</ele>
      </trkpt>
      <trkpt lat="46.489226" lon="8.256162">
        <time>1970-01-01T00:00:00+00:00</time>
        <ele>1629.0</ele>
      </trkpt>
      <trkpt lat="46.489062" lon="8.256036">
        <time>1970-01-01T00:00:00+00:00</time>
        <ele>1630.0</ele>
      </trkpt>
      <trkpt lat="46.489398" lon="8.255487">
        <time>1970-01-01T00:00:00+00:00</time>
        <ele>1649.0</ele>
      </trkpt>
      <trkpt lat="46.489712" lon="8.254051">
        <time>1970-01-01T00:00:00+00:00</time>
        <ele>1692.0</ele>
      </trkpt>
      <trkpt lat="46.489783" lon="8.254325">
        <time>1970-01-01T00:00:00+00:00</time>
        <ele>1686.0</ele>
      </trkpt>
      <trkpt lat="46.489878" lon="8.254444">
        <time>1970-01-01T00:00:00+00:00</time>
        <ele>1685.0</ele>
      </trkpt>
      <trkpt lat="46.489992" lon="8.254523">
        <time>1970-01-01T00:00:00+00:00</time>
        <ele>1684.0</ele>
      </trkpt>
      <trkpt lat="46.490085" lon="8.254492">
        <time>1970-01-01T00:00:00+00:00</time>
        <ele>1687.0</ele>
      </trkpt>
      <trkpt lat="46.489766" lon="8.254584">
        <time>1970-01-01T00:00:00+00:00</time>
        <ele>1679.0</ele>
      </trkpt>
      <trkpt lat="46.4897" lon="8.254225">
        <time>1970-01-01T00:00:00+00:00</time>
        <ele>1687.0</ele>
      </trkpt>
      <trkpt lat="46.489745" lon="8.254117">
        <time>1970-01-01T00:00:00+00:00</time>
        <ele>1690.0</ele>
      </trkpt>
      <trkpt lat="46.489474" lon="8.254096">
        <time>1970-01-01T00:00:00+00:00</time>
        <ele>1686.0</ele>
      </trkpt>
      <trkpt lat="46.489408" lon="8.253519">
        <time>1970-01-01T00:00:00+00:00</time>
        <ele>1705.0</ele>
      </trkpt>
      <trkpt lat="46.488886" lon="8.253086">
        <time>1970-01-01T00:00:00+00:00</time>
        <ele>1704.0</ele>
      </trkpt>
      <trkpt lat="46.488907" lon="8.252447">
        <time>1970-01-01T00:00:00+00:00</time>
        <ele>1721.0</ele>
      </trkpt>
      <trkpt lat="46.489153" lon="8.252696">
        <time>1970-01-01T00:00:00+00:00</time>
        <ele>1722.0</ele>
      </trkpt>
      <trkpt lat="46.489449" lon="8.252768">
        <time>1970-01-01T00:00:00+00:00</time>
        <ele>1730.0</ele>
      </trkpt>
      <trkpt lat="46.489101" lon="8.25303">
        <time>1970-01-01T00:00:00+00:00</time>
        <ele>1711.0</ele>
      </trkpt>
      <trkpt lat="46.488915" lon="8.252557">
        <time>1970-01-01T00:00:00+00:00</time>
        <ele>1718.0</ele>
      </trkpt>
      <trkpt lat="46.489357" lon="8.252331">
        <time>1970-01-01T00:00:00+00:00</time>
        <ele>1738.0</ele>
      </trkpt>
      <trkpt lat="46.489026" lon="8.252279">
        <time>1970-01-01T00:00:00+00:00</time>
        <ele>1730.0</ele>
      </trkpt>
      <trkpt lat="46.489099" lon="8.251765">
        <time>1970-01-01T00:00:00+00:00</time>
        <ele>1749.0</ele>
      </trkpt>
      <trkpt lat="46.488711" lon="8.251896">
        <time>1970-01-01T00:00:00+00:00</time>
        <ele>1734.0</ele>
      </trkpt>
      <trkpt lat="46.488732" lon="8.251502">
        <time>1970-01-01T00:00:00+00:00</time>
        <ele>1745.0</ele>
      </trkpt>
      <trkpt lat="46.488928" lon="8.251213">
        <time>1970-01-01T00:00:00+00:00</time>
        <ele>1760.0</ele>
      </trkpt>
      <trkpt lat="46.488487" lon="8.251426">
        <time>1970-01-01T00:00:00+00:00</time>
        <ele>1739.0</ele>
      </trkpt>
      <trkpt lat="46.488299" lon="8.25124">
        <time>1970-01-01T00:00:00+00:00</time>
        <ele>1737.0</ele>
      </trkpt>
      <trkpt lat="46.488723" lon="8.250566">
        <time>1970-01-01T00:00:00+00:00</time>
        <ele>1773.0</ele>
      </trkpt>
      <trkpt lat="46.488284" lon="8.250647">
        <time>1970-01-01T00:00:00+00:00</time>
        <ele>1752.0</ele>
      </trkpt>
      <trkpt lat="46.488299" lon="8.250253">
        <time>1970-01-01T00:00:00+00:00</time>
        <ele>1766.0</ele>
      </trkpt>
      <trkpt lat="46.488576" lon="8.249887">
        <time>1970-01-01T00:00:00+00:00</time>
        <ele>1789.0</ele>
      </trkpt>
      <trkpt lat="46.488412" lon="8.249597">
        <time>1970-01-01T00:00:00+00:00</time>
        <ele>1792.0</ele>
      </trkpt>
      <trkpt lat="46.488424" lon="8.249279">
        <time>1970-01-01T00:00:00+00:00</time>
        <ele>1810.0</ele>
      </trkpt>
      <trkpt lat="46.487919" lon="8.249649">
        <time>1970-01-01T00:00:00+00:00</time>
        <ele>1769.0</ele>
      </trkpt>
      <trkpt lat="46.487965" lon="8.249222">
        <time>1970-01-01T00:00:00+00:00</time>
        <ele>1792.0</ele>
      </trkpt>
      <trkpt lat="46.488131" lon="8.248878">
        <time>1970-01-01T00:00:00+00:00</time>
        <ele>1815.0</ele>
      </trkpt>
      <trkpt lat="46.487994" lon="8.249144">
        <time>1970-01-01T00:00:00+00:00</time>
        <ele>1797.0</ele>
      </trkpt>
      <trkpt lat="46.487806" lon="8.248899">
        <time>1970-01-01T00:00:00+00:00</time>
        <ele>1797.0</ele>
      </trkpt>
      <trkpt lat="46.487644" lon="8.248385">
        <time>1970-01-01T00:00:00+00:00</time>
        <ele>1806.0</ele>
      </trkpt>
      <trkpt lat="46.48799" lon="8.248217">
        <time>1970-01-01T00:00:00+00:00</time>
        <ele>1830.0</ele>
      </trkpt>
      <trkpt lat="46.487475" lon="8.248403">
        <time>1970-01-01T00:00:00+00:00</time>
        <ele>1800.0</ele>
      </trkpt>
      <trkpt lat="46.488051" lon="8.247621">
        <time>1970-01-01T00:00:00+00:00</time>
        <ele>1851.0</ele>
      </trkpt>
      <trkpt lat="46.487447" lon="8.248055">
        <time>1970-01-01T00:00:00+00:00</time>
        <ele>1810.0</ele>
      </trkpt>
      <trkpt lat="46.487378" lon="8.247681">
        <time>1970-01-01T00:00:00+00:00</time>
        <ele>1821.0</ele>
      </trkpt>
      <trkpt lat="46.487793" lon="8.247106">
        <time>1970-01-01T00:00:00+00:00</time>
        <ele>1858.0</ele>
      </trkpt>
      <trkpt lat="46.48747" lon="8.247594">
        <time>1970-01-01T00:00:00+00:00</time>
        <ele>1828.0</ele>
      </trkpt>
      <trkpt lat="46.486814" lon="8.2472">
        <time>1970-01-01T00:00:00+00:00</time>
        <ele>1821.0</ele>
      </trkpt>
      <trkpt lat="46.4864" lon="8.247041">
        <time>1970-01-01T00:00:00+00:00</time>
        <ele>1812.0</ele>
      </trkpt>
      <trkpt lat="46.485871" lon="8.246644">
        <time>1970-01-01T00:00:00+00:00</time>
        <ele>1796.0</ele>
      </trkpt>
      <trkpt lat="46.486633" lon="8.246681">
        <time>1970-01-01T00:00:00+00:00</time>
        <ele>1831.0</ele>
      </trkpt>
      <trkpt lat="46.486353" lon="8.247055">
        <time>1970-01-01T00:00:00+00:00</time>
        <ele>1809.0</ele>
      </trkpt>
      <trkpt lat="46.487262" lon="8.246284">
        <time>1970-01-01T00:00:00+00:00</time>
        <ele>1860.0</ele>
      </trkpt>
      <trkpt lat="46.487119" lon="8.246662">
        <time>1970-01-01T00:00:00+00:00</time>
        <ele>1847.0</ele>
      </trkpt>
      <trkpt lat="46.486839" lon="8.246208">
        <time>1970-01-01T00:00:00+00:00</time>
        <ele>1849.0</ele>
      </trkpt>
      <trkpt lat="46.48681" lon="8.245964">
        <time>1970-01-01T00:00:00+00:00</time>
        <ele>1854.0</ele>
      </trkpt>
      <trkpt lat="46.486951" lon="8.245646">
        <time>1970-01-01T00:00:00+00:00</time>
        <ele>1868.0</ele>
      </trkpt>
      <trkpt lat="46.486293" lon="8.245797">
        <time>1970-01-01T00:00:00+00:00</time>
        <ele>1837.0</ele>
      </trkpt>
      <trkpt lat="46.486649" lon="8.245423">
        <time>1970-01-01T00:00:00+00:00</time>
        <ele>1855.0</ele>
      </trkpt>
      <trkpt lat="46.486902" lon="8.244957">
        <time>1970-01-01T00:00:00+00:00</time>
        <ele>1876.0</ele>
      </trkpt>
      <trkpt lat="46.486272" lon="8.245137">
        <time>1970-01-01T00:00:00+00:00</time>
        <ele>1847.0</ele>
      </trkpt>
      <trkpt lat="46.487099" lon="8.244181">
        <time>1970-01-01T00:00:00+00:00</time>
        <ele>1904.0</ele>
      </trkpt>
      <trkpt lat="46.487506" lon="8.2443">
        <time>1970-01-01T00:00:00+00:00</time>
        <ele>1924.0</ele>
      </trkpt>
      <trkpt lat="46.487034" lon="8.244064">
        <time>1970-01-01T00:00:00+00:00</time>
        <ele>1904.0</ele>
      </trkpt>
      <trkpt lat="46.486901" lon="8.243887">
        <time>1970-01-01T00:00:00+00:00</time>
        <ele>1900.0</ele>
      </trkpt>
      <trkpt lat="46.486975" lon="8.243501">
        <time>1970-01-01T00:00:00+00:00</time>
        <ele>1914.0</ele>
      </trkpt>
      <trkpt lat="46.486254" lon="8.243403">
        <time>1970-01-01T00:00:00+00:00</time>
        <ele>1885.0</ele>
      </trkpt>
      <trkpt lat="46.485746" lon="8.24319">
        <time>1970-01-01T00:00:00+00:00</time>
        <ele>1876.0</ele>
      </trkpt>
      <trkpt lat="46.485436" lon="8.242253">
        <time>1970-01-01T00:00:00+00:00</time>
        <ele>1881.0</ele>
      </trkpt>
      <trkpt lat="46.485083" lon="8.242819">
        <time>1970-01-01T00:00:00+00:00</time>
        <ele>1860.0</ele>
      </trkpt>
      <trkpt lat="46.485342" lon="8.242741">
        <time>1970-01-01T00:00:00+00:00</time>
        <ele>1870.0</ele>
      </trkpt>
      <trkpt lat="46.485782" lon="8.243032">
        <time>1970-01-01T00:00:00+00:00</time>
        <ele>1880.0</ele>
      </trkpt>
      <trkpt lat="46.486423" lon="8.242957">
        <time>1970-01-01T00:00:00+00:00</time>
        <ele>1898.0</ele>
      </trkpt>
      <trkpt lat="46.486297" lon="8.243295">
        <time>1970-01-01T00:00:00+00:00</time>
        <ele>1889.0</ele>
      </trkpt>
      <trkpt lat="46.486585" lon="8.244121">
        <time>1970-01-01T00:00:00+00:00</time>
        <ele>1879.0</ele>
      </trkpt>
      <trkpt lat="46.486991" lon="8.24314">
        <time>1970-01-01T00:00:00+00:00</time>
        <ele>1921.0</ele>
      </trkpt>
      <trkpt lat="46.486422" lon="8.242649">
        <time>1970-01-01T00:00:00+00:00</time>
        <ele>1903.0</ele>
      </trkpt>
      <trkpt lat="46.486428" lon="8.242849">
        <time>1970-01-01T00:00:00+00:00</time>
        <ele>1900.0</ele>
      </trkpt>
      <trkpt lat="46.485753" lon="8.24369">
        <time>1970-01-01T00:00:00+00:00</time>
        <ele>1863.0</ele>
      </trkpt>
      <trkpt lat="46.486183" lon="8.243393">
        <time>1970-01-01T00:00:00+00:00</time>
        <ele>1883.0</ele>
      </trkpt>
      <trkpt lat="46.486336" lon="8.243465">
        <time>1970-01-01T00:00:00+00:00</time>
        <ele>1886.0</ele>
      </trkpt>
      <trkpt lat="46.486718" lon="8.24326">
        <time>1970-01-01T00:00:00+00:00</time>
        <ele>1902.0</ele>
      </trkpt>
      <trkpt lat="46.48571" lon="8.245509">
        <time>1970-01-01T00:00:00+00:00</time>
        <ele>1821.0</ele>
      </trkpt>
      <trkpt lat="46.486005" lon="8.245893">
        <time>1970-01-01T00:00:00+00:00</time>
        <ele>1822.0</ele>
      </trkpt>
      <trkpt lat="46.486018" lon="8.246018">
        <time>1970-01-01T00:00:00+00:00</time>
        <ele>1818.0</ele>
      </trkpt>
      <trkpt lat="46.48633" lon="8.24628">
        <time>1970-01-01T00:00:00+00:00</time>
        <ele>1826.0</ele>
      </trkpt>
      <trkpt lat="46.48634" lon="8.24636">
        <time>1970-01-01T00:00:00+00:00</time>
        <ele>1825.0</ele>
      </trkpt>
      <trkpt lat="46.486616" lon="8.246358">
        <time>1970-01-01T00:00:00+00:00</time>
        <ele>1836.0</ele>
      </trkpt>
      <trkpt lat="46.486935" lon="8.246652">
        <time>1970-01-01T00:00:00+00:00</time>
        <ele>1842.0</ele>
      </trkpt>
      <trkpt lat="46.487037" lon="8.246911">
        <time>1970-01-01T00:00:00+00:00</time>
        <ele>1837.0</ele>
      </trkpt>
      <trkpt lat="46.487163" lon="8.246868">
        <time>1970-01-01T00:00:00+00:00</time>
        <ele>1842.0</ele>
      </trkpt>
      <trkpt lat="46.487354" lon="8.247139">
        <time>1970-01-01T00:00:00+00:00</time>
        <ele>1839.0</ele>
      </trkpt>
      <trkpt lat="46.48748" lon="8.247033">
        <time>1970-01-01T00:00:00+00:00</time>
        <ele>1850.0</ele>
      </trkpt>
      <trkpt lat="46.487489" lon="8.247147">
        <time>1970-01-01T00:00:00+00:00</time>
        <ele>1846.0</ele>
      </trkpt>
      <trkpt lat="46.487837" lon="8.247326">
        <time>1970-01-01T00:00:00+00:00</time>
        <ele>1852.0</ele>
      </trkpt>
      <trkpt lat="46.487839" lon="8.247453">
        <time>1970-01-01T00:00:00+00:00</time>
        <ele>1847.0</ele>
      </trkpt>
      <trkpt lat="46.487939" lon="8.247441">
        <time>1970-01-01T00:00:00+00:00</time>
        <ele>1852.0</ele>
      </trkpt>
      <trkpt lat="46.487986" lon="8.247336">
        <time>1970-01-01T00:00:00+00:00</time>
        <ele>1859.0</ele>
      </trkpt>
      <trkpt lat="46.487969" lon="8.247123">
        <time>1970-01-01T00:00:00+00:00</time>
        <ele>1864.0</ele>
      </trkpt>
      <trkpt lat="46.488455" lon="8.246853">
        <time>1970-01-01T00:00:00+00:00</time>
        <ele>1899.0</ele>
      </trkpt>
      <trkpt lat="46.488615" lon="8.246916">
        <time>1970-01-01T00:00:00+00:00</time>
        <ele>1909.0</ele>
      </trkpt>
      <trkpt lat="46.488272" lon="8.247335">
        <time>1970-01-01T00:00:00+00:00</time>
        <ele>1871.0</ele>
      </trkpt>
      <trkpt lat="46.48866" lon="8.247494">
        <time>1970-01-01T00:00:00+00:00</time>
        <ele>1891.0</ele>
      </trkpt>
      <trkpt lat="46.488565" lon="8.24779">
        <time>1970-01-01T00:00:00+00:00</time>
        <ele>1872.0</ele>
      </trkpt>
      <trkpt lat="46.488958" lon="8.248075">
        <time>1970-01-01T00:00:00+00:00</time>
        <ele>1888.0</ele>
      </trkpt>
      <trkpt lat="46.48903" lon="8.248236">
        <time>1970-01-01T00:00:00+00:00</time>
        <ele>1886.0</ele>
      </trkpt>
      <trkpt lat="46.489294" lon="8.248325">
        <time>1970-01-01T00:00:00+00:00</time>
        <ele>1893.0</ele>
      </trkpt>
      <trkpt lat="46.489306" lon="8.248384">
        <time>1970-01-01T00:00:00+00:00</time>
        <ele>1891.0</ele>
      </trkpt>
      <trkpt lat="46.489128" lon="8.248611">
        <time>1970-01-01T00:00:00+00:00</time>
        <ele>1875.0</ele>
      </trkpt>
      <trkpt lat="46.488491" lon="8.248874">
        <time>1970-01-01T00:00:00+00:00</time>
        <ele>1832.0</ele>
      </trkpt>
      <trkpt lat="46.489288" lon="8.249019">
        <time>1970-01-01T00:00:00+00:00</time>
        <ele>1867.0</ele>
      </trkpt>
      <trkpt lat="46.489803" lon="8.248917">
        <time>1970-01-01T00:00:00+00:00</time>
        <ele>1887.0</ele>
      </trkpt>
      <trkpt lat="46.490072" lon="8.248738">
        <time>1970-01-01T00:00:00+00:00</time>
        <ele>1902.0</ele>
      </trkpt>
      <trkpt lat="46.490339" lon="8.248787">
        <time>1970-01-01T00:00:00+00:00</time>
        <ele>1909.0</ele>
      </trkpt>
      <trkpt lat="46.490328" lon="8.248954">
        <time>1970-01-01T00:00:00+00:00</time>
        <ele>1903.0</ele>
      </trkpt>
      <trkpt lat="46.490517" lon="8.248871">
        <time>1970-01-01T00:00:00+00:00</time>
        <ele>1913.0</ele>
      </trkpt>
      <trkpt lat="46.490475" lon="8.248796">
        <time>1970-01-01T00:00:00+00:00</time>
        <ele>1914.0</ele>
      </trkpt>
      <trkpt lat="46.490242" lon="8.249257">
        <time>1970-01-01T00:00:00+00:00</time>
        <ele>1885.0</ele>
      </trkpt>
      <trkpt lat="46.489799" lon="8.249443">
        <time>1970-01-01T00:00:00+00:00</time>
        <ele>1858.0</ele>
      </trkpt>
      <trkpt lat="46.491531" lon="8.248749">
        <time>1970-01-01T00:00:00+00:00</time>
        <ele>1919.0</ele>
      </trkpt>
      <trkpt lat="46.491742" lon="8.248591">
        <time>1970-01-01T00:00:00+00:00</time>
        <ele>1919.0</ele>
      </trkpt>
      <trkpt lat="46.491524" lon="8.248898">
        <time>1970-01-01T00:00:00+00:00</time>
        <ele>1915.0</ele>
      </trkpt>
      <trkpt lat="46.491852" lon="8.24888">
        <time>1970-01-01T00:00:00+00:00</time>
        <ele>1910.0</ele>
      </trkpt>
      <trkpt lat="46.492161" lon="8.248192">
        <time>1970-01-01T00:00:00+00:00</time>
        <ele>1905.0</ele>
      </trkpt>
      <trkpt lat="46.491934" lon="8.248641">
        <time>1970-01-01T00:00:00+00:00</time>
        <ele>1914.0</ele>
      </trkpt>
      <trkpt lat="46.492118" lon="8.248297">
        <time>1970-01-01T00:00:00+00:00</time>
        <ele>1909.0</ele>
      </trkpt>
      <trkpt lat="46.492151" lon="8.248151">
        <time>1970-01-01T00:00:00+00:00</time>
        <ele>1906.0</ele>
      </trkpt>
      <trkpt lat="46.492103" lon="8.248081">
        <time>1970-01-01T00:00:00+00:00</time>
        <ele>1909.0</ele>
      </trkpt>
      <trkpt lat="46.492308" lon="8.247963">
        <time>1970-01-01T00:00:00+00:00</time>
        <ele>1890.0</ele>
      </trkpt>
      <trkpt lat="46.492736" lon="8.247402">
        <time>1970-01-01T00:00:00+00:00</time>
        <ele>1907.0</ele>
      </trkpt>
      <trkpt lat="46.492292" lon="8.247787">
        <time>1970-01-01T00:00:00+00:00</time>
        <ele>1892.0</ele>
      </trkpt>
      <trkpt lat="46.49186" lon="8.247982">
        <time>1970-01-01T00:00:00+00:00</time>
        <ele>1925.0</ele>
      </trkpt>
      <trkpt lat="46.491617" lon="8.24827">
        <time>1970-01-01T00:00:00+00:00</time>
        <ele>1931.0</ele>
      </trkpt>
      <trkpt lat="46.491819" lon="8.247508">
        <time>1970-01-01T00:00:00+00:00</time>
        <ele>1928.0</ele>
      </trkpt>
      <trkpt lat="46.491653" lon="8.247706">
        <time>1970-01-01T00:00:00+00:00</time>
        <ele>1937.0</ele>
      </trkpt>
      <trkpt lat="46.491472" lon="8.248101">
        <time>1970-01-01T00:00:00+00:00</time>
        <ele>1938.0</ele>
      </trkpt>
      <trkpt lat="46.492047" lon="8.247701">
        <time>1970-01-01T00:00:00+00:00</time>
        <ele>1912.0</ele>
      </trkpt>
      <trkpt lat="46.4917" lon="8.247823">
        <time>1970-01-01T00:00:00+00:00</time>
        <ele>1934.0</ele>
      </trkpt>
      <trkpt lat="46.491487" lon="8.248008">
        <time>1970-01-01T00:00:00+00:00</time>
        <ele>1939.0</ele>
      </trkpt>
      <trkpt lat="46.491728" lon="8.24722">
        <time>1970-01-01T00:00:00+00:00</time>
        <ele>1933.0</ele>
      </trkpt>
      <trkpt lat="46.491499" lon="8.247492">
        <time>1970-01-01T00:00:00+00:00</time>
        <ele>1946.0</ele>
      </trkpt>
      <trkpt lat="46.491631" lon="8.246769">
        <time>1970-01-01T00:00:00+00:00</time>
        <ele>1942.0</ele>
      </trkpt>
      <trkpt lat="46.491576" lon="8.246842">
        <time>1970-01-01T00:00:00+00:00</time>
        <ele>1945.0</ele>
      </trkpt>
      <trkpt lat="46.491385" lon="8.246807">
        <time>1970-01-01T00:00:00+00:00</time>
        <ele>1960.0</ele>
      </trkpt>
      <trkpt lat="46.491071" lon="8.246888">
        <time>1970-01-01T00:00:00+00:00</time>
        <ele>1975.0</ele>
      </trkpt>
      <trkpt lat="46.491247" lon="8.246899">
        <time>1970-01-01T00:00:00+00:00</time>
        <ele>1966.0</ele>
      </trkpt>
      <trkpt lat="46.491254" lon="8.246627">
        <time>1970-01-01T00:00:00+00:00</time>
        <ele>1970.0</ele>
      </trkpt>
      <trkpt lat="46.491314" lon="8.246505">
        <time>1970-01-01T00:00:00+00:00</time>
        <ele>1968.0</ele>
      </trkpt>
      <trkpt lat="46.491309" lon="8.246426">
        <time>1970-01-01T00:00:00+00:00</time>
        <ele>1969.0</ele>
      </trkpt>
      <trkpt lat="46.491284" lon="8.24661">
        <time>1970-01-01T00:00:00+00:00</time>
        <ele>1968.0</ele>
      </trkpt>
      <trkpt lat="46.491253" lon="8.246531">
        <time>1970-01-01T00:00:00+00:00</time>
        <ele>1971.0</ele>
      </trkpt>
      <trkpt lat="46.491211" lon="8.246643">
        <time>1970-01-01T00:00:00+00:00</time>
        <ele>1972.0</ele>
      </trkpt>
      <trkpt lat="46.491239" lon="8.245914">
        <time>1970-01-01T00:00:00+00:00</time>
        <ele>1985.0</ele>
      </trkpt>
      <trkpt lat="46.489718" lon="8.246438">
        <time>1970-01-01T00:00:00+00:00</time>
        <ele>2004.0</ele>
      </trkpt>
      <trkpt lat="46.49092" lon="8.246154">
        <time>1970-01-01T00:00:00+00:00</time>
        <ele>1997.0</ele>
      </trkpt>
      <trkpt lat="46.490775" lon="8.246148">
        <time>1970-01-01T00:00:00+00:00</time>
        <ele>2003.0</ele>
      </trkpt>
      <trkpt lat="46.490782" lon="8.24607">
        <time>1970-01-01T00:00:00+00:00</time>
        <ele>2005.0</ele>
      </trkpt>
      <trkpt lat="46.490464" lon="8.246661">
        <time>1970-01-01T00:00:00+00:00</time>
        <ele>1999.0</ele>
      </trkpt>
      <trkpt lat="46.489547" lon="8.247177">
        <time>1970-01-01T00:00:00+00:00</time>
        <ele>1959.0</ele>
      </trkpt>
      <trkpt lat="46.490455" lon="8.246914">
        <time>1970-01-01T00:00:00+00:00</time>
        <ele>1990.0</ele>
      </trkpt>
      <trkpt lat="46.491191" lon="8.246158">
        <time>1970-01-01T00:00:00+00:00</time>
        <ele>1980.0</ele>
      </trkpt>
      <trkpt lat="46.49093" lon="8.24602">
        <time>1970-01-01T00:00:00+00:00</time>
        <ele>2001.0</ele>
      </trkpt>
      <trkpt lat="46.490999" lon="8.245924">
        <time>1970-01-01T00:00:00+00:00</time>
        <ele>2000.0</ele>
      </trkpt>
      <trkpt lat="46.491049" lon="8.245603">
        <time>1970-01-01T00:00:00+00:00</time>
        <ele>2006.0</ele>
      </trkpt>
      <trkpt lat="46.491124" lon="8.245455">
        <time>1970-01-01T00:00:00+00:00</time>
        <ele>2004.0</ele>
      </trkpt>
      <trkpt lat="46.491054" lon="8.245504">
        <time>1970-01-01T00:00:00+00:00</time>
        <ele>2008.0</ele>
      </trkpt>
      <trkpt lat="46.491157" lon="8.245654">
        <time>1970-01-01T00:00:00+00:00</time>
        <ele>1998.0</ele>
      </trkpt>
      <trkpt lat="46.491601" lon="8.245663">
        <time>1970-01-01T00:00:00+00:00</time>
        <ele>1978.0</ele>
      </trkpt>
      <trkpt lat="46.490677" lon="8.245998">
        <time>1970-01-01T00:00:00+00:00</time>
        <ele>2010.0</ele>
      </trkpt>
      <trkpt lat="46.490913" lon="8.246191">
        <time>1970-01-01T00:00:00+00:00</time>
        <ele>1997.0</ele>
      </trkpt>
      <trkpt lat="46.491045" lon="8.246172">
        <time>1970-01-01T00:00:00+00:00</time>
        <ele>1990.0</ele>
      </trkpt>
      <trkpt lat="46.491207" lon="8.246101">
        <time>1970-01-01T00:00:00+00:00</time>
        <ele>1981.0</ele>
      </trkpt>
      <trkpt lat="46.490755" lon="8.24606">
        <time>1970-01-01T00:00:00+00:00</time>
        <ele>2006.0</ele>
      </trkpt>
      <trkpt lat="46.490977" lon="8.246195">
        <time>1970-01-01T00:00:00+00:00</time>
        <ele>1993.0</ele>
      </trkpt>
      <trkpt lat="46.491201" lon="8.245822">
        <time>1970-01-01T00:00:00+00:00</time>
        <ele>1990.0</ele>
      </trkpt>
      <trkpt lat="46.490539" lon="8.246478">
        <time>1970-01-01T00:00:00+00:00</time>
        <ele>2002.0</ele>
      </trkpt>
      <trkpt lat="46.490892" lon="8.24648">
        <time>1970-01-01T00:00:00+00:00</time>
        <ele>1991.0</ele>
      </trkpt>
      <trkpt lat="46.49112" lon="8.246268">
        <time>1970-01-01T00:00:00+00:00</time>
        <ele>1982.0</ele>
      </trkpt>
      <trkpt lat="46.490897" lon="8.246303">
        <time>1970-01-01T00:00:00+00:00</time>
        <ele>1994.0</ele>
      </trkpt>
      <trkpt lat="46.491041" lon="8.246438">
        <time>1970-01-01T00:00:00+00:00</time>
        <ele>1984.0</ele>
      </trkpt>
      <trkpt lat="46.491156" lon="8.2464">
        <time>1970-01-01T00:00:00+00:00</time>
        <ele>1977.0</ele>
      </trkpt>
      <trkpt lat="46.491597" lon="8.246108">
        <time>1970-01-01T00:00:00+00:00</time>
        <ele>1960.0</ele>
      </trkpt>
      <trkpt lat="46.491215" lon="8.2468">
        <time>1970-01-01T00:00:00+00:00</time>
        <ele>1970.0</ele>
      </trkpt>
      <trkpt lat="46.490683" lon="8.245067">
        <time>1970-01-01T00:00:00+00:00</time>
        <ele>2032.0</ele>
      </trkpt>
      <trkpt lat="46.490425" lon="8.245756">
        <time>1970-01-01T00:00:00+00:00</time>
        <ele>2028.0</ele>
      </trkpt>
      <trkpt lat="46.490443" lon="8.245632">
        <time>1970-01-01T00:00:00+00:00</time>
        <ele>2030.0</ele>
      </trkpt>
      <trkpt lat="46.49028" lon="8.245648">
        <time>1970-01-01T00:00:00+00:00</time>
        <ele>2035.0</ele>
      </trkpt>
      <trkpt lat="46.490055" lon="8.246521">
        <time>1970-01-01T00:00:00+00:00</time>
        <ele>2008.0</ele>
      </trkpt>
      <trkpt lat="46.490093" lon="8.246463">
        <time>1970-01-01T00:00:00+00:00</time>
        <ele>2010.0</ele>
      </trkpt>
      <trkpt lat="46.490214" lon="8.247099">
        <time>1970-01-01T00:00:00+00:00</time>
        <ele>1982.0</ele>
      </trkpt>
      <trkpt lat="46.490606" lon="8.246053">
        <time>1970-01-01T00:00:00+00:00</time>
        <ele>2011.0</ele>
      </trkpt>
      <trkpt lat="46.490327" lon="8.245947">
        <time>1970-01-01T00:00:00+00:00</time>
        <ele>2025.0</ele>
      </trkpt>
      <trkpt lat="46.490463" lon="8.246347">
        <time>1970-01-01T00:00:00+00:00</time>
        <ele>2006.0</ele>
      </trkpt>
      <trkpt lat="46.490285" lon="8.246772">
        <time>1970-01-01T00:00:00+00:00</time>
        <ele>1998.0</ele>
      </trkpt>
      <trkpt lat="46.490253" lon="8.246971">
        <time>1970-01-01T00:00:00+00:00</time>
        <ele>1989.0</ele>
      </trkpt>
      <trkpt lat="46.490395" lon="8.246186">
        <time>1970-01-01T00:00:00+00:00</time>
        <ele>2013.0</ele>
      </trkpt>
      <trkpt lat="46.49085" lon="8.246496">
        <time>1970-01-01T00:00:00+00:00</time>
        <ele>1993.0</ele>
      </trkpt>
      <trkpt lat="46.491051" lon="8.246352">
        <time>1970-01-01T00:00:00+00:00</time>
        <ele>1985.0</ele>
      </trkpt>
      <trkpt lat="46.490322" lon="8.246279">
        <time>1970-01-01T00:00:00+00:00</time>
        <ele>2012.0</ele>
      </trkpt>
      <trkpt lat="46.490231" lon="8.246339">
        <time>1970-01-01T00:00:00+00:00</time>
        <ele>2011.0</ele>
      </trkpt>
      <trkpt lat="46.48973" lon="8.245891">
        <time>1970-01-01T00:00:00+00:00</time>
        <ele>2024.0</ele>
      </trkpt>
      <trkpt lat="46.489908" lon="8.246008">
        <time>1970-01-01T00:00:00+00:00</time>
        <ele>2024.0</ele>
      </trkpt>
      <trkpt lat="46.489892" lon="8.246344">
        <time>1970-01-01T00:00:00+00:00</time>
        <ele>2010.0</ele>
      </trkpt>
      <trkpt lat="46.489855" lon="8.246366">
        <time>1970-01-01T00:00:00+00:00</time>
        <ele>2009.0</ele>
      </trkpt>
      <trkpt lat="46.49017" lon="8.246886">
        <time>1970-01-01T00:00:00+00:00</time>
        <ele>1994.0</ele>
      </trkpt>
      <trkpt lat="46.489884" lon="8.246511">
        <time>1970-01-01T00:00:00+00:00</time>
        <ele>2006.0</ele>
      </trkpt>
      <trkpt lat="46.489906" lon="8.24622">
        <time>1970-01-01T00:00:00+00:00</time>
        <ele>2015.0</ele>
      </trkpt>
      <trkpt lat="46.489913" lon="8.24661">
        <time>1970-01-01T00:00:00+00:00</time>
        <ele>2003.0</ele>
      </trkpt>
      <trkpt lat="46.489854" lon="8.246571">
        <time>1970-01-01T00:00:00+00:00</time>
        <ele>2004.0</ele>
      </trkpt>
      <trkpt lat="46.489949" lon="8.246264">
        <time>1970-01-01T00:00:00+00:00</time>
        <ele>2014.0</ele>
      </trkpt>
      <trkpt lat="46.489824" lon="8.245925">
        <time>1970-01-01T00:00:00+00:00</time>
        <ele>2025.0</ele>
      </trkpt>
      <trkpt lat="46.489631" lon="8.24581">
        <time>1970-01-01T00:00:00+00:00</time>
        <ele>2023.0</ele>
      </trkpt>
      <trkpt lat="46.489865" lon="8.24556">
        <time>1970-01-01T00:00:00+00:00</time>
        <ele>2038.0</ele>
      </trkpt>
      <trkpt lat="46.489972" lon="8.246001">
        <time>1970-01-01T00:00:00+00:00</time>
        <ele>2025.0</ele>
      </trkpt>
      <trkpt lat="46.490158" lon="8.246419">
        <time>1970-01-01T00:00:00+00:00</time>
        <ele>2010.0</ele>
      </trkpt>
      <trkpt lat="46.489626" lon="8.247982">
        <time>1970-01-01T00:00:00+00:00</time>
        <ele>1915.0</ele>
      </trkpt>
      <trkpt lat="46.490411" lon="8.246296">
        <time>1970-01-01T00:00:00+00:00</time>
        <ele>2009.0</ele>
      </trkpt>
      <trkpt lat="46.490208" lon="8.246079">
        <time>1970-01-01T00:00:00+00:00</time>
        <ele>2021.0</ele>
      </trkpt>
      <trkpt lat="46.490007" lon="8.245287">
        <time>1970-01-01T00:00:00+00:00</time>
        <ele>2046.0</ele>
      </trkpt>
      <trkpt lat="46.490844" lon="8.244982">
        <time>1970-01-01T00:00:00+00:00</time>
        <ele>2029.0</ele>
      </trkpt>
      <trkpt lat="46.490338" lon="8.244837">
        <time>1970-01-01T00:00:00+00:00</time>
        <ele>2050.0</ele>
      </trkpt>
      <trkpt lat="46.489551" lon="8.244801">
        <time>1970-01-01T00:00:00+00:00</time>
        <ele>2052.0</ele>
      </trkpt>
      <trkpt lat="46.489407" lon="8.244708">
        <time>1970-01-01T00:00:00+00:00</time>
        <ele>2044.0</ele>
      </trkpt>
      <trkpt lat="46.489481" lon="8.245024">
        <time>1970-01-01T00:00:00+00:00</time>
        <ele>2041.0</ele>
      </trkpt>
      <trkpt lat="46.48951" lon="8.244894">
        <time>1970-01-01T00:00:00+00:00</time>
        <ele>2047.0</ele>
      </trkpt>
      <trkpt lat="46.488284" lon="8.244383">
        <time>1970-01-01T00:00:00+00:00</time>
        <ele>1978.0</ele>
      </trkpt>
      <trkpt lat="46.488697" lon="8.244603">
        <time>1970-01-01T00:00:00+00:00</time>
        <ele>2000.0</ele>
      </trkpt>
      <trkpt lat="46.489335" lon="8.245125">
        <time>1970-01-01T00:00:00+00:00</time>
        <ele>2026.0</ele>
      </trkpt>
      <trkpt lat="46.490006" lon="8.244085">
        <time>1970-01-01T00:00:00+00:00</time>
        <ele>2071.0</ele>
      </trkpt>
      <trkpt lat="46.49055" lon="8.243029">
        <time>1970-01-01T00:00:00+00:00</time>
        <ele>2079.0</ele>
      </trkpt>
      <trkpt lat="46.490671" lon="8.242956">
        <time>1970-01-01T00:00:00+00:00</time>
        <ele>2077.0</ele>
      </trkpt>
      <trkpt lat="46.490324" lon="8.243345">
        <time>1970-01-01T00:00:00+00:00</time>
        <ele>2079.0</ele>
      </trkpt>
      <trkpt lat="46.489949" lon="8.243357">
        <time>1970-01-01T00:00:00+00:00</time>
        <ele>2086.0</ele>
      </trkpt>
      <trkpt lat="46.490251" lon="8.243995">
        <time>1970-01-01T00:00:00+00:00</time>
        <ele>2067.0</ele>
      </trkpt>
      <trkpt lat="46.490282" lon="8.243857">
        <time>1970-01-01T00:00:00+00:00</time>
        <ele>2069.0</ele>
      </trkpt>
      <trkpt lat="46.490197" lon="8.24365">
        <time>1970-01-01T00:00:00+00:00</time>
        <ele>2075.0</ele>
      </trkpt>
      <trkpt lat="46.48973" lon="8.243513">
        <time>1970-01-01T00:00:00+00:00</time>
        <ele>2087.0</ele>
      </trkpt>
      <trkpt lat="46.489561" lon="8.243413">
        <time>1970-01-01T00:00:00+00:00</time>
        <ele>2090.0</ele>
      </trkpt>
      <trkpt lat="46.489372" lon="8.24313">
        <time>1970-01-01T00:00:00+00:00</time>
        <ele>2094.0</ele>
      </trkpt>
      <trkpt lat="46.489239" lon="8.243136">
        <time>1970-01-01T00:00:00+00:00</time>
        <ele>2088.0</ele>
      </trkpt>
      <trkpt lat="46.48932" lon="8.242855">
        <time>1970-01-01T00:00:00+00:00</time>
        <ele>2098.0</ele>
      </trkpt>
      <trkpt lat="46.489391" lon="8.242812">
        <time>1970-01-01T00:00:00+00:00</time>
        <ele>2101.0</ele>
      </trkpt>
      <trkpt lat="46.489379" lon="8.242866">
        <time>1970-01-01T00:00:00+00:00</time>
        <ele>2100.0</ele>
      </trkpt>
      <trkpt lat="46.489322" lon="8.242847">
        <time>1970-01-01T00:00:00+00:00</time>
        <ele>2098.0</ele>
      </trkpt>
      <trkpt lat="46.489476" lon="8.242747">
        <time>1970-01-01T00:00:00+00:00</time>
        <ele>2104.0</ele>
      </trkpt>
      <trkpt lat="46.489473" lon="8.24257">
        <time>1970-01-01T00:00:00+00:00</time>
        <ele>2108.0</ele>
      </trkpt>
      <trkpt lat="46.489348" lon="8.242716">
        <time>1970-01-01T00:00:00+00:00</time>
        <ele>2103.0</ele>
      </trkpt>
      <trkpt lat="46.48946" lon="8.242728">
        <time>1970-01-01T00:00:00+00:00</time>
        <ele>2104.0</ele>
      </trkpt>
      <trkpt lat="46.4895" lon="8.242818">
        <time>1970-01-01T00:00:00+00:00</time>
        <ele>2103.0</ele>
      </trkpt>
      <trkpt lat="46.489504" lon="8.242747">
        <time>1970-01-01T00:00:00+00:00</time>
        <ele>2105.0</ele>
      </trkpt>
      <trkpt lat="46.489397" lon="8.242754">
        <time>1970-01-01T00:00:00+00:00</time>
        <ele>2103.0</ele>
      </trkpt>
      <trkpt lat="46.489615" lon="8.242891">
        <time>1970-01-01T00:00:00+00:00</time>
        <ele>2101.0</ele>
      </trkpt>
      <trkpt lat="46.48952" lon="8.242713">
        <time>1970-01-01T00:00:00+00:00</time>
        <ele>2105.0</ele>
      </trkpt>
      <trkpt lat="46.489453" lon="8.242805">
        <time>1970-01-01T00:00:00+00:00</time>
        <ele>2102.0</ele>
      </trkpt>
      <trkpt lat="46.489396" lon="8.242769">
        <time>1970-01-01T00:00:00+00:00</time>
        <ele>2102.0</ele>
      </trkpt>
      <trkpt lat="46.489516" lon="8.242629">
        <time>1970-01-01T00:00:00+00:00</time>
        <ele>2107.0</ele>
      </trkpt>
      <trkpt lat="46.489386" lon="8.242741">
        <time>1970-01-01T00:00:00+00:00</time>
        <ele>2103.0</ele>
      </trkpt>
      <trkpt lat="46.489481" lon="8.24277">
        <time>1970-01-01T00:00:00+00:00</time>
        <ele>2104.0</ele>
      </trkpt>
      <trkpt lat="46.489284" lon="8.242875">
        <time>1970-01-01T00:00:00+00:00</time>
        <ele>2097.0</ele>
      </trkpt>
      <trkpt lat="46.489293" lon="8.242633">
        <time>1970-01-01T00:00:00+00:00</time>
        <ele>2103.0</ele>
      </trkpt>
      <trkpt lat="46.489389" lon="8.242817">
        <time>1970-01-01T00:00:00+00:00</time>
        <ele>2101.0</ele>
      </trkpt>
      <trkpt lat="46.489431" lon="8.24279">
        <time>1970-01-01T00:00:00+00:00</time>
        <ele>2102.0</ele>
      </trkpt>
      <trkpt lat="46.489297" lon="8.242695">
        <time>1970-01-01T00:00:00+00:00</time>
        <ele>2101.0</ele>
      </trkpt>
      <trkpt lat="46.489248" lon="8.242444">
        <time>1970-01-01T00:00:00+00:00</time>
        <ele>2106.0</ele>
      </trkpt>
      <trkpt lat="46.489228" lon="8.242848">
        <time>1970-01-01T00:00:00+00:00</time>
        <ele>2095.0</ele>
      </trkpt>
      <trkpt lat="46.489224" lon="8.242582">
        <time>1970-01-01T00:00:00+00:00</time>
        <ele>2101.0</ele>
      </trkpt>
      <trkpt lat="46.48927" lon="8.242545">
        <time>1970-01-01T00:00:00+00:00</time>
        <ele>2104.0</ele>
      </trkpt>
      <trkpt lat="46.489256" lon="8.24278">
        <time>1970-01-01T00:00:00+00:00</time>
        <ele>2098.0</ele>
      </trkpt>
      <trkpt lat="46.489232" lon="8.242834">
        <time>1970-01-01T00:00:00+00:00</time>
        <ele>2096.0</ele>
      </trkpt>
      <trkpt lat="46.489185" lon="8.242771">
        <time>1970-01-01T00:00:00+00:00</time>
        <ele>2096.0</ele>
      </trkpt>
      <trkpt lat="46.489167" lon="8.242933">
        <time>1970-01-01T00:00:00+00:00</time>
        <ele>2090.0</ele>
      </trkpt>
      <trkpt lat="46.489227" lon="8.242015">
        <time>1970-01-01T00:00:00+00:00</time>
        <ele>2116.0</ele>
      </trkpt>
      <trkpt lat="46.48927" lon="8.242769">
        <time>1970-01-01T00:00:00+00:00</time>
        <ele>2099.0</ele>
      </trkpt>
      <trkpt lat="46.489186" lon="8.242741">
        <time>1970-01-01T00:00:00+00:00</time>
        <ele>2096.0</ele>
      </trkpt>
      <trkpt lat="46.48918" lon="8.242613">
        <time>1970-01-01T00:00:00+00:00</time>
        <ele>2099.0</ele>
      </trkpt>
      <trkpt lat="46.489227" lon="8.24286">
        <time>1970-01-01T00:00:00+00:00</time>
        <ele>2095.0</ele>
      </trkpt>
      <trkpt lat="46.48931" lon="8.243005">
        <time>1970-01-01T00:00:00+00:00</time>
        <ele>2094.0</ele>
      </trkpt>
      <trkpt lat="46.48929" lon="8.242933">
        <time>1970-01-01T00:00:00+00:00</time>
        <ele>2095.0</ele>
      </trkpt>
      <trkpt lat="46.489351" lon="8.242851">
        <time>1970-01-01T00:00:00+00:00</time>
        <ele>2099.0</ele>
      </trkpt>
      <trkpt lat="46.489342" lon="8.242918">
        <time>1970-01-01T00:00:00+00:00</time>
        <ele>2098.0</ele>
      </trkpt>
      <trkpt lat="46.489434" lon="8.242955">
        <time>1970-01-01T00:00:00+00:00</time>
        <ele>2099.0</ele>
      </trkpt>
      <trkpt lat="46.489472" lon="8.242819">
        <time>1970-01-01T00:00:00+00:00</time>
        <ele>2102.0</ele>
      </trkpt>
      <trkpt lat="46.48944" lon="8.242624">
        <time>1970-01-01T00:00:00+00:00</time>
        <ele>2106.0</ele>
      </trkpt>
      <trkpt lat="46.489631" lon="8.242403">
        <time>1970-01-01T00:00:00+00:00</time>
        <ele>2112.0</ele>
      </trkpt>
      <trkpt lat="46.489594" lon="8.242065">
        <time>1970-01-01T00:00:00+00:00</time>
        <ele>2121.0</ele>
      </trkpt>
      <trkpt lat="46.489623" lon="8.241775">
        <time>1970-01-01T00:00:00+00:00</time>
        <ele>2126.0</ele>
      </trkpt>
      <trkpt lat="46.489701" lon="8.241657">
        <time>1970-01-01T00:00:00+00:00</time>
        <ele>2127.0</ele>
      </trkpt>
      <trkpt lat="46.489674" lon="8.241321">
        <time>1970-01-01T00:00:00+00:00</time>
        <ele>2136.0</ele>
      </trkpt>
      <trkpt lat="46.489766" lon="8.241182">
        <time>1970-01-01T00:00:00+00:00</time>
        <ele>2138.0</ele>
      </trkpt>
      <trkpt lat="46.489722" lon="8.240436">
        <time>1970-01-01T00:00:00+00:00</time>
        <ele>2152.0</ele>
      </trkpt>
      <trkpt lat="46.489738" lon="8.240318">
        <time>1970-01-01T00:00:00+00:00</time>
        <ele>2154.0</ele>
      </trkpt>
      <trkpt lat="46.48985" lon="8.240347">
        <time>1970-01-01T00:00:00+00:00</time>
        <ele>2152.0</ele>
      </trkpt>
      <trkpt lat="46.48975" lon="8.239511">
        <time>1970-01-01T00:00:00+00:00</time>
        <ele>2167.0</ele>
      </trkpt>
      <trkpt lat="46.489773" lon="8.23879">
        <time>1970-01-01T00:00:00+00:00</time>
        <ele>2182.0</ele>
      </trkpt>
      <trkpt lat="46.489816" lon="8.238562">
        <time>1970-01-01T00:00:00+00:00</time>
        <ele>2185.0</ele>
      </trkpt>
      <trkpt lat="46.489924" lon="8.238656">
        <time>1970-01-01T00:00:00+00:00</time>
        <ele>2183.0</ele>
      </trkpt>
      <trkpt lat="46.489798" lon="8.238396">
        <time>1970-01-01T00:00:00+00:00</time>
        <ele>2188.0</ele>
      </trkpt>
      <trkpt lat="46.489852" lon="8.238431">
        <time>1970-01-01T00:00:00+00:00</time>
        <ele>2187.0</ele>
      </trkpt>
      <trkpt lat="46.489964" lon="8.238082">
        <time>1970-01-01T00:00:00+00:00</time>
        <ele>2196.0</ele>
      </trkpt>
      <trkpt lat="46.489937" lon="8.237957">
        <time>1970-01-01T00:00:00+00:00</time>
        <ele>2200.0</ele>
      </trkpt>
      <trkpt lat="46.489975" lon="8.238078">
        <time>1970-01-01T00:00:00+00:00</time>
        <ele>2196.0</ele>
      </trkpt>
      <trkpt lat="46.49" lon="8.237927">
        <time>1970-01-01T00:00:00+00:00</time>
        <ele>2201.0</ele>
      </trkpt>
      <trkpt lat="46.490098" lon="8.237912">
        <time>1970-01-01T00:00:00+00:00</time>
        <ele>2202.0</ele>
      </trkpt>
      <trkpt lat="46.490147" lon="8.237764">
        <time>1970-01-01T00:00:00+00:00</time>
        <ele>2207.0</ele>
      </trkpt>
      <trkpt lat="46.490099" lon="8.237663">
        <time>1970-01-01T00:00:00+00:00</time>
        <ele>2209.0</ele>
      </trkpt>
      <trkpt lat="46.490228" lon="8.237718">
        <time>1970-01-01T00:00:00+00:00</time>
        <ele>2209.0</ele>
      </trkpt>
      <trkpt lat="46.49011" lon="8.237497">
        <time>1970-01-01T00:00:00+00:00</time>
        <ele>2215.0</ele>
      </trkpt>
      <trkpt lat="46.490247" lon="8.237589">
        <time>1970-01-01T00:00:00+00:00</time>
        <ele>2213.0</ele>
      </trkpt>
      <trkpt lat="46.490228" lon="8.237287">
        <time>1970-01-01T00:00:00+00:00</time>
        <ele>2223.0</ele>
      </trkpt>
      <trkpt lat="46.490256" lon="8.237179">
        <time>1970-01-01T00:00:00+00:00</time>
        <ele>2227.0</ele>
      </trkpt>
      <trkpt lat="46.490323" lon="8.23724">
        <time>1970-01-01T00:00:00+00:00</time>
        <ele>2226.0</ele>
      </trkpt>
      <trkpt lat="46.490247" lon="8.236541">
        <time>1970-01-01T00:00:00+00:00</time>
        <ele>2243.0</ele>
      </trkpt>
      <trkpt lat="46.489965" lon="8.236245">
        <time>1970-01-01T00:00:00+00:00</time>
        <ele>2249.0</ele>
      </trkpt>
      <trkpt lat="46.489994" lon="8.235998">
        <time>1970-01-01T00:00:00+00:00</time>
        <ele>2257.0</ele>
      </trkpt>
      <trkpt lat="46.489946" lon="8.235941">
        <time>1970-01-01T00:00:00+00:00</time>
        <ele>2258.0</ele>
      </trkpt>
      <trkpt lat="46.48999" lon="8.235827">
        <time>1970-01-01T00:00:00+00:00</time>
        <ele>2261.0</ele>
      </trkpt>
      <trkpt lat="46.490089" lon="8.23583">
        <time>1970-01-01T00:00:00+00:00</time>
        <ele>2261.0</ele>
      </trkpt>
      <trkpt lat="46.490432" lon="8.236002">
        <time>1970-01-01T00:00:00+00:00</time>
        <ele>2259.0</ele>
      </trkpt>
      <trkpt lat="46.490343" lon="8.23583">
        <time>1970-01-01T00:00:00+00:00</time>
        <ele>2263.0</ele>
      </trkpt>
      <trkpt lat="46.490296" lon="8.235569">
        <time>1970-01-01T00:00:00+00:00</time>
        <ele>2268.0</ele>
      </trkpt>
      <trkpt lat="46.490351" lon="8.235432">
        <time>1970-01-01T00:00:00+00:00</time>
        <ele>2270.0</ele>
      </trkpt>
      <trkpt lat="46.490478" lon="8.235325">
        <time>1970-01-01T00:00:00+00:00</time>
        <ele>2271.0</ele>
      </trkpt>
      <trkpt lat="46.490438" lon="8.235531">
        <time>1970-01-01T00:00:00+00:00</time>
        <ele>2268.0</ele>
      </trkpt>
      <trkpt lat="46.490408" lon="8.235118">
        <time>1970-01-01T00:00:00+00:00</time>
        <ele>2275.0</ele>
      </trkpt>
      <trkpt lat="46.490445" lon="8.235034">
        <time>1970-01-01T00:00:00+00:00</time>
        <ele>2276.0</ele>
      </trkpt>
      <trkpt lat="46.490675" lon="8.235077">
        <time>1970-01-01T00:00:00+00:00</time>
        <ele>2275.0</ele>
      </trkpt>
      <trkpt lat="46.490857" lon="8.235251">
        <time>1970-01-01T00:00:00+00:00</time>
        <ele>2274.0</ele>
      </trkpt>
      <trkpt lat="46.490958" lon="8.23407">
        <time>1970-01-01T00:00:00+00:00</time>
        <ele>2299.0</ele>
      </trkpt>
      <trkpt lat="46.490873" lon="8.234407">
        <time>1970-01-01T00:00:00+00:00</time>
        <ele>2289.0</ele>
      </trkpt>
      <trkpt lat="46.491137" lon="8.233846">
        <time>1970-01-01T00:00:00+00:00</time>
        <ele>2307.0</ele>
      </trkpt>
      <trkpt lat="46.491175" lon="8.234355">
        <time>1970-01-01T00:00:00+00:00</time>
        <ele>2297.0</ele>
      </trkpt>
      <trkpt lat="46.491123" lon="8.234201">
        <time>1970-01-01T00:00:00+00:00</time>
        <ele>2299.0</ele>
      </trkpt>
      <trkpt lat="46.490996" lon="8.234099">
        <time>1970-01-01T00:00:00+00:00</time>
        <ele>2299.0</ele>
      </trkpt>
      <trkpt lat="46.491097" lon="8.234223">
        <time>1970-01-01T00:00:00+00:00</time>
        <ele>2298.0</ele>
      </trkpt>
      <trkpt lat="46.490707" lon="8.234066">
        <time>1970-01-01T00:00:00+00:00</time>
        <ele>2295.0</ele>
      </trkpt>
      <trkpt lat="46.489874" lon="8.234005">
        <time>1970-01-01T00:00:00+00:00</time>
        <ele>2296.0</ele>
      </trkpt>
      <trkpt lat="46.491411" lon="8.234691">
        <time>1970-01-01T00:00:00+00:00</time>
        <ele>2295.0</ele>
      </trkpt>
      <trkpt lat="46.49106" lon="8.233798">
        <time>1970-01-01T00:00:00+00:00</time>
        <ele>2307.0</ele>
      </trkpt>
      <trkpt lat="46.490949" lon="8.233757">
        <time>1970-01-01T00:00:00+00:00</time>
        <ele>2306.0</ele>
      </trkpt>
      <trkpt lat="46.491169" lon="8.233833">
        <time>1970-01-01T00:00:00+00:00</time>
        <ele>2308.0</ele>
      </trkpt>
      <trkpt lat="46.491302" lon="8.234175">
        <time>1970-01-01T00:00:00+00:00</time>
        <ele>2304.0</ele>
      </trkpt>
      <trkpt lat="46.491371" lon="8.233647">
        <time>1970-01-01T00:00:00+00:00</time>
        <ele>2315.0</ele>
      </trkpt>
      <trkpt lat="46.491179" lon="8.233882">
        <time>1970-01-01T00:00:00+00:00</time>
        <ele>2307.0</ele>
      </trkpt>
      <trkpt lat="46.491217" lon="8.233839">
        <time>1970-01-01T00:00:00+00:00</time>
        <ele>2309.0</ele>
      </trkpt>
      <trkpt lat="46.491195" lon="8.233922">
        <time>1970-01-01T00:00:00+00:00</time>
        <ele>2306.0</ele>
      </trkpt>
      <trkpt lat="46.491457" lon="8.234396">
        <time>1970-01-01T00:00:00+00:00</time>
        <ele>2303.0</ele>
      </trkpt>
      <trkpt lat="46.491204" lon="8.233774">
        <time>1970-01-01T00:00:00+00:00</time>
        <ele>2310.0</ele>
      </trkpt>
      <trkpt lat="46.491182" lon="8.234115">
        <time>1970-01-01T00:00:00+00:00</time>
        <ele>2302.0</ele>
      </trkpt>
      <trkpt lat="46.491199" lon="8.233916">
        <time>1970-01-01T00:00:00+00:00</time>
        <ele>2306.0</ele>
      </trkpt>
      <trkpt lat="46.491377" lon="8.233599">
        <time>1970-01-01T00:00:00+00:00</time>
        <ele>2316.0</ele>
      </trkpt>
      <trkpt lat="46.491442" lon="8.233346">
        <time>1970-01-01T00:00:00+00:00</time>
        <ele>2321.0</ele>
      </trkpt>
      <trkpt lat="46.491196" lon="8.233597">
        <time>1970-01-01T00:00:00+00:00</time>
        <ele>2314.0</ele>
      </trkpt>
      <trkpt lat="46.491042" lon="8.232972">
        <time>1970-01-01T00:00:00+00:00</time>
        <ele>2327.0</ele>
      </trkpt>
      <trkpt lat="46.491378" lon="8.232925">
        <time>1970-01-01T00:00:00+00:00</time>
        <ele>2327.0</ele>
      </trkpt>
      <trkpt lat="46.49121" lon="8.233118">
        <time>1970-01-01T00:00:00+00:00</time>
        <ele>2323.0</ele>
      </trkpt>
      <trkpt lat="46.491268" lon="8.232632">
        <time>1970-01-01T00:00:00+00:00</time>
        <ele>2332.0</ele>
      </trkpt>
      <trkpt lat="46.491342" lon="8.232418">
        <time>1970-01-01T00:00:00+00:00</time>
        <ele>2335.0</ele>
      </trkpt>
      <trkpt lat="46.49114" lon="8.232562">
        <time>1970-01-01T00:00:00+00:00</time>
        <ele>2334.0</ele>
      </trkpt>
      <trkpt lat="46.491188" lon="8.232065">
        <time>1970-01-01T00:00:00+00:00</time>
        <ele>2339.0</ele>
      </trkpt>
      <trkpt lat="46.491255" lon="8.231874">
        <time>1970-01-01T00:00:00+00:00</time>
        <ele>2342.0</ele>
      </trkpt>
      <trkpt lat="46.491177" lon="8.231991">
        <time>1970-01-01T00:00:00+00:00</time>
        <ele>2340.0</ele>
      </trkpt>
      <trkpt lat="46.491597" lon="8.231574">
        <time>1970-01-01T00:00:00+00:00</time>
        <ele>2349.0</ele>
      </trkpt>
      <trkpt lat="46.491236" lon="8.23158">
        <time>1970-01-01T00:00:00+00:00</time>
        <ele>2345.0</ele>
      </trkpt>
      <trkpt lat="46.491685" lon="8.231057">
        <time>1970-01-01T00:00:00+00:00</time>
        <ele>2366.0</ele>
      </trkpt>
      <trkpt lat="46.491223" lon="8.231142">
        <time>1970-01-01T00:00:00+00:00</time>
        <ele>2355.0</ele>
      </trkpt>
      <trkpt lat="46.49121" lon="8.231066">
        <time>1970-01-01T00:00:00+00:00</time>
        <ele>2358.0</ele>
      </trkpt>
      <trkpt lat="46.491113" lon="8.231052">
        <time>1970-01-01T00:00:00+00:00</time>
        <ele>2357.0</ele>
      </trkpt>
      <trkpt lat="46.491207" lon="8.230757">
        <time>1970-01-01T00:00:00+00:00</time>
        <ele>2365.0</ele>
      </trkpt>
      <trkpt lat="46.491179" lon="8.230782">
        <time>1970-01-01T00:00:00+00:00</time>
        <ele>2364.0</ele>
      </trkpt>
      <trkpt lat="46.491584" lon="8.230432">
        <time>1970-01-01T00:00:00+00:00</time>
        <ele>2380.0</ele>
      </trkpt>
      <trkpt lat="46.491416" lon="8.230747">
        <time>1970-01-01T00:00:00+00:00</time>
        <ele>2370.0</ele>
      </trkpt>
      <trkpt lat="46.491466" lon="8.230353">
        <time>1970-01-01T00:00:00+00:00</time>
        <ele>2381.0</ele>
      </trkpt>
      <trkpt lat="46.491537" lon="8.230169">
        <time>1970-01-01T00:00:00+00:00</time>
        <ele>2387.0</ele>
      </trkpt>
      <trkpt lat="46.491217" lon="8.230374">
        <time>1970-01-01T00:00:00+00:00</time>
        <ele>2376.0</ele>
      </trkpt>
      <trkpt lat="46.491552" lon="8.229888">
        <time>1970-01-01T00:00:00+00:00</time>
        <ele>2394.0</ele>
      </trkpt>
      <trkpt lat="46.491405" lon="8.230221">
        <time>1970-01-01T00:00:00+00:00</time>
        <ele>2383.0</ele>
      </trkpt>
      <trkpt lat="46.491628" lon="8.229547">
        <time>1970-01-01T00:00:00+00:00</time>
        <ele>2402.0</ele>
      </trkpt>
      <trkpt lat="46.491517" lon="8.23032">
        <time>1970-01-01T00:00:00+00:00</time>
        <ele>2382.0</ele>
      </trkpt>
      <trkpt lat="46.49156" lon="8.230331">
        <time>1970-01-01T00:00:00+00:00</time>
        <ele>2383.0</ele>
      </trkpt>
      <trkpt lat="46.491583" lon="8.230199">
        <time>1970-01-01T00:00:00+00:00</time>
        <ele>2386.0</ele>
      </trkpt>
      <trkpt lat="46.491657" lon="8.230268">
        <time>1970-01-01T00:00:00+00:00</time>
        <ele>2385.0</ele>
      </trkpt>
      <trkpt lat="46.491786" lon="8.23011">
        <time>1970-01-01T00:00:00+00:00</time>
        <ele>2390.0</ele>
      </trkpt>
      <trkpt lat="46.491834" lon="8.229555">
        <time>1970-01-01T00:00:00+00:00</time>
        <ele>2402.0</ele>
      </trkpt>
      <trkpt lat="46.491984" lon="8.228844">
        <time>1970-01-01T00:00:00+00:00</time>
        <ele>2411.0</ele>
      </trkpt>
      <trkpt lat="46.491832" lon="8.229354">
        <time>1970-01-01T00:00:00+00:00</time>
        <ele>2405.0</ele>
      </trkpt>
      <trkpt lat="46.492184" lon="8.228448">
        <time>1970-01-01T00:00:00+00:00</time>
        <ele>2417.0</ele>
      </trkpt>
      <trkpt lat="46.492354" lon="8.228147">
        <time>1970-01-01T00:00:00+00:00</time>
        <ele>2423.0</ele>
      </trkpt>
      <trkpt lat="46.492033" lon="8.229876">
        <time>1970-01-01T00:00:00+00:00</time>
        <ele>2397.0</ele>
      </trkpt>
      <trkpt lat="46.49213" lon="8.229688">
        <time>1970-01-01T00:00:00+00:00</time>
        <ele>2401.0</ele>
      </trkpt>
      <trkpt lat="46.492413" lon="8.228346">
        <time>1970-01-01T00:00:00+00:00</time>
        <ele>2419.0</ele>
      </trkpt>
      <trkpt lat="46.492571" lon="8.227876">
        <time>1970-01-01T00:00:00+00:00</time>
        <ele>2428.0</ele>
      </trkpt>
      <trkpt lat="46.492026" lon="8.227358">
        <time>1970-01-01T00:00:00+00:00</time>
        <ele>2437.0</ele>
      </trkpt>
      <trkpt lat="46.492115" lon="8.227344">
        <time>1970-01-01T00:00:00+00:00</time>
        <ele>2437.0</ele>
      </trkpt>
      <trkpt lat="46.492314" lon="8.227553">
        <time>1970-01-01T00:00:00+00:00</time>
        <ele>2432.0</ele>
      </trkpt>
      <trkpt lat="46.492462" lon="8.227545">
        <time>1970-01-01T00:00:00+00:00</time>
        <ele>2432.0</ele>
      </trkpt>
      <trkpt lat="46.492698" lon="8.227398">
        <time>1970-01-01T00:00:00+00:00</time>
        <ele>2438.0</ele>
      </trkpt>
      <trkpt lat="46.492535" lon="8.227616">
        <time>1970-01-01T00:00:00+00:00</time>
        <ele>2431.0</ele>
      </trkpt>
      <trkpt lat="46.492963" lon="8.226954">
        <time>1970-01-01T00:00:00+00:00</time>
        <ele>2450.0</ele>
      </trkpt>
      <trkpt lat="46.49265" lon="8.227207">
        <time>1970-01-01T00:00:00+00:00</time>
        <ele>2442.0</ele>
      </trkpt>
      <trkpt lat="46.493188" lon="8.226594">
        <time>1970-01-01T00:00:00+00:00</time>
        <ele>2462.0</ele>
      </trkpt>
      <trkpt lat="46.492889" lon="8.227026">
        <time>1970-01-01T00:00:00+00:00</time>
        <ele>2448.0</ele>
      </trkpt>
      <trkpt lat="46.493312" lon="8.225187">
        <time>1970-01-01T00:00:00+00:00</time>
        <ele>2502.0</ele>
      </trkpt>
      <trkpt lat="46.492891" lon="8.226587">
        <time>1970-01-01T00:00:00+00:00</time>
        <ele>2460.0</ele>
      </trkpt>
      <trkpt lat="46.493538" lon="8.225313">
        <time>1970-01-01T00:00:00+00:00</time>
        <ele>2500.0</ele>
      </trkpt>
      <trkpt lat="46.493342" lon="8.226571">
        <time>1970-01-01T00:00:00+00:00</time>
        <ele>2465.0</ele>
      </trkpt>
      <trkpt lat="46.493561" lon="8.226118">
        <time>1970-01-01T00:00:00+00:00</time>
        <ele>2480.0</ele>
      </trkpt>
      <trkpt lat="46.493891" lon="8.225899">
        <time>1970-01-01T00:00:00+00:00</time>
        <ele>2494.0</ele>
      </trkpt>
      <trkpt lat="46.493696" lon="8.226458">
        <time>1970-01-01T00:00:00+00:00</time>
        <ele>2476.0</ele>
      </trkpt>
      <trkpt lat="46.493763" lon="8.226383">
        <time>1970-01-01T00:00:00+00:00</time>
        <ele>2481.0</ele>
      </trkpt>
      <trkpt lat="46.493889" lon="8.225989">
        <time>1970-01-01T00:00:00+00:00</time>
        <ele>2492.0</ele>
      </trkpt>
      <trkpt lat="46.494194" lon="8.225734">
        <time>1970-01-01T00:00:00+00:00</time>
        <ele>2510.0</ele>
      </trkpt>
      <trkpt lat="46.493894" lon="8.226319">
        <time>1970-01-01T00:00:00+00:00</time>
        <ele>2485.0</ele>
      </trkpt>
      <trkpt lat="46.494398" lon="8.225796">
        <time>1970-01-01T00:00:00+00:00</time>
        <ele>2515.0</ele>
      </trkpt>
      <trkpt lat="46.494156" lon="8.226151">
        <time>1970-01-01T00:00:00+00:00</time>
        <ele>2497.0</ele>
      </trkpt>
      <trkpt lat="46.494465" lon="8.225809">
        <time>1970-01-01T00:00:00+00:00</time>
        <ele>2516.0</ele>
      </trkpt>
      <trkpt lat="46.494683" lon="8.225461">
        <time>1970-01-01T00:00:00+00:00</time>
        <ele>2531.0</ele>
      </trkpt>
      <trkpt lat="46.494434" lon="8.226104">
        <time>1970-01-01T00:00:00+00:00</time>
        <ele>2507.0</ele>
      </trkpt>
      <trkpt lat="46.494453" lon="8.225179">
        <time>1970-01-01T00:00:00+00:00</time>
        <ele>2534.0</ele>
      </trkpt>
      <trkpt lat="46.494517" lon="8.224641">
        <time>1970-01-01T00:00:00+00:00</time>
        <ele>2554.0</ele>
      </trkpt>
      <trkpt lat="46.494665" lon="8.224115">
        <time>1970-01-01T00:00:00+00:00</time>
        <ele>2565.0</ele>
      </trkpt>
      <trkpt lat="46.494445" lon="8.226058">
        <time>1970-01-01T00:00:00+00:00</time>
        <ele>2509.0</ele>
      </trkpt>
      <trkpt lat="46.494727" lon="8.225734">
        <time>1970-01-01T00:00:00+00:00</time>
        <ele>2526.0</ele>
      </trkpt>
      <trkpt lat="46.494957" lon="8.22566">
        <time>1970-01-01T00:00:00+00:00</time>
        <ele>2532.0</ele>
      </trkpt>
      <trkpt lat="46.494695" lon="8.227113">
        <time>1970-01-01T00:00:00+00:00</time>
        <ele>2493.0</ele>
      </trkpt>
      <trkpt lat="46.494749" lon="8.227103">
        <time>1970-01-01T00:00:00+00:00</time>
        <ele>2495.0</ele>
      </trkpt>
      <trkpt lat="46.495133" lon="8.225522">
        <time>1970-01-01T00:00:00+00:00</time>
        <ele>2534.0</ele>
      </trkpt>
      <trkpt lat="46.494785" lon="8.225895">
        <time>1970-01-01T00:00:00+00:00</time>
        <ele>2524.0</ele>
      </trkpt>
      <trkpt lat="46.494908" lon="8.225619">
        <time>1970-01-01T00:00:00+00:00</time>
        <ele>2533.0</ele>
      </trkpt>
      <trkpt lat="46.49507" lon="8.224803">
        <time>1970-01-01T00:00:00+00:00</time>
        <ele>2551.0</ele>
      </trkpt>
      <trkpt lat="46.494845" lon="8.225768">
        <time>1970-01-01T00:00:00+00:00</time>
        <ele>2528.0</ele>
      </trkpt>
      <trkpt lat="46.494953" lon="8.225785">
        <time>1970-01-01T00:00:00+00:00</time>
        <ele>2530.0</ele>
      </trkpt>
      <trkpt lat="46.495336" lon="8.225633">
        <time>1970-01-01T00:00:00+00:00</time>
        <ele>2531.0</ele>
      </trkpt>
      <trkpt lat="46.495264" lon="8.225881">
        <time>1970-01-01T00:00:00+00:00</time>
        <ele>2530.0</ele>
      </trkpt>
      <trkpt lat="46.495611" lon="8.225566">
        <time>1970-01-01T00:00:00+00:00</time>
        <ele>2529.0</ele>
      </trkpt>
      <trkpt lat="46.495618" lon="8.225922">
        <time>1970-01-01T00:00:00+00:00</time>
        <ele>2529.0</ele>
      </trkpt>
      <trkpt lat="46.496105" lon="8.225405">
        <time>1970-01-01T00:00:00+00:00</time>
        <ele>2540.0</ele>
      </trkpt>
      <trkpt lat="46.49595" lon="8.226864">
        <time>1970-01-01T00:00:00+00:00</time>
        <ele>2535.0</ele>
      </trkpt>
      <trkpt lat="46.496355" lon="8.226729">
        <time>1970-01-01T00:00:00+00:00</time>
        <ele>2540.0</ele>
      </trkpt>
      <trkpt lat="46.496442" lon="8.226982">
        <time>1970-01-01T00:00:00+00:00</time>
        <ele>2541.0</ele>
      </trkpt>
      <trkpt lat="46.496893" lon="8.226679">
        <time>1970-01-01T00:00:00+00:00</time>
        <ele>2559.0</ele>
      </trkpt>
      <trkpt lat="46.497652" lon="8.224369">
        <time>1970-01-01T00:00:00+00:00</time>
        <ele>2614.0</ele>
      </trkpt>
      <trkpt lat="46.496927" lon="8.225353">
        <time>1970-01-01T00:00:00+00:00</time>
        <ele>2580.0</ele>
      </trkpt>
      <trkpt lat="46.496984" lon="8.225146">
        <time>1970-01-01T00:00:00+00:00</time>
        <ele>2585.0</ele>
      </trkpt>
      <trkpt lat="46.497049" lon="8.225118">
        <time>1970-01-01T00:00:00+00:00</time>
        <ele>2588.0</ele>
      </trkpt>
      <trkpt lat="46.496863" lon="8.225236">
        <time>1970-01-01T00:00:00+00:00</time>
        <ele>2579.0</ele>
      </trkpt>
      <trkpt lat="46.497194" lon="8.224829">
        <time>1970-01-01T00:00:00+00:00</time>
        <ele>2597.0</ele>
      </trkpt>
      <trkpt lat="46.497481" lon="8.22429">
        <time>1970-01-01T00:00:00+00:00</time>
        <ele>2612.0</ele>
      </trkpt>
      <trkpt lat="46.496874" lon="8.224675">
        <time>1970-01-01T00:00:00+00:00</time>
        <ele>2592.0</ele>
      </trkpt>
      <trkpt lat="46.497327" lon="8.224715">
        <time>1970-01-01T00:00:00+00:00</time>
        <ele>2600.0</ele>
      </trkpt>
      <trkpt lat="46.497552" lon="8.224573">
        <time>1970-01-01T00:00:00+00:00</time>
        <ele>2608.0</ele>
      </trkpt>
      <trkpt lat="46.497301" lon="8.224809">
        <time>1970-01-01T00:00:00+00:00</time>
        <ele>2599.0</ele>
      </trkpt>
      <trkpt lat="46.49742" lon="8.224207">
        <time>1970-01-01T00:00:00+00:00</time>
        <ele>2613.0</ele>
      </trkpt>
      <trkpt lat="46.497632" lon="8.223934">
        <time>1970-01-01T00:00:00+00:00</time>
        <ele>2624.0</ele>
      </trkpt>
      <trkpt lat="46.497367" lon="8.22463">
        <time>1970-01-01T00:00:00+00:00</time>
        <ele>2603.0</ele>
      </trkpt>
      <trkpt lat="46.497429" lon="8.224553">
        <time>1970-01-01T00:00:00+00:00</time>
        <ele>2606.0</ele>
      </trkpt>
      <trkpt lat="46.497442" lon="8.2244">
        <time>1970-01-01T00:00:00+00:00</time>
        <ele>2609.0</ele>
      </trkpt>
      <trkpt lat="46.497958" lon="8.224174">
        <time>1970-01-01T00:00:00+00:00</time>
        <ele>2627.0</ele>
      </trkpt>
      <trkpt lat="46.498116" lon="8.22463">
        <time>1970-01-01T00:00:00+00:00</time>
        <ele>2630.0</ele>
      </trkpt>
      <trkpt lat="46.498274" lon="8.224417">
        <time>1970-01-01T00:00:00+00:00</time>
        <ele>2638.0</ele>
      </trkpt>
      <trkpt lat="46.49823" lon="8.224921">
        <time>1970-01-01T00:00:00+00:00</time>
        <ele>2634.0</ele>
      </trkpt>
      <trkpt lat="46.498292" lon="8.224389">
        <time>1970-01-01T00:00:00+00:00</time>
        <ele>2639.0</ele>
      </trkpt>
      <trkpt lat="46.49855" lon="8.223869">
        <time>1970-01-01T00:00:00+00:00</time>
        <ele>2656.0</ele>
      </trkpt>
      <trkpt lat="46.498746" lon="8.224154">
        <time>1970-01-01T00:00:00+00:00</time>
        <ele>2654.0</ele>
      </trkpt>
      <trkpt lat="46.497947" lon="8.224501">
        <time>1970-01-01T00:00:00+00:00</time>
        <ele>2623.0</ele>
      </trkpt>
      <trkpt lat="46.497996" lon="8.224369">
        <time>1970-01-01T00:00:00+00:00</time>
        <ele>2626.0</ele>
      </trkpt>
      <trkpt lat="46.497767" lon="8.224375">
        <time>1970-01-01T00:00:00+00:00</time>
        <ele>2617.0</ele>
      </trkpt>
      <trkpt lat="46.498454" lon="8.223897">
        <time>1970-01-01T00:00:00+00:00</time>
        <ele>2652.0</ele>
      </trkpt>
      <trkpt lat="46.498204" lon="8.22447">
        <time>1970-01-01T00:00:00+00:00</time>
        <ele>2634.0</ele>
      </trkpt>
      <trkpt lat="46.498388" lon="8.224832">
        <time>1970-01-01T00:00:00+00:00</time>
        <ele>2642.0</ele>
      </trkpt>
      <trkpt lat="46.498489" lon="8.22489">
        <time>1970-01-01T00:00:00+00:00</time>
        <ele>2647.0</ele>
      </trkpt>
      <trkpt lat="46.498382" lon="8.225538">
        <time>1970-01-01T00:00:00+00:00</time>
        <ele>2641.0</ele>
      </trkpt>
      <trkpt lat="46.498222" lon="8.224161">
        <time>1970-01-01T00:00:00+00:00</time>
        <ele>2637.0</ele>
      </trkpt>
      <trkpt lat="46.49859" lon="8.221532">
        <time>1970-01-01T00:00:00+00:00</time>
        <ele>2692.0</ele>
      </trkpt>
      <trkpt lat="46.498442" lon="8.223627">
        <time>1970-01-01T00:00:00+00:00</time>
        <ele>2655.0</ele>
      </trkpt>
      <trkpt lat="46.498781" lon="8.223543">
        <time>1970-01-01T00:00:00+00:00</time>
        <ele>2660.0</ele>
      </trkpt>
      <trkpt lat="46.498974" lon="8.223599">
        <time>1970-01-01T00:00:00+00:00</time>
        <ele>2649.0</ele>
      </trkpt>
      <trkpt lat="46.499548" lon="8.222929">
        <time>1970-01-01T00:00:00+00:00</time>
        <ele>2629.0</ele>
      </trkpt>
      <trkpt lat="46.499638" lon="8.223504">
        <time>1970-01-01T00:00:00+00:00</time>
        <ele>2609.0</ele>
      </trkpt>
      <trkpt lat="46.49956" lon="8.223536">
        <time>1970-01-01T00:00:00+00:00</time>
        <ele>2612.0</ele>
      </trkpt>
      <trkpt lat="46.499678" lon="8.223418">
        <time>1970-01-01T00:00:00+00:00</time>
        <ele>2609.0</ele>
      </trkpt>
      <trkpt lat="46.499865" lon="8.224031">
        <time>1970-01-01T00:00:00+00:00</time>
        <ele>2590.0</ele>
      </trkpt>
      <trkpt lat="46.499791" lon="8.223753">
        <time>1970-01-01T00:00:00+00:00</time>
        <ele>2596.0</ele>
      </trkpt>
      <trkpt lat="46.500096" lon="8.2233">
        <time>1970-01-01T00:00:00+00:00</time>
        <ele>2604.0</ele>
      </trkpt>
      <trkpt lat="46.499231" lon="8.223543">
        <time>1970-01-01T00:00:00+00:00</time>
        <ele>2629.0</ele>
      </trkpt>
      <trkpt lat="46.499154" lon="8.224412">
        <time>1970-01-01T00:00:00+00:00</time>
        <ele>2624.0</ele>
      </trkpt>
      <trkpt lat="46.498841" lon="8.226648">
        <time>1970-01-01T00:00:00+00:00</time>
        <ele>2649.0</ele>
      </trkpt>
      <trkpt lat="46.498536" lon="8.227723">
        <time>1970-01-01T00:00:00+00:00</time>
        <ele>2654.0</ele>
      </trkpt>
      <trkpt lat="46.499518" lon="8.224101">
        <time>1970-01-01T00:00:00+00:00</time>
        <ele>2605.0</ele>
      </trkpt>
      <trkpt lat="46.499712" lon="8.224056">
        <time>1970-01-01T00:00:00+00:00</time>
        <ele>2595.0</ele>
      </trkpt>
      <trkpt lat="46.500109" lon="8.223511">
        <time>1970-01-01T00:00:00+00:00</time>
        <ele>2597.0</ele>
      </trkpt>
      <trkpt lat="46.500736" lon="8.222319">
        <time>1970-01-01T00:00:00+00:00</time>
        <ele>2640.0</ele>
      </trkpt>
      <trkpt lat="46.499423" lon="8.223436">
        <time>1970-01-01T00:00:00+00:00</time>
        <ele>2622.0</ele>
      </trkpt>
      <trkpt lat="46.499395" lon="8.223391">
        <time>1970-01-01T00:00:00+00:00</time>
        <ele>2624.0</ele>
      </trkpt>
      <trkpt lat="46.499285" lon="8.223543">
        <time>1970-01-01T00:00:00+00:00</time>
        <ele>2626.0</ele>
      </trkpt>
      <trkpt lat="46.500137" lon="8.222927">
        <time>1970-01-01T00:00:00+00:00</time>
        <ele>2617.0</ele>
      </trkpt>
      <trkpt lat="46.500494" lon="8.223213">
        <time>1970-01-01T00:00:00+00:00</time>
        <ele>2616.0</ele>
      </trkpt>
      <trkpt lat="46.500249" lon="8.224258">
        <time>1970-01-01T00:00:00+00:00</time>
        <ele>2583.0</ele>
      </trkpt>
      <trkpt lat="46.499638" lon="8.223301">
        <time>1970-01-01T00:00:00+00:00</time>
        <ele>2615.0</ele>
      </trkpt>
      <trkpt lat="46.499863" lon="8.22332">
        <time>1970-01-01T00:00:00+00:00</time>
        <ele>2606.0</ele>
      </trkpt>
      <trkpt lat="46.500869" lon="8.222293">
        <time>1970-01-01T00:00:00+00:00</time>
        <ele>2642.0</ele>
      </trkpt>
      <trkpt lat="46.499099" lon="8.223897">
        <time>1970-01-01T00:00:00+00:00</time>
        <ele>2635.0</ele>
      </trkpt>
      <trkpt lat="46.499147" lon="8.224121">
        <time>1970-01-01T00:00:00+00:00</time>
        <ele>2627.0</ele>
      </trkpt>
      <trkpt lat="46.498653" lon="8.225525">
        <time>1970-01-01T00:00:00+00:00</time>
        <ele>2652.0</ele>
      </trkpt>
      <trkpt lat="46.498526" lon="8.228213">
        <time>1970-01-01T00:00:00+00:00</time>
        <ele>2649.0</ele>
      </trkpt>
      <trkpt lat="46.499635" lon="8.223267">
        <time>1970-01-01T00:00:00+00:00</time>
        <ele>2616.0</ele>
      </trkpt>
      <trkpt lat="46.499657" lon="8.224006">
        <time>1970-01-01T00:00:00+00:00</time>
        <ele>2598.0</ele>
      </trkpt>
      <trkpt lat="46.499998" lon="8.224064">
        <time>1970-01-01T00:00:00+00:00</time>
        <ele>2587.0</ele>
      </trkpt>
      <trkpt lat="46.500301" lon="8.224234">
        <time>1970-01-01T00:00:00+00:00</time>
        <ele>2584.0</ele>
      </trkpt>
      <trkpt lat="46.500026" lon="8.223037">
        <time>1970-01-01T00:00:00+00:00</time>
        <ele>2614.0</ele>
      </trkpt>
      <trkpt lat="46.499243" lon="8.227062">
        <time>1970-01-01T00:00:00+00:00</time>
        <ele>2616.0</ele>
      </trkpt>
      <trkpt lat="46.498398" lon="8.227519">
        <time>1970-01-01T00:00:00+00:00</time>
        <ele>2653.0</ele>
      </trkpt>
      <trkpt lat="46.499606" lon="8.22301">
        <time>1970-01-01T00:00:00+00:00</time>
        <ele>2625.0</ele>
      </trkpt>
      <trkpt lat="46.499392" lon="8.224171">
        <time>1970-01-01T00:00:00+00:00</time>
        <ele>2612.0</ele>
      </trkpt>
      <trkpt lat="46.499285" lon="8.227538">
        <time>1970-01-01T00:00:00+00:00</time>
        <ele>2611.0</ele>
      </trkpt>
      <trkpt lat="46.499455" lon="8.223433">
        <time>1970-01-01T00:00:00+00:00</time>
        <ele>2620.0</ele>
      </trkpt>
      <trkpt lat="46.499708" lon="8.223161">
        <time>1970-01-01T00:00:00+00:00</time>
        <ele>2616.0</ele>
      </trkpt>
      <trkpt lat="46.4998" lon="8.2229">
        <time>1970-01-01T00:00:00+00:00</time>
        <ele>2624.0</ele>
      </trkpt>
      <trkpt lat="46.499782" lon="8.222763">
        <time>1970-01-01T00:00:00+00:00</time>
        <ele>2628.0</ele>
      </trkpt>
      <trkpt lat="46.499853" lon="8.22268">
        <time>1970-01-01T00:00:00+00:00</time>
        <ele>2629.0</ele>
      </trkpt>
      <trkpt lat="46.498411" lon="8.224023">
        <time>1970-01-01T00:00:00+00:00</time>
        <ele>2648.0</ele>
      </trkpt>
      <trkpt lat="46.497173" lon="8.223407">
        <time>1970-01-01T00:00:00+00:00</time>
        <ele>2636.0</ele>
      </trkpt>
      <trkpt lat="46.498039" lon="8.222613">
        <time>1970-01-01T00:00:00+00:00</time>
        <ele>2684.0</ele>
      </trkpt>
      <trkpt lat="46.498564" lon="8.223011">
        <time>1970-01-01T00:00:00+00:00</time>
        <ele>2671.0</ele>
      </trkpt>
      <trkpt lat="46.499023" lon="8.223188">
        <time>1970-01-01T00:00:00+00:00</time>
        <ele>2648.0</ele>
      </trkpt>
      <trkpt lat="46.49985" lon="8.222482">
        <time>1970-01-01T00:00:00+00:00</time>
        <ele>2633.0</ele>
      </trkpt>
      <trkpt lat="46.501721" lon="8.220047">
        <time>1970-01-01T00:00:00+00:00</time>
        <ele>2710.0</ele>
      </trkpt>
      <trkpt lat="46.500414" lon="8.221421">
        <time>1970-01-01T00:00:00+00:00</time>
        <ele>2649.0</ele>
      </trkpt>
      <trkpt lat="46.49855" lon="8.22161">
        <time>1970-01-01T00:00:00+00:00</time>
        <ele>2695.0</ele>
      </trkpt>
      <trkpt lat="46.490948" lon="8.223778">
        <time>1970-01-01T00:00:00+00:00</time>
        <ele>2524.0</ele>
      </trkpt>
      <trkpt lat="46.490981" lon="8.224001">
        <time>1970-01-01T00:00:00+00:00</time>
        <ele>2520.0</ele>
      </trkpt>
      <trkpt lat="46.498555" lon="8.222642">
        <time>1970-01-01T00:00:00+00:00</time>
        <ele>2680.0</ele>
      </trkpt>
      <trkpt lat="46.498119" lon="8.222607">
        <time>1970-01-01T00:00:00+00:00</time>
        <ele>2687.0</ele>
      </trkpt>
      <trkpt lat="46.498464" lon="8.222411">
        <time>1970-01-01T00:00:00+00:00</time>
        <ele>2690.0</ele>
      </trkpt>
      <trkpt lat="46.498718" lon="8.222155">
        <time>1970-01-01T00:00:00+00:00</time>
        <ele>2674.0</ele>
      </trkpt>
      <trkpt lat="46.498585" lon="8.222013">
        <time>1970-01-01T00:00:00+00:00</time>
        <ele>2687.0</ele>
      </trkpt>
      <trkpt lat="46.498283" lon="8.222023">
        <time>1970-01-01T00:00:00+00:00</time>
        <ele>2711.0</ele>
      </trkpt>
      <trkpt lat="46.498707" lon="8.222013">
        <time>1970-01-01T00:00:00+00:00</time>
        <ele>2677.0</ele>
      </trkpt>
      <trkpt lat="46.498675" lon="8.221942">
        <time>1970-01-01T00:00:00+00:00</time>
        <ele>2680.0</ele>
      </trkpt>
      <trkpt lat="46.498731" lon="8.221793">
        <time>1970-01-01T00:00:00+00:00</time>
        <ele>2678.0</ele>
      </trkpt>
      <trkpt lat="46.498712" lon="8.221528">
        <time>1970-01-01T00:00:00+00:00</time>
        <ele>2683.0</ele>
      </trkpt>
      <trkpt lat="46.49893" lon="8.221372">
        <time>1970-01-01T00:00:00+00:00</time>
        <ele>2670.0</ele>
      </trkpt>
      <trkpt lat="46.498994" lon="8.220954">
        <time>1970-01-01T00:00:00+00:00</time>
        <ele>2667.0</ele>
      </trkpt>
      <trkpt lat="46.49912" lon="8.220913">
        <time>1970-01-01T00:00:00+00:00</time>
        <ele>2661.0</ele>
      </trkpt>
      <trkpt lat="46.498966" lon="8.220883">
        <time>1970-01-01T00:00:00+00:00</time>
        <ele>2669.0</ele>
      </trkpt>
      <trkpt lat="46.498998" lon="8.220826">
        <time>1970-01-01T00:00:00+00:00</time>
        <ele>2667.0</ele>
      </trkpt>
      <trkpt lat="46.49895" lon="8.220793">
        <time>1970-01-01T00:00:00+00:00</time>
        <ele>2670.0</ele>
      </trkpt>
      <trkpt lat="46.498891" lon="8.220939">
        <time>1970-01-01T00:00:00+00:00</time>
        <ele>2674.0</ele>
      </trkpt>
      <trkpt lat="46.498762" lon="8.221034">
        <time>1970-01-01T00:00:00+00:00</time>
        <ele>2681.0</ele>
      </trkpt>
      <trkpt lat="46.498855" lon="8.221012">
        <time>1970-01-01T00:00:00+00:00</time>
        <ele>2676.0</ele>
      </trkpt>
      <trkpt lat="46.498822" lon="8.221035">
        <time>1970-01-01T00:00:00+00:00</time>
        <ele>2678.0</ele>
      </trkpt>
      <trkpt lat="46.499052" lon="8.220749">
        <time>1970-01-01T00:00:00+00:00</time>
        <ele>2664.0</ele>
      </trkpt>
      <trkpt lat="46.498852" lon="8.220981">
        <time>1970-01-01T00:00:00+00:00</time>
        <ele>2677.0</ele>
      </trkpt>
      <trkpt lat="46.498923" lon="8.220995">
        <time>1970-01-01T00:00:00+00:00</time>
        <ele>2672.0</ele>
      </trkpt>
      <trkpt lat="46.498915" lon="8.220927">
        <time>1970-01-01T00:00:00+00:00</time>
        <ele>2673.0</ele>
      </trkpt>
      <trkpt lat="46.498838" lon="8.220968">
        <time>1970-01-01T00:00:00+00:00</time>
        <ele>2678.0</ele>
      </trkpt>
      <trkpt lat="46.49901" lon="8.220927">
        <time>1970-01-01T00:00:00+00:00</time>
        <ele>2666.0</ele>
      </trkpt>
      <trkpt lat="46.499009" lon="8.220551">
        <time>1970-01-01T00:00:00+00:00</time>
        <ele>2670.0</ele>
      </trkpt>
      <trkpt lat="46.498932" lon="8.220465">
        <time>1970-01-01T00:00:00+00:00</time>
        <ele>2676.0</ele>
      </trkpt>
      <trkpt lat="46.498937" lon="8.220393">
        <time>1970-01-01T00:00:00+00:00</time>
        <ele>2677.0</ele>
      </trkpt>
      <trkpt lat="46.49902" lon="8.220426">
        <time>1970-01-01T00:00:00+00:00</time>
        <ele>2672.0</ele>
      </trkpt>
      <trkpt lat="46.499056" lon="8.220317">
        <time>1970-01-01T00:00:00+00:00</time>
        <ele>2672.0</ele>
      </trkpt>
      <trkpt lat="46.499282" lon="8.220353">
        <time>1970-01-01T00:00:00+00:00</time>
        <ele>2665.0</ele>
      </trkpt>
      <trkpt lat="46.499348" lon="8.220201">
        <time>1970-01-01T00:00:00+00:00</time>
        <ele>2669.0</ele>
      </trkpt>
      <trkpt lat="46.499612" lon="8.220082">
        <time>1970-01-01T00:00:00+00:00</time>
        <ele>2667.0</ele>
      </trkpt>
      <trkpt lat="46.499526" lon="8.219889">
        <time>1970-01-01T00:00:00+00:00</time>
        <ele>2672.0</ele>
      </trkpt>
      <trkpt lat="46.499583" lon="8.21967">
        <time>1970-01-01T00:00:00+00:00</time>
        <ele>2674.0</ele>
      </trkpt>
      <trkpt lat="46.499837" lon="8.219365">
        <time>1970-01-01T00:00:00+00:00</time>
        <ele>2678.0</ele>
      </trkpt>
      <trkpt lat="46.500031" lon="8.219259">
        <time>1970-01-01T00:00:00+00:00</time>
        <ele>2682.0</ele>
      </trkpt>
      <trkpt lat="46.49997" lon="8.219282">
        <time>1970-01-01T00:00:00+00:00</time>
        <ele>2680.0</ele>
      </trkpt>
      <trkpt lat="46.500293" lon="8.218899">
        <time>1970-01-01T00:00:00+00:00</time>
        <ele>2696.0</ele>
      </trkpt>
      <trkpt lat="46.500072" lon="8.219185">
        <time>1970-01-01T00:00:00+00:00</time>
        <ele>2684.0</ele>
      </trkpt>
      <trkpt lat="46.500143" lon="8.219191">
        <time>1970-01-01T00:00:00+00:00</time>
        <ele>2686.0</ele>
      </trkpt>
      <trkpt lat="46.500153" lon="8.219408">
        <time>1970-01-01T00:00:00+00:00</time>
        <ele>2681.0</ele>
      </trkpt>
      <trkpt lat="46.500179" lon="8.219217">
        <time>1970-01-01T00:00:00+00:00</time>
        <ele>2687.0</ele>
      </trkpt>
      <trkpt lat="46.500223" lon="8.219279">
        <time>1970-01-01T00:00:00+00:00</time>
        <ele>2688.0</ele>
      </trkpt>
      <trkpt lat="46.500181" lon="8.219626">
        <time>1970-01-01T00:00:00+00:00</time>
        <ele>2676.0</ele>
      </trkpt>
      <trkpt lat="46.500244" lon="8.219734">
        <time>1970-01-01T00:00:00+00:00</time>
        <ele>2677.0</ele>
      </trkpt>
      <trkpt lat="46.500669" lon="8.219939">
        <time>1970-01-01T00:00:00+00:00</time>
        <ele>2686.0</ele>
      </trkpt>
      <trkpt lat="46.500902" lon="8.220138">
        <time>1970-01-01T00:00:00+00:00</time>
        <ele>2690.0</ele>
      </trkpt>
      <trkpt lat="46.500841" lon="8.220216">
        <time>1970-01-01T00:00:00+00:00</time>
        <ele>2687.0</ele>
      </trkpt>
      <trkpt lat="46.501132" lon="8.220249">
        <time>1970-01-01T00:00:00+00:00</time>
        <ele>2692.0</ele>
      </trkpt>
      <trkpt lat="46.50124" lon="8.220138">
        <time>1970-01-01T00:00:00+00:00</time>
        <ele>2695.0</ele>
      </trkpt>
      <trkpt lat="46.501309" lon="8.220175">
        <time>1970-01-01T00:00:00+00:00</time>
        <ele>2697.0</ele>
      </trkpt>
      <trkpt lat="46.501449" lon="8.220328">
        <time>1970-01-01T00:00:00+00:00</time>
        <ele>2698.0</ele>
      </trkpt>
      <trkpt lat="46.501458" lon="8.220461">
        <time>1970-01-01T00:00:00+00:00</time>
        <ele>2695.0</ele>
      </trkpt>
      <trkpt lat="46.501602" lon="8.220264">
        <time>1970-01-01T00:00:00+00:00</time>
        <ele>2702.0</ele>
      </trkpt>
      <trkpt lat="46.501884" lon="8.220364">
        <time>1970-01-01T00:00:00+00:00</time>
        <ele>2710.0</ele>
      </trkpt>
      <trkpt lat="46.502037" lon="8.220286">
        <time>1970-01-01T00:00:00+00:00</time>
        <ele>2719.0</ele>
      </trkpt>
      <trkpt lat="46.501817" lon="8.219995">
        <time>1970-01-01T00:00:00+00:00</time>
        <ele>2714.0</ele>
      </trkpt>
      <trkpt lat="46.501883" lon="8.220015">
        <time>1970-01-01T00:00:00+00:00</time>
        <ele>2717.0</ele>
      </trkpt>
      <trkpt lat="46.502076" lon="8.219821">
        <time>1970-01-01T00:00:00+00:00</time>
        <ele>2728.0</ele>
      </trkpt>
      <trkpt lat="46.501854" lon="8.21963">
        <time>1970-01-01T00:00:00+00:00</time>
        <ele>2721.0</ele>
      </trkpt>
      <trkpt lat="46.501982" lon="8.21974">
        <time>1970-01-01T00:00:00+00:00</time>
        <ele>2725.0</ele>
      </trkpt>
      <trkpt lat="46.502126" lon="8.219669">
        <time>1970-01-01T00:00:00+00:00</time>
        <ele>2733.0</ele>
      </trkpt>
      <trkpt lat="46.501989" lon="8.219615">
        <time>1970-01-01T00:00:00+00:00</time>
        <ele>2727.0</ele>
      </trkpt>
      <trkpt lat="46.502058" lon="8.219596">
        <time>1970-01-01T00:00:00+00:00</time>
        <ele>2731.0</ele>
      </trkpt>
      <trkpt lat="46.501587" lon="8.219879">
        <time>1970-01-01T00:00:00+00:00</time>
        <ele>2707.0</ele>
      </trkpt>
      <trkpt lat="46.501958" lon="8.219241">
        <time>1970-01-01T00:00:00+00:00</time>
        <ele>2730.0</ele>
      </trkpt>
      <trkpt lat="46.501968" lon="8.219335">
        <time>1970-01-01T00:00:00+00:00</time>
        <ele>2730.0</ele>
      </trkpt>
      <trkpt lat="46.502168" lon="8.219261">
        <time>1970-01-01T00:00:00+00:00</time>
        <ele>2740.0</ele>
      </trkpt>
      <trkpt lat="46.502418" lon="8.218921">
        <time>1970-01-01T00:00:00+00:00</time>
        <ele>2753.0</ele>
      </trkpt>
      <trkpt lat="46.502236" lon="8.219164">
        <time>1970-01-01T00:00:00+00:00</time>
        <ele>2744.0</ele>
      </trkpt>
      <trkpt lat="46.50224" lon="8.218976">
        <time>1970-01-01T00:00:00+00:00</time>
        <ele>2745.0</ele>
      </trkpt>
      <trkpt lat="46.502237" lon="8.219152">
        <time>1970-01-01T00:00:00+00:00</time>
        <ele>2744.0</ele>
      </trkpt>
      <trkpt lat="46.50221" lon="8.219092">
        <time>1970-01-01T00:00:00+00:00</time>
        <ele>2743.0</ele>
      </trkpt>
      <trkpt lat="46.501803" lon="8.219293">
        <time>1970-01-01T00:00:00+00:00</time>
        <ele>2723.0</ele>
      </trkpt>
      <trkpt lat="46.502104" lon="8.21936">
        <time>1970-01-01T00:00:00+00:00</time>
        <ele>2737.0</ele>
      </trkpt>
      <trkpt lat="46.502102" lon="8.219279">
        <time>1970-01-01T00:00:00+00:00</time>
        <ele>2737.0</ele>
      </trkpt>
      <trkpt lat="46.501968" lon="8.219311">
        <time>1970-01-01T00:00:00+00:00</time>
        <ele>2730.0</ele>
      </trkpt>
      <trkpt lat="46.501995" lon="8.219738">
        <time>1970-01-01T00:00:00+00:00</time>
        <ele>2726.0</ele>
      </trkpt>
      <trkpt lat="46.502087" lon="8.219832">
        <time>1970-01-01T00:00:00+00:00</time>
        <ele>2728.0</ele>
      </trkpt>
      <trkpt lat="46.502257" lon="8.219802">
        <time>1970-01-01T00:00:00+00:00</time>
        <ele>2736.0</ele>
      </trkpt>
      <trkpt lat="46.502449" lon="8.219502">
        <time>1970-01-01T00:00:00+00:00</time>
        <ele>2749.0</ele>
      </trkpt>
      <trkpt lat="46.502475" lon="8.219822">
        <time>1970-01-01T00:00:00+00:00</time>
        <ele>2743.0</ele>
      </trkpt>
      <trkpt lat="46.502624" lon="8.219461">
        <time>1970-01-01T00:00:00+00:00</time>
        <ele>2755.0</ele>
      </trkpt>
      <trkpt lat="46.502697" lon="8.219557">
        <time>1970-01-01T00:00:00+00:00</time>
        <ele>2756.0</ele>
      </trkpt>
      <trkpt lat="46.502942" lon="8.219637">
        <time>1970-01-01T00:00:00+00:00</time>
        <ele>2763.0</ele>
      </trkpt>
      <trkpt lat="46.503085" lon="8.219543">
        <time>1970-01-01T00:00:00+00:00</time>
        <ele>2769.0</ele>
      </trkpt>
      <trkpt lat="46.502974" lon="8.219482">
        <time>1970-01-01T00:00:00+00:00</time>
        <ele>2768.0</ele>
      </trkpt>
      <trkpt lat="46.502998" lon="8.219265">
        <time>1970-01-01T00:00:00+00:00</time>
        <ele>2773.0</ele>
      </trkpt>
      <trkpt lat="46.503078" lon="8.219194">
        <time>1970-01-01T00:00:00+00:00</time>
        <ele>2776.0</ele>
      </trkpt>
      <trkpt lat="46.503013" lon="8.219083">
        <time>1970-01-01T00:00:00+00:00</time>
        <ele>2776.0</ele>
      </trkpt>
      <trkpt lat="46.50284" lon="8.219521">
        <time>1970-01-01T00:00:00+00:00</time>
        <ele>2763.0</ele>
      </trkpt>
      <trkpt lat="46.503039" lon="8.219187">
        <time>1970-01-01T00:00:00+00:00</time>
        <ele>2775.0</ele>
      </trkpt>
      <trkpt lat="46.50335" lon="8.219324">
        <time>1970-01-01T00:00:00+00:00</time>
        <ele>2780.0</ele>
      </trkpt>
      <trkpt lat="46.503688" lon="8.218994">
        <time>1970-01-01T00:00:00+00:00</time>
        <ele>2794.0</ele>
      </trkpt>
      <trkpt lat="46.503354" lon="8.219239">
        <time>1970-01-01T00:00:00+00:00</time>
        <ele>2782.0</ele>
      </trkpt>
      <trkpt lat="46.503468" lon="8.219092">
        <time>1970-01-01T00:00:00+00:00</time>
        <ele>2788.0</ele>
      </trkpt>
      <trkpt lat="46.503583" lon="8.218979">
        <time>1970-01-01T00:00:00+00:00</time>
        <ele>2793.0</ele>
      </trkpt>
      <trkpt lat="46.503487" lon="8.219139">
        <time>1970-01-01T00:00:00+00:00</time>
        <ele>2787.0</ele>
      </trkpt>
      <trkpt lat="46.50363" lon="8.21911">
        <time>1970-01-01T00:00:00+00:00</time>
        <ele>2789.0</ele>
      </trkpt>
      <trkpt lat="46.503737" lon="8.21893">
        <time>1970-01-01T00:00:00+00:00</time>
        <ele>2797.0</ele>
      </trkpt>
      <trkpt lat="46.503579" lon="8.218925">
        <time>1970-01-01T00:00:00+00:00</time>
        <ele>2795.0</ele>
      </trkpt>
      <trkpt lat="46.503332" lon="8.219173">
        <time>1970-01-01T00:00:00+00:00</time>
        <ele>2783.0</ele>
      </trkpt>
      <trkpt lat="46.503028" lon="8.219732">
        <time>1970-01-01T00:00:00+00:00</time>
        <ele>2763.0</ele>
      </trkpt>
      <trkpt lat="46.502905" lon="8.218664">
        <time>1970-01-01T00:00:00+00:00</time>
        <ele>2781.0</ele>
      </trkpt>
      <trkpt lat="46.502952" lon="8.218806">
        <time>1970-01-01T00:00:00+00:00</time>
        <ele>2780.0</ele>
      </trkpt>
      <trkpt lat="46.503036" lon="8.218726">
        <time>1970-01-01T00:00:00+00:00</time>
        <ele>2786.0</ele>
      </trkpt>
      <trkpt lat="46.502989" lon="8.218363">
        <time>1970-01-01T00:00:00+00:00</time>
        <ele>2790.0</ele>
      </trkpt>
      <trkpt lat="46.502923" lon="8.218432">
        <time>1970-01-01T00:00:00+00:00</time>
        <ele>2786.0</ele>
      </trkpt>
      <trkpt lat="46.50307" lon="8.21839">
        <time>1970-01-01T00:00:00+00:00</time>
        <ele>2794.0</ele>
      </trkpt>
      <trkpt lat="46.503013" lon="8.218211">
        <time>1970-01-01T00:00:00+00:00</time>
        <ele>2794.0</ele>
      </trkpt>
      <trkpt lat="46.503037" lon="8.218254">
        <time>1970-01-01T00:00:00+00:00</time>
        <ele>2794.0</ele>
      </trkpt>
      <trkpt lat="46.503117" lon="8.217716">
        <time>1970-01-01T00:00:00+00:00</time>
        <ele>2806.0</ele>
      </trkpt>
      <trkpt lat="46.50308" lon="8.218292">
        <time>1970-01-01T00:00:00+00:00</time>
        <ele>2796.0</ele>
      </trkpt>
      <trkpt lat="46.503084" lon="8.21819">
        <time>1970-01-01T00:00:00+00:00</time>
        <ele>2798.0</ele>
      </trkpt>
      <trkpt lat="46.503107" lon="8.21826">
        <time>1970-01-01T00:00:00+00:00</time>
        <ele>2798.0</ele>
      </trkpt>
      <trkpt lat="46.503222" lon="8.218289">
        <time>1970-01-01T00:00:00+00:00</time>
        <ele>2803.0</ele>
      </trkpt>
      <trkpt lat="46.503259" lon="8.218168">
        <time>1970-01-01T00:00:00+00:00</time>
        <ele>2808.0</ele>
      </trkpt>
      <trkpt lat="46.503428" lon="8.218348">
        <time>1970-01-01T00:00:00+00:00</time>
        <ele>2811.0</ele>
      </trkpt>
      <trkpt lat="46.503489" lon="8.218546">
        <time>1970-01-01T00:00:00+00:00</time>
        <ele>2808.0</ele>
      </trkpt>
      <trkpt lat="46.503546" lon="8.218754">
        <time>1970-01-01T00:00:00+00:00</time>
        <ele>2801.0</ele>
      </trkpt>
      <trkpt lat="46.503443" lon="8.219232">
        <time>1970-01-01T00:00:00+00:00</time>
        <ele>2784.0</ele>
      </trkpt>
      <trkpt lat="46.502174" lon="8.216686">
        <time>1970-01-01T00:00:00+00:00</time>
        <ele>2796.0</ele>
      </trkpt>
      <trkpt lat="46.50268" lon="8.217416">
        <time>1970-01-01T00:00:00+00:00</time>
        <ele>2785.0</ele>
      </trkpt>
      <trkpt lat="46.502977" lon="8.217664">
        <time>1970-01-01T00:00:00+00:00</time>
        <ele>2801.0</ele>
      </trkpt>
      <trkpt lat="46.502971" lon="8.218019">
        <time>1970-01-01T00:00:00+00:00</time>
        <ele>2796.0</ele>
      </trkpt>
      <trkpt lat="46.503074" lon="8.217639">
        <time>1970-01-01T00:00:00+00:00</time>
        <ele>2805.0</ele>
      </trkpt>
      <trkpt lat="46.503448" lon="8.217902">
        <time>1970-01-01T00:00:00+00:00</time>
        <ele>2823.0</ele>
      </trkpt>
      <trkpt lat="46.503534" lon="8.218279">
        <time>1970-01-01T00:00:00+00:00</time>
        <ele>2816.0</ele>
      </trkpt>
      <trkpt lat="46.503397" lon="8.217864">
        <time>1970-01-01T00:00:00+00:00</time>
        <ele>2820.0</ele>
      </trkpt>
      <trkpt lat="46.503483" lon="8.217979">
        <time>1970-01-01T00:00:00+00:00</time>
        <ele>2823.0</ele>
      </trkpt>
      <trkpt lat="46.504038" lon="8.217304">
        <time>1970-01-01T00:00:00+00:00</time>
        <ele>2850.0</ele>
      </trkpt>
      <trkpt lat="46.504031" lon="8.216799">
        <time>1970-01-01T00:00:00+00:00</time>
        <ele>2866.0</ele>
      </trkpt>
      <trkpt lat="46.504426" lon="8.217105">
        <time>1970-01-01T00:00:00+00:00</time>
        <ele>2866.0</ele>
      </trkpt>
      <trkpt lat="46.504383" lon="8.216881">
        <time>1970-01-01T00:00:00+00:00</time>
        <ele>2872.0</ele>
      </trkpt>
      <trkpt lat="46.504173" lon="8.216596">
        <time>1970-01-01T00:00:00+00:00</time>
        <ele>2872.0</ele>
      </trkpt>
      <trkpt lat="46.503929" lon="8.216598">
        <time>1970-01-01T00:00:00+00:00</time>
        <ele>2867.0</ele>
      </trkpt>
      <trkpt lat="46.503948" lon="8.216236">
        <time>1970-01-01T00:00:00+00:00</time>
        <ele>2872.0</ele>
      </trkpt>
      <trkpt lat="46.504308" lon="8.216016">
        <time>1970-01-01T00:00:00+00:00</time>
        <ele>2883.0</ele>
      </trkpt>
      <trkpt lat="46.504118" lon="8.216067">
        <time>1970-01-01T00:00:00+00:00</time>
        <ele>2876.0</ele>
      </trkpt>
      <trkpt lat="46.503851" lon="8.216298">
        <time>1970-01-01T00:00:00+00:00</time>
        <ele>2870.0</ele>
      </trkpt>
      <trkpt lat="46.503765" lon="8.216744">
        <time>1970-01-01T00:00:00+00:00</time>
        <ele>2857.0</ele>
      </trkpt>
      <trkpt lat="46.504336" lon="8.216495">
        <time>1970-01-01T00:00:00+00:00</time>
        <ele>2879.0</ele>
      </trkpt>
      <trkpt lat="46.504666" lon="8.216266">
        <time>1970-01-01T00:00:00+00:00</time>
        <ele>2901.0</ele>
      </trkpt>
      <trkpt lat="46.504693" lon="8.216037">
        <time>1970-01-01T00:00:00+00:00</time>
        <ele>2905.0</ele>
      </trkpt>
      <trkpt lat="46.50388" lon="8.215909">
        <time>1970-01-01T00:00:00+00:00</time>
        <ele>2876.0</ele>
      </trkpt>
      <trkpt lat="46.50391" lon="8.215923">
        <time>1970-01-01T00:00:00+00:00</time>
        <ele>2876.0</ele>
      </trkpt>
      <trkpt lat="46.503847" lon="8.215782">
        <time>1970-01-01T00:00:00+00:00</time>
        <ele>2878.0</ele>
      </trkpt>
      <trkpt lat="46.503979" lon="8.215488">
        <time>1970-01-01T00:00:00+00:00</time>
        <ele>2885.0</ele>
      </trkpt>
      <trkpt lat="46.503937" lon="8.21526">
        <time>1970-01-01T00:00:00+00:00</time>
        <ele>2886.0</ele>
      </trkpt>
      <trkpt lat="46.504096" lon="8.216712">
        <time>1970-01-01T00:00:00+00:00</time>
        <ele>2869.0</ele>
      </trkpt>
      <trkpt lat="46.504108" lon="8.216506">
        <time>1970-01-01T00:00:00+00:00</time>
        <ele>2872.0</ele>
      </trkpt>
      <trkpt lat="46.50422" lon="8.216434">
        <time>1970-01-01T00:00:00+00:00</time>
        <ele>2874.0</ele>
      </trkpt>
      <trkpt lat="46.504394" lon="8.216939">
        <time>1970-01-01T00:00:00+00:00</time>
        <ele>2871.0</ele>
      </trkpt>
      <trkpt lat="46.504832" lon="8.216514">
        <time>1970-01-01T00:00:00+00:00</time>
        <ele>2903.0</ele>
      </trkpt>
      <trkpt lat="46.504786" lon="8.21649">
        <time>1970-01-01T00:00:00+00:00</time>
        <ele>2901.0</ele>
      </trkpt>
      <trkpt lat="46.504717" lon="8.215834">
        <time>1970-01-01T00:00:00+00:00</time>
        <ele>2910.0</ele>
      </trkpt>
      <trkpt lat="46.504564" lon="8.215321">
        <time>1970-01-01T00:00:00+00:00</time>
        <ele>2910.0</ele>
      </trkpt>
      <trkpt lat="46.504122" lon="8.215686">
        <time>1970-01-01T00:00:00+00:00</time>
        <ele>2884.0</ele>
      </trkpt>
      <trkpt lat="46.504493" lon="8.215636">
        <time>1970-01-01T00:00:00+00:00</time>
        <ele>2902.0</ele>
      </trkpt>
      <trkpt lat="46.504554" lon="8.215548">
        <time>1970-01-01T00:00:00+00:00</time>
        <ele>2907.0</ele>
      </trkpt>
      <trkpt lat="46.504578" lon="8.215306">
        <time>1970-01-01T00:00:00+00:00</time>
        <ele>2911.0</ele>
      </trkpt>
      <trkpt lat="46.504997" lon="8.21644">
        <time>1970-01-01T00:00:00+00:00</time>
        <ele>2916.0</ele>
      </trkpt>
      <trkpt lat="46.505011" lon="8.216385">
        <time>1970-01-01T00:00:00+00:00</time>
        <ele>2918.0</ele>
      </trkpt>
      <trkpt lat="46.505271" lon="8.216373">
        <time>1970-01-01T00:00:00+00:00</time>
        <ele>2931.0</ele>
      </trkpt>
      <trkpt lat="46.504921" lon="8.215675">
        <time>1970-01-01T00:00:00+00:00</time>
        <ele>2923.0</ele>
      </trkpt>
      <trkpt lat="46.504469" lon="8.215822">
        <time>1970-01-01T00:00:00+00:00</time>
        <ele>2897.0</ele>
      </trkpt>
      <trkpt lat="46.504732" lon="8.215673">
        <time>1970-01-01T00:00:00+00:00</time>
        <ele>2913.0</ele>
      </trkpt>
      <trkpt lat="46.50461" lon="8.216246">
        <time>1970-01-01T00:00:00+00:00</time>
        <ele>2898.0</ele>
      </trkpt>
      <trkpt lat="46.504668" lon="8.21607">
        <time>1970-01-01T00:00:00+00:00</time>
        <ele>2904.0</ele>
      </trkpt>
      <trkpt lat="46.505541" lon="8.216187">
        <time>1970-01-01T00:00:00+00:00</time>
        <ele>2937.0</ele>
      </trkpt>
      <trkpt lat="46.505574" lon="8.215781">
        <time>1970-01-01T00:00:00+00:00</time>
        <ele>2942.0</ele>
      </trkpt>
      <trkpt lat="46.505394" lon="8.216262">
        <time>1970-01-01T00:00:00+00:00</time>
        <ele>2935.0</ele>
      </trkpt>
      <trkpt lat="46.505841" lon="8.216132">
        <time>1970-01-01T00:00:00+00:00</time>
        <ele>2937.0</ele>
      </trkpt>
      <trkpt lat="46.506039" lon="8.215723">
        <time>1970-01-01T00:00:00+00:00</time>
        <ele>2938.0</ele>
      </trkpt>
      <trkpt lat="46.505372" lon="8.216495">
        <time>1970-01-01T00:00:00+00:00</time>
        <ele>2929.0</ele>
      </trkpt>
      <trkpt lat="46.505678" lon="8.216262">
        <time>1970-01-01T00:00:00+00:00</time>
        <ele>2936.0</ele>
      </trkpt>
      <trkpt lat="46.506173" lon="8.216026">
        <time>1970-01-01T00:00:00+00:00</time>
        <ele>2930.0</ele>
      </trkpt>
      <trkpt lat="46.506064" lon="8.215104">
        <time>1970-01-01T00:00:00+00:00</time>
        <ele>2952.0</ele>
      </trkpt>
      <trkpt lat="46.505651" lon="8.215738">
        <time>1970-01-01T00:00:00+00:00</time>
        <ele>2943.0</ele>
      </trkpt>
      <trkpt lat="46.505907" lon="8.21564">
        <time>1970-01-01T00:00:00+00:00</time>
        <ele>2942.0</ele>
      </trkpt>
      <trkpt lat="46.506227" lon="8.215717">
        <time>1970-01-01T00:00:00+00:00</time>
        <ele>2935.0</ele>
      </trkpt>
      <trkpt lat="46.506477" lon="8.215559">
        <time>1970-01-01T00:00:00+00:00</time>
        <ele>2938.0</ele>
      </trkpt>
      <trkpt lat="46.506765" lon="8.216201">
        <time>1970-01-01T00:00:00+00:00</time>
        <ele>2922.0</ele>
      </trkpt>
      <trkpt lat="46.5064" lon="8.215128">
        <time>1970-01-01T00:00:00+00:00</time>
        <ele>2955.0</ele>
      </trkpt>
      <trkpt lat="46.506336" lon="8.214411">
        <time>1970-01-01T00:00:00+00:00</time>
        <ele>2984.0</ele>
      </trkpt>
      <trkpt lat="46.505816" lon="8.213327">
        <time>1970-01-01T00:00:00+00:00</time>
        <ele>2991.0</ele>
      </trkpt>
      <trkpt lat="46.506031" lon="8.213836">
        <time>1970-01-01T00:00:00+00:00</time>
        <ele>2984.0</ele>
      </trkpt>
      <trkpt lat="46.506649" lon="8.215726">
        <time>1970-01-01T00:00:00+00:00</time>
        <ele>2935.0</ele>
      </trkpt>
      <trkpt lat="46.505959" lon="8.215509">
        <time>1970-01-01T00:00:00+00:00</time>
        <ele>2943.0</ele>
      </trkpt>
      <trkpt lat="46.506154" lon="8.215349">
        <time>1970-01-01T00:00:00+00:00</time>
        <ele>2943.0</ele>
      </trkpt>
      <trkpt lat="46.506449" lon="8.214873">
        <time>1970-01-01T00:00:00+00:00</time>
        <ele>2970.0</ele>
      </trkpt>
      <trkpt lat="46.506391" lon="8.214512">
        <time>1970-01-01T00:00:00+00:00</time>
        <ele>2982.0</ele>
      </trkpt>
      <trkpt lat="46.505443" lon="8.214704">
        <time>1970-01-01T00:00:00+00:00</time>
        <ele>2935.0</ele>
      </trkpt>
      <trkpt lat="46.506114" lon="8.214414">
        <time>1970-01-01T00:00:00+00:00</time>
        <ele>2974.0</ele>
      </trkpt>
      <trkpt lat="46.506006" lon="8.215411">
        <time>1970-01-01T00:00:00+00:00</time>
        <ele>2944.0</ele>
      </trkpt>
      <trkpt lat="46.506272" lon="8.215249">
        <time>1970-01-01T00:00:00+00:00</time>
        <ele>2947.0</ele>
      </trkpt>
      <trkpt lat="46.507246" lon="8.215299">
        <time>1970-01-01T00:00:00+00:00</time>
        <ele>2960.0</ele>
      </trkpt>
      <trkpt lat="46.507357" lon="8.215454">
        <time>1970-01-01T00:00:00+00:00</time>
        <ele>2956.0</ele>
      </trkpt>
      <trkpt lat="46.506491" lon="8.214179">
        <time>1970-01-01T00:00:00+00:00</time>
        <ele>2995.0</ele>
      </trkpt>
      <trkpt lat="46.507168" lon="8.214038">
        <time>1970-01-01T00:00:00+00:00</time>
        <ele>2992.0</ele>
      </trkpt>
      <trkpt lat="46.507041" lon="8.213964">
        <time>1970-01-01T00:00:00+00:00</time>
        <ele>2996.0</ele>
      </trkpt>
      <trkpt lat="46.506465" lon="8.213892">
        <time>1970-01-01T00:00:00+00:00</time>
        <ele>3004.0</ele>
      </trkpt>
      <trkpt lat="46.505986" lon="8.213681">
        <time>1970-01-01T00:00:00+00:00</time>
        <ele>2985.0</ele>
      </trkpt>
      <trkpt lat="46.505575" lon="8.213987">
        <time>1970-01-01T00:00:00+00:00</time>
        <ele>2955.0</ele>
      </trkpt>
      <trkpt lat="46.505798" lon="8.214044">
        <time>1970-01-01T00:00:00+00:00</time>
        <ele>2965.0</ele>
      </trkpt>
      <trkpt lat="46.505896" lon="8.214152">
        <time>1970-01-01T00:00:00+00:00</time>
        <ele>2967.0</ele>
      </trkpt>
      <trkpt lat="46.505517" lon="8.213684">
        <time>1970-01-01T00:00:00+00:00</time>
        <ele>2961.0</ele>
      </trkpt>
      <trkpt lat="46.505335" lon="8.213725">
        <time>1970-01-01T00:00:00+00:00</time>
        <ele>2951.0</ele>
      </trkpt>
      <trkpt lat="46.50632" lon="8.214248">
        <time>1970-01-01T00:00:00+00:00</time>
        <ele>2988.0</ele>
      </trkpt>
      <trkpt lat="46.506778" lon="8.214603">
        <time>1970-01-01T00:00:00+00:00</time>
        <ele>2985.0</ele>
      </trkpt>
      <trkpt lat="46.507424" lon="8.215275">
        <time>1970-01-01T00:00:00+00:00</time>
        <ele>2960.0</ele>
      </trkpt>
      <trkpt lat="46.50729" lon="8.214907">
        <time>1970-01-01T00:00:00+00:00</time>
        <ele>2976.0</ele>
      </trkpt>
      <trkpt lat="46.50742" lon="8.21437">
        <time>1970-01-01T00:00:00+00:00</time>
        <ele>2982.0</ele>
      </trkpt>
      <trkpt lat="46.507477" lon="8.214466">
        <time>1970-01-01T00:00:00+00:00</time>
        <ele>2979.0</ele>
      </trkpt>
      <trkpt lat="46.507502" lon="8.214397">
        <time>1970-01-01T00:00:00+00:00</time>
        <ele>2979.0</ele>
      </trkpt>
      <trkpt lat="46.507444" lon="8.214232">
        <time>1970-01-01T00:00:00+00:00</time>
        <ele>2982.0</ele>
      </trkpt>
      <trkpt lat="46.507337" lon="8.214317">
        <time>1970-01-01T00:00:00+00:00</time>
        <ele>2986.0</ele>
      </trkpt>
      <trkpt lat="46.507144" lon="8.214732">
        <time>1970-01-01T00:00:00+00:00</time>
        <ele>2983.0</ele>
      </trkpt>
      <trkpt lat="46.507231" lon="8.214706">
        <time>1970-01-01T00:00:00+00:00</time>
        <ele>2983.0</ele>
      </trkpt>
      <trkpt lat="46.507155" lon="8.214741">
        <time>1970-01-01T00:00:00+00:00</time>
        <ele>2983.0</ele>
      </trkpt>
      <trkpt lat="46.50704" lon="8.214606">
        <time>1970-01-01T00:00:00+00:00</time>
        <ele>2986.0</ele>
      </trkpt>
      <trkpt lat="46.506748" lon="8.213816">
        <time>1970-01-01T00:00:00+00:00</time>
        <ele>3005.0</ele>
      </trkpt>
      <trkpt lat="46.506732" lon="8.213862">
        <time>1970-01-01T00:00:00+00:00</time>
        <ele>3005.0</ele>
      </trkpt>
      <trkpt lat="46.506821" lon="8.213877">
        <time>1970-01-01T00:00:00+00:00</time>
        <ele>3004.0</ele>
      </trkpt>
      <trkpt lat="46.506841" lon="8.214141">
        <time>1970-01-01T00:00:00+00:00</time>
        <ele>2997.0</ele>
      </trkpt>
      <trkpt lat="46.507132" lon="8.214808">
        <time>1970-01-01T00:00:00+00:00</time>
        <ele>2981.0</ele>
      </trkpt>
      <trkpt lat="46.50715" lon="8.214744">
        <time>1970-01-01T00:00:00+00:00</time>
        <ele>2983.0</ele>
      </trkpt>
      <trkpt lat="46.507235" lon="8.214751">
        <time>1970-01-01T00:00:00+00:00</time>
        <ele>2982.0</ele>
      </trkpt>
      <trkpt lat="46.507429" lon="8.215129">
        <time>1970-01-01T00:00:00+00:00</time>
        <ele>2965.0</ele>
      </trkpt>
      <trkpt lat="46.507055" lon="8.215032">
        <time>1970-01-01T00:00:00+00:00</time>
        <ele>2971.0</ele>
      </trkpt>
      <trkpt lat="46.50662" lon="8.21411">
        <time>1970-01-01T00:00:00+00:00</time>
        <ele>2999.0</ele>
      </trkpt>
      <trkpt lat="46.506383" lon="8.213471">
        <time>1970-01-01T00:00:00+00:00</time>
        <ele>3013.0</ele>
      </trkpt>
      <trkpt lat="46.506564" lon="8.213318">
        <time>1970-01-01T00:00:00+00:00</time>
        <ele>3018.0</ele>
      </trkpt>
      <trkpt lat="46.506376" lon="8.213425">
        <time>1970-01-01T00:00:00+00:00</time>
        <ele>3015.0</ele>
      </trkpt>
      <trkpt lat="46.506468" lon="8.213462">
        <time>1970-01-01T00:00:00+00:00</time>
        <ele>3015.0</ele>
      </trkpt>
      <trkpt lat="46.506601" lon="8.213377">
        <time>1970-01-01T00:00:00+00:00</time>
        <ele>3017.0</ele>
      </trkpt>
      <trkpt lat="46.506655" lon="8.213569">
        <time>1970-01-01T00:00:00+00:00</time>
        <ele>3012.0</ele>
      </trkpt>
      <trkpt lat="46.506615" lon="8.213656">
        <time>1970-01-01T00:00:00+00:00</time>
        <ele>3010.0</ele>
      </trkpt>
      <trkpt lat="46.506478" lon="8.213613">
        <time>1970-01-01T00:00:00+00:00</time>
        <ele>3011.0</ele>
      </trkpt>
      <trkpt lat="46.506385" lon="8.213681">
        <time>1970-01-01T00:00:00+00:00</time>
        <ele>3007.0</ele>
      </trkpt>
      <trkpt lat="46.506496" lon="8.213973">
        <time>1970-01-01T00:00:00+00:00</time>
        <ele>3002.0</ele>
      </trkpt>
      <trkpt lat="46.506409" lon="8.213809">
        <time>1970-01-01T00:00:00+00:00</time>
        <ele>3005.0</ele>
      </trkpt>
      <trkpt lat="46.506318" lon="8.213793">
        <time>1970-01-01T00:00:00+00:00</time>
        <ele>3002.0</ele>
      </trkpt>
      <trkpt lat="46.506353" lon="8.213746">
        <time>1970-01-01T00:00:00+00:00</time>
        <ele>3004.0</ele>
      </trkpt>
      <trkpt lat="46.506311" lon="8.213675">
        <time>1970-01-01T00:00:00+00:00</time>
        <ele>3005.0</ele>
      </trkpt>
      <trkpt lat="46.506364" lon="8.213588">
        <time>1970-01-01T00:00:00+00:00</time>
        <ele>3009.0</ele>
      </trkpt>
      <trkpt lat="46.506411" lon="8.213825">
        <time>1970-01-01T00:00:00+00:00</time>
        <ele>3004.0</ele>
      </trkpt>
      <trkpt lat="46.506334" lon="8.213793">
        <time>1970-01-01T00:00:00+00:00</time>
        <ele>3002.0</ele>
      </trkpt>
      <trkpt lat="46.506366" lon="8.213755">
        <time>1970-01-01T00:00:00+00:00</time>
        <ele>3004.0</ele>
      </trkpt>
      <trkpt lat="46.506414" lon="8.213848">
        <time>1970-01-01T00:00:00+00:00</time>
        <ele>3004.0</ele>
      </trkpt>
      <trkpt lat="46.506309" lon="8.21362">
        <time>1970-01-01T00:00:00+00:00</time>
        <ele>3006.0</ele>
      </trkpt>
      <trkpt lat="46.506376" lon="8.213708">
        <time>1970-01-01T00:00:00+00:00</time>
        <ele>3006.0</ele>
      </trkpt>
      <trkpt lat="46.506311" lon="8.213736">
        <time>1970-01-01T00:00:00+00:00</time>
        <ele>3003.0</ele>
      </trkpt>
      <trkpt lat="46.506321" lon="8.213661">
        <time>1970-01-01T00:00:00+00:00</time>
        <ele>3005.0</ele>
      </trkpt>
      <trkpt lat="46.506338" lon="8.213711">
        <time>1970-01-01T00:00:00+00:00</time>
        <ele>3004.0</ele>
      </trkpt>
      <trkpt lat="46.506272" lon="8.213718">
        <time>1970-01-01T00:00:00+00:00</time>
        <ele>3002.0</ele>
      </trkpt>
      <trkpt lat="46.506472" lon="8.213688">
        <time>1970-01-01T00:00:00+00:00</time>
        <ele>3009.0</ele>
      </trkpt>
      <trkpt lat="46.506347" lon="8.213706">
        <time>1970-01-01T00:00:00+00:00</time>
        <ele>3005.0</ele>
      </trkpt>
      <trkpt lat="46.506423" lon="8.21369">
        <time>1970-01-01T00:00:00+00:00</time>
        <ele>3008.0</ele>
      </trkpt>
      <trkpt lat="46.506353" lon="8.213702">
        <time>1970-01-01T00:00:00+00:00</time>
        <ele>3005.0</ele>
      </trkpt>
      <trkpt lat="46.50632" lon="8.213445">
        <time>1970-01-01T00:00:00+00:00</time>
        <ele>3013.0</ele>
      </trkpt>
      <trkpt lat="46.506012" lon="8.212902">
        <time>1970-01-01T00:00:00+00:00</time>
        <ele>3014.0</ele>
      </trkpt>
      <trkpt lat="46.505938" lon="8.212475">
        <time>1970-01-01T00:00:00+00:00</time>
        <ele>3024.0</ele>
      </trkpt>
      <trkpt lat="46.505811" lon="8.212422">
        <time>1970-01-01T00:00:00+00:00</time>
        <ele>3023.0</ele>
      </trkpt>
      <trkpt lat="46.505777" lon="8.212313">
        <time>1970-01-01T00:00:00+00:00</time>
        <ele>3027.0</ele>
      </trkpt>
      <trkpt lat="46.505718" lon="8.21202">
        <time>1970-01-01T00:00:00+00:00</time>
        <ele>3035.0</ele>
      </trkpt>
      <trkpt lat="46.505759" lon="8.211765">
        <time>1970-01-01T00:00:00+00:00</time>
        <ele>3042.0</ele>
      </trkpt>
      <trkpt lat="46.505691" lon="8.211537">
        <time>1970-01-01T00:00:00+00:00</time>
        <ele>3049.0</ele>
      </trkpt>
      <trkpt lat="46.50573" lon="8.211414">
        <time>1970-01-01T00:00:00+00:00</time>
        <ele>3049.0</ele>
      </trkpt>
      <trkpt lat="46.505621" lon="8.211163">
        <time>1970-01-01T00:00:00+00:00</time>
        <ele>3056.0</ele>
      </trkpt>
      <trkpt lat="46.505639" lon="8.211047">
        <time>1970-01-01T00:00:00+00:00</time>
        <ele>3056.0</ele>
      </trkpt>
      <trkpt lat="46.505485" lon="8.211003">
        <time>1970-01-01T00:00:00+00:00</time>
        <ele>3063.0</ele>
      </trkpt>
      <trkpt lat="46.505508" lon="8.21106">
        <time>1970-01-01T00:00:00+00:00</time>
        <ele>3061.0</ele>
      </trkpt>
      <trkpt lat="46.505574" lon="8.210799">
        <time>1970-01-01T00:00:00+00:00</time>
        <ele>3063.0</ele>
      </trkpt>
      <trkpt lat="46.505578" lon="8.210948">
        <time>1970-01-01T00:00:00+00:00</time>
        <ele>3060.0</ele>
      </trkpt>
      <trkpt lat="46.50551" lon="8.211051">
        <time>1970-01-01T00:00:00+00:00</time>
        <ele>3062.0</ele>
      </trkpt>
      <trkpt lat="46.505598" lon="8.210924">
        <time>1970-01-01T00:00:00+00:00</time>
        <ele>3060.0</ele>
      </trkpt>
      <trkpt lat="46.505477" lon="8.211043">
        <time>1970-01-01T00:00:00+00:00</time>
        <ele>3063.0</ele>
      </trkpt>
      <trkpt lat="46.50553" lon="8.210999">
        <time>1970-01-01T00:00:00+00:00</time>
        <ele>3062.0</ele>
      </trkpt>
      <trkpt lat="46.50551" lon="8.210922">
        <time>1970-01-01T00:00:00+00:00</time>
        <ele>3064.0</ele>
      </trkpt>
      <trkpt lat="46.505481" lon="8.21107">
        <time>1970-01-01T00:00:00+00:00</time>
        <ele>3062.0</ele>
      </trkpt>
      <trkpt lat="46.505558" lon="8.211016">
        <time>1970-01-01T00:00:00+00:00</time>
        <ele>3060.0</ele>
      </trkpt>
      <trkpt lat="46.505496" lon="8.210983">
        <time>1970-01-01T00:00:00+00:00</time>
        <ele>3063.0</ele>
      </trkpt>
      <trkpt lat="46.505535" lon="8.210948">
        <time>1970-01-01T00:00:00+00:00</time>
        <ele>3062.0</ele>
      </trkpt>
      <trkpt lat="46.505514" lon="8.211002">
        <time>1970-01-01T00:00:00+00:00</time>
        <ele>3062.0</ele>
      </trkpt>
      <trkpt lat="46.505557" lon="8.211039">
        <time>1970-01-01T00:00:00+00:00</time>
        <ele>3060.0</ele>
      </trkpt>
      <trkpt lat="46.505498" lon="8.211044">
        <time>1970-01-01T00:00:00+00:00</time>
        <ele>3062.0</ele>
      </trkpt>
      <trkpt lat="46.505489" lon="8.210975">
        <time>1970-01-01T00:00:00+00:00</time>
        <ele>3064.0</ele>
      </trkpt>
      <trkpt lat="46.506138" lon="8.210234">
        <time>1970-01-01T00:00:00+00:00</time>
        <ele>3044.0</ele>
      </trkpt>
      <trkpt lat="46.506936" lon="8.20973">
        <time>1970-01-01T00:00:00+00:00</time>
        <ele>3010.0</ele>
      </trkpt>
      <trkpt lat="46.507621" lon="8.210038">
        <time>1970-01-01T00:00:00+00:00</time>
        <ele>2981.0</ele>
      </trkpt>
      <trkpt lat="46.507752" lon="8.21003">
        <time>1970-01-01T00:00:00+00:00</time>
        <ele>2974.0</ele>
      </trkpt>
      <trkpt lat="46.507642" lon="8.209994">
        <time>1970-01-01T00:00:00+00:00</time>
        <ele>2980.0</ele>
      </trkpt>
      <trkpt lat="46.507815" lon="8.209709">
        <time>1970-01-01T00:00:00+00:00</time>
        <ele>2972.0</ele>
      </trkpt>
      <trkpt lat="46.508253" lon="8.209281">
        <time>1970-01-01T00:00:00+00:00</time>
        <ele>2954.0</ele>
      </trkpt>
      <trkpt lat="46.509046" lon="8.209095">
        <time>1970-01-01T00:00:00+00:00</time>
        <ele>2921.0</ele>
      </trkpt>
      <trkpt lat="46.510069" lon="8.208266">
        <time>1970-01-01T00:00:00+00:00</time>
        <ele>2867.0</ele>
      </trkpt>
      <trkpt lat="46.510999" lon="8.207802">
        <time>1970-01-01T00:00:00+00:00</time>
        <ele>2825.0</ele>
      </trkpt>
      <trkpt lat="46.511315" lon="8.207383">
        <time>1970-01-01T00:00:00+00:00</time>
        <ele>2819.0</ele>
      </trkpt>
      <trkpt lat="46.511594" lon="8.207524">
        <time>1970-01-01T00:00:00+00:00</time>
        <ele>2809.0</ele>
      </trkpt>
      <trkpt lat="46.511241" lon="8.207264">
        <time>1970-01-01T00:00:00+00:00</time>
        <ele>2824.0</ele>
      </trkpt>
      <trkpt lat="46.511416" lon="8.207428">
        <time>1970-01-01T00:00:00+00:00</time>
        <ele>2814.0</ele>
      </trkpt>
      <trkpt lat="46.511456" lon="8.207274">
        <time>1970-01-01T00:00:00+00:00</time>
        <ele>2818.0</ele>
      </trkpt>
      <trkpt lat="46.51135" lon="8.207163">
        <time>1970-01-01T00:00:00+00:00</time>
        <ele>2825.0</ele>
      </trkpt>
      <trkpt lat="46.511471" lon="8.207406">
        <time>1970-01-01T00:00:00+00:00</time>
        <ele>2814.0</ele>
      </trkpt>
      <trkpt lat="46.511603" lon="8.207407">
        <time>1970-01-01T00:00:00+00:00</time>
        <ele>2812.0</ele>
      </trkpt>
      <trkpt lat="46.511698" lon="8.207574">
        <time>1970-01-01T00:00:00+00:00</time>
        <ele>2807.0</ele>
      </trkpt>
      <trkpt lat="46.511441" lon="8.20759">
        <time>1970-01-01T00:00:00+00:00</time>
        <ele>2811.0</ele>
      </trkpt>
      <trkpt lat="46.512312" lon="8.207727">
        <time>1970-01-01T00:00:00+00:00</time>
        <ele>2799.0</ele>
      </trkpt>
      <trkpt lat="46.512009" lon="8.207676">
        <time>1970-01-01T00:00:00+00:00</time>
        <ele>2801.0</ele>
      </trkpt>
      <trkpt lat="46.511324" lon="8.207346">
        <time>1970-01-01T00:00:00+00:00</time>
        <ele>2820.0</ele>
      </trkpt>
      <trkpt lat="46.511457" lon="8.206481">
        <time>1970-01-01T00:00:00+00:00</time>
        <ele>2845.0</ele>
      </trkpt>
      <trkpt lat="46.511567" lon="8.20679">
        <time>1970-01-01T00:00:00+00:00</time>
        <ele>2833.0</ele>
      </trkpt>
      <trkpt lat="46.511351" lon="8.207123">
        <time>1970-01-01T00:00:00+00:00</time>
        <ele>2826.0</ele>
      </trkpt>
      <trkpt lat="46.511419" lon="8.207434">
        <time>1970-01-01T00:00:00+00:00</time>
        <ele>2814.0</ele>
      </trkpt>
      <trkpt lat="46.51147" lon="8.207258">
        <time>1970-01-01T00:00:00+00:00</time>
        <ele>2818.0</ele>
      </trkpt>
      <trkpt lat="46.511432" lon="8.206654">
        <time>1970-01-01T00:00:00+00:00</time>
        <ele>2840.0</ele>
      </trkpt>
      <trkpt lat="46.512202" lon="8.207934">
        <time>1970-01-01T00:00:00+00:00</time>
        <ele>2795.0</ele>
      </trkpt>
      <trkpt lat="46.512126" lon="8.20795">
        <time>1970-01-01T00:00:00+00:00</time>
        <ele>2795.0</ele>
      </trkpt>
      <trkpt lat="46.512346" lon="8.207974">
        <time>1970-01-01T00:00:00+00:00</time>
        <ele>2794.0</ele>
      </trkpt>
      <trkpt lat="46.512249" lon="8.20721">
        <time>1970-01-01T00:00:00+00:00</time>
        <ele>2809.0</ele>
      </trkpt>
      <trkpt lat="46.511993" lon="8.206492">
        <time>1970-01-01T00:00:00+00:00</time>
        <ele>2831.0</ele>
      </trkpt>
      <trkpt lat="46.512307" lon="8.207695">
        <time>1970-01-01T00:00:00+00:00</time>
        <ele>2799.0</ele>
      </trkpt>
      <trkpt lat="46.51221" lon="8.207709">
        <time>1970-01-01T00:00:00+00:00</time>
        <ele>2799.0</ele>
      </trkpt>
      <trkpt lat="46.511793" lon="8.207401">
        <time>1970-01-01T00:00:00+00:00</time>
        <ele>2809.0</ele>
      </trkpt>
      <trkpt lat="46.511546" lon="8.207464">
        <time>1970-01-01T00:00:00+00:00</time>
        <ele>2811.0</ele>
      </trkpt>
      <trkpt lat="46.511785" lon="8.208077">
        <time>1970-01-01T00:00:00+00:00</time>
        <ele>2796.0</ele>
      </trkpt>
      <trkpt lat="46.511451" lon="8.207486">
        <time>1970-01-01T00:00:00+00:00</time>
        <ele>2812.0</ele>
      </trkpt>
      <trkpt lat="46.512091" lon="8.207881">
        <time>1970-01-01T00:00:00+00:00</time>
        <ele>2796.0</ele>
      </trkpt>
      <trkpt lat="46.512298" lon="8.20776">
        <time>1970-01-01T00:00:00+00:00</time>
        <ele>2798.0</ele>
      </trkpt>
      <trkpt lat="46.512342" lon="8.207631">
        <time>1970-01-01T00:00:00+00:00</time>
        <ele>2800.0</ele>
      </trkpt>
      <trkpt lat="46.512207" lon="8.207997">
        <time>1970-01-01T00:00:00+00:00</time>
        <ele>2793.0</ele>
      </trkpt>
      <trkpt lat="46.511905" lon="8.207598">
        <time>1970-01-01T00:00:00+00:00</time>
        <ele>2803.0</ele>
      </trkpt>
      <trkpt lat="46.511185" lon="8.207247">
        <time>1970-01-01T00:00:00+00:00</time>
        <ele>2827.0</ele>
      </trkpt>
      <trkpt lat="46.51201" lon="8.207653">
        <time>1970-01-01T00:00:00+00:00</time>
        <ele>2801.0</ele>
      </trkpt>
      <trkpt lat="46.511964" lon="8.207629">
        <time>1970-01-01T00:00:00+00:00</time>
        <ele>2802.0</ele>
      </trkpt>
      <trkpt lat="46.512106" lon="8.207578">
        <time>1970-01-01T00:00:00+00:00</time>
        <ele>2802.0</ele>
      </trkpt>
      <trkpt lat="46.511979" lon="8.207657">
        <time>1970-01-01T00:00:00+00:00</time>
        <ele>2801.0</ele>
      </trkpt>
      <trkpt lat="46.512042" lon="8.207803">
        <time>1970-01-01T00:00:00+00:00</time>
        <ele>2798.0</ele>
      </trkpt>
      <trkpt lat="46.512124" lon="8.207616">
        <time>1970-01-01T00:00:00+00:00</time>
        <ele>2801.0</ele>
      </trkpt>
      <trkpt lat="46.512105" lon="8.20781">
        <time>1970-01-01T00:00:00+00:00</time>
        <ele>2798.0</ele>
      </trkpt>
      <trkpt lat="46.511824" lon="8.207724">
        <time>1970-01-01T00:00:00+00:00</time>
        <ele>2802.0</ele>
      </trkpt>
      <trkpt lat="46.511929" lon="8.207756">
        <time>1970-01-01T00:00:00+00:00</time>
        <ele>2800.0</ele>
      </trkpt>
      <trkpt lat="46.511969" lon="8.207883">
        <time>1970-01-01T00:00:00+00:00</time>
        <ele>2797.0</ele>
      </trkpt>
      <trkpt lat="46.512094" lon="8.207669">
        <time>1970-01-01T00:00:00+00:00</time>
        <ele>2800.0</ele>
      </trkpt>
      <trkpt lat="46.512015" lon="8.207726">
        <time>1970-01-01T00:00:00+00:00</time>
        <ele>2800.0</ele>
      </trkpt>
      <trkpt lat="46.512109" lon="8.207661">
        <time>1970-01-01T00:00:00+00:00</time>
        <ele>2800.0</ele>
      </trkpt>
      <trkpt lat="46.512403" lon="8.207177">
        <time>1970-01-01T00:00:00+00:00</time>
        <ele>2809.0</ele>
      </trkpt>
      <trkpt lat="46.512623" lon="8.206567">
        <time>1970-01-01T00:00:00+00:00</time>
        <ele>2820.0</ele>
      </trkpt>
      <trkpt lat="46.512746" lon="8.206709">
        <time>1970-01-01T00:00:00+00:00</time>
        <ele>2817.0</ele>
      </trkpt>
      <trkpt lat="46.512873" lon="8.206663">
        <time>1970-01-01T00:00:00+00:00</time>
        <ele>2818.0</ele>
      </trkpt>
      <trkpt lat="46.513226" lon="8.206043">
        <time>1970-01-01T00:00:00+00:00</time>
        <ele>2824.0</ele>
      </trkpt>
      <trkpt lat="46.513567" lon="8.20563">
        <time>1970-01-01T00:00:00+00:00</time>
        <ele>2828.0</ele>
      </trkpt>
      <trkpt lat="46.513731" lon="8.205254">
        <time>1970-01-01T00:00:00+00:00</time>
        <ele>2832.0</ele>
      </trkpt>
      <trkpt lat="46.51383" lon="8.205276">
        <time>1970-01-01T00:00:00+00:00</time>
        <ele>2832.0</ele>
      </trkpt>
      <trkpt lat="46.513961" lon="8.205004">
        <time>1970-01-01T00:00:00+00:00</time>
        <ele>2835.0</ele>
      </trkpt>
      <trkpt lat="46.514153" lon="8.204785">
        <time>1970-01-01T00:00:00+00:00</time>
        <ele>2839.0</ele>
      </trkpt>
      <trkpt lat="46.514265" lon="8.20449">
        <time>1970-01-01T00:00:00+00:00</time>
        <ele>2841.0</ele>
      </trkpt>
      <trkpt lat="46.514425" lon="8.204345">
        <time>1970-01-01T00:00:00+00:00</time>
        <ele>2843.0</ele>
      </trkpt>
      <trkpt lat="46.514988" lon="8.203463">
        <time>1970-01-01T00:00:00+00:00</time>
        <ele>2855.0</ele>
      </trkpt>
      <trkpt lat="46.515487" lon="8.202838">
        <time>1970-01-01T00:00:00+00:00</time>
        <ele>2864.0</ele>
      </trkpt>
      <trkpt lat="46.515682" lon="8.202433">
        <time>1970-01-01T00:00:00+00:00</time>
        <ele>2869.0</ele>
      </trkpt>
      <trkpt lat="46.515797" lon="8.202433">
        <time>1970-01-01T00:00:00+00:00</time>
        <ele>2870.0</ele>
      </trkpt>
      <trkpt lat="46.515824" lon="8.202154">
        <time>1970-01-01T00:00:00+00:00</time>
        <ele>2873.0</ele>
      </trkpt>
      <trkpt lat="46.515736" lon="8.201919">
        <time>1970-01-01T00:00:00+00:00</time>
        <ele>2874.0</ele>
      </trkpt>
      <trkpt lat="46.51582" lon="8.202148">
        <time>1970-01-01T00:00:00+00:00</time>
        <ele>2873.0</ele>
      </trkpt>
      <trkpt lat="46.51597" lon="8.202156">
        <time>1970-01-01T00:00:00+00:00</time>
        <ele>2875.0</ele>
      </trkpt>
      <trkpt lat="46.515934" lon="8.202188">
        <time>1970-01-01T00:00:00+00:00</time>
        <ele>2874.0</ele>
      </trkpt>
      <trkpt lat="46.516044" lon="8.201953">
        <time>1970-01-01T00:00:00+00:00</time>
        <ele>2878.0</ele>
      </trkpt>
      <trkpt lat="46.51628" lon="8.201846">
        <time>1970-01-01T00:00:00+00:00</time>
        <ele>2882.0</ele>
      </trkpt>
      <trkpt lat="46.516326" lon="8.201653">
        <time>1970-01-01T00:00:00+00:00</time>
        <ele>2885.0</ele>
      </trkpt>
      <trkpt lat="46.516508" lon="8.20155">
        <time>1970-01-01T00:00:00+00:00</time>
        <ele>2888.0</ele>
      </trkpt>
      <trkpt lat="46.516562" lon="8.201436">
        <time>1970-01-01T00:00:00+00:00</time>
        <ele>2890.0</ele>
      </trkpt>
      <trkpt lat="46.516778" lon="8.201378">
        <time>1970-01-01T00:00:00+00:00</time>
        <ele>2894.0</ele>
      </trkpt>
      <trkpt lat="46.516825" lon="8.201142">
        <time>1970-01-01T00:00:00+00:00</time>
        <ele>2898.0</ele>
      </trkpt>
      <trkpt lat="46.51702" lon="8.20121">
        <time>1970-01-01T00:00:00+00:00</time>
        <ele>2899.0</ele>
      </trkpt>
      <trkpt lat="46.517028" lon="8.201037">
        <time>1970-01-01T00:00:00+00:00</time>
        <ele>2902.0</ele>
      </trkpt>
      <trkpt lat="46.517099" lon="8.201015">
        <time>1970-01-01T00:00:00+00:00</time>
        <ele>2903.0</ele>
      </trkpt>
      <trkpt lat="46.517053" lon="8.200952">
        <time>1970-01-01T00:00:00+00:00</time>
        <ele>2903.0</ele>
      </trkpt>
      <trkpt lat="46.51717" lon="8.200667">
        <time>1970-01-01T00:00:00+00:00</time>
        <ele>2909.0</ele>
      </trkpt>
      <trkpt lat="46.517408" lon="8.201001">
        <time>1970-01-01T00:00:00+00:00</time>
        <ele>2911.0</ele>
      </trkpt>
      <trkpt lat="46.517489" lon="8.200945">
        <time>1970-01-01T00:00:00+00:00</time>
        <ele>2914.0</ele>
      </trkpt>
      <trkpt lat="46.517504" lon="8.200846">
        <time>1970-01-01T00:00:00+00:00</time>
        <ele>2915.0</ele>
      </trkpt>
      <trkpt lat="46.517602" lon="8.201138">
        <time>1970-01-01T00:00:00+00:00</time>
        <ele>2914.0</ele>
      </trkpt>
      <trkpt lat="46.517768" lon="8.201123">
        <time>1970-01-01T00:00:00+00:00</time>
        <ele>2920.0</ele>
      </trkpt>
      <trkpt lat="46.517765" lon="8.200983">
        <time>1970-01-01T00:00:00+00:00</time>
        <ele>2921.0</ele>
      </trkpt>
      <trkpt lat="46.517872" lon="8.201159">
        <time>1970-01-01T00:00:00+00:00</time>
        <ele>2923.0</ele>
      </trkpt>
      <trkpt lat="46.518009" lon="8.201152">
        <time>1970-01-01T00:00:00+00:00</time>
        <ele>2927.0</ele>
      </trkpt>
      <trkpt lat="46.51803" lon="8.200982">
        <time>1970-01-01T00:00:00+00:00</time>
        <ele>2930.0</ele>
      </trkpt>
      <trkpt lat="46.518165" lon="8.201162">
        <time>1970-01-01T00:00:00+00:00</time>
        <ele>2931.0</ele>
      </trkpt>
      <trkpt lat="46.518264" lon="8.201108">
        <time>1970-01-01T00:00:00+00:00</time>
        <ele>2935.0</ele>
      </trkpt>
      <trkpt lat="46.518242" lon="8.20105">
        <time>1970-01-01T00:00:00+00:00</time>
        <ele>2935.0</ele>
      </trkpt>
      <trkpt lat="46.518279" lon="8.201111">
        <time>1970-01-01T00:00:00+00:00</time>
        <ele>2935.0</ele>
      </trkpt>
      <trkpt lat="46.518213" lon="8.200873">
        <time>1970-01-01T00:00:00+00:00</time>
        <ele>2937.0</ele>
      </trkpt>
      <trkpt lat="46.518432" lon="8.20121">
        <time>1970-01-01T00:00:00+00:00</time>
        <ele>2938.0</ele>
      </trkpt>
      <trkpt lat="46.518464" lon="8.201161">
        <time>1970-01-01T00:00:00+00:00</time>
        <ele>2940.0</ele>
      </trkpt>
      <trkpt lat="46.518649" lon="8.201271">
        <time>1970-01-01T00:00:00+00:00</time>
        <ele>2944.0</ele>
      </trkpt>
      <trkpt lat="46.519007" lon="8.201271">
        <time>1970-01-01T00:00:00+00:00</time>
        <ele>2953.0</ele>
      </trkpt>
      <trkpt lat="46.518967" lon="8.201319">
        <time>1970-01-01T00:00:00+00:00</time>
        <ele>2952.0</ele>
      </trkpt>
      <trkpt lat="46.518954" lon="8.201206">
        <time>1970-01-01T00:00:00+00:00</time>
        <ele>2953.0</ele>
      </trkpt>
      <trkpt lat="46.519366" lon="8.201002">
        <time>1970-01-01T00:00:00+00:00</time>
        <ele>2965.0</ele>
      </trkpt>
      <trkpt lat="46.519486" lon="8.20072">
        <time>1970-01-01T00:00:00+00:00</time>
        <ele>2972.0</ele>
      </trkpt>
      <trkpt lat="46.51962" lon="8.200615">
        <time>1970-01-01T00:00:00+00:00</time>
        <ele>2977.0</ele>
      </trkpt>
      <trkpt lat="46.519703" lon="8.200659">
        <time>1970-01-01T00:00:00+00:00</time>
        <ele>2978.0</ele>
      </trkpt>
      <trkpt lat="46.51977" lon="8.200404">
        <time>1970-01-01T00:00:00+00:00</time>
        <ele>2981.0</ele>
      </trkpt>
      <trkpt lat="46.519852" lon="8.20044">
        <time>1970-01-01T00:00:00+00:00</time>
        <ele>2982.0</ele>
      </trkpt>
      <trkpt lat="46.519913" lon="8.200374">
        <time>1970-01-01T00:00:00+00:00</time>
        <ele>2985.0</ele>
      </trkpt>
      <trkpt lat="46.520222" lon="8.199639">
        <time>1970-01-01T00:00:00+00:00</time>
        <ele>2999.0</ele>
      </trkpt>
      <trkpt lat="46.520198" lon="8.199545">
        <time>1970-01-01T00:00:00+00:00</time>
        <ele>2999.0</ele>
      </trkpt>
      <trkpt lat="46.520154" lon="8.199562">
        <time>1970-01-01T00:00:00+00:00</time>
        <ele>2998.0</ele>
      </trkpt>
      <trkpt lat="46.519866" lon="8.199828">
        <time>1970-01-01T00:00:00+00:00</time>
        <ele>2990.0</ele>
      </trkpt>
      <trkpt lat="46.520202" lon="8.199262">
        <time>1970-01-01T00:00:00+00:00</time>
        <ele>3003.0</ele>
      </trkpt>
      <trkpt lat="46.520064" lon="8.198974">
        <time>1970-01-01T00:00:00+00:00</time>
        <ele>3005.0</ele>
      </trkpt>
      <trkpt lat="46.520102" lon="8.198722">
        <time>1970-01-01T00:00:00+00:00</time>
        <ele>3009.0</ele>
      </trkpt>
      <trkpt lat="46.519995" lon="8.198476">
        <time>1970-01-01T00:00:00+00:00</time>
        <ele>3012.0</ele>
      </trkpt>
      <trkpt lat="46.520075" lon="8.198358">
        <time>1970-01-01T00:00:00+00:00</time>
        <ele>3015.0</ele>
      </trkpt>
      <trkpt lat="46.519443" lon="8.197097">
        <time>1970-01-01T00:00:00+00:00</time>
        <ele>3032.0</ele>
      </trkpt>
      <trkpt lat="46.519321" lon="8.19772">
        <time>1970-01-01T00:00:00+00:00</time>
        <ele>3017.0</ele>
      </trkpt>
      <trkpt lat="46.519442" lon="8.19755">
        <time>1970-01-01T00:00:00+00:00</time>
        <ele>3023.0</ele>
      </trkpt>
      <trkpt lat="46.519867" lon="8.197615">
        <time>1970-01-01T00:00:00+00:00</time>
        <ele>3025.0</ele>
      </trkpt>
      <trkpt lat="46.519866" lon="8.197502">
        <time>1970-01-01T00:00:00+00:00</time>
        <ele>3028.0</ele>
      </trkpt>
      <trkpt lat="46.519706" lon="8.197209">
        <time>1970-01-01T00:00:00+00:00</time>
        <ele>3032.0</ele>
      </trkpt>
      <trkpt lat="46.519783" lon="8.197124">
        <time>1970-01-01T00:00:00+00:00</time>
        <ele>3034.0</ele>
      </trkpt>
      <trkpt lat="46.519731" lon="8.196895">
        <time>1970-01-01T00:00:00+00:00</time>
        <ele>3038.0</ele>
      </trkpt>
      <trkpt lat="46.519984" lon="8.196703">
        <time>1970-01-01T00:00:00+00:00</time>
        <ele>3042.0</ele>
      </trkpt>
      <trkpt lat="46.520288" lon="8.197309">
        <time>1970-01-01T00:00:00+00:00</time>
        <ele>3033.0</ele>
      </trkpt>
      <trkpt lat="46.519806" lon="8.19697">
        <time>1970-01-01T00:00:00+00:00</time>
        <ele>3037.0</ele>
      </trkpt>
      <trkpt lat="46.520101" lon="8.197013">
        <time>1970-01-01T00:00:00+00:00</time>
        <ele>3038.0</ele>
      </trkpt>
      <trkpt lat="46.519883" lon="8.197239">
        <time>1970-01-01T00:00:00+00:00</time>
        <ele>3033.0</ele>
      </trkpt>
      <trkpt lat="46.520154" lon="8.196889">
        <time>1970-01-01T00:00:00+00:00</time>
        <ele>3040.0</ele>
      </trkpt>
      <trkpt lat="46.519965" lon="8.197121">
        <time>1970-01-01T00:00:00+00:00</time>
        <ele>3035.0</ele>
      </trkpt>
      <trkpt lat="46.520143" lon="8.197038">
        <time>1970-01-01T00:00:00+00:00</time>
        <ele>3037.0</ele>
      </trkpt>
      <trkpt lat="46.520139" lon="8.196842">
        <time>1970-01-01T00:00:00+00:00</time>
        <ele>3040.0</ele>
      </trkpt>
      <trkpt lat="46.519972" lon="8.197517">
        <time>1970-01-01T00:00:00+00:00</time>
        <ele>3028.0</ele>
      </trkpt>
      <trkpt lat="46.519984" lon="8.197352">
        <time>1970-01-01T00:00:00+00:00</time>
        <ele>3031.0</ele>
      </trkpt>
      <trkpt lat="46.519845" lon="8.196884">
        <time>1970-01-01T00:00:00+00:00</time>
        <ele>3038.0</ele>
      </trkpt>
      <trkpt lat="46.519476" lon="8.196347">
        <time>1970-01-01T00:00:00+00:00</time>
        <ele>3047.0</ele>
      </trkpt>
      <trkpt lat="46.518988" lon="8.19578">
        <time>1970-01-01T00:00:00+00:00</time>
        <ele>3058.0</ele>
      </trkpt>
      <trkpt lat="46.519592" lon="8.196092">
        <time>1970-01-01T00:00:00+00:00</time>
        <ele>3052.0</ele>
      </trkpt>
      <trkpt lat="46.518913" lon="8.195388">
        <time>1970-01-01T00:00:00+00:00</time>
        <ele>3064.0</ele>
      </trkpt>
      <trkpt lat="46.518585" lon="8.195991">
        <time>1970-01-01T00:00:00+00:00</time>
        <ele>3057.0</ele>
      </trkpt>
      <trkpt lat="46.518747" lon="8.195563">
        <time>1970-01-01T00:00:00+00:00</time>
        <ele>3064.0</ele>
      </trkpt>
      <trkpt lat="46.518761" lon="8.195034">
        <time>1970-01-01T00:00:00+00:00</time>
        <ele>3068.0</ele>
      </trkpt>
      <trkpt lat="46.519219" lon="8.195225">
        <time>1970-01-01T00:00:00+00:00</time>
        <ele>3063.0</ele>
      </trkpt>
      <trkpt lat="46.518633" lon="8.194538">
        <time>1970-01-01T00:00:00+00:00</time>
        <ele>3074.0</ele>
      </trkpt>
      <trkpt lat="46.51904" lon="8.194633">
        <time>1970-01-01T00:00:00+00:00</time>
        <ele>3068.0</ele>
      </trkpt>
      <trkpt lat="46.518849" lon="8.19464">
        <time>1970-01-01T00:00:00+00:00</time>
        <ele>3070.0</ele>
      </trkpt>
      <trkpt lat="46.518665" lon="8.194757">
        <time>1970-01-01T00:00:00+00:00</time>
        <ele>3072.0</ele>
      </trkpt>
      <trkpt lat="46.5185" lon="8.194731">
        <time>1970-01-01T00:00:00+00:00</time>
        <ele>3075.0</ele>
      </trkpt>
      <trkpt lat="46.518201" lon="8.19438">
        <time>1970-01-01T00:00:00+00:00</time>
        <ele>3088.0</ele>
      </trkpt>
      <trkpt lat="46.51807" lon="8.19521">
        <time>1970-01-01T00:00:00+00:00</time>
        <ele>3080.0</ele>
      </trkpt>
      <trkpt lat="46.517856" lon="8.194783">
        <time>1970-01-01T00:00:00+00:00</time>
        <ele>3091.0</ele>
      </trkpt>
      <trkpt lat="46.517792" lon="8.194544">
        <time>1970-01-01T00:00:00+00:00</time>
        <ele>3099.0</ele>
      </trkpt>
      <trkpt lat="46.518126" lon="8.193513">
        <time>1970-01-01T00:00:00+00:00</time>
        <ele>3103.0</ele>
      </trkpt>
      <trkpt lat="46.518496" lon="8.193521">
        <time>1970-01-01T00:00:00+00:00</time>
        <ele>3089.0</ele>
      </trkpt>
      <trkpt lat="46.517932" lon="8.193925">
        <time>1970-01-01T00:00:00+00:00</time>
        <ele>3104.0</ele>
      </trkpt>
      <trkpt lat="46.517612" lon="8.193883">
        <time>1970-01-01T00:00:00+00:00</time>
        <ele>3118.0</ele>
      </trkpt>
      <trkpt lat="46.51727" lon="8.194497">
        <time>1970-01-01T00:00:00+00:00</time>
        <ele>3119.0</ele>
      </trkpt>
      <trkpt lat="46.517452" lon="8.194122">
        <time>1970-01-01T00:00:00+00:00</time>
        <ele>3118.0</ele>
      </trkpt>
      <trkpt lat="46.517465" lon="8.1938">
        <time>1970-01-01T00:00:00+00:00</time>
        <ele>3125.0</ele>
      </trkpt>
      <trkpt lat="46.517002" lon="8.194505">
        <time>1970-01-01T00:00:00+00:00</time>
        <ele>3138.0</ele>
      </trkpt>
      <trkpt lat="46.517067" lon="8.194354">
        <time>1970-01-01T00:00:00+00:00</time>
        <ele>3136.0</ele>
      </trkpt>
      <trkpt lat="46.516655" lon="8.194462">
        <time>1970-01-01T00:00:00+00:00</time>
        <ele>3160.0</ele>
      </trkpt>
      <trkpt lat="46.51658" lon="8.194396">
        <time>1970-01-01T00:00:00+00:00</time>
        <ele>3166.0</ele>
      </trkpt>
      <trkpt lat="46.516655" lon="8.19436">
        <time>1970-01-01T00:00:00+00:00</time>
        <ele>3162.0</ele>
      </trkpt>
      <trkpt lat="46.516623" lon="8.194365">
        <time>1970-01-01T00:00:00+00:00</time>
        <ele>3164.0</ele>
      </trkpt>
      <trkpt lat="46.516862" lon="8.193842">
        <time>1970-01-01T00:00:00+00:00</time>
        <ele>3156.0</ele>
      </trkpt>
      <trkpt lat="46.516596" lon="8.194341">
        <time>1970-01-01T00:00:00+00:00</time>
        <ele>3165.0</ele>
      </trkpt>
      <trkpt lat="46.517113" lon="8.193599">
        <time>1970-01-01T00:00:00+00:00</time>
        <ele>3146.0</ele>
      </trkpt>
      <trkpt lat="46.517087" lon="8.193301">
        <time>1970-01-01T00:00:00+00:00</time>
        <ele>3152.0</ele>
      </trkpt>
      <trkpt lat="46.516559" lon="8.194079">
        <time>1970-01-01T00:00:00+00:00</time>
        <ele>3172.0</ele>
      </trkpt>
      <trkpt lat="46.516619" lon="8.193948">
        <time>1970-01-01T00:00:00+00:00</time>
        <ele>3170.0</ele>
      </trkpt>
      <trkpt lat="46.516542" lon="8.194016">
        <time>1970-01-01T00:00:00+00:00</time>
        <ele>3174.0</ele>
      </trkpt>
      <trkpt lat="46.516413" lon="8.193958">
        <time>1970-01-01T00:00:00+00:00</time>
        <ele>3183.0</ele>
      </trkpt>
      <trkpt lat="46.517073" lon="8.193072">
        <time>1970-01-01T00:00:00+00:00</time>
        <ele>3157.0</ele>
      </trkpt>
      <trkpt lat="46.516992" lon="8.192706">
        <time>1970-01-01T00:00:00+00:00</time>
        <ele>3169.0</ele>
      </trkpt>
      <trkpt lat="46.516356" lon="8.193669">
        <time>1970-01-01T00:00:00+00:00</time>
        <ele>3190.0</ele>
      </trkpt>
      <trkpt lat="46.516975" lon="8.193358">
        <time>1970-01-01T00:00:00+00:00</time>
        <ele>3158.0</ele>
      </trkpt>
      <trkpt lat="46.517054" lon="8.193061">
        <time>1970-01-01T00:00:00+00:00</time>
        <ele>3159.0</ele>
      </trkpt>
      <trkpt lat="46.51687" lon="8.192496">
        <time>1970-01-01T00:00:00+00:00</time>
        <ele>3178.0</ele>
      </trkpt>
      <trkpt lat="46.517786" lon="8.191974">
        <time>1970-01-01T00:00:00+00:00</time>
        <ele>3144.0</ele>
      </trkpt>
      <trkpt lat="46.517394" lon="8.192347">
        <time>1970-01-01T00:00:00+00:00</time>
        <ele>3153.0</ele>
      </trkpt>
      <trkpt lat="46.516969" lon="8.192925">
        <time>1970-01-01T00:00:00+00:00</time>
        <ele>3166.0</ele>
      </trkpt>
      <trkpt lat="46.516564" lon="8.192091">
        <time>1970-01-01T00:00:00+00:00</time>
        <ele>3201.0</ele>
      </trkpt>
      <trkpt lat="46.517847" lon="8.191555">
        <time>1970-01-01T00:00:00+00:00</time>
        <ele>3147.0</ele>
      </trkpt>
      <trkpt lat="46.517702" lon="8.191655">
        <time>1970-01-01T00:00:00+00:00</time>
        <ele>3153.0</ele>
      </trkpt>
      <trkpt lat="46.518171" lon="8.192045">
        <time>1970-01-01T00:00:00+00:00</time>
        <ele>3127.0</ele>
      </trkpt>
      <trkpt lat="46.51813" lon="8.191765">
        <time>1970-01-01T00:00:00+00:00</time>
        <ele>3132.0</ele>
      </trkpt>
      <trkpt lat="46.5183" lon="8.191764">
        <time>1970-01-01T00:00:00+00:00</time>
        <ele>3124.0</ele>
      </trkpt>
      <trkpt lat="46.516748" lon="8.191317">
        <time>1970-01-01T00:00:00+00:00</time>
        <ele>3203.0</ele>
      </trkpt>
      <trkpt lat="46.517725" lon="8.190695">
        <time>1970-01-01T00:00:00+00:00</time>
        <ele>3166.0</ele>
      </trkpt>
      <trkpt lat="46.517646" lon="8.190812">
        <time>1970-01-01T00:00:00+00:00</time>
        <ele>3169.0</ele>
      </trkpt>
      <trkpt lat="46.517777" lon="8.190837">
        <time>1970-01-01T00:00:00+00:00</time>
        <ele>3161.0</ele>
      </trkpt>
      <trkpt lat="46.518161" lon="8.191168">
        <time>1970-01-01T00:00:00+00:00</time>
        <ele>3138.0</ele>
      </trkpt>
      <trkpt lat="46.5181" lon="8.191031">
        <time>1970-01-01T00:00:00+00:00</time>
        <ele>3142.0</ele>
      </trkpt>
      <trkpt lat="46.518292" lon="8.191135">
        <time>1970-01-01T00:00:00+00:00</time>
        <ele>3131.0</ele>
      </trkpt>
      <trkpt lat="46.518172" lon="8.190933">
        <time>1970-01-01T00:00:00+00:00</time>
        <ele>3140.0</ele>
      </trkpt>
      <trkpt lat="46.518137" lon="8.191467">
        <time>1970-01-01T00:00:00+00:00</time>
        <ele>3135.0</ele>
      </trkpt>
      <trkpt lat="46.518412" lon="8.191913">
        <time>1970-01-01T00:00:00+00:00</time>
        <ele>3117.0</ele>
      </trkpt>
      <trkpt lat="46.516675" lon="8.190245">
        <time>1970-01-01T00:00:00+00:00</time>
        <ele>3222.0</ele>
      </trkpt>
      <trkpt lat="46.517337" lon="8.19092">
        <time>1970-01-01T00:00:00+00:00</time>
        <ele>3180.0</ele>
      </trkpt>
      <trkpt lat="46.517246" lon="8.190287">
        <time>1970-01-01T00:00:00+00:00</time>
        <ele>3196.0</ele>
      </trkpt>
      <trkpt lat="46.5173" lon="8.190532">
        <time>1970-01-01T00:00:00+00:00</time>
        <ele>3190.0</ele>
      </trkpt>
      <trkpt lat="46.517147" lon="8.190399">
        <time>1970-01-01T00:00:00+00:00</time>
        <ele>3199.0</ele>
      </trkpt>
      <trkpt lat="46.517789" lon="8.190083">
        <time>1970-01-01T00:00:00+00:00</time>
        <ele>3173.0</ele>
      </trkpt>
      <trkpt lat="46.51797" lon="8.190142">
        <time>1970-01-01T00:00:00+00:00</time>
        <ele>3162.0</ele>
      </trkpt>
      <trkpt lat="46.519406" lon="8.191194">
        <time>1970-01-01T00:00:00+00:00</time>
        <ele>3097.0</ele>
      </trkpt>
      <trkpt lat="46.517279" lon="8.189607">
        <time>1970-01-01T00:00:00+00:00</time>
        <ele>3206.0</ele>
      </trkpt>
      <trkpt lat="46.517633" lon="8.189927">
        <time>1970-01-01T00:00:00+00:00</time>
        <ele>3184.0</ele>
      </trkpt>
      <trkpt lat="46.51741" lon="8.190119">
        <time>1970-01-01T00:00:00+00:00</time>
        <ele>3190.0</ele>
      </trkpt>
      <trkpt lat="46.517158" lon="8.19003">
        <time>1970-01-01T00:00:00+00:00</time>
        <ele>3203.0</ele>
      </trkpt>
      <trkpt lat="46.517972" lon="8.190198">
        <time>1970-01-01T00:00:00+00:00</time>
        <ele>3161.0</ele>
      </trkpt>
      <trkpt lat="46.51785" lon="8.190101">
        <time>1970-01-01T00:00:00+00:00</time>
        <ele>3169.0</ele>
      </trkpt>
      <trkpt lat="46.517885" lon="8.189861">
        <time>1970-01-01T00:00:00+00:00</time>
        <ele>3172.0</ele>
      </trkpt>
      <trkpt lat="46.519499" lon="8.190816">
        <time>1970-01-01T00:00:00+00:00</time>
        <ele>3100.0</ele>
      </trkpt>
      <trkpt lat="46.51679" lon="8.1892">
        <time>1970-01-01T00:00:00+00:00</time>
        <ele>3245.0</ele>
      </trkpt>
      <trkpt lat="46.517026" lon="8.189402">
        <time>1970-01-01T00:00:00+00:00</time>
        <ele>3227.0</ele>
      </trkpt>
      <trkpt lat="46.516835" lon="8.189366">
        <time>1970-01-01T00:00:00+00:00</time>
        <ele>3236.0</ele>
      </trkpt>
      <trkpt lat="46.516767" lon="8.189419">
        <time>1970-01-01T00:00:00+00:00</time>
        <ele>3237.0</ele>
      </trkpt>
      <trkpt lat="46.516709" lon="8.189205">
        <time>1970-01-01T00:00:00+00:00</time>
        <ele>3247.0</ele>
      </trkpt>
      <trkpt lat="46.516358" lon="8.18883">
        <time>1970-01-01T00:00:00+00:00</time>
        <ele>3267.0</ele>
      </trkpt>
      <trkpt lat="46.516187" lon="8.18804">
        <time>1970-01-01T00:00:00+00:00</time>
        <ele>3279.0</ele>
      </trkpt>
      <trkpt lat="46.516219" lon="8.188482">
        <time>1970-01-01T00:00:00+00:00</time>
        <ele>3279.0</ele>
      </trkpt>
      <trkpt lat="46.51607" lon="8.188469">
        <time>1970-01-01T00:00:00+00:00</time>
        <ele>3285.0</ele>
      </trkpt>
      <trkpt lat="46.516018" lon="8.188389">
        <time>1970-01-01T00:00:00+00:00</time>
        <ele>3288.0</ele>
      </trkpt>
      <trkpt lat="46.516233" lon="8.189097">
        <time>1970-01-01T00:00:00+00:00</time>
        <ele>3264.0</ele>
      </trkpt>
      <trkpt lat="46.516323" lon="8.189109">
        <time>1970-01-01T00:00:00+00:00</time>
        <ele>3261.0</ele>
      </trkpt>
      <trkpt lat="46.516407" lon="8.188735">
        <time>1970-01-01T00:00:00+00:00</time>
        <ele>3269.0</ele>
      </trkpt>
      <trkpt lat="46.51633" lon="8.189342">
        <time>1970-01-01T00:00:00+00:00</time>
        <ele>3255.0</ele>
      </trkpt>
      <trkpt lat="46.515986" lon="8.189959">
        <time>1970-01-01T00:00:00+00:00</time>
        <ele>3257.0</ele>
      </trkpt>
      <trkpt lat="46.515819" lon="8.189841">
        <time>1970-01-01T00:00:00+00:00</time>
        <ele>3269.0</ele>
      </trkpt>
      <trkpt lat="46.517025" lon="8.18891">
        <time>1970-01-01T00:00:00+00:00</time>
        <ele>3246.0</ele>
      </trkpt>
      <trkpt lat="46.516088" lon="8.189727">
        <time>1970-01-01T00:00:00+00:00</time>
        <ele>3254.0</ele>
      </trkpt>
      <trkpt lat="46.516398" lon="8.189875">
        <time>1970-01-01T00:00:00+00:00</time>
        <ele>3241.0</ele>
      </trkpt>
      <trkpt lat="46.516656" lon="8.190122">
        <time>1970-01-01T00:00:00+00:00</time>
        <ele>3224.0</ele>
      </trkpt>
      <trkpt lat="46.515643" lon="8.189077">
        <time>1970-01-01T00:00:00+00:00</time>
        <ele>3298.0</ele>
      </trkpt>
      <trkpt lat="46.515684" lon="8.188442">
        <time>1970-01-01T00:00:00+00:00</time>
        <ele>3294.0</ele>
      </trkpt>
      <trkpt lat="46.515645" lon="8.188519">
        <time>1970-01-01T00:00:00+00:00</time>
        <ele>3295.0</ele>
      </trkpt>
      <trkpt lat="46.515518" lon="8.188463">
        <time>1970-01-01T00:00:00+00:00</time>
        <ele>3296.0</ele>
      </trkpt>
      <trkpt lat="46.515657" lon="8.189871">
        <time>1970-01-01T00:00:00+00:00</time>
        <ele>3283.0</ele>
      </trkpt>
      <trkpt lat="46.515184" lon="8.190067">
        <time>1970-01-01T00:00:00+00:00</time>
        <ele>3338.0</ele>
      </trkpt>
      <trkpt lat="46.515614" lon="8.18993">
        <time>1970-01-01T00:00:00+00:00</time>
        <ele>3287.0</ele>
      </trkpt>
      <trkpt lat="46.515881" lon="8.190199">
        <time>1970-01-01T00:00:00+00:00</time>
        <ele>3260.0</ele>
      </trkpt>
      <trkpt lat="46.517658" lon="8.190921">
        <time>1970-01-01T00:00:00+00:00</time>
        <ele>3166.0</ele>
      </trkpt>
      <trkpt lat="46.517" lon="8.190744">
        <time>1970-01-01T00:00:00+00:00</time>
        <ele>3201.0</ele>
      </trkpt>
      <trkpt lat="46.517058" lon="8.190603">
        <time>1970-01-01T00:00:00+00:00</time>
        <ele>3201.0</ele>
      </trkpt>
      <trkpt lat="46.517452" lon="8.190639">
        <time>1970-01-01T00:00:00+00:00</time>
        <ele>3181.0</ele>
      </trkpt>
      <trkpt lat="46.516851" lon="8.190302">
        <time>1970-01-01T00:00:00+00:00</time>
        <ele>3212.0</ele>
      </trkpt>
      <trkpt lat="46.51689" lon="8.190226">
        <time>1970-01-01T00:00:00+00:00</time>
        <ele>3212.0</ele>
      </trkpt>
      <trkpt lat="46.516768" lon="8.190122">
        <time>1970-01-01T00:00:00+00:00</time>
        <ele>3218.0</ele>
      </trkpt>
      <trkpt lat="46.517288" lon="8.190105">
        <time>1970-01-01T00:00:00+00:00</time>
        <ele>3196.0</ele>
      </trkpt>
      <trkpt lat="46.516431" lon="8.188054">
        <time>1970-01-01T00:00:00+00:00</time>
        <ele>3275.0</ele>
      </trkpt>
      <trkpt lat="46.516555" lon="8.188052">
        <time>1970-01-01T00:00:00+00:00</time>
        <ele>3273.0</ele>
      </trkpt>
      <trkpt lat="46.516703" lon="8.188672">
        <time>1970-01-01T00:00:00+00:00</time>
        <ele>3263.0</ele>
      </trkpt>
      <trkpt lat="46.517322" lon="8.189927">
        <time>1970-01-01T00:00:00+00:00</time>
        <ele>3196.0</ele>
      </trkpt>
      <trkpt lat="46.516594" lon="8.18969">
        <time>1970-01-01T00:00:00+00:00</time>
        <ele>3235.0</ele>
      </trkpt>
      <trkpt lat="46.516456" lon="8.189741">
        <time>1970-01-01T00:00:00+00:00</time>
        <ele>3241.0</ele>
      </trkpt>
      <trkpt lat="46.516523" lon="8.189867">
        <time>1970-01-01T00:00:00+00:00</time>
        <ele>3235.0</ele>
      </trkpt>
      <trkpt lat="46.516469" lon="8.189425">
        <time>1970-01-01T00:00:00+00:00</time>
        <ele>3249.0</ele>
      </trkpt>
      <trkpt lat="46.516348" lon="8.189229">
        <time>1970-01-01T00:00:00+00:00</time>
        <ele>3257.0</ele>
      </trkpt>
      <trkpt lat="46.516829" lon="8.189077">
        <time>1970-01-01T00:00:00+00:00</time>
        <ele>3247.0</ele>
      </trkpt>
      <trkpt lat="46.517548" lon="8.189071">
        <time>1970-01-01T00:00:00+00:00</time>
        <ele>3213.0</ele>
      </trkpt>
      <trkpt lat="46.516972" lon="8.18884">
        <time>1970-01-01T00:00:00+00:00</time>
        <ele>3251.0</ele>
      </trkpt>
      <trkpt lat="46.517228" lon="8.188779">
        <time>1970-01-01T00:00:00+00:00</time>
        <ele>3242.0</ele>
      </trkpt>
      <trkpt lat="46.517526" lon="8.188879">
        <time>1970-01-01T00:00:00+00:00</time>
        <ele>3221.0</ele>
      </trkpt>
      <trkpt lat="46.516956" lon="8.188551">
        <time>1970-01-01T00:00:00+00:00</time>
        <ele>3262.0</ele>
      </trkpt>
      <trkpt lat="46.517175" lon="8.188759">
        <time>1970-01-01T00:00:00+00:00</time>
        <ele>3245.0</ele>
      </trkpt>
      <trkpt lat="46.517538" lon="8.188883">
        <time>1970-01-01T00:00:00+00:00</time>
        <ele>3220.0</ele>
      </trkpt>
      <trkpt lat="46.516822" lon="8.188675">
        <time>1970-01-01T00:00:00+00:00</time>
        <ele>3260.0</ele>
      </trkpt>
      <trkpt lat="46.51719" lon="8.188097">
        <time>1970-01-01T00:00:00+00:00</time>
        <ele>3268.0</ele>
      </trkpt>
      <trkpt lat="46.515693" lon="8.186604">
        <time>1970-01-01T00:00:00+00:00</time>
        <ele>3265.0</ele>
      </trkpt>
      <trkpt lat="46.515807" lon="8.186573">
        <time>1970-01-01T00:00:00+00:00</time>
        <ele>3262.0</ele>
      </trkpt>
      <trkpt lat="46.516023" lon="8.186016">
        <time>1970-01-01T00:00:00+00:00</time>
        <ele>3248.0</ele>
      </trkpt>
      <trkpt lat="46.5162" lon="8.185291">
        <time>1970-01-01T00:00:00+00:00</time>
        <ele>3234.0</ele>
      </trkpt>
      <trkpt lat="46.515313" lon="8.187577">
        <time>1970-01-01T00:00:00+00:00</time>
        <ele>3283.0</ele>
      </trkpt>
      <trkpt lat="46.515626" lon="8.187397">
        <time>1970-01-01T00:00:00+00:00</time>
        <ele>3278.0</ele>
      </trkpt>
      <trkpt lat="46.517866" lon="8.188326">
        <time>1970-01-01T00:00:00+00:00</time>
        <ele>3232.0</ele>
      </trkpt>
      <trkpt lat="46.515524" lon="8.18736">
        <time>1970-01-01T00:00:00+00:00</time>
        <ele>3279.0</ele>
      </trkpt>
      <trkpt lat="46.515617" lon="8.18731">
        <time>1970-01-01T00:00:00+00:00</time>
        <ele>3277.0</ele>
      </trkpt>
      <trkpt lat="46.515676" lon="8.186377">
        <time>1970-01-01T00:00:00+00:00</time>
        <ele>3262.0</ele>
      </trkpt>
      <trkpt lat="46.515628" lon="8.185977">
        <time>1970-01-01T00:00:00+00:00</time>
        <ele>3254.0</ele>
      </trkpt>
      <trkpt lat="46.51572" lon="8.185865">
        <time>1970-01-01T00:00:00+00:00</time>
        <ele>3251.0</ele>
      </trkpt>
      <trkpt lat="46.515747" lon="8.18595">
        <time>1970-01-01T00:00:00+00:00</time>
        <ele>3251.0</ele>
      </trkpt>
      <trkpt lat="46.515649" lon="8.185921">
        <time>1970-01-01T00:00:00+00:00</time>
        <ele>3252.0</ele>
      </trkpt>
      <trkpt lat="46.51565" lon="8.185803">
        <time>1970-01-01T00:00:00+00:00</time>
        <ele>3250.0</ele>
      </trkpt>
      <trkpt lat="46.516039" lon="8.185881">
        <time>1970-01-01T00:00:00+00:00</time>
        <ele>3246.0</ele>
      </trkpt>
      <trkpt lat="46.516038" lon="8.186612">
        <time>1970-01-01T00:00:00+00:00</time>
        <ele>3259.0</ele>
      </trkpt>
      <trkpt lat="46.515696" lon="8.186517">
        <time>1970-01-01T00:00:00+00:00</time>
        <ele>3264.0</ele>
      </trkpt>
      <trkpt lat="46.515866" lon="8.185585">
        <time>1970-01-01T00:00:00+00:00</time>
        <ele>3245.0</ele>
      </trkpt>
      <trkpt lat="46.515816" lon="8.185541">
        <time>1970-01-01T00:00:00+00:00</time>
        <ele>3244.0</ele>
      </trkpt>
      <trkpt lat="46.5158" lon="8.185595">
        <time>1970-01-01T00:00:00+00:00</time>
        <ele>3246.0</ele>
      </trkpt>
      <trkpt lat="46.515753" lon="8.185466">
        <time>1970-01-01T00:00:00+00:00</time>
        <ele>3244.0</ele>
      </trkpt>
      <trkpt lat="46.515938" lon="8.185399">
        <time>1970-01-01T00:00:00+00:00</time>
        <ele>3240.0</ele>
      </trkpt>
      <trkpt lat="46.515294" lon="8.184661">
        <time>1970-01-01T00:00:00+00:00</time>
        <ele>3230.0</ele>
      </trkpt>
      <trkpt lat="46.515656" lon="8.185498">
        <time>1970-01-01T00:00:00+00:00</time>
        <ele>3246.0</ele>
      </trkpt>
      <trkpt lat="46.515992" lon="8.186029">
        <time>1970-01-01T00:00:00+00:00</time>
        <ele>3249.0</ele>
      </trkpt>
      <trkpt lat="46.516101" lon="8.185739">
        <time>1970-01-01T00:00:00+00:00</time>
        <ele>3242.0</ele>
      </trkpt>
      <trkpt lat="46.516136" lon="8.18528">
        <time>1970-01-01T00:00:00+00:00</time>
        <ele>3234.0</ele>
      </trkpt>
      <trkpt lat="46.515493" lon="8.187151">
        <time>1970-01-01T00:00:00+00:00</time>
        <ele>3276.0</ele>
      </trkpt>
      <trkpt lat="46.514842" lon="8.188375">
        <time>1970-01-01T00:00:00+00:00</time>
        <ele>3312.0</ele>
      </trkpt>
      <trkpt lat="46.515678" lon="8.187629">
        <time>1970-01-01T00:00:00+00:00</time>
        <ele>3280.0</ele>
      </trkpt>
      <trkpt lat="46.515751" lon="8.187627">
        <time>1970-01-01T00:00:00+00:00</time>
        <ele>3279.0</ele>
      </trkpt>
      <trkpt lat="46.516455" lon="8.188031">
        <time>1970-01-01T00:00:00+00:00</time>
        <ele>3274.0</ele>
      </trkpt>
      <trkpt lat="46.51695" lon="8.188407">
        <time>1970-01-01T00:00:00+00:00</time>
        <ele>3266.0</ele>
      </trkpt>
      <trkpt lat="46.516777" lon="8.188498">
        <time>1970-01-01T00:00:00+00:00</time>
        <ele>3266.0</ele>
      </trkpt>
      <trkpt lat="46.516009" lon="8.186379">
        <time>1970-01-01T00:00:00+00:00</time>
        <ele>3256.0</ele>
      </trkpt>
      <trkpt lat="46.515767" lon="8.185257">
        <time>1970-01-01T00:00:00+00:00</time>
        <ele>3240.0</ele>
      </trkpt>
      <trkpt lat="46.515776" lon="8.185378">
        <time>1970-01-01T00:00:00+00:00</time>
        <ele>3242.0</ele>
      </trkpt>
      <trkpt lat="46.515951" lon="8.185149">
        <time>1970-01-01T00:00:00+00:00</time>
        <ele>3235.0</ele>
      </trkpt>
      <trkpt lat="46.516129" lon="8.185153">
        <time>1970-01-01T00:00:00+00:00</time>
        <ele>3232.0</ele>
      </trkpt>
      <trkpt lat="46.515874" lon="8.185283">
        <time>1970-01-01T00:00:00+00:00</time>
        <ele>3239.0</ele>
      </trkpt>
      <trkpt lat="46.517171" lon="8.187286">
        <time>1970-01-01T00:00:00+00:00</time>
        <ele>3274.0</ele>
      </trkpt>
      <trkpt lat="46.516152" lon="8.186839">
        <time>1970-01-01T00:00:00+00:00</time>
        <ele>3260.0</ele>
      </trkpt>
      <trkpt lat="46.516172" lon="8.187612">
        <time>1970-01-01T00:00:00+00:00</time>
        <ele>3273.0</ele>
      </trkpt>
      <trkpt lat="46.51635" lon="8.188194">
        <time>1970-01-01T00:00:00+00:00</time>
        <ele>3277.0</ele>
      </trkpt>
      <trkpt lat="46.516498" lon="8.188498">
        <time>1970-01-01T00:00:00+00:00</time>
        <ele>3272.0</ele>
      </trkpt>
      <trkpt lat="46.51686" lon="8.188764">
        <time>1970-01-01T00:00:00+00:00</time>
        <ele>3256.0</ele>
      </trkpt>
      <trkpt lat="46.51662" lon="8.18873">
        <time>1970-01-01T00:00:00+00:00</time>
        <ele>3264.0</ele>
      </trkpt>
      <trkpt lat="46.516594" lon="8.188781">
        <time>1970-01-01T00:00:00+00:00</time>
        <ele>3263.0</ele>
      </trkpt>
      <trkpt lat="46.516657" lon="8.188858">
        <time>1970-01-01T00:00:00+00:00</time>
        <ele>3258.0</ele>
      </trkpt>
      <trkpt lat="46.51657" lon="8.188756">
        <time>1970-01-01T00:00:00+00:00</time>
        <ele>3264.0</ele>
      </trkpt>
      <trkpt lat="46.516188" lon="8.188632">
        <time>1970-01-01T00:00:00+00:00</time>
        <ele>3278.0</ele>
      </trkpt>
      <trkpt lat="46.517425" lon="8.189459">
        <time>1970-01-01T00:00:00+00:00</time>
        <ele>3204.0</ele>
      </trkpt>
      <trkpt lat="46.516771" lon="8.189337">
        <time>1970-01-01T00:00:00+00:00</time>
        <ele>3240.0</ele>
      </trkpt>
      <trkpt lat="46.516357" lon="8.18899">
        <time>1970-01-01T00:00:00+00:00</time>
        <ele>3263.0</ele>
      </trkpt>
      <trkpt lat="46.516591" lon="8.189337">
        <time>1970-01-01T00:00:00+00:00</time>
        <ele>3247.0</ele>
      </trkpt>
      <trkpt lat="46.516849" lon="8.18937">
        <time>1970-01-01T00:00:00+00:00</time>
        <ele>3235.0</ele>
      </trkpt>
      <trkpt lat="46.51673" lon="8.189267">
        <time>1970-01-01T00:00:00+00:00</time>
        <ele>3244.0</ele>
      </trkpt>
      <trkpt lat="46.516305" lon="8.188199">
        <time>1970-01-01T00:00:00+00:00</time>
        <ele>3277.0</ele>
      </trkpt>
      <trkpt lat="46.51668" lon="8.187824">
        <time>1970-01-01T00:00:00+00:00</time>
        <ele>3272.0</ele>
      </trkpt>
      <trkpt lat="46.513915" lon="8.188626">
        <time>1970-01-01T00:00:00+00:00</time>
        <ele>3407.0</ele>
      </trkpt>
      <trkpt lat="46.514055" lon="8.188594">
        <time>1970-01-01T00:00:00+00:00</time>
        <ele>3393.0</ele>
      </trkpt>
      <trkpt lat="46.51411" lon="8.188278">
        <time>1970-01-01T00:00:00+00:00</time>
        <ele>3367.0</ele>
      </trkpt>
      <trkpt lat="46.514361" lon="8.187785">
        <time>1970-01-01T00:00:00+00:00</time>
        <ele>3314.0</ele>
      </trkpt>
      <trkpt lat="46.514455" lon="8.188326">
        <time>1970-01-01T00:00:00+00:00</time>
        <ele>3341.0</ele>
      </trkpt>
      <trkpt lat="46.515237" lon="8.187653">
        <time>1970-01-01T00:00:00+00:00</time>
        <ele>3285.0</ele>
      </trkpt>
      <trkpt lat="46.516288" lon="8.187036">
        <time>1970-01-01T00:00:00+00:00</time>
        <ele>3263.0</ele>
      </trkpt>
      <trkpt lat="46.514707" lon="8.184728">
        <time>1970-01-01T00:00:00+00:00</time>
        <ele>3248.0</ele>
      </trkpt>
      <trkpt lat="46.514803" lon="8.185187">
        <time>1970-01-01T00:00:00+00:00</time>
        <ele>3255.0</ele>
      </trkpt>
      <trkpt lat="46.514937" lon="8.186612">
        <time>1970-01-01T00:00:00+00:00</time>
        <ele>3277.0</ele>
      </trkpt>
      <trkpt lat="46.514822" lon="8.18794">
        <time>1970-01-01T00:00:00+00:00</time>
        <ele>3298.0</ele>
      </trkpt>
      <trkpt lat="46.514921" lon="8.187861">
        <time>1970-01-01T00:00:00+00:00</time>
        <ele>3294.0</ele>
      </trkpt>
      <trkpt lat="46.514885" lon="8.187414">
        <time>1970-01-01T00:00:00+00:00</time>
        <ele>3287.0</ele>
      </trkpt>
      <trkpt lat="46.514742" lon="8.187255">
        <time>1970-01-01T00:00:00+00:00</time>
        <ele>3288.0</ele>
      </trkpt>
      <trkpt lat="46.514579" lon="8.187193">
        <time>1970-01-01T00:00:00+00:00</time>
        <ele>3291.0</ele>
      </trkpt>
      <trkpt lat="46.51483" lon="8.187398">
        <time>1970-01-01T00:00:00+00:00</time>
        <ele>3287.0</ele>
      </trkpt>
      <trkpt lat="46.514853" lon="8.187327">
        <time>1970-01-01T00:00:00+00:00</time>
        <ele>3286.0</ele>
      </trkpt>
      <trkpt lat="46.514927" lon="8.187367">
        <time>1970-01-01T00:00:00+00:00</time>
        <ele>3286.0</ele>
      </trkpt>
      <trkpt lat="46.514983" lon="8.187606">
        <time>1970-01-01T00:00:00+00:00</time>
        <ele>3288.0</ele>
      </trkpt>
      <trkpt lat="46.516068" lon="8.187866">
        <time>1970-01-01T00:00:00+00:00</time>
        <ele>3279.0</ele>
      </trkpt>
      <trkpt lat="46.515965" lon="8.187895">
        <time>1970-01-01T00:00:00+00:00</time>
        <ele>3281.0</ele>
      </trkpt>
      <trkpt lat="46.51602" lon="8.188187">
        <time>1970-01-01T00:00:00+00:00</time>
        <ele>3285.0</ele>
      </trkpt>
      <trkpt lat="46.516441" lon="8.189192">
        <time>1970-01-01T00:00:00+00:00</time>
        <ele>3256.0</ele>
      </trkpt>
      <trkpt lat="46.51631" lon="8.188003">
        <time>1970-01-01T00:00:00+00:00</time>
        <ele>3276.0</ele>
      </trkpt>
      <trkpt lat="46.515555" lon="8.187665">
        <time>1970-01-01T00:00:00+00:00</time>
        <ele>3282.0</ele>
      </trkpt>
      <trkpt lat="46.51539" lon="8.187769">
        <time>1970-01-01T00:00:00+00:00</time>
        <ele>3285.0</ele>
      </trkpt>
      <trkpt lat="46.515493" lon="8.187502">
        <time>1970-01-01T00:00:00+00:00</time>
        <ele>3280.0</ele>
      </trkpt>
      <trkpt lat="46.515038" lon="8.186697">
        <time>1970-01-01T00:00:00+00:00</time>
        <ele>3276.0</ele>
      </trkpt>
      <trkpt lat="46.515513" lon="8.187087">
        <time>1970-01-01T00:00:00+00:00</time>
        <ele>3275.0</ele>
      </trkpt>
      <trkpt lat="46.515449" lon="8.187233">
        <time>1970-01-01T00:00:00+00:00</time>
        <ele>3278.0</ele>
      </trkpt>
      <trkpt lat="46.515188" lon="8.187431">
        <time>1970-01-01T00:00:00+00:00</time>
        <ele>3283.0</ele>
      </trkpt>
      <trkpt lat="46.514807" lon="8.187961">
        <time>1970-01-01T00:00:00+00:00</time>
        <ele>3300.0</ele>
      </trkpt>
      <trkpt lat="46.514705" lon="8.187926">
        <time>1970-01-01T00:00:00+00:00</time>
        <ele>3303.0</ele>
      </trkpt>
      <trkpt lat="46.514148" lon="8.187246">
        <time>1970-01-01T00:00:00+00:00</time>
        <ele>3307.0</ele>
      </trkpt>
      <trkpt lat="46.514572" lon="8.188113">
        <time>1970-01-01T00:00:00+00:00</time>
        <ele>3320.0</ele>
      </trkpt>
      <trkpt lat="46.51485" lon="8.1878">
        <time>1970-01-01T00:00:00+00:00</time>
        <ele>3293.0</ele>
      </trkpt>
      <trkpt lat="46.514873" lon="8.187681">
        <time>1970-01-01T00:00:00+00:00</time>
        <ele>3291.0</ele>
      </trkpt>
      <trkpt lat="46.514512" lon="8.187261">
        <time>1970-01-01T00:00:00+00:00</time>
        <ele>3295.0</ele>
      </trkpt>
      <trkpt lat="46.51535" lon="8.187824">
        <time>1970-01-01T00:00:00+00:00</time>
        <ele>3287.0</ele>
      </trkpt>
      <trkpt lat="46.513291" lon="8.186064">
        <time>1970-01-01T00:00:00+00:00</time>
        <ele>3352.0</ele>
      </trkpt>
      <trkpt lat="46.513359" lon="8.186058">
        <time>1970-01-01T00:00:00+00:00</time>
        <ele>3343.0</ele>
      </trkpt>
      <trkpt lat="46.51336" lon="8.18595">
        <time>1970-01-01T00:00:00+00:00</time>
        <ele>3337.0</ele>
      </trkpt>
      <trkpt lat="46.514692" lon="8.187364">
        <time>1970-01-01T00:00:00+00:00</time>
        <ele>3290.0</ele>
      </trkpt>
      <trkpt lat="46.514645" lon="8.188002">
        <time>1970-01-01T00:00:00+00:00</time>
        <ele>3310.0</ele>
      </trkpt>
      <trkpt lat="46.515229" lon="8.18776">
        <time>1970-01-01T00:00:00+00:00</time>
        <ele>3287.0</ele>
      </trkpt>
      <trkpt lat="46.515138" lon="8.187811">
        <time>1970-01-01T00:00:00+00:00</time>
        <ele>3289.0</ele>
      </trkpt>
      <trkpt lat="46.515243" lon="8.187551">
        <time>1970-01-01T00:00:00+00:00</time>
        <ele>3284.0</ele>
      </trkpt>
      <trkpt lat="46.514443" lon="8.18735">
        <time>1970-01-01T00:00:00+00:00</time>
        <ele>3299.0</ele>
      </trkpt>
      <trkpt lat="46.514549" lon="8.187553">
        <time>1970-01-01T00:00:00+00:00</time>
        <ele>3297.0</ele>
      </trkpt>
      <trkpt lat="46.517675" lon="8.171393">
        <time>1970-01-01T00:00:00+00:00</time>
        <ele>3018.0</ele>
      </trkpt>
      <trkpt lat="46.517793" lon="8.171464">
        <time>1970-01-01T00:00:00+00:00</time>
        <ele>3024.0</ele>
      </trkpt>
      <trkpt lat="46.518422" lon="8.171341">
        <time>1970-01-01T00:00:00+00:00</time>
        <ele>3040.0</ele>
      </trkpt>
      <trkpt lat="46.518577" lon="8.170959">
        <time>1970-01-01T00:00:00+00:00</time>
        <ele>3035.0</ele>
      </trkpt>
      <trkpt lat="46.518412" lon="8.171055">
        <time>1970-01-01T00:00:00+00:00</time>
        <ele>3032.0</ele>
      </trkpt>
      <trkpt lat="46.518637" lon="8.171073">
        <time>1970-01-01T00:00:00+00:00</time>
        <ele>3039.0</ele>
      </trkpt>
      <trkpt lat="46.51858" lon="8.170942">
        <time>1970-01-01T00:00:00+00:00</time>
        <ele>3035.0</ele>
      </trkpt>
      <trkpt lat="46.518576" lon="8.170992">
        <time>1970-01-01T00:00:00+00:00</time>
        <ele>3036.0</ele>
      </trkpt>
      <trkpt lat="46.518848" lon="8.170864">
        <time>1970-01-01T00:00:00+00:00</time>
        <ele>3042.0</ele>
      </trkpt>
      <trkpt lat="46.519353" lon="8.170555">
        <time>1970-01-01T00:00:00+00:00</time>
        <ele>3044.0</ele>
      </trkpt>
      <trkpt lat="46.519677" lon="8.170495">
        <time>1970-01-01T00:00:00+00:00</time>
        <ele>3043.0</ele>
      </trkpt>
      <trkpt lat="46.519653" lon="8.170376">
        <time>1970-01-01T00:00:00+00:00</time>
        <ele>3040.0</ele>
      </trkpt>
      <trkpt lat="46.520062" lon="8.170349">
        <time>1970-01-01T00:00:00+00:00</time>
        <ele>3039.0</ele>
      </trkpt>
      <trkpt lat="46.520798" lon="8.170039">
        <time>1970-01-01T00:00:00+00:00</time>
        <ele>3039.0</ele>
      </trkpt>
      <trkpt lat="46.520777" lon="8.170113">
        <time>1970-01-01T00:00:00+00:00</time>
        <ele>3040.0</ele>
      </trkpt>
      <trkpt lat="46.521032" lon="8.170158">
        <time>1970-01-01T00:00:00+00:00</time>
        <ele>3046.0</ele>
      </trkpt>
      <trkpt lat="46.52127" lon="8.170025">
        <time>1970-01-01T00:00:00+00:00</time>
        <ele>3048.0</ele>
      </trkpt>
      <trkpt lat="46.521622" lon="8.169953">
        <time>1970-01-01T00:00:00+00:00</time>
        <ele>3055.0</ele>
      </trkpt>
      <trkpt lat="46.521902" lon="8.17006">
        <time>1970-01-01T00:00:00+00:00</time>
        <ele>3064.0</ele>
      </trkpt>
      <trkpt lat="46.52265" lon="8.17001">
        <time>1970-01-01T00:00:00+00:00</time>
        <ele>3084.0</ele>
      </trkpt>
      <trkpt lat="46.522696" lon="8.169822">
        <time>1970-01-01T00:00:00+00:00</time>
        <ele>3077.0</ele>
      </trkpt>
      <trkpt lat="46.522985" lon="8.169908">
        <time>1970-01-01T00:00:00+00:00</time>
        <ele>3090.0</ele>
      </trkpt>
      <trkpt lat="46.523198" lon="8.169705">
        <time>1970-01-01T00:00:00+00:00</time>
        <ele>3087.0</ele>
      </trkpt>
      <trkpt lat="46.52325" lon="8.16972">
        <time>1970-01-01T00:00:00+00:00</time>
        <ele>3090.0</ele>
      </trkpt>
      <trkpt lat="46.523273" lon="8.169874">
        <time>1970-01-01T00:00:00+00:00</time>
        <ele>3099.0</ele>
      </trkpt>
      <trkpt lat="46.523509" lon="8.169817">
        <time>1970-01-01T00:00:00+00:00</time>
        <ele>3101.0</ele>
      </trkpt>
      <trkpt lat="46.523534" lon="8.16995">
        <time>1970-01-01T00:00:00+00:00</time>
        <ele>3112.0</ele>
      </trkpt>
      <trkpt lat="46.523695" lon="8.169869">
        <time>1970-01-01T00:00:00+00:00</time>
        <ele>3111.0</ele>
      </trkpt>
      <trkpt lat="46.523612" lon="8.17007">
        <time>1970-01-01T00:00:00+00:00</time>
        <ele>3124.0</ele>
      </trkpt>
      <trkpt lat="46.523946" lon="8.169748">
        <time>1970-01-01T00:00:00+00:00</time>
        <ele>3109.0</ele>
      </trkpt>
      <trkpt lat="46.523894" lon="8.169843">
        <time>1970-01-01T00:00:00+00:00</time>
        <ele>3114.0</ele>
      </trkpt>
      <trkpt lat="46.523883" lon="8.170091">
        <time>1970-01-01T00:00:00+00:00</time>
        <ele>3133.0</ele>
      </trkpt>
      <trkpt lat="46.524042" lon="8.169769">
        <time>1970-01-01T00:00:00+00:00</time>
        <ele>3112.0</ele>
      </trkpt>
      <trkpt lat="46.52405" lon="8.169855">
        <time>1970-01-01T00:00:00+00:00</time>
        <ele>3118.0</ele>
      </trkpt>
      <trkpt lat="46.523954" lon="8.170039">
        <time>1970-01-01T00:00:00+00:00</time>
        <ele>3129.0</ele>
      </trkpt>
      <trkpt lat="46.523928" lon="8.169952">
        <time>1970-01-01T00:00:00+00:00</time>
        <ele>3122.0</ele>
      </trkpt>
      <trkpt lat="46.524146" lon="8.170532">
        <time>1970-01-01T00:00:00+00:00</time>
        <ele>3160.0</ele>
      </trkpt>
      <trkpt lat="46.524474" lon="8.170252">
        <time>1970-01-01T00:00:00+00:00</time>
        <ele>3134.0</ele>
      </trkpt>
      <trkpt lat="46.524197" lon="8.170634">
        <time>1970-01-01T00:00:00+00:00</time>
        <ele>3164.0</ele>
      </trkpt>
      <trkpt lat="46.524265" lon="8.170058">
        <time>1970-01-01T00:00:00+00:00</time>
        <ele>3130.0</ele>
      </trkpt>
      <trkpt lat="46.524257" lon="8.170921">
        <time>1970-01-01T00:00:00+00:00</time>
        <ele>3176.0</ele>
      </trkpt>
      <trkpt lat="46.524706" lon="8.170566">
        <time>1970-01-01T00:00:00+00:00</time>
        <ele>3145.0</ele>
      </trkpt>
      <trkpt lat="46.524497" lon="8.170387">
        <time>1970-01-01T00:00:00+00:00</time>
        <ele>3140.0</ele>
      </trkpt>
      <trkpt lat="46.52433" lon="8.169916">
        <time>1970-01-01T00:00:00+00:00</time>
        <ele>3123.0</ele>
      </trkpt>
      <trkpt lat="46.524294" lon="8.170064">
        <time>1970-01-01T00:00:00+00:00</time>
        <ele>3130.0</ele>
      </trkpt>
      <trkpt lat="46.524181" lon="8.170084">
        <time>1970-01-01T00:00:00+00:00</time>
        <ele>3132.0</ele>
      </trkpt>
      <trkpt lat="46.524387" lon="8.170815">
        <time>1970-01-01T00:00:00+00:00</time>
        <ele>3162.0</ele>
      </trkpt>
      <trkpt lat="46.524258" lon="8.171066">
        <time>1970-01-01T00:00:00+00:00</time>
        <ele>3182.0</ele>
      </trkpt>
      <trkpt lat="46.52437" lon="8.171638">
        <time>1970-01-01T00:00:00+00:00</time>
        <ele>3209.0</ele>
      </trkpt>
      <trkpt lat="46.525198" lon="8.171799">
        <time>1970-01-01T00:00:00+00:00</time>
        <ele>3176.0</ele>
      </trkpt>
      <trkpt lat="46.525124" lon="8.171707">
        <time>1970-01-01T00:00:00+00:00</time>
        <ele>3173.0</ele>
      </trkpt>
      <trkpt lat="46.525283" lon="8.171681">
        <time>1970-01-01T00:00:00+00:00</time>
        <ele>3175.0</ele>
      </trkpt>
      <trkpt lat="46.525194" lon="8.171722">
        <time>1970-01-01T00:00:00+00:00</time>
        <ele>3174.0</ele>
      </trkpt>
      <trkpt lat="46.524575" lon="8.171568">
        <time>1970-01-01T00:00:00+00:00</time>
        <ele>3190.0</ele>
      </trkpt>
      <trkpt lat="46.524592" lon="8.171898">
        <time>1970-01-01T00:00:00+00:00</time>
        <ele>3208.0</ele>
      </trkpt>
      <trkpt lat="46.525244" lon="8.171995">
        <time>1970-01-01T00:00:00+00:00</time>
        <ele>3182.0</ele>
      </trkpt>
      <trkpt lat="46.525103" lon="8.171995">
        <time>1970-01-01T00:00:00+00:00</time>
        <ele>3184.0</ele>
      </trkpt>
      <trkpt lat="46.52501" lon="8.17189">
        <time>1970-01-01T00:00:00+00:00</time>
        <ele>3181.0</ele>
      </trkpt>
      <trkpt lat="46.525452" lon="8.171466">
        <time>1970-01-01T00:00:00+00:00</time>
        <ele>3176.0</ele>
      </trkpt>
      <trkpt lat="46.524573" lon="8.171543">
        <time>1970-01-01T00:00:00+00:00</time>
        <ele>3189.0</ele>
      </trkpt>
      <trkpt lat="46.524647" lon="8.171679">
        <time>1970-01-01T00:00:00+00:00</time>
        <ele>3191.0</ele>
      </trkpt>
      <trkpt lat="46.524358" lon="8.171875">
        <time>1970-01-01T00:00:00+00:00</time>
        <ele>3223.0</ele>
      </trkpt>
      <trkpt lat="46.52431" lon="8.17205">
        <time>1970-01-01T00:00:00+00:00</time>
        <ele>3239.0</ele>
      </trkpt>
      <trkpt lat="46.524458" lon="8.172139">
        <time>1970-01-01T00:00:00+00:00</time>
        <ele>3234.0</ele>
      </trkpt>
      <trkpt lat="46.524371" lon="8.172985">
        <time>1970-01-01T00:00:00+00:00</time>
        <ele>3282.0</ele>
      </trkpt>
      <trkpt lat="46.524562" lon="8.172483">
        <time>1970-01-01T00:00:00+00:00</time>
        <ele>3248.0</ele>
      </trkpt>
      <trkpt lat="46.524693" lon="8.172463">
        <time>1970-01-01T00:00:00+00:00</time>
        <ele>3237.0</ele>
      </trkpt>
      <trkpt lat="46.524963" lon="8.171709">
        <time>1970-01-01T00:00:00+00:00</time>
        <ele>3174.0</ele>
      </trkpt>
      <trkpt lat="46.524685" lon="8.172113">
        <time>1970-01-01T00:00:00+00:00</time>
        <ele>3217.0</ele>
      </trkpt>
      <trkpt lat="46.524754" lon="8.172297">
        <time>1970-01-01T00:00:00+00:00</time>
        <ele>3222.0</ele>
      </trkpt>
      <trkpt lat="46.524695" lon="8.172935">
        <time>1970-01-01T00:00:00+00:00</time>
        <ele>3253.0</ele>
      </trkpt>
      <trkpt lat="46.524716" lon="8.173172">
        <time>1970-01-01T00:00:00+00:00</time>
        <ele>3261.0</ele>
      </trkpt>
      <trkpt lat="46.524771" lon="8.17317">
        <time>1970-01-01T00:00:00+00:00</time>
        <ele>3255.0</ele>
      </trkpt>
      <trkpt lat="46.52483" lon="8.173624">
        <time>1970-01-01T00:00:00+00:00</time>
        <ele>3263.0</ele>
      </trkpt>
      <trkpt lat="46.524735" lon="8.174374">
        <time>1970-01-01T00:00:00+00:00</time>
        <ele>3288.0</ele>
      </trkpt>
      <trkpt lat="46.52486" lon="8.173627">
        <time>1970-01-01T00:00:00+00:00</time>
        <ele>3260.0</ele>
      </trkpt>
      <trkpt lat="46.524879" lon="8.173739">
        <time>1970-01-01T00:00:00+00:00</time>
        <ele>3261.0</ele>
      </trkpt>
      <trkpt lat="46.524776" lon="8.174193">
        <time>1970-01-01T00:00:00+00:00</time>
        <ele>3281.0</ele>
      </trkpt>
      <trkpt lat="46.524794" lon="8.17498">
        <time>1970-01-01T00:00:00+00:00</time>
        <ele>3279.0</ele>
      </trkpt>
      <trkpt lat="46.525488" lon="8.174514">
        <time>1970-01-01T00:00:00+00:00</time>
        <ele>3214.0</ele>
      </trkpt>
      <trkpt lat="46.525124" lon="8.174596">
        <time>1970-01-01T00:00:00+00:00</time>
        <ele>3239.0</ele>
      </trkpt>
      <trkpt lat="46.524959" lon="8.17545">
        <time>1970-01-01T00:00:00+00:00</time>
        <ele>3249.0</ele>
      </trkpt>
      <trkpt lat="46.526366" lon="8.175155">
        <time>1970-01-01T00:00:00+00:00</time>
        <ele>3187.0</ele>
      </trkpt>
      <trkpt lat="46.52647" lon="8.174816">
        <time>1970-01-01T00:00:00+00:00</time>
        <ele>3196.0</ele>
      </trkpt>
      <trkpt lat="46.526881" lon="8.174484">
        <time>1970-01-01T00:00:00+00:00</time>
        <ele>3230.0</ele>
      </trkpt>
      <trkpt lat="46.52646" lon="8.174585">
        <time>1970-01-01T00:00:00+00:00</time>
        <ele>3205.0</ele>
      </trkpt>
      <trkpt lat="46.526409" lon="8.174824">
        <time>1970-01-01T00:00:00+00:00</time>
        <ele>3195.0</ele>
      </trkpt>
      <trkpt lat="46.526377" lon="8.174744">
        <time>1970-01-01T00:00:00+00:00</time>
        <ele>3198.0</ele>
      </trkpt>
      <trkpt lat="46.526476" lon="8.174611">
        <time>1970-01-01T00:00:00+00:00</time>
        <ele>3205.0</ele>
      </trkpt>
      <trkpt lat="46.526313" lon="8.174893">
        <time>1970-01-01T00:00:00+00:00</time>
        <ele>3192.0</ele>
      </trkpt>
      <trkpt lat="46.526348" lon="8.17496">
        <time>1970-01-01T00:00:00+00:00</time>
        <ele>3191.0</ele>
      </trkpt>
      <trkpt lat="46.5262" lon="8.175181">
        <time>1970-01-01T00:00:00+00:00</time>
        <ele>3187.0</ele>
      </trkpt>
      <trkpt lat="46.526525" lon="8.175567">
        <time>1970-01-01T00:00:00+00:00</time>
        <ele>3178.0</ele>
      </trkpt>
      <trkpt lat="46.526491" lon="8.17518">
        <time>1970-01-01T00:00:00+00:00</time>
        <ele>3187.0</ele>
      </trkpt>
      <trkpt lat="46.526714" lon="8.174357">
        <time>1970-01-01T00:00:00+00:00</time>
        <ele>3226.0</ele>
      </trkpt>
      <trkpt lat="46.52658" lon="8.174">
        <time>1970-01-01T00:00:00+00:00</time>
        <ele>3233.0</ele>
      </trkpt>
      <trkpt lat="46.526381" lon="8.173988">
        <time>1970-01-01T00:00:00+00:00</time>
        <ele>3223.0</ele>
      </trkpt>
      <trkpt lat="46.526211" lon="8.173777">
        <time>1970-01-01T00:00:00+00:00</time>
        <ele>3221.0</ele>
      </trkpt>
      <trkpt lat="46.526055" lon="8.173713">
        <time>1970-01-01T00:00:00+00:00</time>
        <ele>3214.0</ele>
      </trkpt>
      <trkpt lat="46.52602" lon="8.173608">
        <time>1970-01-01T00:00:00+00:00</time>
        <ele>3214.0</ele>
      </trkpt>
      <trkpt lat="46.52618" lon="8.173814">
        <time>1970-01-01T00:00:00+00:00</time>
        <ele>3219.0</ele>
      </trkpt>
      <trkpt lat="46.526033" lon="8.173735">
        <time>1970-01-01T00:00:00+00:00</time>
        <ele>3213.0</ele>
      </trkpt>
      <trkpt lat="46.526072" lon="8.174049">
        <time>1970-01-01T00:00:00+00:00</time>
        <ele>3208.0</ele>
      </trkpt>
      <trkpt lat="46.526191" lon="8.173892">
        <time>1970-01-01T00:00:00+00:00</time>
        <ele>3217.0</ele>
      </trkpt>
      <trkpt lat="46.526031" lon="8.173685">
        <time>1970-01-01T00:00:00+00:00</time>
        <ele>3214.0</ele>
      </trkpt>
      <trkpt lat="46.526101" lon="8.173845">
        <time>1970-01-01T00:00:00+00:00</time>
        <ele>3214.0</ele>
      </trkpt>
      <trkpt lat="46.526019" lon="8.173592">
        <time>1970-01-01T00:00:00+00:00</time>
        <ele>3215.0</ele>
      </trkpt>
      <trkpt lat="46.526293" lon="8.173815">
        <time>1970-01-01T00:00:00+00:00</time>
        <ele>3225.0</ele>
      </trkpt>
      <trkpt lat="46.526059" lon="8.173455">
        <time>1970-01-01T00:00:00+00:00</time>
        <ele>3217.0</ele>
      </trkpt>
      <trkpt lat="46.525938" lon="8.173482">
        <time>1970-01-01T00:00:00+00:00</time>
        <ele>3213.0</ele>
      </trkpt>
      <trkpt lat="46.52569" lon="8.173858">
        <time>1970-01-01T00:00:00+00:00</time>
        <ele>3209.0</ele>
      </trkpt>
      <trkpt lat="46.526115" lon="8.173097">
        <time>1970-01-01T00:00:00+00:00</time>
        <ele>3221.0</ele>
      </trkpt>
      <trkpt lat="46.52586" lon="8.172953">
        <time>1970-01-01T00:00:00+00:00</time>
        <ele>3212.0</ele>
      </trkpt>
      <trkpt lat="46.525927" lon="8.172782">
        <time>1970-01-01T00:00:00+00:00</time>
        <ele>3212.0</ele>
      </trkpt>
      <trkpt lat="46.526071" lon="8.172736">
        <time>1970-01-01T00:00:00+00:00</time>
        <ele>3215.0</ele>
      </trkpt>
      <trkpt lat="46.526667" lon="8.172788">
        <time>1970-01-01T00:00:00+00:00</time>
        <ele>3250.0</ele>
      </trkpt>
      <trkpt lat="46.526394" lon="8.173064">
        <time>1970-01-01T00:00:00+00:00</time>
        <ele>3235.0</ele>
      </trkpt>
      <trkpt lat="46.526265" lon="8.172933">
        <time>1970-01-01T00:00:00+00:00</time>
        <ele>3226.0</ele>
      </trkpt>
      <trkpt lat="46.526198" lon="8.173167">
        <time>1970-01-01T00:00:00+00:00</time>
        <ele>3225.0</ele>
      </trkpt>
      <trkpt lat="46.526588" lon="8.173513">
        <time>1970-01-01T00:00:00+00:00</time>
        <ele>3251.0</ele>
      </trkpt>
      <trkpt lat="46.526818" lon="8.173415">
        <time>1970-01-01T00:00:00+00:00</time>
        <ele>3271.0</ele>
      </trkpt>
      <trkpt lat="46.526309" lon="8.174219">
        <time>1970-01-01T00:00:00+00:00</time>
        <ele>3213.0</ele>
      </trkpt>
      <trkpt lat="46.526124" lon="8.173521">
        <time>1970-01-01T00:00:00+00:00</time>
        <ele>3220.0</ele>
      </trkpt>
      <trkpt lat="46.52628" lon="8.173148">
        <time>1970-01-01T00:00:00+00:00</time>
        <ele>3229.0</ele>
      </trkpt>
      <trkpt lat="46.526268" lon="8.173216">
        <time>1970-01-01T00:00:00+00:00</time>
        <ele>3229.0</ele>
      </trkpt>
      <trkpt lat="46.526201" lon="8.173203">
        <time>1970-01-01T00:00:00+00:00</time>
        <ele>3225.0</ele>
      </trkpt>
      <trkpt lat="46.526686" lon="8.17318">
        <time>1970-01-01T00:00:00+00:00</time>
        <ele>3257.0</ele>
      </trkpt>
      <trkpt lat="46.525397" lon="8.173822">
        <time>1970-01-01T00:00:00+00:00</time>
        <ele>3218.0</ele>
      </trkpt>
      <trkpt lat="46.525335" lon="8.173773">
        <time>1970-01-01T00:00:00+00:00</time>
        <ele>3221.0</ele>
      </trkpt>
      <trkpt lat="46.525655" lon="8.173328">
        <time>1970-01-01T00:00:00+00:00</time>
        <ele>3208.0</ele>
      </trkpt>
      <trkpt lat="46.526705" lon="8.172419">
        <time>1970-01-01T00:00:00+00:00</time>
        <ele>3247.0</ele>
      </trkpt>
      <trkpt lat="46.526424" lon="8.172799">
        <time>1970-01-01T00:00:00+00:00</time>
        <ele>3232.0</ele>
      </trkpt>
      <trkpt lat="46.526029" lon="8.17306">
        <time>1970-01-01T00:00:00+00:00</time>
        <ele>3218.0</ele>
      </trkpt>
      <trkpt lat="46.525294" lon="8.17401">
        <time>1970-01-01T00:00:00+00:00</time>
        <ele>3225.0</ele>
      </trkpt>
      <trkpt lat="46.52567" lon="8.173376">
        <time>1970-01-01T00:00:00+00:00</time>
        <ele>3209.0</ele>
      </trkpt>
      <trkpt lat="46.525781" lon="8.173319">
        <time>1970-01-01T00:00:00+00:00</time>
        <ele>3210.0</ele>
      </trkpt>
      <trkpt lat="46.525689" lon="8.173447">
        <time>1970-01-01T00:00:00+00:00</time>
        <ele>3209.0</ele>
      </trkpt>
      <trkpt lat="46.525924" lon="8.173348">
        <time>1970-01-01T00:00:00+00:00</time>
        <ele>3214.0</ele>
      </trkpt>
      <trkpt lat="46.52589" lon="8.17335">
        <time>1970-01-01T00:00:00+00:00</time>
        <ele>3213.0</ele>
      </trkpt>
      <trkpt lat="46.525997" lon="8.173437">
        <time>1970-01-01T00:00:00+00:00</time>
        <ele>3215.0</ele>
      </trkpt>
      <trkpt lat="46.525604" lon="8.173721">
        <time>1970-01-01T00:00:00+00:00</time>
        <ele>3211.0</ele>
      </trkpt>
      <trkpt lat="46.525608" lon="8.173584">
        <time>1970-01-01T00:00:00+00:00</time>
        <ele>3210.0</ele>
      </trkpt>
      <trkpt lat="46.525715" lon="8.173435">
        <time>1970-01-01T00:00:00+00:00</time>
        <ele>3209.0</ele>
      </trkpt>
      <trkpt lat="46.525931" lon="8.173392">
        <time>1970-01-01T00:00:00+00:00</time>
        <ele>3214.0</ele>
      </trkpt>
      <trkpt lat="46.525646" lon="8.173424">
        <time>1970-01-01T00:00:00+00:00</time>
        <ele>3209.0</ele>
      </trkpt>
      <trkpt lat="46.525775" lon="8.173518">
        <time>1970-01-01T00:00:00+00:00</time>
        <ele>3209.0</ele>
      </trkpt>
      <trkpt lat="46.525659" lon="8.173515">
        <time>1970-01-01T00:00:00+00:00</time>
        <ele>3209.0</ele>
      </trkpt>
      <trkpt lat="46.525703" lon="8.173705">
        <time>1970-01-01T00:00:00+00:00</time>
        <ele>3209.0</ele>
      </trkpt>
      <trkpt lat="46.525646" lon="8.173635">
        <time>1970-01-01T00:00:00+00:00</time>
        <ele>3210.0</ele>
      </trkpt>
      <trkpt lat="46.525538" lon="8.173643">
        <time>1970-01-01T00:00:00+00:00</time>
        <ele>3212.0</ele>
      </trkpt>
      <trkpt lat="46.525544" lon="8.17369">
        <time>1970-01-01T00:00:00+00:00</time>
        <ele>3212.0</ele>
      </trkpt>
      <trkpt lat="46.525619" lon="8.173801">
        <time>1970-01-01T00:00:00+00:00</time>
        <ele>3211.0</ele>
      </trkpt>
      <trkpt lat="46.525676" lon="8.173725">
        <time>1970-01-01T00:00:00+00:00</time>
        <ele>3210.0</ele>
      </trkpt>
      <trkpt lat="46.525755" lon="8.173806">
        <time>1970-01-01T00:00:00+00:00</time>
        <ele>3208.0</ele>
      </trkpt>
      <trkpt lat="46.525314" lon="8.173863">
        <time>1970-01-01T00:00:00+00:00</time>
        <ele>3223.0</ele>
      </trkpt>
      <trkpt lat="46.525623" lon="8.173761">
        <time>1970-01-01T00:00:00+00:00</time>
        <ele>3211.0</ele>
      </trkpt>
      <trkpt lat="46.525494" lon="8.173699">
        <time>1970-01-01T00:00:00+00:00</time>
        <ele>3213.0</ele>
      </trkpt>
      <trkpt lat="46.525388" lon="8.173843">
        <time>1970-01-01T00:00:00+00:00</time>
        <ele>3219.0</ele>
      </trkpt>
      <trkpt lat="46.525581" lon="8.173733">
        <time>1970-01-01T00:00:00+00:00</time>
        <ele>3211.0</ele>
      </trkpt>
      <trkpt lat="46.525472" lon="8.173558">
        <time>1970-01-01T00:00:00+00:00</time>
        <ele>3213.0</ele>
      </trkpt>
      <trkpt lat="46.525294" lon="8.172687">
        <time>1970-01-01T00:00:00+00:00</time>
        <ele>3200.0</ele>
      </trkpt>
      <trkpt lat="46.525246" lon="8.171731">
        <time>1970-01-01T00:00:00+00:00</time>
        <ele>3175.0</ele>
      </trkpt>
      <trkpt lat="46.524713" lon="8.170676">
        <time>1970-01-01T00:00:00+00:00</time>
        <ele>3148.0</ele>
      </trkpt>
      <trkpt lat="46.522648" lon="8.168695">
        <time>1970-01-01T00:00:00+00:00</time>
        <ele>3056.0</ele>
      </trkpt>
      <trkpt lat="46.520893" lon="8.168564">
        <time>1970-01-01T00:00:00+00:00</time>
        <ele>3031.0</ele>
      </trkpt>
      <trkpt lat="46.52052" lon="8.168356">
        <time>1970-01-01T00:00:00+00:00</time>
        <ele>3028.0</ele>
      </trkpt>
      <trkpt lat="46.520485" lon="8.168528">
        <time>1970-01-01T00:00:00+00:00</time>
        <ele>3028.0</ele>
      </trkpt>
      <trkpt lat="46.520531" lon="8.168217">
        <time>1970-01-01T00:00:00+00:00</time>
        <ele>3028.0</ele>
      </trkpt>
      <trkpt lat="46.520306" lon="8.168389">
        <time>1970-01-01T00:00:00+00:00</time>
        <ele>3026.0</ele>
      </trkpt>
      <trkpt lat="46.519204" lon="8.168951">
        <time>1970-01-01T00:00:00+00:00</time>
        <ele>3019.0</ele>
      </trkpt>
      <trkpt lat="46.518965" lon="8.168477">
        <time>1970-01-01T00:00:00+00:00</time>
        <ele>3016.0</ele>
      </trkpt>
      <trkpt lat="46.518574" lon="8.168944">
        <time>1970-01-01T00:00:00+00:00</time>
        <ele>3011.0</ele>
      </trkpt>
      <trkpt lat="46.518445" lon="8.168926">
        <time>1970-01-01T00:00:00+00:00</time>
        <ele>3010.0</ele>
      </trkpt>
      <trkpt lat="46.518199" lon="8.168493">
        <time>1970-01-01T00:00:00+00:00</time>
        <ele>3007.0</ele>
      </trkpt>
      <trkpt lat="46.518142" lon="8.168293">
        <time>1970-01-01T00:00:00+00:00</time>
        <ele>3007.0</ele>
      </trkpt>
      <trkpt lat="46.517814" lon="8.168592">
        <time>1970-01-01T00:00:00+00:00</time>
        <ele>3002.0</ele>
      </trkpt>
      <trkpt lat="46.517643" lon="8.168431">
        <time>1970-01-01T00:00:00+00:00</time>
        <ele>3001.0</ele>
      </trkpt>
      <trkpt lat="46.517316" lon="8.167638">
        <time>1970-01-01T00:00:00+00:00</time>
        <ele>2999.0</ele>
      </trkpt>
      <trkpt lat="46.516999" lon="8.167831">
        <time>1970-01-01T00:00:00+00:00</time>
        <ele>2995.0</ele>
      </trkpt>
      <trkpt lat="46.516046" lon="8.166883">
        <time>1970-01-01T00:00:00+00:00</time>
        <ele>2987.0</ele>
      </trkpt>
      <trkpt lat="46.515023" lon="8.167542">
        <time>1970-01-01T00:00:00+00:00</time>
        <ele>2982.0</ele>
      </trkpt>
      <trkpt lat="46.514568" lon="8.167503">
        <time>1970-01-01T00:00:00+00:00</time>
        <ele>2978.0</ele>
      </trkpt>
      <trkpt lat="46.514675" lon="8.167444">
        <time>1970-01-01T00:00:00+00:00</time>
        <ele>2979.0</ele>
      </trkpt>
      <trkpt lat="46.514534" lon="8.167414">
        <time>1970-01-01T00:00:00+00:00</time>
        <ele>2978.0</ele>
      </trkpt>
      <trkpt lat="46.514342" lon="8.167637">
        <time>1970-01-01T00:00:00+00:00</time>
        <ele>2976.0</ele>
      </trkpt>
      <trkpt lat="46.514155" lon="8.167581">
        <time>1970-01-01T00:00:00+00:00</time>
        <ele>2975.0</ele>
      </trkpt>
      <trkpt lat="46.513768" lon="8.167736">
        <time>1970-01-01T00:00:00+00:00</time>
        <ele>2975.0</ele>
      </trkpt>
      <trkpt lat="46.5136" lon="8.167638">
        <time>1970-01-01T00:00:00+00:00</time>
        <ele>2975.0</ele>
      </trkpt>
      <trkpt lat="46.513612" lon="8.167504">
        <time>1970-01-01T00:00:00+00:00</time>
        <ele>2974.0</ele>
      </trkpt>
      <trkpt lat="46.513332" lon="8.167819">
        <time>1970-01-01T00:00:00+00:00</time>
        <ele>2976.0</ele>
      </trkpt>
      <trkpt lat="46.512653" lon="8.16726">
        <time>1970-01-01T00:00:00+00:00</time>
        <ele>2969.0</ele>
      </trkpt>
      <trkpt lat="46.512317" lon="8.167824">
        <time>1970-01-01T00:00:00+00:00</time>
        <ele>2967.0</ele>
      </trkpt>
      <trkpt lat="46.512288" lon="8.167687">
        <time>1970-01-01T00:00:00+00:00</time>
        <ele>2965.0</ele>
      </trkpt>
      <trkpt lat="46.512392" lon="8.16741">
        <time>1970-01-01T00:00:00+00:00</time>
        <ele>2966.0</ele>
      </trkpt>
      <trkpt lat="46.512079" lon="8.167328">
        <time>1970-01-01T00:00:00+00:00</time>
        <ele>2961.0</ele>
      </trkpt>
      <trkpt lat="46.511959" lon="8.167388">
        <time>1970-01-01T00:00:00+00:00</time>
        <ele>2958.0</ele>
      </trkpt>
      <trkpt lat="46.511999" lon="8.167442">
        <time>1970-01-01T00:00:00+00:00</time>
        <ele>2959.0</ele>
      </trkpt>
      <trkpt lat="46.511733" lon="8.167258">
        <time>1970-01-01T00:00:00+00:00</time>
        <ele>2953.0</ele>
      </trkpt>
      <trkpt lat="46.510073" lon="8.164901">
        <time>1970-01-01T00:00:00+00:00</time>
        <ele>2945.0</ele>
      </trkpt>
      <trkpt lat="46.509754" lon="8.164615">
        <time>1970-01-01T00:00:00+00:00</time>
        <ele>2940.0</ele>
      </trkpt>
      <trkpt lat="46.509124" lon="8.164349">
        <time>1970-01-01T00:00:00+00:00</time>
        <ele>2923.0</ele>
      </trkpt>
      <trkpt lat="46.508716" lon="8.164621">
        <time>1970-01-01T00:00:00+00:00</time>
        <ele>2916.0</ele>
      </trkpt>
      <trkpt lat="46.508206" lon="8.164693">
        <time>1970-01-01T00:00:00+00:00</time>
        <ele>2902.0</ele>
      </trkpt>
      <trkpt lat="46.505907" lon="8.162149">
        <time>1970-01-01T00:00:00+00:00</time>
        <ele>2800.0</ele>
      </trkpt>
      <trkpt lat="46.505918" lon="8.162896">
        <time>1970-01-01T00:00:00+00:00</time>
        <ele>2818.0</ele>
      </trkpt>
      <trkpt lat="46.506609" lon="8.165465">
        <time>1970-01-01T00:00:00+00:00</time>
        <ele>2874.0</ele>
      </trkpt>
      <trkpt lat="46.506407" lon="8.165329">
        <time>1970-01-01T00:00:00+00:00</time>
        <ele>2868.0</ele>
      </trkpt>
      <trkpt lat="46.506265" lon="8.165126">
        <time>1970-01-01T00:00:00+00:00</time>
        <ele>2863.0</ele>
      </trkpt>
      <trkpt lat="46.504254" lon="8.161098">
        <time>1970-01-01T00:00:00+00:00</time>
        <ele>2787.0</ele>
      </trkpt>
      <trkpt lat="46.5047" lon="8.160303">
        <time>1970-01-01T00:00:00+00:00</time>
        <ele>2770.0</ele>
      </trkpt>
      <trkpt lat="46.504304" lon="8.157018">
        <time>1970-01-01T00:00:00+00:00</time>
        <ele>2734.0</ele>
      </trkpt>
      <trkpt lat="46.505294" lon="8.154629">
        <time>1970-01-01T00:00:00+00:00</time>
        <ele>2720.0</ele>
      </trkpt>
      <trkpt lat="46.505871" lon="8.155194">
        <time>1970-01-01T00:00:00+00:00</time>
        <ele>2725.0</ele>
      </trkpt>
      <trkpt lat="46.505933" lon="8.155006">
        <time>1970-01-01T00:00:00+00:00</time>
        <ele>2725.0</ele>
      </trkpt>
      <trkpt lat="46.506225" lon="8.154941">
        <time>1970-01-01T00:00:00+00:00</time>
        <ele>2727.0</ele>
      </trkpt>
      <trkpt lat="46.505954" lon="8.154557">
        <time>1970-01-01T00:00:00+00:00</time>
        <ele>2723.0</ele>
      </trkpt>
      <trkpt lat="46.505631" lon="8.152165">
        <time>1970-01-01T00:00:00+00:00</time>
        <ele>2707.0</ele>
      </trkpt>
      <trkpt lat="46.506347" lon="8.152772">
        <time>1970-01-01T00:00:00+00:00</time>
        <ele>2717.0</ele>
      </trkpt>
      <trkpt lat="46.507154" lon="8.152323">
        <time>1970-01-01T00:00:00+00:00</time>
        <ele>2719.0</ele>
      </trkpt>
      <trkpt lat="46.50751" lon="8.15239">
        <time>1970-01-01T00:00:00+00:00</time>
        <ele>2721.0</ele>
      </trkpt>
      <trkpt lat="46.506091" lon="8.148248">
        <time>1970-01-01T00:00:00+00:00</time>
        <ele>2680.0</ele>
      </trkpt>
      <trkpt lat="46.505991" lon="8.148927">
        <time>1970-01-01T00:00:00+00:00</time>
        <ele>2684.0</ele>
      </trkpt>
      <trkpt lat="46.505721" lon="8.149602">
        <time>1970-01-01T00:00:00+00:00</time>
        <ele>2690.0</ele>
      </trkpt>
      <trkpt lat="46.50554" lon="8.149655">
        <time>1970-01-01T00:00:00+00:00</time>
        <ele>2689.0</ele>
      </trkpt>
      <trkpt lat="46.505187" lon="8.149353">
        <time>1970-01-01T00:00:00+00:00</time>
        <ele>2686.0</ele>
      </trkpt>
      <trkpt lat="46.506258" lon="8.148919">
        <time>1970-01-01T00:00:00+00:00</time>
        <ele>2683.0</ele>
      </trkpt>
      <trkpt lat="46.506012" lon="8.147518">
        <time>1970-01-01T00:00:00+00:00</time>
        <ele>2681.0</ele>
      </trkpt>
      <trkpt lat="46.506512" lon="8.147669">
        <time>1970-01-01T00:00:00+00:00</time>
        <ele>2680.0</ele>
      </trkpt>
      <trkpt lat="46.506974" lon="8.147908">
        <time>1970-01-01T00:00:00+00:00</time>
        <ele>2683.0</ele>
      </trkpt>
      <trkpt lat="46.507193" lon="8.149956">
        <time>1970-01-01T00:00:00+00:00</time>
        <ele>2690.0</ele>
      </trkpt>
      <trkpt lat="46.507358" lon="8.149355">
        <time>1970-01-01T00:00:00+00:00</time>
        <ele>2695.0</ele>
      </trkpt>
      <trkpt lat="46.507148" lon="8.150288">
        <time>1970-01-01T00:00:00+00:00</time>
        <ele>2691.0</ele>
      </trkpt>
      <trkpt lat="46.507413" lon="8.148086">
        <time>1970-01-01T00:00:00+00:00</time>
        <ele>2695.0</ele>
      </trkpt>
      <trkpt lat="46.505789" lon="8.147937">
        <time>1970-01-01T00:00:00+00:00</time>
        <ele>2681.0</ele>
      </trkpt>
      <trkpt lat="46.505871" lon="8.147113">
        <time>1970-01-01T00:00:00+00:00</time>
        <ele>2682.0</ele>
      </trkpt>
      <trkpt lat="46.508219" lon="8.14819">
        <time>1970-01-01T00:00:00+00:00</time>
        <ele>2755.0</ele>
      </trkpt>
      <trkpt lat="46.506825" lon="8.149392">
        <time>1970-01-01T00:00:00+00:00</time>
        <ele>2686.0</ele>
      </trkpt>
      <trkpt lat="46.506302" lon="8.147653">
        <time>1970-01-01T00:00:00+00:00</time>
        <ele>2681.0</ele>
      </trkpt>
      <trkpt lat="46.505978" lon="8.146849">
        <time>1970-01-01T00:00:00+00:00</time>
        <ele>2684.0</ele>
      </trkpt>
      <trkpt lat="46.504963" lon="8.145417">
        <time>1970-01-01T00:00:00+00:00</time>
        <ele>2683.0</ele>
      </trkpt>
      <trkpt lat="46.506404" lon="8.147495">
        <time>1970-01-01T00:00:00+00:00</time>
        <ele>2682.0</ele>
      </trkpt>
      <trkpt lat="46.507611" lon="8.147521">
        <time>1970-01-01T00:00:00+00:00</time>
        <ele>2697.0</ele>
      </trkpt>
      <trkpt lat="46.507424" lon="8.147178">
        <time>1970-01-01T00:00:00+00:00</time>
        <ele>2692.0</ele>
      </trkpt>
      <trkpt lat="46.507764" lon="8.148127">
        <time>1970-01-01T00:00:00+00:00</time>
        <ele>2716.0</ele>
      </trkpt>
      <trkpt lat="46.507324" lon="8.14802">
        <time>1970-01-01T00:00:00+00:00</time>
        <ele>2691.0</ele>
      </trkpt>
      <trkpt lat="46.506829" lon="8.148362">
        <time>1970-01-01T00:00:00+00:00</time>
        <ele>2680.0</ele>
      </trkpt>
      <trkpt lat="46.506429" lon="8.148001">
        <time>1970-01-01T00:00:00+00:00</time>
        <ele>2679.0</ele>
      </trkpt>
      <trkpt lat="46.50624" lon="8.14791">
        <time>1970-01-01T00:00:00+00:00</time>
        <ele>2680.0</ele>
      </trkpt>
      <trkpt lat="46.505947" lon="8.146958">
        <time>1970-01-01T00:00:00+00:00</time>
        <ele>2683.0</ele>
      </trkpt>
      <trkpt lat="46.505415" lon="8.143337">
        <time>1970-01-01T00:00:00+00:00</time>
        <ele>2700.0</ele>
      </trkpt>
      <trkpt lat="46.505335" lon="8.143579">
        <time>1970-01-01T00:00:00+00:00</time>
        <ele>2698.0</ele>
      </trkpt>
      <trkpt lat="46.505273" lon="8.143589">
        <time>1970-01-01T00:00:00+00:00</time>
        <ele>2697.0</ele>
      </trkpt>
      <trkpt lat="46.505315" lon="8.143427">
        <time>1970-01-01T00:00:00+00:00</time>
        <ele>2699.0</ele>
      </trkpt>
      <trkpt lat="46.505425" lon="8.143518">
        <time>1970-01-01T00:00:00+00:00</time>
        <ele>2699.0</ele>
      </trkpt>
      <trkpt lat="46.507374" lon="8.147999">
        <time>1970-01-01T00:00:00+00:00</time>
        <ele>2692.0</ele>
      </trkpt>
      <trkpt lat="46.506831" lon="8.149071">
        <time>1970-01-01T00:00:00+00:00</time>
        <ele>2683.0</ele>
      </trkpt>
      <trkpt lat="46.506917" lon="8.148942">
        <time>1970-01-01T00:00:00+00:00</time>
        <ele>2683.0</ele>
      </trkpt>
      <trkpt lat="46.506807" lon="8.148774">
        <time>1970-01-01T00:00:00+00:00</time>
        <ele>2680.0</ele>
      </trkpt>
      <trkpt lat="46.506941" lon="8.149053">
        <time>1970-01-01T00:00:00+00:00</time>
        <ele>2685.0</ele>
      </trkpt>
      <trkpt lat="46.506891" lon="8.148999">
        <time>1970-01-01T00:00:00+00:00</time>
        <ele>2683.0</ele>
      </trkpt>
      <trkpt lat="46.506961" lon="8.14881">
        <time>1970-01-01T00:00:00+00:00</time>
        <ele>2683.0</ele>
      </trkpt>
      <trkpt lat="46.507033" lon="8.148811">
        <time>1970-01-01T00:00:00+00:00</time>
        <ele>2685.0</ele>
      </trkpt>
      <trkpt lat="46.507085" lon="8.14858">
        <time>1970-01-01T00:00:00+00:00</time>
        <ele>2686.0</ele>
      </trkpt>
      <trkpt lat="46.507428" lon="8.148276">
        <time>1970-01-01T00:00:00+00:00</time>
        <ele>2698.0</ele>
      </trkpt>
      <trkpt lat="46.50736" lon="8.148058">
        <time>1970-01-01T00:00:00+00:00</time>
        <ele>2692.0</ele>
      </trkpt>
      <trkpt lat="46.507437" lon="8.147642">
        <time>1970-01-01T00:00:00+00:00</time>
        <ele>2692.0</ele>
      </trkpt>
      <trkpt lat="46.507564" lon="8.147432">
        <time>1970-01-01T00:00:00+00:00</time>
        <ele>2695.0</ele>
      </trkpt>
      <trkpt lat="46.507548" lon="8.147108">
        <time>1970-01-01T00:00:00+00:00</time>
        <ele>2695.0</ele>
      </trkpt>
      <trkpt lat="46.507649" lon="8.146996">
        <time>1970-01-01T00:00:00+00:00</time>
        <ele>2698.0</ele>
      </trkpt>
      <trkpt lat="46.507867" lon="8.146448">
        <time>1970-01-01T00:00:00+00:00</time>
        <ele>2703.0</ele>
      </trkpt>
      <trkpt lat="46.507936" lon="8.145205">
        <time>1970-01-01T00:00:00+00:00</time>
        <ele>2712.0</ele>
      </trkpt>
      <trkpt lat="46.507954" lon="8.144246">
        <time>1970-01-01T00:00:00+00:00</time>
        <ele>2718.0</ele>
      </trkpt>
      <trkpt lat="46.507866" lon="8.143426">
        <time>1970-01-01T00:00:00+00:00</time>
        <ele>2721.0</ele>
      </trkpt>
      <trkpt lat="46.507715" lon="8.14276">
        <time>1970-01-01T00:00:00+00:00</time>
        <ele>2724.0</ele>
      </trkpt>
      <trkpt lat="46.507487" lon="8.142283">
        <time>1970-01-01T00:00:00+00:00</time>
        <ele>2723.0</ele>
      </trkpt>
      <trkpt lat="46.50763" lon="8.141535">
        <time>1970-01-01T00:00:00+00:00</time>
        <ele>2726.0</ele>
      </trkpt>
      <trkpt lat="46.507643" lon="8.141393">
        <time>1970-01-01T00:00:00+00:00</time>
        <ele>2726.0</ele>
      </trkpt>
      <trkpt lat="46.507594" lon="8.141308">
        <time>1970-01-01T00:00:00+00:00</time>
        <ele>2726.0</ele>
      </trkpt>
      <trkpt lat="46.507714" lon="8.1399">
        <time>1970-01-01T00:00:00+00:00</time>
        <ele>2732.0</ele>
      </trkpt>
      <trkpt lat="46.507684" lon="8.139242">
        <time>1970-01-01T00:00:00+00:00</time>
        <ele>2736.0</ele>
      </trkpt>
      <trkpt lat="46.507722" lon="8.138901">
        <time>1970-01-01T00:00:00+00:00</time>
        <ele>2738.0</ele>
      </trkpt>
      <trkpt lat="46.507791" lon="8.138894">
        <time>1970-01-01T00:00:00+00:00</time>
        <ele>2738.0</ele>
      </trkpt>
      <trkpt lat="46.507702" lon="8.138395">
        <time>1970-01-01T00:00:00+00:00</time>
        <ele>2740.0</ele>
      </trkpt>
      <trkpt lat="46.507626" lon="8.138322">
        <time>1970-01-01T00:00:00+00:00</time>
        <ele>2741.0</ele>
      </trkpt>
      <trkpt lat="46.507716" lon="8.138231">
        <time>1970-01-01T00:00:00+00:00</time>
        <ele>2741.0</ele>
      </trkpt>
      <trkpt lat="46.507703" lon="8.138175">
        <time>1970-01-01T00:00:00+00:00</time>
        <ele>2742.0</ele>
      </trkpt>
      <trkpt lat="46.507454" lon="8.138364">
        <time>1970-01-01T00:00:00+00:00</time>
        <ele>2742.0</ele>
      </trkpt>
      <trkpt lat="46.507742" lon="8.138082">
        <time>1970-01-01T00:00:00+00:00</time>
        <ele>2742.0</ele>
      </trkpt>
      <trkpt lat="46.507622" lon="8.137019">
        <time>1970-01-01T00:00:00+00:00</time>
        <ele>2749.0</ele>
      </trkpt>
      <trkpt lat="46.50765" lon="8.135745">
        <time>1970-01-01T00:00:00+00:00</time>
        <ele>2757.0</ele>
      </trkpt>
      <trkpt lat="46.507716" lon="8.135591">
        <time>1970-01-01T00:00:00+00:00</time>
        <ele>2757.0</ele>
      </trkpt>
      <trkpt lat="46.507722" lon="8.134844">
        <time>1970-01-01T00:00:00+00:00</time>
        <ele>2761.0</ele>
      </trkpt>
      <trkpt lat="46.507768" lon="8.134715">
        <time>1970-01-01T00:00:00+00:00</time>
        <ele>2761.0</ele>
      </trkpt>
      <trkpt lat="46.507774" lon="8.133767">
        <time>1970-01-01T00:00:00+00:00</time>
        <ele>2767.0</ele>
      </trkpt>
      <trkpt lat="46.50771" lon="8.133524">
        <time>1970-01-01T00:00:00+00:00</time>
        <ele>2768.0</ele>
      </trkpt>
      <trkpt lat="46.507841" lon="8.133231">
        <time>1970-01-01T00:00:00+00:00</time>
        <ele>2769.0</ele>
      </trkpt>
      <trkpt lat="46.507842" lon="8.132812">
        <time>1970-01-01T00:00:00+00:00</time>
        <ele>2771.0</ele>
      </trkpt>
      <trkpt lat="46.507916" lon="8.132491">
        <time>1970-01-01T00:00:00+00:00</time>
        <ele>2773.0</ele>
      </trkpt>
      <trkpt lat="46.507846" lon="8.131994">
        <time>1970-01-01T00:00:00+00:00</time>
        <ele>2776.0</ele>
      </trkpt>
      <trkpt lat="46.507948" lon="8.131695">
        <time>1970-01-01T00:00:00+00:00</time>
        <ele>2778.0</ele>
      </trkpt>
      <trkpt lat="46.507808" lon="8.131248">
        <time>1970-01-01T00:00:00+00:00</time>
        <ele>2781.0</ele>
      </trkpt>
      <trkpt lat="46.507984" lon="8.131027">
        <time>1970-01-01T00:00:00+00:00</time>
        <ele>2781.0</ele>
      </trkpt>
      <trkpt lat="46.507954" lon="8.130781">
        <time>1970-01-01T00:00:00+00:00</time>
        <ele>2782.0</ele>
      </trkpt>
      <trkpt lat="46.508045" lon="8.130003">
        <time>1970-01-01T00:00:00+00:00</time>
        <ele>2785.0</ele>
      </trkpt>
      <trkpt lat="46.507993" lon="8.129853">
        <time>1970-01-01T00:00:00+00:00</time>
        <ele>2786.0</ele>
      </trkpt>
      <trkpt lat="46.508068" lon="8.129689">
        <time>1970-01-01T00:00:00+00:00</time>
        <ele>2787.0</ele>
      </trkpt>
      <trkpt lat="46.508058" lon="8.129339">
        <time>1970-01-01T00:00:00+00:00</time>
        <ele>2790.0</ele>
      </trkpt>
      <trkpt lat="46.507979" lon="8.129168">
        <time>1970-01-01T00:00:00+00:00</time>
        <ele>2791.0</ele>
      </trkpt>
      <trkpt lat="46.508043" lon="8.129052">
        <time>1970-01-01T00:00:00+00:00</time>
        <ele>2791.0</ele>
      </trkpt>
      <trkpt lat="46.508065" lon="8.128414">
        <time>1970-01-01T00:00:00+00:00</time>
        <ele>2794.0</ele>
      </trkpt>
      <trkpt lat="46.507959" lon="8.128266">
        <time>1970-01-01T00:00:00+00:00</time>
        <ele>2795.0</ele>
      </trkpt>
      <trkpt lat="46.507995" lon="8.127775">
        <time>1970-01-01T00:00:00+00:00</time>
        <ele>2798.0</ele>
      </trkpt>
      <trkpt lat="46.507966" lon="8.127676">
        <time>1970-01-01T00:00:00+00:00</time>
        <ele>2799.0</ele>
      </trkpt>
      <trkpt lat="46.507831" lon="8.127613">
        <time>1970-01-01T00:00:00+00:00</time>
        <ele>2800.0</ele>
      </trkpt>
      <trkpt lat="46.507818" lon="8.126593">
        <time>1970-01-01T00:00:00+00:00</time>
        <ele>2805.0</ele>
      </trkpt>
      <trkpt lat="46.50772" lon="8.126268">
        <time>1970-01-01T00:00:00+00:00</time>
        <ele>2807.0</ele>
      </trkpt>
      <trkpt lat="46.507879" lon="8.125043">
        <time>1970-01-01T00:00:00+00:00</time>
        <ele>2812.0</ele>
      </trkpt>
      <trkpt lat="46.507766" lon="8.124663">
        <time>1970-01-01T00:00:00+00:00</time>
        <ele>2814.0</ele>
      </trkpt>
      <trkpt lat="46.507786" lon="8.124384">
        <time>1970-01-01T00:00:00+00:00</time>
        <ele>2816.0</ele>
      </trkpt>
      <trkpt lat="46.507712" lon="8.124584">
        <time>1970-01-01T00:00:00+00:00</time>
        <ele>2815.0</ele>
      </trkpt>
      <trkpt lat="46.507668" lon="8.124437">
        <time>1970-01-01T00:00:00+00:00</time>
        <ele>2816.0</ele>
      </trkpt>
      <trkpt lat="46.507318" lon="8.124223">
        <time>1970-01-01T00:00:00+00:00</time>
        <ele>2820.0</ele>
      </trkpt>
      <trkpt lat="46.507275" lon="8.123985">
        <time>1970-01-01T00:00:00+00:00</time>
        <ele>2820.0</ele>
      </trkpt>
      <trkpt lat="46.507127" lon="8.12376">
        <time>1970-01-01T00:00:00+00:00</time>
        <ele>2822.0</ele>
      </trkpt>
      <trkpt lat="46.507056" lon="8.122981">
        <time>1970-01-01T00:00:00+00:00</time>
        <ele>2826.0</ele>
      </trkpt>
      <trkpt lat="46.506343" lon="8.122805">
        <time>1970-01-01T00:00:00+00:00</time>
        <ele>2821.0</ele>
      </trkpt>
      <trkpt lat="46.506234" lon="8.122804">
        <time>1970-01-01T00:00:00+00:00</time>
        <ele>2821.0</ele>
      </trkpt>
      <trkpt lat="46.5061" lon="8.12291">
        <time>1970-01-01T00:00:00+00:00</time>
        <ele>2822.0</ele>
      </trkpt>
      <trkpt lat="46.505938" lon="8.122694">
        <time>1970-01-01T00:00:00+00:00</time>
        <ele>2825.0</ele>
      </trkpt>
      <trkpt lat="46.505892" lon="8.122512">
        <time>1970-01-01T00:00:00+00:00</time>
        <ele>2826.0</ele>
      </trkpt>
      <trkpt lat="46.505792" lon="8.122577">
        <time>1970-01-01T00:00:00+00:00</time>
        <ele>2828.0</ele>
      </trkpt>
      <trkpt lat="46.505696" lon="8.122499">
        <time>1970-01-01T00:00:00+00:00</time>
        <ele>2830.0</ele>
      </trkpt>
      <trkpt lat="46.505595" lon="8.122643">
        <time>1970-01-01T00:00:00+00:00</time>
        <ele>2833.0</ele>
      </trkpt>
      <trkpt lat="46.505647" lon="8.122582">
        <time>1970-01-01T00:00:00+00:00</time>
        <ele>2831.0</ele>
      </trkpt>
      <trkpt lat="46.505638" lon="8.122675">
        <time>1970-01-01T00:00:00+00:00</time>
        <ele>2832.0</ele>
      </trkpt>
      <trkpt lat="46.505815" lon="8.122606">
        <time>1970-01-01T00:00:00+00:00</time>
        <ele>2827.0</ele>
      </trkpt>
      <trkpt lat="46.505655" lon="8.122875">
        <time>1970-01-01T00:00:00+00:00</time>
        <ele>2832.0</ele>
      </trkpt>
      <trkpt lat="46.505559" lon="8.122933">
        <time>1970-01-01T00:00:00+00:00</time>
        <ele>2835.0</ele>
      </trkpt>
      <trkpt lat="46.505821" lon="8.122619">
        <time>1970-01-01T00:00:00+00:00</time>
        <ele>2827.0</ele>
      </trkpt>
      <trkpt lat="46.505715" lon="8.122646">
        <time>1970-01-01T00:00:00+00:00</time>
        <ele>2829.0</ele>
      </trkpt>
      <trkpt lat="46.505554" lon="8.12309">
        <time>1970-01-01T00:00:00+00:00</time>
        <ele>2835.0</ele>
      </trkpt>
      <trkpt lat="46.505465" lon="8.122997">
        <time>1970-01-01T00:00:00+00:00</time>
        <ele>2838.0</ele>
      </trkpt>
      <trkpt lat="46.505388" lon="8.12302">
        <time>1970-01-01T00:00:00+00:00</time>
        <ele>2841.0</ele>
      </trkpt>
      <trkpt lat="46.505602" lon="8.122939">
        <time>1970-01-01T00:00:00+00:00</time>
        <ele>2834.0</ele>
      </trkpt>
      <trkpt lat="46.505515" lon="8.12296">
        <time>1970-01-01T00:00:00+00:00</time>
        <ele>2837.0</ele>
      </trkpt>
      <trkpt lat="46.505686" lon="8.123">
        <time>1970-01-01T00:00:00+00:00</time>
        <ele>2831.0</ele>
      </trkpt>
      <trkpt lat="46.505714" lon="8.122834">
        <time>1970-01-01T00:00:00+00:00</time>
        <ele>2830.0</ele>
      </trkpt>
      <trkpt lat="46.505663" lon="8.122914">
        <time>1970-01-01T00:00:00+00:00</time>
        <ele>2832.0</ele>
      </trkpt>
      <trkpt lat="46.505691" lon="8.122965">
        <time>1970-01-01T00:00:00+00:00</time>
        <ele>2831.0</ele>
      </trkpt>
      <trkpt lat="46.505885" lon="8.122476">
        <time>1970-01-01T00:00:00+00:00</time>
        <ele>2826.0</ele>
      </trkpt>
      <trkpt lat="46.505788" lon="8.122514">
        <time>1970-01-01T00:00:00+00:00</time>
        <ele>2828.0</ele>
      </trkpt>
      <trkpt lat="46.505805" lon="8.122472">
        <time>1970-01-01T00:00:00+00:00</time>
        <ele>2828.0</ele>
      </trkpt>
      <trkpt lat="46.50561" lon="8.122704">
        <time>1970-01-01T00:00:00+00:00</time>
        <ele>2833.0</ele>
      </trkpt>
      <trkpt lat="46.505499" lon="8.122277">
        <time>1970-01-01T00:00:00+00:00</time>
        <ele>2836.0</ele>
      </trkpt>
      <trkpt lat="46.505413" lon="8.122202">
        <time>1970-01-01T00:00:00+00:00</time>
        <ele>2839.0</ele>
      </trkpt>
      <trkpt lat="46.505255" lon="8.122497">
        <time>1970-01-01T00:00:00+00:00</time>
        <ele>2844.0</ele>
      </trkpt>
      <trkpt lat="46.505316" lon="8.122186">
        <time>1970-01-01T00:00:00+00:00</time>
        <ele>2842.0</ele>
      </trkpt>
      <trkpt lat="46.505611" lon="8.121772">
        <time>1970-01-01T00:00:00+00:00</time>
        <ele>2837.0</ele>
      </trkpt>
      <trkpt lat="46.505497" lon="8.121726">
        <time>1970-01-01T00:00:00+00:00</time>
        <ele>2842.0</ele>
      </trkpt>
      <trkpt lat="46.505076" lon="8.121948">
        <time>1970-01-01T00:00:00+00:00</time>
        <ele>2851.0</ele>
      </trkpt>
      <trkpt lat="46.504804" lon="8.122188">
        <time>1970-01-01T00:00:00+00:00</time>
        <ele>2858.0</ele>
      </trkpt>
      <trkpt lat="46.504694" lon="8.122055">
        <time>1970-01-01T00:00:00+00:00</time>
        <ele>2861.0</ele>
      </trkpt>
      <trkpt lat="46.504553" lon="8.122445">
        <time>1970-01-01T00:00:00+00:00</time>
        <ele>2864.0</ele>
      </trkpt>
      <trkpt lat="46.504789" lon="8.121918">
        <time>1970-01-01T00:00:00+00:00</time>
        <ele>2861.0</ele>
      </trkpt>
      <trkpt lat="46.504373" lon="8.122095">
        <time>1970-01-01T00:00:00+00:00</time>
        <ele>2872.0</ele>
      </trkpt>
      <trkpt lat="46.503581" lon="8.122286">
        <time>1970-01-01T00:00:00+00:00</time>
        <ele>2903.0</ele>
      </trkpt>
      <trkpt lat="46.503594" lon="8.122391">
        <time>1970-01-01T00:00:00+00:00</time>
        <ele>2903.0</ele>
      </trkpt>
      <trkpt lat="46.503386" lon="8.122618">
        <time>1970-01-01T00:00:00+00:00</time>
        <ele>2912.0</ele>
      </trkpt>
      <trkpt lat="46.503218" lon="8.122661">
        <time>1970-01-01T00:00:00+00:00</time>
        <ele>2922.0</ele>
      </trkpt>
      <trkpt lat="46.503178" lon="8.122912">
        <time>1970-01-01T00:00:00+00:00</time>
        <ele>2923.0</ele>
      </trkpt>
      <trkpt lat="46.503033" lon="8.122989">
        <time>1970-01-01T00:00:00+00:00</time>
        <ele>2930.0</ele>
      </trkpt>
      <trkpt lat="46.503058" lon="8.123032">
        <time>1970-01-01T00:00:00+00:00</time>
        <ele>2929.0</ele>
      </trkpt>
      <trkpt lat="46.503586" lon="8.12272">
        <time>1970-01-01T00:00:00+00:00</time>
        <ele>2901.0</ele>
      </trkpt>
      <trkpt lat="46.503817" lon="8.122469">
        <time>1970-01-01T00:00:00+00:00</time>
        <ele>2892.0</ele>
      </trkpt>
      <trkpt lat="46.503217" lon="8.123291">
        <time>1970-01-01T00:00:00+00:00</time>
        <ele>2918.0</ele>
      </trkpt>
      <trkpt lat="46.503072" lon="8.123212">
        <time>1970-01-01T00:00:00+00:00</time>
        <ele>2927.0</ele>
      </trkpt>
      <trkpt lat="46.503195" lon="8.123413">
        <time>1970-01-01T00:00:00+00:00</time>
        <ele>2919.0</ele>
      </trkpt>
      <trkpt lat="46.503338" lon="8.123373">
        <time>1970-01-01T00:00:00+00:00</time>
        <ele>2911.0</ele>
      </trkpt>
      <trkpt lat="46.503636" lon="8.122842">
        <time>1970-01-01T00:00:00+00:00</time>
        <ele>2899.0</ele>
      </trkpt>
      <trkpt lat="46.503619" lon="8.122697">
        <time>1970-01-01T00:00:00+00:00</time>
        <ele>2900.0</ele>
      </trkpt>
      <trkpt lat="46.502573" lon="8.123023">
        <time>1970-01-01T00:00:00+00:00</time>
        <ele>2949.0</ele>
      </trkpt>
      <trkpt lat="46.502296" lon="8.123288">
        <time>1970-01-01T00:00:00+00:00</time>
        <ele>2956.0</ele>
      </trkpt>
      <trkpt lat="46.502404" lon="8.123334">
        <time>1970-01-01T00:00:00+00:00</time>
        <ele>2953.0</ele>
      </trkpt>
      <trkpt lat="46.502359" lon="8.123516">
        <time>1970-01-01T00:00:00+00:00</time>
        <ele>2953.0</ele>
      </trkpt>
      <trkpt lat="46.502924" lon="8.122948">
        <time>1970-01-01T00:00:00+00:00</time>
        <ele>2934.0</ele>
      </trkpt>
      <trkpt lat="46.502349" lon="8.123662">
        <time>1970-01-01T00:00:00+00:00</time>
        <ele>2953.0</ele>
      </trkpt>
      <trkpt lat="46.502519" lon="8.123378">
        <time>1970-01-01T00:00:00+00:00</time>
        <ele>2949.0</ele>
      </trkpt>
      <trkpt lat="46.502562" lon="8.12343">
        <time>1970-01-01T00:00:00+00:00</time>
        <ele>2948.0</ele>
      </trkpt>
      <trkpt lat="46.502942" lon="8.123323">
        <time>1970-01-01T00:00:00+00:00</time>
        <ele>2931.0</ele>
      </trkpt>
      <trkpt lat="46.502825" lon="8.123348">
        <time>1970-01-01T00:00:00+00:00</time>
        <ele>2936.0</ele>
      </trkpt>
      <trkpt lat="46.502385" lon="8.123704">
        <time>1970-01-01T00:00:00+00:00</time>
        <ele>2952.0</ele>
      </trkpt>
      <trkpt lat="46.502329" lon="8.123298">
        <time>1970-01-01T00:00:00+00:00</time>
        <ele>2955.0</ele>
      </trkpt>
      <trkpt lat="46.502232" lon="8.123432">
        <time>1970-01-01T00:00:00+00:00</time>
        <ele>2958.0</ele>
      </trkpt>
      <trkpt lat="46.501924" lon="8.123542">
        <time>1970-01-01T00:00:00+00:00</time>
        <ele>2969.0</ele>
      </trkpt>
      <trkpt lat="46.501986" lon="8.123697">
        <time>1970-01-01T00:00:00+00:00</time>
        <ele>2967.0</ele>
      </trkpt>
      <trkpt lat="46.501911" lon="8.123977">
        <time>1970-01-01T00:00:00+00:00</time>
        <ele>2969.0</ele>
      </trkpt>
      <trkpt lat="46.501691" lon="8.124174">
        <time>1970-01-01T00:00:00+00:00</time>
        <ele>2978.0</ele>
      </trkpt>
      <trkpt lat="46.5016" lon="8.124423">
        <time>1970-01-01T00:00:00+00:00</time>
        <ele>2981.0</ele>
      </trkpt>
      <trkpt lat="46.501573" lon="8.124353">
        <time>1970-01-01T00:00:00+00:00</time>
        <ele>2982.0</ele>
      </trkpt>
      <trkpt lat="46.501421" lon="8.124518">
        <time>1970-01-01T00:00:00+00:00</time>
        <ele>2988.0</ele>
      </trkpt>
      <trkpt lat="46.501171" lon="8.124571">
        <time>1970-01-01T00:00:00+00:00</time>
        <ele>3002.0</ele>
      </trkpt>
      <trkpt lat="46.501379" lon="8.124489">
        <time>1970-01-01T00:00:00+00:00</time>
        <ele>2991.0</ele>
      </trkpt>
      <trkpt lat="46.501243" lon="8.124209">
        <time>1970-01-01T00:00:00+00:00</time>
        <ele>2999.0</ele>
      </trkpt>
      <trkpt lat="46.500911" lon="8.124012">
        <time>1970-01-01T00:00:00+00:00</time>
        <ele>3017.0</ele>
      </trkpt>
      <trkpt lat="46.500443" lon="8.124327">
        <time>1970-01-01T00:00:00+00:00</time>
        <ele>3036.0</ele>
      </trkpt>
      <trkpt lat="46.500042" lon="8.124694">
        <time>1970-01-01T00:00:00+00:00</time>
        <ele>3056.0</ele>
      </trkpt>
      <trkpt lat="46.502632" lon="8.122675">
        <time>1970-01-01T00:00:00+00:00</time>
        <ele>2949.0</ele>
      </trkpt>
      <trkpt lat="46.501953" lon="8.12323">
        <time>1970-01-01T00:00:00+00:00</time>
        <ele>2968.0</ele>
      </trkpt>
      <trkpt lat="46.500935" lon="8.123475">
        <time>1970-01-01T00:00:00+00:00</time>
        <ele>3014.0</ele>
      </trkpt>
      <trkpt lat="46.500765" lon="8.123281">
        <time>1970-01-01T00:00:00+00:00</time>
        <ele>3021.0</ele>
      </trkpt>
      <trkpt lat="46.50063" lon="8.123302">
        <time>1970-01-01T00:00:00+00:00</time>
        <ele>3028.0</ele>
      </trkpt>
      <trkpt lat="46.500364" lon="8.123363">
        <time>1970-01-01T00:00:00+00:00</time>
        <ele>3038.0</ele>
      </trkpt>
      <trkpt lat="46.500116" lon="8.123575">
        <time>1970-01-01T00:00:00+00:00</time>
        <ele>3048.0</ele>
      </trkpt>
      <trkpt lat="46.50001" lon="8.123566">
        <time>1970-01-01T00:00:00+00:00</time>
        <ele>3053.0</ele>
      </trkpt>
      <trkpt lat="46.500173" lon="8.123914">
        <time>1970-01-01T00:00:00+00:00</time>
        <ele>3046.0</ele>
      </trkpt>
      <trkpt lat="46.500625" lon="8.124077">
        <time>1970-01-01T00:00:00+00:00</time>
        <ele>3030.0</ele>
      </trkpt>
      <trkpt lat="46.500135" lon="8.123975">
        <time>1970-01-01T00:00:00+00:00</time>
        <ele>3048.0</ele>
      </trkpt>
      <trkpt lat="46.499484" lon="8.123637">
        <time>1970-01-01T00:00:00+00:00</time>
        <ele>3074.0</ele>
      </trkpt>
      <trkpt lat="46.499504" lon="8.123896">
        <time>1970-01-01T00:00:00+00:00</time>
        <ele>3073.0</ele>
      </trkpt>
      <trkpt lat="46.499446" lon="8.123841">
        <time>1970-01-01T00:00:00+00:00</time>
        <ele>3076.0</ele>
      </trkpt>
      <trkpt lat="46.499501" lon="8.123163">
        <time>1970-01-01T00:00:00+00:00</time>
        <ele>3075.0</ele>
      </trkpt>
      <trkpt lat="46.499463" lon="8.122924">
        <time>1970-01-01T00:00:00+00:00</time>
        <ele>3078.0</ele>
      </trkpt>
      <trkpt lat="46.499258" lon="8.122856">
        <time>1970-01-01T00:00:00+00:00</time>
        <ele>3087.0</ele>
      </trkpt>
      <trkpt lat="46.500414" lon="8.121782">
        <time>1970-01-01T00:00:00+00:00</time>
        <ele>3034.0</ele>
      </trkpt>
      <trkpt lat="46.499806" lon="8.122937">
        <time>1970-01-01T00:00:00+00:00</time>
        <ele>3061.0</ele>
      </trkpt>
      <trkpt lat="46.499556" lon="8.123166">
        <time>1970-01-01T00:00:00+00:00</time>
        <ele>3072.0</ele>
      </trkpt>
      <trkpt lat="46.499937" lon="8.122219">
        <time>1970-01-01T00:00:00+00:00</time>
        <ele>3059.0</ele>
      </trkpt>
      <trkpt lat="46.49952" lon="8.121808">
        <time>1970-01-01T00:00:00+00:00</time>
        <ele>3080.0</ele>
      </trkpt>
      <trkpt lat="46.499395" lon="8.12152">
        <time>1970-01-01T00:00:00+00:00</time>
        <ele>3089.0</ele>
      </trkpt>
      <trkpt lat="46.499519" lon="8.122281">
        <time>1970-01-01T00:00:00+00:00</time>
        <ele>3078.0</ele>
      </trkpt>
      <trkpt lat="46.499863" lon="8.122822">
        <time>1970-01-01T00:00:00+00:00</time>
        <ele>3060.0</ele>
      </trkpt>
      <trkpt lat="46.500358" lon="8.12268">
        <time>1970-01-01T00:00:00+00:00</time>
        <ele>3037.0</ele>
      </trkpt>
      <trkpt lat="46.500421" lon="8.121904">
        <time>1970-01-01T00:00:00+00:00</time>
        <ele>3033.0</ele>
      </trkpt>
      <trkpt lat="46.500991" lon="8.121273">
        <time>1970-01-01T00:00:00+00:00</time>
        <ele>3023.0</ele>
      </trkpt>
      <trkpt lat="46.500811" lon="8.121525">
        <time>1970-01-01T00:00:00+00:00</time>
        <ele>3023.0</ele>
      </trkpt>
      <trkpt lat="46.501023" lon="8.121738">
        <time>1970-01-01T00:00:00+00:00</time>
        <ele>3012.0</ele>
      </trkpt>
      <trkpt lat="46.500466" lon="8.120739">
        <time>1970-01-01T00:00:00+00:00</time>
        <ele>3052.0</ele>
      </trkpt>
      <trkpt lat="46.500709" lon="8.120755">
        <time>1970-01-01T00:00:00+00:00</time>
        <ele>3045.0</ele>
      </trkpt>
      <trkpt lat="46.50048" lon="8.120853">
        <time>1970-01-01T00:00:00+00:00</time>
        <ele>3049.0</ele>
      </trkpt>
      <trkpt lat="46.500432" lon="8.120021">
        <time>1970-01-01T00:00:00+00:00</time>
        <ele>3072.0</ele>
      </trkpt>
      <trkpt lat="46.500156" lon="8.121184">
        <time>1970-01-01T00:00:00+00:00</time>
        <ele>3053.0</ele>
      </trkpt>
      <trkpt lat="46.499946" lon="8.121157">
        <time>1970-01-01T00:00:00+00:00</time>
        <ele>3065.0</ele>
      </trkpt>
      <trkpt lat="46.499754" lon="8.12004">
        <time>1970-01-01T00:00:00+00:00</time>
        <ele>3093.0</ele>
      </trkpt>
      <trkpt lat="46.499378" lon="8.11929">
        <time>1970-01-01T00:00:00+00:00</time>
        <ele>3122.0</ele>
      </trkpt>
      <trkpt lat="46.500213" lon="8.118566">
        <time>1970-01-01T00:00:00+00:00</time>
        <ele>3110.0</ele>
      </trkpt>
      <trkpt lat="46.500036" lon="8.119112">
        <time>1970-01-01T00:00:00+00:00</time>
        <ele>3103.0</ele>
      </trkpt>
      <trkpt lat="46.499774" lon="8.118874">
        <time>1970-01-01T00:00:00+00:00</time>
        <ele>3115.0</ele>
      </trkpt>
      <trkpt lat="46.499195" lon="8.119167">
        <time>1970-01-01T00:00:00+00:00</time>
        <ele>3130.0</ele>
      </trkpt>
      <trkpt lat="46.499888" lon="8.118877">
        <time>1970-01-01T00:00:00+00:00</time>
        <ele>3112.0</ele>
      </trkpt>
      <trkpt lat="46.499834" lon="8.118796">
        <time>1970-01-01T00:00:00+00:00</time>
        <ele>3115.0</ele>
      </trkpt>
      <trkpt lat="46.499075" lon="8.119238">
        <time>1970-01-01T00:00:00+00:00</time>
        <ele>3134.0</ele>
      </trkpt>
      <trkpt lat="46.499887" lon="8.119093">
        <time>1970-01-01T00:00:00+00:00</time>
        <ele>3108.0</ele>
      </trkpt>
      <trkpt lat="46.499689" lon="8.118998">
        <time>1970-01-01T00:00:00+00:00</time>
        <ele>3116.0</ele>
      </trkpt>
      <trkpt lat="46.49948" lon="8.11901">
        <time>1970-01-01T00:00:00+00:00</time>
        <ele>3123.0</ele>
      </trkpt>
      <trkpt lat="46.498944" lon="8.119172">
        <time>1970-01-01T00:00:00+00:00</time>
        <ele>3142.0</ele>
      </trkpt>
      <trkpt lat="46.499687" lon="8.118672">
        <time>1970-01-01T00:00:00+00:00</time>
        <ele>3121.0</ele>
      </trkpt>
      <trkpt lat="46.499556" lon="8.118876">
        <time>1970-01-01T00:00:00+00:00</time>
        <ele>3122.0</ele>
      </trkpt>
      <trkpt lat="46.499361" lon="8.119499">
        <time>1970-01-01T00:00:00+00:00</time>
        <ele>3119.0</ele>
      </trkpt>
      <trkpt lat="46.499182" lon="8.119808">
        <time>1970-01-01T00:00:00+00:00</time>
        <ele>3119.0</ele>
      </trkpt>
      <trkpt lat="46.498808" lon="8.120245">
        <time>1970-01-01T00:00:00+00:00</time>
        <ele>3129.0</ele>
      </trkpt>
      <trkpt lat="46.499098" lon="8.121076">
        <time>1970-01-01T00:00:00+00:00</time>
        <ele>3105.0</ele>
      </trkpt>
      <trkpt lat="46.499512" lon="8.121809">
        <time>1970-01-01T00:00:00+00:00</time>
        <ele>3080.0</ele>
      </trkpt>
      <trkpt lat="46.499509" lon="8.121659">
        <time>1970-01-01T00:00:00+00:00</time>
        <ele>3081.0</ele>
      </trkpt>
      <trkpt lat="46.499134" lon="8.120491">
        <time>1970-01-01T00:00:00+00:00</time>
        <ele>3108.0</ele>
      </trkpt>
      <trkpt lat="46.498865" lon="8.119791">
        <time>1970-01-01T00:00:00+00:00</time>
        <ele>3135.0</ele>
      </trkpt>
      <trkpt lat="46.498403" lon="8.118822">
        <time>1970-01-01T00:00:00+00:00</time>
        <ele>3166.0</ele>
      </trkpt>
      <trkpt lat="46.498906" lon="8.120537">
        <time>1970-01-01T00:00:00+00:00</time>
        <ele>3120.0</ele>
      </trkpt>
      <trkpt lat="46.498976" lon="8.119541">
        <time>1970-01-01T00:00:00+00:00</time>
        <ele>3133.0</ele>
      </trkpt>
      <trkpt lat="46.498684" lon="8.119466">
        <time>1970-01-01T00:00:00+00:00</time>
        <ele>3146.0</ele>
      </trkpt>
      <trkpt lat="46.498765" lon="8.119687">
        <time>1970-01-01T00:00:00+00:00</time>
        <ele>3139.0</ele>
      </trkpt>
      <trkpt lat="46.49889" lon="8.11926">
        <time>1970-01-01T00:00:00+00:00</time>
        <ele>3142.0</ele>
      </trkpt>
      <trkpt lat="46.499099" lon="8.118887">
        <time>1970-01-01T00:00:00+00:00</time>
        <ele>3139.0</ele>
      </trkpt>
      <trkpt lat="46.499008" lon="8.118702">
        <time>1970-01-01T00:00:00+00:00</time>
        <ele>3147.0</ele>
      </trkpt>
      <trkpt lat="46.49925" lon="8.117547">
        <time>1970-01-01T00:00:00+00:00</time>
        <ele>3166.0</ele>
      </trkpt>
      <trkpt lat="46.496775" lon="8.117458">
        <time>1970-01-01T00:00:00+00:00</time>
        <ele>3243.0</ele>
      </trkpt>
      <trkpt lat="46.496742" lon="8.117615">
        <time>1970-01-01T00:00:00+00:00</time>
        <ele>3241.0</ele>
      </trkpt>
      <trkpt lat="46.49762" lon="8.118281">
        <time>1970-01-01T00:00:00+00:00</time>
        <ele>3202.0</ele>
      </trkpt>
      <trkpt lat="46.497947" lon="8.118601">
        <time>1970-01-01T00:00:00+00:00</time>
        <ele>3182.0</ele>
      </trkpt>
      <trkpt lat="46.498435" lon="8.119136">
        <time>1970-01-01T00:00:00+00:00</time>
        <ele>3161.0</ele>
      </trkpt>
      <trkpt lat="46.49829" lon="8.119312">
        <time>1970-01-01T00:00:00+00:00</time>
        <ele>3162.0</ele>
      </trkpt>
      <trkpt lat="46.498151" lon="8.119341">
        <time>1970-01-01T00:00:00+00:00</time>
        <ele>3165.0</ele>
      </trkpt>
      <trkpt lat="46.498885" lon="8.120016">
        <time>1970-01-01T00:00:00+00:00</time>
        <ele>3130.0</ele>
      </trkpt>
      <trkpt lat="46.499407" lon="8.120391">
        <time>1970-01-01T00:00:00+00:00</time>
        <ele>3098.0</ele>
      </trkpt>
      <trkpt lat="46.499447" lon="8.120301">
        <time>1970-01-01T00:00:00+00:00</time>
        <ele>3099.0</ele>
      </trkpt>
      <trkpt lat="46.497997" lon="8.118298">
        <time>1970-01-01T00:00:00+00:00</time>
        <ele>3190.0</ele>
      </trkpt>
      <trkpt lat="46.498711" lon="8.118891">
        <time>1970-01-01T00:00:00+00:00</time>
        <ele>3155.0</ele>
      </trkpt>
      <trkpt lat="46.498821" lon="8.118879">
        <time>1970-01-01T00:00:00+00:00</time>
        <ele>3152.0</ele>
      </trkpt>
      <trkpt lat="46.497918" lon="8.118574">
        <time>1970-01-01T00:00:00+00:00</time>
        <ele>3184.0</ele>
      </trkpt>
      <trkpt lat="46.498784" lon="8.118841">
        <time>1970-01-01T00:00:00+00:00</time>
        <ele>3154.0</ele>
      </trkpt>
      <trkpt lat="46.49923" lon="8.118219">
        <time>1970-01-01T00:00:00+00:00</time>
        <ele>3147.0</ele>
      </trkpt>
      <trkpt lat="46.49953" lon="8.118083">
        <time>1970-01-01T00:00:00+00:00</time>
        <ele>3143.0</ele>
      </trkpt>
      <trkpt lat="46.499271" lon="8.118464">
        <time>1970-01-01T00:00:00+00:00</time>
        <ele>3140.0</ele>
      </trkpt>
      <trkpt lat="46.49906" lon="8.119701">
        <time>1970-01-01T00:00:00+00:00</time>
        <ele>3127.0</ele>
      </trkpt>
      <trkpt lat="46.4993" lon="8.119915">
        <time>1970-01-01T00:00:00+00:00</time>
        <ele>3114.0</ele>
      </trkpt>
      <trkpt lat="46.499531" lon="8.119959">
        <time>1970-01-01T00:00:00+00:00</time>
        <ele>3104.0</ele>
      </trkpt>
      <trkpt lat="46.499526" lon="8.119641">
        <time>1970-01-01T00:00:00+00:00</time>
        <ele>3110.0</ele>
      </trkpt>
      <trkpt lat="46.499412" lon="8.119413">
        <time>1970-01-01T00:00:00+00:00</time>
        <ele>3119.0</ele>
      </trkpt>
      <trkpt lat="46.499438" lon="8.119295">
        <time>1970-01-01T00:00:00+00:00</time>
        <ele>3120.0</ele>
      </trkpt>
      <trkpt lat="46.499545" lon="8.119167">
        <time>1970-01-01T00:00:00+00:00</time>
        <ele>3119.0</ele>
      </trkpt>
      <trkpt lat="46.499698" lon="8.119421">
        <time>1970-01-01T00:00:00+00:00</time>
        <ele>3107.0</ele>
      </trkpt>
      <trkpt lat="46.499793" lon="8.119302">
        <time>1970-01-01T00:00:00+00:00</time>
        <ele>3106.0</ele>
      </trkpt>
      <trkpt lat="46.499678" lon="8.116916">
        <time>1970-01-01T00:00:00+00:00</time>
        <ele>3182.0</ele>
      </trkpt>
      <trkpt lat="46.499817" lon="8.118631">
        <time>1970-01-01T00:00:00+00:00</time>
        <ele>3119.0</ele>
      </trkpt>
      <trkpt lat="46.499964" lon="8.118566">
        <time>1970-01-01T00:00:00+00:00</time>
        <ele>3118.0</ele>
      </trkpt>
      <trkpt lat="46.499971" lon="8.118476">
        <time>1970-01-01T00:00:00+00:00</time>
        <ele>3121.0</ele>
      </trkpt>
      <trkpt lat="46.499568" lon="8.117168">
        <time>1970-01-01T00:00:00+00:00</time>
        <ele>3174.0</ele>
      </trkpt>
      <trkpt lat="46.499312" lon="8.116709">
        <time>1970-01-01T00:00:00+00:00</time>
        <ele>3197.0</ele>
      </trkpt>
      <trkpt lat="46.499213" lon="8.116825">
        <time>1970-01-01T00:00:00+00:00</time>
        <ele>3195.0</ele>
      </trkpt>
      <trkpt lat="46.499518" lon="8.115992">
        <time>1970-01-01T00:00:00+00:00</time>
        <ele>3211.0</ele>
      </trkpt>
      <trkpt lat="46.499227" lon="8.116938">
        <time>1970-01-01T00:00:00+00:00</time>
        <ele>3191.0</ele>
      </trkpt>
      <trkpt lat="46.499354" lon="8.116778">
        <time>1970-01-01T00:00:00+00:00</time>
        <ele>3194.0</ele>
      </trkpt>
      <trkpt lat="46.499751" lon="8.116929">
        <time>1970-01-01T00:00:00+00:00</time>
        <ele>3180.0</ele>
      </trkpt>
      <trkpt lat="46.499791" lon="8.116572">
        <time>1970-01-01T00:00:00+00:00</time>
        <ele>3189.0</ele>
      </trkpt>
      <trkpt lat="46.499516" lon="8.116853">
        <time>1970-01-01T00:00:00+00:00</time>
        <ele>3188.0</ele>
      </trkpt>
      <trkpt lat="46.499418" lon="8.116499">
        <time>1970-01-01T00:00:00+00:00</time>
        <ele>3201.0</ele>
      </trkpt>
      <trkpt lat="46.499456" lon="8.116575">
        <time>1970-01-01T00:00:00+00:00</time>
        <ele>3198.0</ele>
      </trkpt>
      <trkpt lat="46.499433" lon="8.116368">
        <time>1970-01-01T00:00:00+00:00</time>
        <ele>3205.0</ele>
      </trkpt>
      <trkpt lat="46.499576" lon="8.116176">
        <time>1970-01-01T00:00:00+00:00</time>
        <ele>3206.0</ele>
      </trkpt>
      <trkpt lat="46.500054" lon="8.115875">
        <time>1970-01-01T00:00:00+00:00</time>
        <ele>3202.0</ele>
      </trkpt>
      <trkpt lat="46.500099" lon="8.115578">
        <time>1970-01-01T00:00:00+00:00</time>
        <ele>3211.0</ele>
      </trkpt>
      <trkpt lat="46.500272" lon="8.115097">
        <time>1970-01-01T00:00:00+00:00</time>
        <ele>3221.0</ele>
      </trkpt>
      <trkpt lat="46.500242" lon="8.114919">
        <time>1970-01-01T00:00:00+00:00</time>
        <ele>3225.0</ele>
      </trkpt>
      <trkpt lat="46.50002" lon="8.114808">
        <time>1970-01-01T00:00:00+00:00</time>
        <ele>3232.0</ele>
      </trkpt>
      <trkpt lat="46.499997" lon="8.114732">
        <time>1970-01-01T00:00:00+00:00</time>
        <ele>3234.0</ele>
      </trkpt>
      <trkpt lat="46.499742" lon="8.114732">
        <time>1970-01-01T00:00:00+00:00</time>
        <ele>3238.0</ele>
      </trkpt>
      <trkpt lat="46.49972" lon="8.114894">
        <time>1970-01-01T00:00:00+00:00</time>
        <ele>3235.0</ele>
      </trkpt>
      <trkpt lat="46.499752" lon="8.115504">
        <time>1970-01-01T00:00:00+00:00</time>
        <ele>3220.0</ele>
      </trkpt>
      <trkpt lat="46.500262" lon="8.117578">
        <time>1970-01-01T00:00:00+00:00</time>
        <ele>3145.0</ele>
      </trkpt>
      <trkpt lat="46.499847" lon="8.115414">
        <time>1970-01-01T00:00:00+00:00</time>
        <ele>3221.0</ele>
      </trkpt>
      <trkpt lat="46.499258" lon="8.115819">
        <time>1970-01-01T00:00:00+00:00</time>
        <ele>3220.0</ele>
      </trkpt>
      <trkpt lat="46.499684" lon="8.115636">
        <time>1970-01-01T00:00:00+00:00</time>
        <ele>3217.0</ele>
      </trkpt>
      <trkpt lat="46.499718" lon="8.115509">
        <time>1970-01-01T00:00:00+00:00</time>
        <ele>3221.0</ele>
      </trkpt>
      <trkpt lat="46.499936" lon="8.115283">
        <time>1970-01-01T00:00:00+00:00</time>
        <ele>3224.0</ele>
      </trkpt>
      <trkpt lat="46.499691" lon="8.115268">
        <time>1970-01-01T00:00:00+00:00</time>
        <ele>3228.0</ele>
      </trkpt>
      <trkpt lat="46.499535" lon="8.115514">
        <time>1970-01-01T00:00:00+00:00</time>
        <ele>3224.0</ele>
      </trkpt>
      <trkpt lat="46.500049" lon="8.115375">
        <time>1970-01-01T00:00:00+00:00</time>
        <ele>3219.0</ele>
      </trkpt>
      <trkpt lat="46.500414" lon="8.115367">
        <time>1970-01-01T00:00:00+00:00</time>
        <ele>3212.0</ele>
      </trkpt>
      <trkpt lat="46.500679" lon="8.115205">
        <time>1970-01-01T00:00:00+00:00</time>
        <ele>3210.0</ele>
      </trkpt>
      <trkpt lat="46.500037" lon="8.114917">
        <time>1970-01-01T00:00:00+00:00</time>
        <ele>3229.0</ele>
      </trkpt>
      <trkpt lat="46.499845" lon="8.115">
        <time>1970-01-01T00:00:00+00:00</time>
        <ele>3231.0</ele>
      </trkpt>
      <trkpt lat="46.499883" lon="8.115138">
        <time>1970-01-01T00:00:00+00:00</time>
        <ele>3227.0</ele>
      </trkpt>
      <trkpt lat="46.499785" lon="8.115254">
        <time>1970-01-01T00:00:00+00:00</time>
        <ele>3226.0</ele>
      </trkpt>
      <trkpt lat="46.49958" lon="8.115233">
        <time>1970-01-01T00:00:00+00:00</time>
        <ele>3231.0</ele>
      </trkpt>
      <trkpt lat="46.499109" lon="8.114929">
        <time>1970-01-01T00:00:00+00:00</time>
        <ele>3250.0</ele>
      </trkpt>
      <trkpt lat="46.500199" lon="8.115164">
        <time>1970-01-01T00:00:00+00:00</time>
        <ele>3221.0</ele>
      </trkpt>
      <trkpt lat="46.501438" lon="8.115571">
        <time>1970-01-01T00:00:00+00:00</time>
        <ele>3184.0</ele>
      </trkpt>
      <trkpt lat="46.500387" lon="8.113816">
        <time>1970-01-01T00:00:00+00:00</time>
        <ele>3248.0</ele>
      </trkpt>
      <trkpt lat="46.500666" lon="8.113802">
        <time>1970-01-01T00:00:00+00:00</time>
        <ele>3246.0</ele>
      </trkpt>
      <trkpt lat="46.49987" lon="8.113737">
        <time>1970-01-01T00:00:00+00:00</time>
        <ele>3254.0</ele>
      </trkpt>
      <trkpt lat="46.499247" lon="8.114527">
        <time>1970-01-01T00:00:00+00:00</time>
        <ele>3254.0</ele>
      </trkpt>
      <trkpt lat="46.499366" lon="8.114336">
        <time>1970-01-01T00:00:00+00:00</time>
        <ele>3253.0</ele>
      </trkpt>
      <trkpt lat="46.499712" lon="8.113225">
        <time>1970-01-01T00:00:00+00:00</time>
        <ele>3268.0</ele>
      </trkpt>
      <trkpt lat="46.499873" lon="8.112103">
        <time>1970-01-01T00:00:00+00:00</time>
        <ele>3305.0</ele>
      </trkpt>
      <trkpt lat="46.499622" lon="8.112138">
        <time>1970-01-01T00:00:00+00:00</time>
        <ele>3312.0</ele>
      </trkpt>
      <trkpt lat="46.499713" lon="8.111383">
        <time>1970-01-01T00:00:00+00:00</time>
        <ele>3305.0</ele>
      </trkpt>
      <trkpt lat="46.499398" lon="8.111853">
        <time>1970-01-01T00:00:00+00:00</time>
        <ele>3333.0</ele>
      </trkpt>
      <trkpt lat="46.49943" lon="8.111513">
        <time>1970-01-01T00:00:00+00:00</time>
        <ele>3330.0</ele>
      </trkpt>
      <trkpt lat="46.499266" lon="8.111667">
        <time>1970-01-01T00:00:00+00:00</time>
        <ele>3335.0</ele>
      </trkpt>
      <trkpt lat="46.499338" lon="8.11101">
        <time>1970-01-01T00:00:00+00:00</time>
        <ele>3319.0</ele>
      </trkpt>
      <trkpt lat="46.499275" lon="8.111213">
        <time>1970-01-01T00:00:00+00:00</time>
        <ele>3330.0</ele>
      </trkpt>
      <trkpt lat="46.499351" lon="8.111869">
        <time>1970-01-01T00:00:00+00:00</time>
        <ele>3333.0</ele>
      </trkpt>
      <trkpt lat="46.499033" lon="8.110799">
        <time>1970-01-01T00:00:00+00:00</time>
        <ele>3328.0</ele>
      </trkpt>
      <trkpt lat="46.499017" lon="8.111059">
        <time>1970-01-01T00:00:00+00:00</time>
        <ele>3337.0</ele>
      </trkpt>
      <trkpt lat="46.49947" lon="8.112544">
        <time>1970-01-01T00:00:00+00:00</time>
        <ele>3295.0</ele>
      </trkpt>
      <trkpt lat="46.498764" lon="8.112401">
        <time>1970-01-01T00:00:00+00:00</time>
        <ele>3313.0</ele>
      </trkpt>
      <trkpt lat="46.498501" lon="8.112504">
        <time>1970-01-01T00:00:00+00:00</time>
        <ele>3313.0</ele>
      </trkpt>
      <trkpt lat="46.497938" lon="8.112932">
        <time>1970-01-01T00:00:00+00:00</time>
        <ele>3318.0</ele>
      </trkpt>
      <trkpt lat="46.498098" lon="8.112757">
        <time>1970-01-01T00:00:00+00:00</time>
        <ele>3315.0</ele>
      </trkpt>
      <trkpt lat="46.49951" lon="8.111804">
        <time>1970-01-01T00:00:00+00:00</time>
        <ele>3329.0</ele>
      </trkpt>
      <trkpt lat="46.499228" lon="8.112622">
        <time>1970-01-01T00:00:00+00:00</time>
        <ele>3295.0</ele>
      </trkpt>
      <trkpt lat="46.49925" lon="8.112351">
        <time>1970-01-01T00:00:00+00:00</time>
        <ele>3308.0</ele>
      </trkpt>
      <trkpt lat="46.500586" lon="8.112404">
        <time>1970-01-01T00:00:00+00:00</time>
        <ele>3285.0</ele>
      </trkpt>
      <trkpt lat="46.499605" lon="8.111897">
        <time>1970-01-01T00:00:00+00:00</time>
        <ele>3322.0</ele>
      </trkpt>
      <trkpt lat="46.499278" lon="8.111936">
        <time>1970-01-01T00:00:00+00:00</time>
        <ele>3330.0</ele>
      </trkpt>
      <trkpt lat="46.499518" lon="8.111817">
        <time>1970-01-01T00:00:00+00:00</time>
        <ele>3329.0</ele>
      </trkpt>
      <trkpt lat="46.499788" lon="8.111789">
        <time>1970-01-01T00:00:00+00:00</time>
        <ele>3313.0</ele>
      </trkpt>
      <trkpt lat="46.500613" lon="8.111802">
        <time>1970-01-01T00:00:00+00:00</time>
        <ele>3274.0</ele>
      </trkpt>
      <trkpt lat="46.500945" lon="8.112607">
        <time>1970-01-01T00:00:00+00:00</time>
        <ele>3277.0</ele>
      </trkpt>
      <trkpt lat="46.500572" lon="8.11171">
        <time>1970-01-01T00:00:00+00:00</time>
        <ele>3271.0</ele>
      </trkpt>
      <trkpt lat="46.500158" lon="8.111564">
        <time>1970-01-01T00:00:00+00:00</time>
        <ele>3288.0</ele>
      </trkpt>
      <trkpt lat="46.500387" lon="8.111599">
        <time>1970-01-01T00:00:00+00:00</time>
        <ele>3277.0</ele>
      </trkpt>
      <trkpt lat="46.500195" lon="8.111828">
        <time>1970-01-01T00:00:00+00:00</time>
        <ele>3297.0</ele>
      </trkpt>
      <trkpt lat="46.500178" lon="8.112171">
        <time>1970-01-01T00:00:00+00:00</time>
        <ele>3295.0</ele>
      </trkpt>
      <trkpt lat="46.500083" lon="8.112421">
        <time>1970-01-01T00:00:00+00:00</time>
        <ele>3292.0</ele>
      </trkpt>
      <trkpt lat="46.499967" lon="8.112455">
        <time>1970-01-01T00:00:00+00:00</time>
        <ele>3292.0</ele>
      </trkpt>
      <trkpt lat="46.499866" lon="8.112702">
        <time>1970-01-01T00:00:00+00:00</time>
        <ele>3285.0</ele>
      </trkpt>
      <trkpt lat="46.499996" lon="8.112531">
        <time>1970-01-01T00:00:00+00:00</time>
        <ele>3290.0</ele>
      </trkpt>
      <trkpt lat="46.499857" lon="8.112615">
        <time>1970-01-01T00:00:00+00:00</time>
        <ele>3287.0</ele>
      </trkpt>
      <trkpt lat="46.499854" lon="8.112687">
        <time>1970-01-01T00:00:00+00:00</time>
        <ele>3285.0</ele>
      </trkpt>
      <trkpt lat="46.499618" lon="8.112923">
        <time>1970-01-01T00:00:00+00:00</time>
        <ele>3280.0</ele>
      </trkpt>
      <trkpt lat="46.49988" lon="8.112722">
        <time>1970-01-01T00:00:00+00:00</time>
        <ele>3284.0</ele>
      </trkpt>
      <trkpt lat="46.499793" lon="8.112536">
        <time>1970-01-01T00:00:00+00:00</time>
        <ele>3290.0</ele>
      </trkpt>
      <trkpt lat="46.499805" lon="8.112647">
        <time>1970-01-01T00:00:00+00:00</time>
        <ele>3286.0</ele>
      </trkpt>
      <trkpt lat="46.49988" lon="8.112704">
        <time>1970-01-01T00:00:00+00:00</time>
        <ele>3285.0</ele>
      </trkpt>
      <trkpt lat="46.499804" lon="8.112629">
        <time>1970-01-01T00:00:00+00:00</time>
        <ele>3287.0</ele>
      </trkpt>
      <trkpt lat="46.499751" lon="8.112731">
        <time>1970-01-01T00:00:00+00:00</time>
        <ele>3284.0</ele>
      </trkpt>
      <trkpt lat="46.49994" lon="8.112519">
        <time>1970-01-01T00:00:00+00:00</time>
        <ele>3291.0</ele>
      </trkpt>
      <trkpt lat="46.499739" lon="8.112655">
        <time>1970-01-01T00:00:00+00:00</time>
        <ele>3286.0</ele>
      </trkpt>
      <trkpt lat="46.499802" lon="8.112804">
        <time>1970-01-01T00:00:00+00:00</time>
        <ele>3282.0</ele>
      </trkpt>
      <trkpt lat="46.499843" lon="8.112706">
        <time>1970-01-01T00:00:00+00:00</time>
        <ele>3285.0</ele>
      </trkpt>
      <trkpt lat="46.499778" lon="8.112587">
        <time>1970-01-01T00:00:00+00:00</time>
        <ele>3288.0</ele>
      </trkpt>
      <trkpt lat="46.499803" lon="8.112549">
        <time>1970-01-01T00:00:00+00:00</time>
        <ele>3290.0</ele>
      </trkpt>
      <trkpt lat="46.499634" lon="8.112576">
        <time>1970-01-01T00:00:00+00:00</time>
        <ele>3291.0</ele>
      </trkpt>
      <trkpt lat="46.499707" lon="8.112637">
        <time>1970-01-01T00:00:00+00:00</time>
        <ele>3287.0</ele>
      </trkpt>
      <trkpt lat="46.499521" lon="8.112418">
        <time>1970-01-01T00:00:00+00:00</time>
        <ele>3300.0</ele>
      </trkpt>
      <trkpt lat="46.499506" lon="8.112469">
        <time>1970-01-01T00:00:00+00:00</time>
        <ele>3298.0</ele>
      </trkpt>
      <trkpt lat="46.499329" lon="8.112473">
        <time>1970-01-01T00:00:00+00:00</time>
        <ele>3301.0</ele>
      </trkpt>
      <trkpt lat="46.49936" lon="8.112554">
        <time>1970-01-01T00:00:00+00:00</time>
        <ele>3297.0</ele>
      </trkpt>
      <trkpt lat="46.499059" lon="8.112477">
        <time>1970-01-01T00:00:00+00:00</time>
        <ele>3305.0</ele>
      </trkpt>
      <trkpt lat="46.499229" lon="8.112332">
        <time>1970-01-01T00:00:00+00:00</time>
        <ele>3309.0</ele>
      </trkpt>
      <trkpt lat="46.498924" lon="8.112324">
        <time>1970-01-01T00:00:00+00:00</time>
        <ele>3314.0</ele>
      </trkpt>
      <trkpt lat="46.498786" lon="8.112085">
        <time>1970-01-01T00:00:00+00:00</time>
        <ele>3323.0</ele>
      </trkpt>
      <trkpt lat="46.498716" lon="8.112076">
        <time>1970-01-01T00:00:00+00:00</time>
        <ele>3323.0</ele>
      </trkpt>
      <trkpt lat="46.498884" lon="8.112351">
        <time>1970-01-01T00:00:00+00:00</time>
        <ele>3313.0</ele>
      </trkpt>
      <trkpt lat="46.498812" lon="8.111947">
        <time>1970-01-01T00:00:00+00:00</time>
        <ele>3327.0</ele>
      </trkpt>
      <trkpt lat="46.498576" lon="8.111253">
        <time>1970-01-01T00:00:00+00:00</time>
        <ele>3341.0</ele>
      </trkpt>
      <trkpt lat="46.498085" lon="8.111312">
        <time>1970-01-01T00:00:00+00:00</time>
        <ele>3344.0</ele>
      </trkpt>
      <trkpt lat="46.498162" lon="8.111333">
        <time>1970-01-01T00:00:00+00:00</time>
        <ele>3342.0</ele>
      </trkpt>
      <trkpt lat="46.498524" lon="8.110977">
        <time>1970-01-01T00:00:00+00:00</time>
        <ele>3345.0</ele>
      </trkpt>
      <trkpt lat="46.498401" lon="8.11101">
        <time>1970-01-01T00:00:00+00:00</time>
        <ele>3347.0</ele>
      </trkpt>
      <trkpt lat="46.497966" lon="8.110896">
        <time>1970-01-01T00:00:00+00:00</time>
        <ele>3356.0</ele>
      </trkpt>
      <trkpt lat="46.497722" lon="8.111033">
        <time>1970-01-01T00:00:00+00:00</time>
        <ele>3359.0</ele>
      </trkpt>
      <trkpt lat="46.497708" lon="8.110963">
        <time>1970-01-01T00:00:00+00:00</time>
        <ele>3361.0</ele>
      </trkpt>
      <trkpt lat="46.49749" lon="8.110914">
        <time>1970-01-01T00:00:00+00:00</time>
        <ele>3367.0</ele>
      </trkpt>
      <trkpt lat="46.497348" lon="8.111055">
        <time>1970-01-01T00:00:00+00:00</time>
        <ele>3369.0</ele>
      </trkpt>
      <trkpt lat="46.497724" lon="8.110633">
        <time>1970-01-01T00:00:00+00:00</time>
        <ele>3366.0</ele>
      </trkpt>
      <trkpt lat="46.497841" lon="8.110585">
        <time>1970-01-01T00:00:00+00:00</time>
        <ele>3363.0</ele>
      </trkpt>
      <trkpt lat="46.497652" lon="8.110633">
        <time>1970-01-01T00:00:00+00:00</time>
        <ele>3368.0</ele>
      </trkpt>
      <trkpt lat="46.497613" lon="8.110808">
        <time>1970-01-01T00:00:00+00:00</time>
        <ele>3366.0</ele>
      </trkpt>
      <trkpt lat="46.497503" lon="8.110838">
        <time>1970-01-01T00:00:00+00:00</time>
        <ele>3368.0</ele>
      </trkpt>
      <trkpt lat="46.497391" lon="8.110357">
        <time>1970-01-01T00:00:00+00:00</time>
        <ele>3380.0</ele>
      </trkpt>
      <trkpt lat="46.497321" lon="8.110298">
        <time>1970-01-01T00:00:00+00:00</time>
        <ele>3384.0</ele>
      </trkpt>
      <trkpt lat="46.497631" lon="8.109851">
        <time>1970-01-01T00:00:00+00:00</time>
        <ele>3380.0</ele>
      </trkpt>
      <trkpt lat="46.497483" lon="8.109934">
        <time>1970-01-01T00:00:00+00:00</time>
        <ele>3387.0</ele>
      </trkpt>
      <trkpt lat="46.497381" lon="8.109764">
        <time>1970-01-01T00:00:00+00:00</time>
        <ele>3392.0</ele>
      </trkpt>
      <trkpt lat="46.497282" lon="8.109824">
        <time>1970-01-01T00:00:00+00:00</time>
        <ele>3395.0</ele>
      </trkpt>
      <trkpt lat="46.497296" lon="8.109882">
        <time>1970-01-01T00:00:00+00:00</time>
        <ele>3394.0</ele>
      </trkpt>
      <trkpt lat="46.497171" lon="8.109908">
        <time>1970-01-01T00:00:00+00:00</time>
        <ele>3398.0</ele>
      </trkpt>
      <trkpt lat="46.497127" lon="8.109784">
        <time>1970-01-01T00:00:00+00:00</time>
        <ele>3401.0</ele>
      </trkpt>
      <trkpt lat="46.496777" lon="8.110088">
        <time>1970-01-01T00:00:00+00:00</time>
        <ele>3411.0</ele>
      </trkpt>
      <trkpt lat="46.496801" lon="8.110171">
        <time>1970-01-01T00:00:00+00:00</time>
        <ele>3408.0</ele>
      </trkpt>
      <trkpt lat="46.496738" lon="8.110248">
        <time>1970-01-01T00:00:00+00:00</time>
        <ele>3408.0</ele>
      </trkpt>
      <trkpt lat="46.496588" lon="8.109985">
        <time>1970-01-01T00:00:00+00:00</time>
        <ele>3421.0</ele>
      </trkpt>
      <trkpt lat="46.49666" lon="8.109953">
        <time>1970-01-01T00:00:00+00:00</time>
        <ele>3419.0</ele>
      </trkpt>
      <trkpt lat="46.496742" lon="8.109693">
        <time>1970-01-01T00:00:00+00:00</time>
        <ele>3421.0</ele>
      </trkpt>
      <trkpt lat="46.497002" lon="8.109259">
        <time>1970-01-01T00:00:00+00:00</time>
        <ele>3415.0</ele>
      </trkpt>
      <trkpt lat="46.496487" lon="8.10893">
        <time>1970-01-01T00:00:00+00:00</time>
        <ele>3440.0</ele>
      </trkpt>
      <trkpt lat="46.496588" lon="8.109109">
        <time>1970-01-01T00:00:00+00:00</time>
        <ele>3435.0</ele>
      </trkpt>
      <trkpt lat="46.496542" lon="8.109009">
        <time>1970-01-01T00:00:00+00:00</time>
        <ele>3437.0</ele>
      </trkpt>
      <trkpt lat="46.49689" lon="8.108836">
        <time>1970-01-01T00:00:00+00:00</time>
        <ele>3412.0</ele>
      </trkpt>
      <trkpt lat="46.496473" lon="8.108981">
        <time>1970-01-01T00:00:00+00:00</time>
        <ele>3441.0</ele>
      </trkpt>
      <trkpt lat="46.496522" lon="8.108858">
        <time>1970-01-01T00:00:00+00:00</time>
        <ele>3437.0</ele>
      </trkpt>
      <trkpt lat="46.496439" lon="8.10897">
        <time>1970-01-01T00:00:00+00:00</time>
        <ele>3443.0</ele>
      </trkpt>
      <trkpt lat="46.496301" lon="8.108903">
        <time>1970-01-01T00:00:00+00:00</time>
        <ele>3451.0</ele>
      </trkpt>
      <trkpt lat="46.496155" lon="8.109064">
        <time>1970-01-01T00:00:00+00:00</time>
        <ele>3456.0</ele>
      </trkpt>
      <trkpt lat="46.49611" lon="8.109005">
        <time>1970-01-01T00:00:00+00:00</time>
        <ele>3459.0</ele>
      </trkpt>
      <trkpt lat="46.49587" lon="8.10903">
        <time>1970-01-01T00:00:00+00:00</time>
        <ele>3470.0</ele>
      </trkpt>
      <trkpt lat="46.495933" lon="8.108982">
        <time>1970-01-01T00:00:00+00:00</time>
        <ele>3468.0</ele>
      </trkpt>
      <trkpt lat="46.495944" lon="8.10887">
        <time>1970-01-01T00:00:00+00:00</time>
        <ele>3469.0</ele>
      </trkpt>
      <trkpt lat="46.495759" lon="8.108895">
        <time>1970-01-01T00:00:00+00:00</time>
        <ele>3478.0</ele>
      </trkpt>
      <trkpt lat="46.495689" lon="8.109">
        <time>1970-01-01T00:00:00+00:00</time>
        <ele>3480.0</ele>
      </trkpt>
      <trkpt lat="46.495641" lon="8.108885">
        <time>1970-01-01T00:00:00+00:00</time>
        <ele>3483.0</ele>
      </trkpt>
      <trkpt lat="46.49543" lon="8.109078">
        <time>1970-01-01T00:00:00+00:00</time>
        <ele>3486.0</ele>
      </trkpt>
      <trkpt lat="46.495442" lon="8.109017">
        <time>1970-01-01T00:00:00+00:00</time>
        <ele>3487.0</ele>
      </trkpt>
      <trkpt lat="46.495268" lon="8.109042">
        <time>1970-01-01T00:00:00+00:00</time>
        <ele>3493.0</ele>
      </trkpt>
      <trkpt lat="46.495199" lon="8.10911">
        <time>1970-01-01T00:00:00+00:00</time>
        <ele>3494.0</ele>
      </trkpt>
      <trkpt lat="46.495136" lon="8.109693">
        <time>1970-01-01T00:00:00+00:00</time>
        <ele>3482.0</ele>
      </trkpt>
      <trkpt lat="46.49497" lon="8.109395">
        <time>1970-01-01T00:00:00+00:00</time>
        <ele>3493.0</ele>
      </trkpt>
      <trkpt lat="46.495007" lon="8.109578">
        <time>1970-01-01T00:00:00+00:00</time>
        <ele>3487.0</ele>
      </trkpt>
      <trkpt lat="46.495004" lon="8.10948">
        <time>1970-01-01T00:00:00+00:00</time>
        <ele>3490.0</ele>
      </trkpt>
      <trkpt lat="46.494879" lon="8.109444">
        <time>1970-01-01T00:00:00+00:00</time>
        <ele>3495.0</ele>
      </trkpt>
      <trkpt lat="46.494931" lon="8.109601">
        <time>1970-01-01T00:00:00+00:00</time>
        <ele>3488.0</ele>
      </trkpt>
      <trkpt lat="46.494941" lon="8.109355">
        <time>1970-01-01T00:00:00+00:00</time>
        <ele>3495.0</ele>
      </trkpt>
      <trkpt lat="46.494704" lon="8.10954">
        <time>1970-01-01T00:00:00+00:00</time>
        <ele>3498.0</ele>
      </trkpt>
      <trkpt lat="46.494955" lon="8.109272">
        <time>1970-01-01T00:00:00+00:00</time>
        <ele>3496.0</ele>
      </trkpt>
      <trkpt lat="46.494923" lon="8.10875">
        <time>1970-01-01T00:00:00+00:00</time>
        <ele>3510.0</ele>
      </trkpt>
      <trkpt lat="46.494769" lon="8.10875">
        <time>1970-01-01T00:00:00+00:00</time>
        <ele>3515.0</ele>
      </trkpt>
      <trkpt lat="46.494631" lon="8.108623">
        <time>1970-01-01T00:00:00+00:00</time>
        <ele>3523.0</ele>
      </trkpt>
      <trkpt lat="46.494181" lon="8.108613">
        <time>1970-01-01T00:00:00+00:00</time>
        <ele>3536.0</ele>
      </trkpt>
      <trkpt lat="46.494119" lon="8.108552">
        <time>1970-01-01T00:00:00+00:00</time>
        <ele>3540.0</ele>
      </trkpt>
      <trkpt lat="46.493917" lon="8.108802">
        <time>1970-01-01T00:00:00+00:00</time>
        <ele>3539.0</ele>
      </trkpt>
      <trkpt lat="46.493874" lon="8.108743">
        <time>1970-01-01T00:00:00+00:00</time>
        <ele>3541.0</ele>
      </trkpt>
      <trkpt lat="46.493928" lon="8.108437">
        <time>1970-01-01T00:00:00+00:00</time>
        <ele>3548.0</ele>
      </trkpt>
      <trkpt lat="46.493896" lon="8.109189">
        <time>1970-01-01T00:00:00+00:00</time>
        <ele>3531.0</ele>
      </trkpt>
      <trkpt lat="46.493903" lon="8.107733">
        <time>1970-01-01T00:00:00+00:00</time>
        <ele>3565.0</ele>
      </trkpt>
      <trkpt lat="46.49339" lon="8.108213">
        <time>1970-01-01T00:00:00+00:00</time>
        <ele>3566.0</ele>
      </trkpt>
      <trkpt lat="46.493174" lon="8.108069">
        <time>1970-01-01T00:00:00+00:00</time>
        <ele>3574.0</ele>
      </trkpt>
      <trkpt lat="46.496014" lon="8.107854">
        <time>1970-01-01T00:00:00+00:00</time>
        <ele>3464.0</ele>
      </trkpt>
      <trkpt lat="46.493955" lon="8.107286">
        <time>1970-01-01T00:00:00+00:00</time>
        <ele>3582.0</ele>
      </trkpt>
      <trkpt lat="46.493844" lon="8.107194">
        <time>1970-01-01T00:00:00+00:00</time>
        <ele>3588.0</ele>
      </trkpt>
      <trkpt lat="46.493406" lon="8.107506">
        <time>1970-01-01T00:00:00+00:00</time>
        <ele>3588.0</ele>
      </trkpt>
      <trkpt lat="46.493349" lon="8.107362">
        <time>1970-01-01T00:00:00+00:00</time>
        <ele>3594.0</ele>
      </trkpt>
      <trkpt lat="46.493235" lon="8.108579">
        <time>1970-01-01T00:00:00+00:00</time>
        <ele>3563.0</ele>
      </trkpt>
      <trkpt lat="46.493254" lon="8.106978">
        <time>1970-01-01T00:00:00+00:00</time>
        <ele>3612.0</ele>
      </trkpt>
      <trkpt lat="46.493202" lon="8.106953">
        <time>1970-01-01T00:00:00+00:00</time>
        <ele>3615.0</ele>
      </trkpt>
      <trkpt lat="46.49253" lon="8.108527">
        <time>1970-01-01T00:00:00+00:00</time>
        <ele>3586.0</ele>
      </trkpt>
      <trkpt lat="46.492976" lon="8.107757">
        <time>1970-01-01T00:00:00+00:00</time>
        <ele>3589.0</ele>
      </trkpt>
      <trkpt lat="46.49292" lon="8.107344">
        <time>1970-01-01T00:00:00+00:00</time>
        <ele>3606.0</ele>
      </trkpt>
      <trkpt lat="46.492685" lon="8.107147">
        <time>1970-01-01T00:00:00+00:00</time>
        <ele>3614.0</ele>
      </trkpt>
      <trkpt lat="46.492744" lon="8.106822">
        <time>1970-01-01T00:00:00+00:00</time>
        <ele>3627.0</ele>
      </trkpt>
      <trkpt lat="46.492705" lon="8.107076">
        <time>1970-01-01T00:00:00+00:00</time>
        <ele>3617.0</ele>
      </trkpt>
      <trkpt lat="46.49261" lon="8.107014">
        <time>1970-01-01T00:00:00+00:00</time>
        <ele>3620.0</ele>
      </trkpt>
      <trkpt lat="46.492583" lon="8.107055">
        <time>1970-01-01T00:00:00+00:00</time>
        <ele>3618.0</ele>
      </trkpt>
      <trkpt lat="46.492507" lon="8.10745">
        <time>1970-01-01T00:00:00+00:00</time>
        <ele>3606.0</ele>
      </trkpt>
      <trkpt lat="46.492446" lon="8.107544">
        <time>1970-01-01T00:00:00+00:00</time>
        <ele>3602.0</ele>
      </trkpt>
      <trkpt lat="46.492395" lon="8.107986">
        <time>1970-01-01T00:00:00+00:00</time>
        <ele>3590.0</ele>
      </trkpt>
      <trkpt lat="46.492392" lon="8.107915">
        <time>1970-01-01T00:00:00+00:00</time>
        <ele>3591.0</ele>
      </trkpt>
      <trkpt lat="46.492548" lon="8.107896">
        <time>1970-01-01T00:00:00+00:00</time>
        <ele>3594.0</ele>
      </trkpt>
      <trkpt lat="46.492625" lon="8.10804">
        <time>1970-01-01T00:00:00+00:00</time>
        <ele>3590.0</ele>
      </trkpt>
      <trkpt lat="46.492663" lon="8.10779">
        <time>1970-01-01T00:00:00+00:00</time>
        <ele>3595.0</ele>
      </trkpt>
      <trkpt lat="46.492774" lon="8.107741">
        <time>1970-01-01T00:00:00+00:00</time>
        <ele>3595.0</ele>
      </trkpt>
      <trkpt lat="46.492907" lon="8.107462">
        <time>1970-01-01T00:00:00+00:00</time>
        <ele>3603.0</ele>
      </trkpt>
      <trkpt lat="46.492955" lon="8.107788">
        <time>1970-01-01T00:00:00+00:00</time>
        <ele>3589.0</ele>
      </trkpt>
      <trkpt lat="46.492919" lon="8.107549">
        <time>1970-01-01T00:00:00+00:00</time>
        <ele>3599.0</ele>
      </trkpt>
      <trkpt lat="46.493022" lon="8.107432">
        <time>1970-01-01T00:00:00+00:00</time>
        <ele>3600.0</ele>
      </trkpt>
      <trkpt lat="46.493725" lon="8.105979">
        <time>1970-01-01T00:00:00+00:00</time>
        <ele>3648.0</ele>
      </trkpt>
      <trkpt lat="46.493776" lon="8.105551">
        <time>1970-01-01T00:00:00+00:00</time>
        <ele>3664.0</ele>
      </trkpt>
      <trkpt lat="46.493706" lon="8.105848">
        <time>1970-01-01T00:00:00+00:00</time>
        <ele>3655.0</ele>
      </trkpt>
      <trkpt lat="46.493698" lon="8.106305">
        <time>1970-01-01T00:00:00+00:00</time>
        <ele>3631.0</ele>
      </trkpt>
      <trkpt lat="46.493396" lon="8.106237">
        <time>1970-01-01T00:00:00+00:00</time>
        <ele>3641.0</ele>
      </trkpt>
      <trkpt lat="46.493298" lon="8.106105">
        <time>1970-01-01T00:00:00+00:00</time>
        <ele>3649.0</ele>
      </trkpt>
      <trkpt lat="46.493394" lon="8.105651">
        <time>1970-01-01T00:00:00+00:00</time>
        <ele>3667.0</ele>
      </trkpt>
      <trkpt lat="46.493434" lon="8.105707">
        <time>1970-01-01T00:00:00+00:00</time>
        <ele>3665.0</ele>
      </trkpt>
      <trkpt lat="46.493293" lon="8.105454">
        <time>1970-01-01T00:00:00+00:00</time>
        <ele>3674.0</ele>
      </trkpt>
      <trkpt lat="46.493462" lon="8.105503">
        <time>1970-01-01T00:00:00+00:00</time>
        <ele>3672.0</ele>
      </trkpt>
      <trkpt lat="46.493264" lon="8.105431">
        <time>1970-01-01T00:00:00+00:00</time>
        <ele>3674.0</ele>
      </trkpt>
      <trkpt lat="46.493166" lon="8.105144">
        <time>1970-01-01T00:00:00+00:00</time>
        <ele>3684.0</ele>
      </trkpt>
      <trkpt lat="46.493205" lon="8.105164">
        <time>1970-01-01T00:00:00+00:00</time>
        <ele>3684.0</ele>
      </trkpt>
      <trkpt lat="46.492972" lon="8.10604">
        <time>1970-01-01T00:00:00+00:00</time>
        <ele>3654.0</ele>
      </trkpt>
      <trkpt lat="46.492385" lon="8.106929">
        <time>1970-01-01T00:00:00+00:00</time>
        <ele>3622.0</ele>
      </trkpt>
      <trkpt lat="46.492489" lon="8.10647">
        <time>1970-01-01T00:00:00+00:00</time>
        <ele>3639.0</ele>
      </trkpt>
      <trkpt lat="46.49265" lon="8.106393">
        <time>1970-01-01T00:00:00+00:00</time>
        <ele>3642.0</ele>
      </trkpt>
      <trkpt lat="46.492792" lon="8.106424">
        <time>1970-01-01T00:00:00+00:00</time>
        <ele>3640.0</ele>
      </trkpt>
      <trkpt lat="46.492751" lon="8.106115">
        <time>1970-01-01T00:00:00+00:00</time>
        <ele>3652.0</ele>
      </trkpt>
      <trkpt lat="46.492749" lon="8.106706">
        <time>1970-01-01T00:00:00+00:00</time>
        <ele>3632.0</ele>
      </trkpt>
      <trkpt lat="46.492436" lon="8.107208">
        <time>1970-01-01T00:00:00+00:00</time>
        <ele>3612.0</ele>
      </trkpt>
      <trkpt lat="46.492152" lon="8.107523">
        <time>1970-01-01T00:00:00+00:00</time>
        <ele>3592.0</ele>
      </trkpt>
      <trkpt lat="46.49242" lon="8.107387">
        <time>1970-01-01T00:00:00+00:00</time>
        <ele>3606.0</ele>
      </trkpt>
      <trkpt lat="46.49213" lon="8.107441">
        <time>1970-01-01T00:00:00+00:00</time>
        <ele>3593.0</ele>
      </trkpt>
      <trkpt lat="46.492015" lon="8.107618">
        <time>1970-01-01T00:00:00+00:00</time>
        <ele>3579.0</ele>
      </trkpt>
      <trkpt lat="46.492145" lon="8.107705">
        <time>1970-01-01T00:00:00+00:00</time>
        <ele>3586.0</ele>
      </trkpt>
      <trkpt lat="46.492185" lon="8.107621">
        <time>1970-01-01T00:00:00+00:00</time>
        <ele>3591.0</ele>
      </trkpt>
      <trkpt lat="46.491673" lon="8.107354">
        <time>1970-01-01T00:00:00+00:00</time>
        <ele>3548.0</ele>
      </trkpt>
      <trkpt lat="46.49113" lon="8.107384">
        <time>1970-01-01T00:00:00+00:00</time>
        <ele>3482.0</ele>
      </trkpt>
      <trkpt lat="46.492133" lon="8.107493">
        <time>1970-01-01T00:00:00+00:00</time>
        <ele>3592.0</ele>
      </trkpt>
      <trkpt lat="46.492189" lon="8.107628">
        <time>1970-01-01T00:00:00+00:00</time>
        <ele>3591.0</ele>
      </trkpt>
      <trkpt lat="46.491994" lon="8.107579">
        <time>1970-01-01T00:00:00+00:00</time>
        <ele>3579.0</ele>
      </trkpt>
      <trkpt lat="46.492132" lon="8.107625">
        <time>1970-01-01T00:00:00+00:00</time>
        <ele>3587.0</ele>
      </trkpt>
      <trkpt lat="46.492194" lon="8.107835">
        <time>1970-01-01T00:00:00+00:00</time>
        <ele>3585.0</ele>
      </trkpt>
      <trkpt lat="46.492264" lon="8.107315">
        <time>1970-01-01T00:00:00+00:00</time>
        <ele>3604.0</ele>
      </trkpt>
      <trkpt lat="46.492311" lon="8.107513">
        <time>1970-01-01T00:00:00+00:00</time>
        <ele>3601.0</ele>
      </trkpt>
      <trkpt lat="46.492268" lon="8.107314">
        <time>1970-01-01T00:00:00+00:00</time>
        <ele>3604.0</ele>
      </trkpt>
      <trkpt lat="46.492426" lon="8.106592">
        <time>1970-01-01T00:00:00+00:00</time>
        <ele>3634.0</ele>
      </trkpt>
      <trkpt lat="46.492671" lon="8.10672">
        <time>1970-01-01T00:00:00+00:00</time>
        <ele>3632.0</ele>
      </trkpt>
      <trkpt lat="46.492574" lon="8.106469">
        <time>1970-01-01T00:00:00+00:00</time>
        <ele>3639.0</ele>
      </trkpt>
      <trkpt lat="46.492468" lon="8.106467">
        <time>1970-01-01T00:00:00+00:00</time>
        <ele>3638.0</ele>
      </trkpt>
      <trkpt lat="46.492673" lon="8.106583">
        <time>1970-01-01T00:00:00+00:00</time>
        <ele>3636.0</ele>
      </trkpt>
      <trkpt lat="46.492674" lon="8.105693">
        <time>1970-01-01T00:00:00+00:00</time>
        <ele>3663.0</ele>
      </trkpt>
      <trkpt lat="46.492661" lon="8.106547">
        <time>1970-01-01T00:00:00+00:00</time>
        <ele>3637.0</ele>
      </trkpt>
      <trkpt lat="46.492858" lon="8.10656">
        <time>1970-01-01T00:00:00+00:00</time>
        <ele>3636.0</ele>
      </trkpt>
      <trkpt lat="46.492612" lon="8.10639">
        <time>1970-01-01T00:00:00+00:00</time>
        <ele>3642.0</ele>
      </trkpt>
      <trkpt lat="46.492772" lon="8.106456">
        <time>1970-01-01T00:00:00+00:00</time>
        <ele>3639.0</ele>
      </trkpt>
      <trkpt lat="46.492692" lon="8.105884">
        <time>1970-01-01T00:00:00+00:00</time>
        <ele>3660.0</ele>
      </trkpt>
      <trkpt lat="46.493812" lon="8.105168">
        <time>1970-01-01T00:00:00+00:00</time>
        <ele>3680.0</ele>
      </trkpt>
      <trkpt lat="46.49365" lon="8.105202">
        <time>1970-01-01T00:00:00+00:00</time>
        <ele>3682.0</ele>
      </trkpt>
      <trkpt lat="46.493701" lon="8.1051">
        <time>1970-01-01T00:00:00+00:00</time>
        <ele>3685.0</ele>
      </trkpt>
      <trkpt lat="46.493688" lon="8.104979">
        <time>1970-01-01T00:00:00+00:00</time>
        <ele>3688.0</ele>
      </trkpt>
      <trkpt lat="46.494056" lon="8.104544">
        <time>1970-01-01T00:00:00+00:00</time>
        <ele>3676.0</ele>
      </trkpt>
      <trkpt lat="46.494033" lon="8.10461">
        <time>1970-01-01T00:00:00+00:00</time>
        <ele>3678.0</ele>
      </trkpt>
      <trkpt lat="46.493922" lon="8.102251">
        <time>1970-01-01T00:00:00+00:00</time>
        <ele>3672.0</ele>
      </trkpt>
      <trkpt lat="46.493836" lon="8.102119">
        <time>1970-01-01T00:00:00+00:00</time>
        <ele>3684.0</ele>
      </trkpt>
      <trkpt lat="46.493587" lon="8.102043">
        <time>1970-01-01T00:00:00+00:00</time>
        <ele>3722.0</ele>
      </trkpt>
      <trkpt lat="46.493151" lon="8.101577">
        <time>1970-01-01T00:00:00+00:00</time>
        <ele>3765.0</ele>
      </trkpt>
      <trkpt lat="46.492972" lon="8.100943">
        <time>1970-01-01T00:00:00+00:00</time>
        <ele>3786.0</ele>
      </trkpt>
      <trkpt lat="46.493519" lon="8.101943">
        <time>1970-01-01T00:00:00+00:00</time>
        <ele>3733.0</ele>
      </trkpt>
      <trkpt lat="46.493815" lon="8.102869">
        <time>1970-01-01T00:00:00+00:00</time>
        <ele>3681.0</ele>
      </trkpt>
      <trkpt lat="46.493908" lon="8.103714">
        <time>1970-01-01T00:00:00+00:00</time>
        <ele>3679.0</ele>
      </trkpt>
      <trkpt lat="46.494029" lon="8.101762">
        <time>1970-01-01T00:00:00+00:00</time>
        <ele>3666.0</ele>
      </trkpt>
      <trkpt lat="46.494185" lon="8.101616">
        <time>1970-01-01T00:00:00+00:00</time>
        <ele>3645.0</ele>
      </trkpt>
      <trkpt lat="46.494075" lon="8.101362">
        <time>1970-01-01T00:00:00+00:00</time>
        <ele>3669.0</ele>
      </trkpt>
      <trkpt lat="46.493991" lon="8.103486">
        <time>1970-01-01T00:00:00+00:00</time>
        <ele>3668.0</ele>
      </trkpt>
      <trkpt lat="46.493899" lon="8.103372">
        <time>1970-01-01T00:00:00+00:00</time>
        <ele>3676.0</ele>
      </trkpt>
      <trkpt lat="46.493861" lon="8.103435">
        <time>1970-01-01T00:00:00+00:00</time>
        <ele>3681.0</ele>
      </trkpt>
      <trkpt lat="46.494064" lon="8.103384">
        <time>1970-01-01T00:00:00+00:00</time>
        <ele>3657.0</ele>
      </trkpt>
      <trkpt lat="46.493861" lon="8.103395">
        <time>1970-01-01T00:00:00+00:00</time>
        <ele>3680.0</ele>
      </trkpt>
      <trkpt lat="46.493824" lon="8.103536">
        <time>1970-01-01T00:00:00+00:00</time>
        <ele>3686.0</ele>
      </trkpt>
      <trkpt lat="46.49386" lon="8.103409">
        <time>1970-01-01T00:00:00+00:00</time>
        <ele>3681.0</ele>
      </trkpt>
      <trkpt lat="46.494109" lon="8.1034">
        <time>1970-01-01T00:00:00+00:00</time>
        <ele>3651.0</ele>
      </trkpt>
      <trkpt lat="46.493948" lon="8.10337">
        <time>1970-01-01T00:00:00+00:00</time>
        <ele>3671.0</ele>
      </trkpt>
      <trkpt lat="46.493966" lon="8.103297">
        <time>1970-01-01T00:00:00+00:00</time>
        <ele>3668.0</ele>
      </trkpt>
      <trkpt lat="46.493358" lon="8.103557">
        <time>1970-01-01T00:00:00+00:00</time>
        <ele>3721.0</ele>
      </trkpt>
      <trkpt lat="46.493737" lon="8.103701">
        <time>1970-01-01T00:00:00+00:00</time>
        <ele>3696.0</ele>
      </trkpt>
      <trkpt lat="46.493926" lon="8.103919">
        <time>1970-01-01T00:00:00+00:00</time>
        <ele>3680.0</ele>
      </trkpt>
      <trkpt lat="46.493955" lon="8.104027">
        <time>1970-01-01T00:00:00+00:00</time>
        <ele>3679.0</ele>
      </trkpt>
      <trkpt lat="46.492967" lon="8.103167">
        <time>1970-01-01T00:00:00+00:00</time>
        <ele>3716.0</ele>
      </trkpt>
      <trkpt lat="46.492393" lon="8.10246">
        <time>1970-01-01T00:00:00+00:00</time>
        <ele>3701.0</ele>
      </trkpt>
      <trkpt lat="46.493942" lon="8.103799">
        <time>1970-01-01T00:00:00+00:00</time>
        <ele>3677.0</ele>
      </trkpt>
      <trkpt lat="46.493637" lon="8.102765">
        <time>1970-01-01T00:00:00+00:00</time>
        <ele>3705.0</ele>
      </trkpt>
      <trkpt lat="46.493763" lon="8.102227">
        <time>1970-01-01T00:00:00+00:00</time>
        <ele>3693.0</ele>
      </trkpt>
      <trkpt lat="46.494091" lon="8.101922">
        <time>1970-01-01T00:00:00+00:00</time>
        <ele>3653.0</ele>
      </trkpt>
      <trkpt lat="46.493953" lon="8.101511">
        <time>1970-01-01T00:00:00+00:00</time>
        <ele>3681.0</ele>
      </trkpt>
      <trkpt lat="46.493601" lon="8.101966">
        <time>1970-01-01T00:00:00+00:00</time>
        <ele>3721.0</ele>
      </trkpt>
      <trkpt lat="46.494141" lon="8.102932">
        <time>1970-01-01T00:00:00+00:00</time>
        <ele>3639.0</ele>
      </trkpt>
      <trkpt lat="46.494119" lon="8.102996">
        <time>1970-01-01T00:00:00+00:00</time>
        <ele>3643.0</ele>
      </trkpt>
      <trkpt lat="46.494038" lon="8.102969">
        <time>1970-01-01T00:00:00+00:00</time>
        <ele>3655.0</ele>
      </trkpt>
      <trkpt lat="46.494048" lon="8.102887">
        <time>1970-01-01T00:00:00+00:00</time>
        <ele>3653.0</ele>
      </trkpt>
      <trkpt lat="46.494178" lon="8.102643">
        <time>1970-01-01T00:00:00+00:00</time>
        <ele>3631.0</ele>
      </trkpt>
      <trkpt lat="46.493953" lon="8.101443">
        <time>1970-01-01T00:00:00+00:00</time>
        <ele>3683.0</ele>
      </trkpt>
      <trkpt lat="46.493327" lon="8.102286">
        <time>1970-01-01T00:00:00+00:00</time>
        <ele>3740.0</ele>
      </trkpt>
      <trkpt lat="46.492595" lon="8.103062">
        <time>1970-01-01T00:00:00+00:00</time>
        <ele>3689.0</ele>
      </trkpt>
      <trkpt lat="46.492529" lon="8.103514">
        <time>1970-01-01T00:00:00+00:00</time>
        <ele>3672.0</ele>
      </trkpt>
      <trkpt lat="46.492179" lon="8.103189">
        <time>1970-01-01T00:00:00+00:00</time>
        <ele>3664.0</ele>
      </trkpt>
      <trkpt lat="46.492161" lon="8.103453">
        <time>1970-01-01T00:00:00+00:00</time>
        <ele>3659.0</ele>
      </trkpt>
      <trkpt lat="46.492119" lon="8.102484">
        <time>1970-01-01T00:00:00+00:00</time>
        <ele>3687.0</ele>
      </trkpt>
      <trkpt lat="46.49232" lon="8.101414">
        <time>1970-01-01T00:00:00+00:00</time>
        <ele>3767.0</ele>
      </trkpt>
      <trkpt lat="46.493904" lon="8.101207">
        <time>1970-01-01T00:00:00+00:00</time>
        <ele>3693.0</ele>
      </trkpt>
      <trkpt lat="46.493807" lon="8.101196">
        <time>1970-01-01T00:00:00+00:00</time>
        <ele>3706.0</ele>
      </trkpt>
      <trkpt lat="46.493908" lon="8.101167">
        <time>1970-01-01T00:00:00+00:00</time>
        <ele>3694.0</ele>
      </trkpt>
      <trkpt lat="46.49389" lon="8.101005">
        <time>1970-01-01T00:00:00+00:00</time>
        <ele>3700.0</ele>
      </trkpt>
      <trkpt lat="46.4937" lon="8.100832">
        <time>1970-01-01T00:00:00+00:00</time>
        <ele>3740.0</ele>
      </trkpt>
      <trkpt lat="46.493855" lon="8.100807">
        <time>1970-01-01T00:00:00+00:00</time>
        <ele>3716.0</ele>
      </trkpt>
      <trkpt lat="46.493866" lon="8.10061">
        <time>1970-01-01T00:00:00+00:00</time>
        <ele>3728.0</ele>
      </trkpt>
      <trkpt lat="46.493733" lon="8.100501">
        <time>1970-01-01T00:00:00+00:00</time>
        <ele>3756.0</ele>
      </trkpt>
      <trkpt lat="46.493681" lon="8.100259">
        <time>1970-01-01T00:00:00+00:00</time>
        <ele>3773.0</ele>
      </trkpt>
      <trkpt lat="46.493579" lon="8.100264">
        <time>1970-01-01T00:00:00+00:00</time>
        <ele>3789.0</ele>
      </trkpt>
      <trkpt lat="46.493049" lon="8.100625">
        <time>1970-01-01T00:00:00+00:00</time>
        <ele>3801.0</ele>
      </trkpt>
      <trkpt lat="46.492287" lon="8.100301">
        <time>1970-01-01T00:00:00+00:00</time>
        <ele>3811.0</ele>
      </trkpt>
      <trkpt lat="46.492695" lon="8.101539">
        <time>1970-01-01T00:00:00+00:00</time>
        <ele>3766.0</ele>
      </trkpt>
      <trkpt lat="46.492722" lon="8.101414">
        <time>1970-01-01T00:00:00+00:00</time>
        <ele>3770.0</ele>
      </trkpt>
      <trkpt lat="46.492499" lon="8.100915">
        <time>1970-01-01T00:00:00+00:00</time>
        <ele>3785.0</ele>
      </trkpt>
      <trkpt lat="46.491325" lon="8.100886">
        <time>1970-01-01T00:00:00+00:00</time>
        <ele>3758.0</ele>
      </trkpt>
      <trkpt lat="46.491191" lon="8.101499">
        <time>1970-01-01T00:00:00+00:00</time>
        <ele>3736.0</ele>
      </trkpt>
      <trkpt lat="46.491111" lon="8.10156">
        <time>1970-01-01T00:00:00+00:00</time>
        <ele>3733.0</ele>
      </trkpt>
      <trkpt lat="46.491381" lon="8.100742">
        <time>1970-01-01T00:00:00+00:00</time>
        <ele>3766.0</ele>
      </trkpt>
      <trkpt lat="46.49134" lon="8.101142">
        <time>1970-01-01T00:00:00+00:00</time>
        <ele>3750.0</ele>
      </trkpt>
      <trkpt lat="46.491632" lon="8.101011">
        <time>1970-01-01T00:00:00+00:00</time>
        <ele>3763.0</ele>
      </trkpt>
      <trkpt lat="46.491936" lon="8.100986">
        <time>1970-01-01T00:00:00+00:00</time>
        <ele>3773.0</ele>
      </trkpt>
      <trkpt lat="46.491843" lon="8.10094">
        <time>1970-01-01T00:00:00+00:00</time>
        <ele>3774.0</ele>
      </trkpt>
      <trkpt lat="46.492851" lon="8.101069">
        <time>1970-01-01T00:00:00+00:00</time>
        <ele>3780.0</ele>
      </trkpt>
      <trkpt lat="46.493026" lon="8.10056">
        <time>1970-01-01T00:00:00+00:00</time>
        <ele>3803.0</ele>
      </trkpt>
      <trkpt lat="46.493632" lon="8.100136">
        <time>1970-01-01T00:00:00+00:00</time>
        <ele>3786.0</ele>
      </trkpt>
      <trkpt lat="46.493734" lon="8.09929">
        <time>1970-01-01T00:00:00+00:00</time>
        <ele>3808.0</ele>
      </trkpt>
      <trkpt lat="46.493698" lon="8.099272">
        <time>1970-01-01T00:00:00+00:00</time>
        <ele>3814.0</ele>
      </trkpt>
      <trkpt lat="46.493747" lon="8.09929">
        <time>1970-01-01T00:00:00+00:00</time>
        <ele>3806.0</ele>
      </trkpt>
      <trkpt lat="46.493549" lon="8.09909">
        <time>1970-01-01T00:00:00+00:00</time>
        <ele>3838.0</ele>
      </trkpt>
      <trkpt lat="46.493507" lon="8.099088">
        <time>1970-01-01T00:00:00+00:00</time>
        <ele>3842.0</ele>
      </trkpt>
      <trkpt lat="46.493513" lon="8.09916">
        <time>1970-01-01T00:00:00+00:00</time>
        <ele>3839.0</ele>
      </trkpt>
      <trkpt lat="46.493578" lon="8.099224">
        <time>1970-01-01T00:00:00+00:00</time>
        <ele>3830.0</ele>
      </trkpt>
      <trkpt lat="46.491137" lon="8.100854">
        <time>1970-01-01T00:00:00+00:00</time>
        <ele>3754.0</ele>
      </trkpt>
      <trkpt lat="46.490555" lon="8.100667">
        <time>1970-01-01T00:00:00+00:00</time>
        <ele>3746.0</ele>
      </trkpt>
      <trkpt lat="46.491798" lon="8.100048">
        <time>1970-01-01T00:00:00+00:00</time>
        <ele>3807.0</ele>
      </trkpt>
      <trkpt lat="46.492144" lon="8.099691">
        <time>1970-01-01T00:00:00+00:00</time>
        <ele>3826.0</ele>
      </trkpt>
      <trkpt lat="46.492631" lon="8.100136">
        <time>1970-01-01T00:00:00+00:00</time>
        <ele>3817.0</ele>
      </trkpt>
      <trkpt lat="46.492589" lon="8.099711">
        <time>1970-01-01T00:00:00+00:00</time>
        <ele>3832.0</ele>
      </trkpt>
      <trkpt lat="46.492627" lon="8.098613">
        <time>1970-01-01T00:00:00+00:00</time>
        <ele>3865.0</ele>
      </trkpt>
      <trkpt lat="46.492544" lon="8.097886">
        <time>1970-01-01T00:00:00+00:00</time>
        <ele>3872.0</ele>
      </trkpt>
      <trkpt lat="46.492913" lon="8.097248">
        <time>1970-01-01T00:00:00+00:00</time>
        <ele>3857.0</ele>
      </trkpt>
      <trkpt lat="46.492995" lon="8.097209">
        <time>1970-01-01T00:00:00+00:00</time>
        <ele>3857.0</ele>
      </trkpt>
      <trkpt lat="46.493122" lon="8.097737">
        <time>1970-01-01T00:00:00+00:00</time>
        <ele>3875.0</ele>
      </trkpt>
      <trkpt lat="46.493297" lon="8.098095">
        <time>1970-01-01T00:00:00+00:00</time>
        <ele>3873.0</ele>
      </trkpt>
      <trkpt lat="46.493503" lon="8.098243">
        <time>1970-01-01T00:00:00+00:00</time>
        <ele>3864.0</ele>
      </trkpt>
      <trkpt lat="46.493383" lon="8.098381">
        <time>1970-01-01T00:00:00+00:00</time>
        <ele>3865.0</ele>
      </trkpt>
      <trkpt lat="46.4919" lon="8.099707">
        <time>1970-01-01T00:00:00+00:00</time>
        <ele>3820.0</ele>
      </trkpt>
      <trkpt lat="46.490935" lon="8.100231">
        <time>1970-01-01T00:00:00+00:00</time>
        <ele>3768.0</ele>
      </trkpt>
      <trkpt lat="46.490179" lon="8.100078">
        <time>1970-01-01T00:00:00+00:00</time>
        <ele>3754.0</ele>
      </trkpt>
      <trkpt lat="46.490416" lon="8.100073">
        <time>1970-01-01T00:00:00+00:00</time>
        <ele>3761.0</ele>
      </trkpt>
      <trkpt lat="46.491578" lon="8.099664">
        <time>1970-01-01T00:00:00+00:00</time>
        <ele>3808.0</ele>
      </trkpt>
      <trkpt lat="46.491728" lon="8.098886">
        <time>1970-01-01T00:00:00+00:00</time>
        <ele>3838.0</ele>
      </trkpt>
      <trkpt lat="46.492455" lon="8.099749">
        <time>1970-01-01T00:00:00+00:00</time>
        <ele>3829.0</ele>
      </trkpt>
      <trkpt lat="46.49243" lon="8.099429">
        <time>1970-01-01T00:00:00+00:00</time>
        <ele>3840.0</ele>
      </trkpt>
      <trkpt lat="46.492285" lon="8.099041">
        <time>1970-01-01T00:00:00+00:00</time>
        <ele>3852.0</ele>
      </trkpt>
      <trkpt lat="46.492152" lon="8.098237">
        <time>1970-01-01T00:00:00+00:00</time>
        <ele>3866.0</ele>
      </trkpt>
      <trkpt lat="46.492028" lon="8.098278">
        <time>1970-01-01T00:00:00+00:00</time>
        <ele>3862.0</ele>
      </trkpt>
      <trkpt lat="46.492144" lon="8.098336">
        <time>1970-01-01T00:00:00+00:00</time>
        <ele>3865.0</ele>
      </trkpt>
      <trkpt lat="46.490931" lon="8.099932">
        <time>1970-01-01T00:00:00+00:00</time>
        <ele>3777.0</ele>
      </trkpt>
      <trkpt lat="46.492109" lon="8.097648">
        <time>1970-01-01T00:00:00+00:00</time>
        <ele>3853.0</ele>
      </trkpt>
      <trkpt lat="46.492808" lon="8.09785">
        <time>1970-01-01T00:00:00+00:00</time>
        <ele>3873.0</ele>
      </trkpt>
      <trkpt lat="46.491496" lon="8.099007">
        <time>1970-01-01T00:00:00+00:00</time>
        <ele>3821.0</ele>
      </trkpt>
      <trkpt lat="46.490847" lon="8.099687">
        <time>1970-01-01T00:00:00+00:00</time>
        <ele>3781.0</ele>
      </trkpt>
      <trkpt lat="46.490359" lon="8.099852">
        <time>1970-01-01T00:00:00+00:00</time>
        <ele>3763.0</ele>
      </trkpt>
      <trkpt lat="46.49095" lon="8.10002">
        <time>1970-01-01T00:00:00+00:00</time>
        <ele>3775.0</ele>
      </trkpt>
      <trkpt lat="46.491193" lon="8.099999">
        <time>1970-01-01T00:00:00+00:00</time>
        <ele>3783.0</ele>
      </trkpt>
      <trkpt lat="46.490983" lon="8.09857">
        <time>1970-01-01T00:00:00+00:00</time>
        <ele>3787.0</ele>
      </trkpt>
      <trkpt lat="46.490701" lon="8.09877">
        <time>1970-01-01T00:00:00+00:00</time>
        <ele>3765.0</ele>
      </trkpt>
      <trkpt lat="46.492662" lon="8.09873">
        <time>1970-01-01T00:00:00+00:00</time>
        <ele>3863.0</ele>
      </trkpt>
      <trkpt lat="46.493773" lon="8.099771">
        <time>1970-01-01T00:00:00+00:00</time>
        <ele>3781.0</ele>
      </trkpt>
      <trkpt lat="46.493612" lon="8.099572">
        <time>1970-01-01T00:00:00+00:00</time>
        <ele>3813.0</ele>
      </trkpt>
      <trkpt lat="46.49355" lon="8.099066">
        <time>1970-01-01T00:00:00+00:00</time>
        <ele>3839.0</ele>
      </trkpt>
      <trkpt lat="46.493565" lon="8.098551">
        <time>1970-01-01T00:00:00+00:00</time>
        <ele>3851.0</ele>
      </trkpt>
      <trkpt lat="46.493686" lon="8.098024">
        <time>1970-01-01T00:00:00+00:00</time>
        <ele>3859.0</ele>
      </trkpt>
      <trkpt lat="46.493744" lon="8.09801">
        <time>1970-01-01T00:00:00+00:00</time>
        <ele>3855.0</ele>
      </trkpt>
      <trkpt lat="46.493629" lon="8.097938">
        <time>1970-01-01T00:00:00+00:00</time>
        <ele>3866.0</ele>
      </trkpt>
      <trkpt lat="46.49361" lon="8.097854">
        <time>1970-01-01T00:00:00+00:00</time>
        <ele>3869.0</ele>
      </trkpt>
      <trkpt lat="46.492903" lon="8.098868">
        <time>1970-01-01T00:00:00+00:00</time>
        <ele>3860.0</ele>
      </trkpt>
      <trkpt lat="46.492799" lon="8.098562">
        <time>1970-01-01T00:00:00+00:00</time>
        <ele>3865.0</ele>
      </trkpt>
      <trkpt lat="46.493118" lon="8.100627">
        <time>1970-01-01T00:00:00+00:00</time>
        <ele>3800.0</ele>
      </trkpt>
      <trkpt lat="46.493629" lon="8.100656">
        <time>1970-01-01T00:00:00+00:00</time>
        <ele>3763.0</ele>
      </trkpt>
      <trkpt lat="46.493672" lon="8.100609">
        <time>1970-01-01T00:00:00+00:00</time>
        <ele>3759.0</ele>
      </trkpt>
      <trkpt lat="46.493712" lon="8.100157">
        <time>1970-01-01T00:00:00+00:00</time>
        <ele>3772.0</ele>
      </trkpt>
      <trkpt lat="46.493854" lon="8.100196">
        <time>1970-01-01T00:00:00+00:00</time>
        <ele>3748.0</ele>
      </trkpt>
      <trkpt lat="46.494094" lon="8.100384">
        <time>1970-01-01T00:00:00+00:00</time>
        <ele>3708.0</ele>
      </trkpt>
      <trkpt lat="46.49488" lon="8.101321">
        <time>1970-01-01T00:00:00+00:00</time>
        <ele>3564.0</ele>
      </trkpt>
      <trkpt lat="46.492482" lon="8.097053">
        <time>1970-01-01T00:00:00+00:00</time>
        <ele>3826.0</ele>
      </trkpt>
      <trkpt lat="46.491314" lon="8.096936">
        <time>1970-01-01T00:00:00+00:00</time>
        <ele>3764.0</ele>
      </trkpt>
      <trkpt lat="46.49168" lon="8.097048">
        <time>1970-01-01T00:00:00+00:00</time>
        <ele>3790.0</ele>
      </trkpt>
      <trkpt lat="46.491679" lon="8.097118">
        <time>1970-01-01T00:00:00+00:00</time>
        <ele>3795.0</ele>
      </trkpt>
      <trkpt lat="46.491588" lon="8.09712">
        <time>1970-01-01T00:00:00+00:00</time>
        <ele>3790.0</ele>
      </trkpt>
      <trkpt lat="46.491636" lon="8.09727">
        <time>1970-01-01T00:00:00+00:00</time>
        <ele>3804.0</ele>
      </trkpt>
      <trkpt lat="46.49152" lon="8.097418">
        <time>1970-01-01T00:00:00+00:00</time>
        <ele>3805.0</ele>
      </trkpt>
      <trkpt lat="46.491558" lon="8.097383">
        <time>1970-01-01T00:00:00+00:00</time>
        <ele>3805.0</ele>
      </trkpt>
      <trkpt lat="46.491586" lon="8.09745">
        <time>1970-01-01T00:00:00+00:00</time>
        <ele>3811.0</ele>
      </trkpt>
      <trkpt lat="46.491507" lon="8.097501">
        <time>1970-01-01T00:00:00+00:00</time>
        <ele>3808.0</ele>
      </trkpt>
      <trkpt lat="46.492906" lon="8.097981">
        <time>1970-01-01T00:00:00+00:00</time>
        <ele>3873.0</ele>
      </trkpt>
      <trkpt lat="46.491947" lon="8.097577">
        <time>1970-01-01T00:00:00+00:00</time>
        <ele>3841.0</ele>
      </trkpt>
      <trkpt lat="46.491725" lon="8.097657">
        <time>1970-01-01T00:00:00+00:00</time>
        <ele>3833.0</ele>
      </trkpt>
      <trkpt lat="46.494013" lon="8.101786">
        <time>1970-01-01T00:00:00+00:00</time>
        <ele>3668.0</ele>
      </trkpt>
      <trkpt lat="46.493927" lon="8.10132">
        <time>1970-01-01T00:00:00+00:00</time>
        <ele>3688.0</ele>
      </trkpt>
      <trkpt lat="46.492884" lon="8.099902">
        <time>1970-01-01T00:00:00+00:00</time>
        <ele>3826.0</ele>
      </trkpt>
      <trkpt lat="46.49269" lon="8.098816">
        <time>1970-01-01T00:00:00+00:00</time>
        <ele>3862.0</ele>
      </trkpt>
      <trkpt lat="46.493069" lon="8.099109">
        <time>1970-01-01T00:00:00+00:00</time>
        <ele>3853.0</ele>
      </trkpt>
      <trkpt lat="46.49216" lon="8.097129">
        <time>1970-01-01T00:00:00+00:00</time>
        <ele>3819.0</ele>
      </trkpt>
      <trkpt lat="46.491309" lon="8.096664">
        <time>1970-01-01T00:00:00+00:00</time>
        <ele>3749.0</ele>
      </trkpt>
      <trkpt lat="46.491473" lon="8.097184">
        <time>1970-01-01T00:00:00+00:00</time>
        <ele>3788.0</ele>
      </trkpt>
      <trkpt lat="46.491375" lon="8.09703">
        <time>1970-01-01T00:00:00+00:00</time>
        <ele>3773.0</ele>
      </trkpt>
      <trkpt lat="46.491574" lon="8.096498">
        <time>1970-01-01T00:00:00+00:00</time>
        <ele>3754.0</ele>
      </trkpt>
      <trkpt lat="46.491631" lon="8.097429">
        <time>1970-01-01T00:00:00+00:00</time>
        <ele>3813.0</ele>
      </trkpt>
      <trkpt lat="46.493492" lon="8.100366">
        <time>1970-01-01T00:00:00+00:00</time>
        <ele>3798.0</ele>
      </trkpt>
      <trkpt lat="46.49238" lon="8.097171">
        <time>1970-01-01T00:00:00+00:00</time>
        <ele>3833.0</ele>
      </trkpt>
      <trkpt lat="46.491787" lon="8.097103">
        <time>1970-01-01T00:00:00+00:00</time>
        <ele>3800.0</ele>
      </trkpt>
      <trkpt lat="46.491511" lon="8.096787">
        <time>1970-01-01T00:00:00+00:00</time>
        <ele>3765.0</ele>
      </trkpt>
      <trkpt lat="46.491797" lon="8.097655">
        <time>1970-01-01T00:00:00+00:00</time>
        <ele>3838.0</ele>
      </trkpt>
      <trkpt lat="46.492061" lon="8.098145">
        <time>1970-01-01T00:00:00+00:00</time>
        <ele>3864.0</ele>
      </trkpt>
      <trkpt lat="46.493602" lon="8.099289">
        <time>1970-01-01T00:00:00+00:00</time>
        <ele>3825.0</ele>
      </trkpt>
      <trkpt lat="46.492454" lon="8.099093">
        <time>1970-01-01T00:00:00+00:00</time>
        <ele>3854.0</ele>
      </trkpt>
      <trkpt lat="46.491984" lon="8.09817">
        <time>1970-01-01T00:00:00+00:00</time>
        <ele>3861.0</ele>
      </trkpt>
      <trkpt lat="46.491513" lon="8.097502">
        <time>1970-01-01T00:00:00+00:00</time>
        <ele>3809.0</ele>
      </trkpt>
      <trkpt lat="46.491292" lon="8.096708">
        <time>1970-01-01T00:00:00+00:00</time>
        <ele>3750.0</ele>
      </trkpt>
      <trkpt lat="46.491404" lon="8.095809">
        <time>1970-01-01T00:00:00+00:00</time>
        <ele>3661.0</ele>
      </trkpt>
      <trkpt lat="46.491407" lon="8.09487">
        <time>1970-01-01T00:00:00+00:00</time>
        <ele>3559.0</ele>
      </trkpt>
      <trkpt lat="46.491803" lon="8.096973">
        <time>1970-01-01T00:00:00+00:00</time>
        <ele>3789.0</ele>
      </trkpt>
      <trkpt lat="46.492216" lon="8.097606">
        <time>1970-01-01T00:00:00+00:00</time>
        <ele>3855.0</ele>
      </trkpt>
      <trkpt lat="46.492123" lon="8.097523">
        <time>1970-01-01T00:00:00+00:00</time>
        <ele>3847.0</ele>
      </trkpt>
      <trkpt lat="46.49116" lon="8.094681">
        <time>1970-01-01T00:00:00+00:00</time>
        <ele>3529.0</ele>
      </trkpt>
      <trkpt lat="46.490466" lon="8.096069">
        <time>1970-01-01T00:00:00+00:00</time>
        <ele>3598.0</ele>
      </trkpt>
      <trkpt lat="46.490289" lon="8.097412">
        <time>1970-01-01T00:00:00+00:00</time>
        <ele>3635.0</ele>
      </trkpt>
      <trkpt lat="46.490785" lon="8.099289">
        <time>1970-01-01T00:00:00+00:00</time>
        <ele>3780.0</ele>
      </trkpt>
      <trkpt lat="46.491016" lon="8.099703">
        <time>1970-01-01T00:00:00+00:00</time>
        <ele>3785.0</ele>
      </trkpt>
      <trkpt lat="46.491519" lon="8.099431">
        <time>1970-01-01T00:00:00+00:00</time>
        <ele>3810.0</ele>
      </trkpt>
      <trkpt lat="46.491443" lon="8.099645">
        <time>1970-01-01T00:00:00+00:00</time>
        <ele>3801.0</ele>
      </trkpt>
      <trkpt lat="46.491619" lon="8.099632">
        <time>1970-01-01T00:00:00+00:00</time>
        <ele>3811.0</ele>
      </trkpt>
      <trkpt lat="46.494185" lon="8.102199">
        <time>1970-01-01T00:00:00+00:00</time>
        <ele>3633.0</ele>
      </trkpt>
      <trkpt lat="46.493819" lon="8.101057">
        <time>1970-01-01T00:00:00+00:00</time>
        <ele>3707.0</ele>
      </trkpt>
      <trkpt lat="46.493086" lon="8.099855">
        <time>1970-01-01T00:00:00+00:00</time>
        <ele>3827.0</ele>
      </trkpt>
      <trkpt lat="46.492561" lon="8.099198">
        <time>1970-01-01T00:00:00+00:00</time>
        <ele>3851.0</ele>
      </trkpt>
      <trkpt lat="46.491136" lon="8.099762">
        <time>1970-01-01T00:00:00+00:00</time>
        <ele>3788.0</ele>
      </trkpt>
      <trkpt lat="46.491245" lon="8.099552">
        <time>1970-01-01T00:00:00+00:00</time>
        <ele>3796.0</ele>
      </trkpt>
      <trkpt lat="46.490776" lon="8.097335">
        <time>1970-01-01T00:00:00+00:00</time>
        <ele>3714.0</ele>
      </trkpt>
      <trkpt lat="46.490287" lon="8.098705">
        <time>1970-01-01T00:00:00+00:00</time>
        <ele>3715.0</ele>
      </trkpt>
      <trkpt lat="46.490788" lon="8.098725">
        <time>1970-01-01T00:00:00+00:00</time>
        <ele>3771.0</ele>
      </trkpt>
      <trkpt lat="46.492204" lon="8.098374">
        <time>1970-01-01T00:00:00+00:00</time>
        <ele>3866.0</ele>
      </trkpt>
      <trkpt lat="46.492667" lon="8.098172">
        <time>1970-01-01T00:00:00+00:00</time>
        <ele>3872.0</ele>
      </trkpt>
      <trkpt lat="46.491516" lon="8.095865">
        <time>1970-01-01T00:00:00+00:00</time>
        <ele>3672.0</ele>
      </trkpt>
      <trkpt lat="46.491702" lon="8.096339">
        <time>1970-01-01T00:00:00+00:00</time>
        <ele>3743.0</ele>
      </trkpt>
      <trkpt lat="46.491526" lon="8.098251">
        <time>1970-01-01T00:00:00+00:00</time>
        <ele>3835.0</ele>
      </trkpt>
      <trkpt lat="46.491536" lon="8.099603">
        <time>1970-01-01T00:00:00+00:00</time>
        <ele>3807.0</ele>
      </trkpt>
      <trkpt lat="46.492431" lon="8.100039">
        <time>1970-01-01T00:00:00+00:00</time>
        <ele>3820.0</ele>
      </trkpt>
      <trkpt lat="46.492402" lon="8.100335">
        <time>1970-01-01T00:00:00+00:00</time>
        <ele>3811.0</ele>
      </trkpt>
      <trkpt lat="46.491737" lon="8.100567">
        <time>1970-01-01T00:00:00+00:00</time>
        <ele>3789.0</ele>
      </trkpt>
      <trkpt lat="46.491889" lon="8.099602">
        <time>1970-01-01T00:00:00+00:00</time>
        <ele>3822.0</ele>
      </trkpt>
      <trkpt lat="46.491984" lon="8.100026">
        <time>1970-01-01T00:00:00+00:00</time>
        <ele>3813.0</ele>
      </trkpt>
      <trkpt lat="46.492257" lon="8.10216">
        <time>1970-01-01T00:00:00+00:00</time>
        <ele>3719.0</ele>
      </trkpt>
      <trkpt lat="46.492477" lon="8.104253">
        <time>1970-01-01T00:00:00+00:00</time>
        <ele>3664.0</ele>
      </trkpt>
      <trkpt lat="46.49198" lon="8.10453">
        <time>1970-01-01T00:00:00+00:00</time>
        <ele>3645.0</ele>
      </trkpt>
      <trkpt lat="46.491788" lon="8.105319">
        <time>1970-01-01T00:00:00+00:00</time>
        <ele>3636.0</ele>
      </trkpt>
      <trkpt lat="46.491747" lon="8.105882">
        <time>1970-01-01T00:00:00+00:00</time>
        <ele>3623.0</ele>
      </trkpt>
      <trkpt lat="46.491414" lon="8.10664">
        <time>1970-01-01T00:00:00+00:00</time>
        <ele>3553.0</ele>
      </trkpt>
      <trkpt lat="46.492058" lon="8.107686">
        <time>1970-01-01T00:00:00+00:00</time>
        <ele>3580.0</ele>
      </trkpt>
      <trkpt lat="46.492466" lon="8.108124">
        <time>1970-01-01T00:00:00+00:00</time>
        <ele>3589.0</ele>
      </trkpt>
      <trkpt lat="46.493168" lon="8.108051">
        <time>1970-01-01T00:00:00+00:00</time>
        <ele>3574.0</ele>
      </trkpt>
      <trkpt lat="46.493517" lon="8.107928">
        <time>1970-01-01T00:00:00+00:00</time>
        <ele>3568.0</ele>
      </trkpt>
      <trkpt lat="46.493635" lon="8.109015">
        <time>1970-01-01T00:00:00+00:00</time>
        <ele>3542.0</ele>
      </trkpt>
      <trkpt lat="46.494683" lon="8.109809">
        <time>1970-01-01T00:00:00+00:00</time>
        <ele>3493.0</ele>
      </trkpt>
      <trkpt lat="46.4947" lon="8.10966">
        <time>1970-01-01T00:00:00+00:00</time>
        <ele>3495.0</ele>
      </trkpt>
      <trkpt lat="46.494754" lon="8.109672">
        <time>1970-01-01T00:00:00+00:00</time>
        <ele>3492.0</ele>
      </trkpt>
      <trkpt lat="46.495327" lon="8.110467">
        <time>1970-01-01T00:00:00+00:00</time>
        <ele>3452.0</ele>
      </trkpt>
      <trkpt lat="46.497514" lon="8.110144">
        <time>1970-01-01T00:00:00+00:00</time>
        <ele>3381.0</ele>
      </trkpt>
      <trkpt lat="46.498635" lon="8.11054">
        <time>1970-01-01T00:00:00+00:00</time>
        <ele>3343.0</ele>
      </trkpt>
      <trkpt lat="46.498721" lon="8.110714">
        <time>1970-01-01T00:00:00+00:00</time>
        <ele>3341.0</ele>
      </trkpt>
      <trkpt lat="46.498069" lon="8.110523">
        <time>1970-01-01T00:00:00+00:00</time>
        <ele>3360.0</ele>
      </trkpt>
      <trkpt lat="46.498343" lon="8.111192">
        <time>1970-01-01T00:00:00+00:00</time>
        <ele>3343.0</ele>
      </trkpt>
      <trkpt lat="46.499493" lon="8.11262">
        <time>1970-01-01T00:00:00+00:00</time>
        <ele>3291.0</ele>
      </trkpt>
      <trkpt lat="46.501176" lon="8.113876">
        <time>1970-01-01T00:00:00+00:00</time>
        <ele>3238.0</ele>
      </trkpt>
      <trkpt lat="46.501056" lon="8.114903">
        <time>1970-01-01T00:00:00+00:00</time>
        <ele>3212.0</ele>
      </trkpt>
      <trkpt lat="46.500734" lon="8.116834">
        <time>1970-01-01T00:00:00+00:00</time>
        <ele>3161.0</ele>
      </trkpt>
      <trkpt lat="46.500637" lon="8.116769">
        <time>1970-01-01T00:00:00+00:00</time>
        <ele>3165.0</ele>
      </trkpt>
      <trkpt lat="46.50059" lon="8.116916">
        <time>1970-01-01T00:00:00+00:00</time>
        <ele>3162.0</ele>
      </trkpt>
      <trkpt lat="46.500689" lon="8.117265">
        <time>1970-01-01T00:00:00+00:00</time>
        <ele>3147.0</ele>
      </trkpt>
      <trkpt lat="46.501566" lon="8.118906">
        <time>1970-01-01T00:00:00+00:00</time>
        <ele>3065.0</ele>
      </trkpt>
      <trkpt lat="46.501765" lon="8.120669">
        <time>1970-01-01T00:00:00+00:00</time>
        <ele>3016.0</ele>
      </trkpt>
      <trkpt lat="46.501744" lon="8.120992">
        <time>1970-01-01T00:00:00+00:00</time>
        <ele>3011.0</ele>
      </trkpt>
      <trkpt lat="46.501696" lon="8.120892">
        <time>1970-01-01T00:00:00+00:00</time>
        <ele>3015.0</ele>
      </trkpt>
      <trkpt lat="46.501456" lon="8.120893">
        <time>1970-01-01T00:00:00+00:00</time>
        <ele>3021.0</ele>
      </trkpt>
      <trkpt lat="46.501435" lon="8.121488">
        <time>1970-01-01T00:00:00+00:00</time>
        <ele>3009.0</ele>
      </trkpt>
      <trkpt lat="46.502942" lon="8.123439">
        <time>1970-01-01T00:00:00+00:00</time>
        <ele>2930.0</ele>
      </trkpt>
      <trkpt lat="46.502672" lon="8.125323">
        <time>1970-01-01T00:00:00+00:00</time>
        <ele>2939.0</ele>
      </trkpt>
      <trkpt lat="46.501398" lon="8.125101">
        <time>1970-01-01T00:00:00+00:00</time>
        <ele>2992.0</ele>
      </trkpt>
      <trkpt lat="46.500424" lon="8.125074">
        <time>1970-01-01T00:00:00+00:00</time>
        <ele>3043.0</ele>
      </trkpt>
      <trkpt lat="46.500338" lon="8.125461">
        <time>1970-01-01T00:00:00+00:00</time>
        <ele>3059.0</ele>
      </trkpt>
      <trkpt lat="46.500765" lon="8.12504">
        <time>1970-01-01T00:00:00+00:00</time>
        <ele>3025.0</ele>
      </trkpt>
      <trkpt lat="46.503821" lon="8.122483">
        <time>1970-01-01T00:00:00+00:00</time>
        <ele>2892.0</ele>
      </trkpt>
      <trkpt lat="46.504595" lon="8.123791">
        <time>1970-01-01T00:00:00+00:00</time>
        <ele>2857.0</ele>
      </trkpt>
      <trkpt lat="46.505314" lon="8.123663">
        <time>1970-01-01T00:00:00+00:00</time>
        <ele>2841.0</ele>
      </trkpt>
      <trkpt lat="46.506006" lon="8.122438">
        <time>1970-01-01T00:00:00+00:00</time>
        <ele>2825.0</ele>
      </trkpt>
      <trkpt lat="46.506105" lon="8.122629">
        <time>1970-01-01T00:00:00+00:00</time>
        <ele>2823.0</ele>
      </trkpt>
      <trkpt lat="46.505957" lon="8.122472">
        <time>1970-01-01T00:00:00+00:00</time>
        <ele>2826.0</ele>
      </trkpt>
      <trkpt lat="46.506095" lon="8.122597">
        <time>1970-01-01T00:00:00+00:00</time>
        <ele>2823.0</ele>
      </trkpt>
      <trkpt lat="46.505978" lon="8.122534">
        <time>1970-01-01T00:00:00+00:00</time>
        <ele>2825.0</ele>
      </trkpt>
      <trkpt lat="46.506042" lon="8.122583">
        <time>1970-01-01T00:00:00+00:00</time>
        <ele>2824.0</ele>
      </trkpt>
      <trkpt lat="46.506026" lon="8.122498">
        <time>1970-01-01T00:00:00+00:00</time>
        <ele>2825.0</ele>
      </trkpt>
      <trkpt lat="46.506072" lon="8.122589">
        <time>1970-01-01T00:00:00+00:00</time>
        <ele>2824.0</ele>
      </trkpt>
      <trkpt lat="46.50602" lon="8.122504">
        <time>1970-01-01T00:00:00+00:00</time>
        <ele>2825.0</ele>
      </trkpt>
      <trkpt lat="46.506049" lon="8.122575">
        <time>1970-01-01T00:00:00+00:00</time>
        <ele>2824.0</ele>
      </trkpt>
      <trkpt lat="46.50609" lon="8.122566">
        <time>1970-01-01T00:00:00+00:00</time>
        <ele>2824.0</ele>
      </trkpt>
      <trkpt lat="46.506074" lon="8.122506">
        <time>1970-01-01T00:00:00+00:00</time>
        <ele>2824.0</ele>
      </trkpt>
      <trkpt lat="46.50605" lon="8.122576">
        <time>1970-01-01T00:00:00+00:00</time>
        <ele>2824.0</ele>
      </trkpt>
      <trkpt lat="46.505987" lon="8.12247">
        <time>1970-01-01T00:00:00+00:00</time>
        <ele>2825.0</ele>
      </trkpt>
      <trkpt lat="46.505939" lon="8.12257">
        <time>1970-01-01T00:00:00+00:00</time>
        <ele>2825.0</ele>
      </trkpt>
      <trkpt lat="46.506005" lon="8.122501">
        <time>1970-01-01T00:00:00+00:00</time>
        <ele>2825.0</ele>
      </trkpt>
      <trkpt lat="46.505976" lon="8.122443">
        <time>1970-01-01T00:00:00+00:00</time>
        <ele>2826.0</ele>
      </trkpt>
      <trkpt lat="46.506084" lon="8.12256">
        <time>1970-01-01T00:00:00+00:00</time>
        <ele>2824.0</ele>
      </trkpt>
      <trkpt lat="46.505928" lon="8.122303">
        <time>1970-01-01T00:00:00+00:00</time>
        <ele>2827.0</ele>
      </trkpt>
      <trkpt lat="46.50607" lon="8.122569">
        <time>1970-01-01T00:00:00+00:00</time>
        <ele>2824.0</ele>
      </trkpt>
      <trkpt lat="46.506164" lon="8.122537">
        <time>1970-01-01T00:00:00+00:00</time>
        <ele>2823.0</ele>
      </trkpt>
      <trkpt lat="46.506046" lon="8.122544">
        <time>1970-01-01T00:00:00+00:00</time>
        <ele>2824.0</ele>
      </trkpt>
      <trkpt lat="46.506081" lon="8.122601">
        <time>1970-01-01T00:00:00+00:00</time>
        <ele>2823.0</ele>
      </trkpt>
      <trkpt lat="46.506272" lon="8.122279">
        <time>1970-01-01T00:00:00+00:00</time>
        <ele>2825.0</ele>
      </trkpt>
      <trkpt lat="46.506544" lon="8.122032">
        <time>1970-01-01T00:00:00+00:00</time>
        <ele>2827.0</ele>
      </trkpt>
      <trkpt lat="46.506701" lon="8.122054">
        <time>1970-01-01T00:00:00+00:00</time>
        <ele>2828.0</ele>
      </trkpt>
      <trkpt lat="46.506911" lon="8.121773">
        <time>1970-01-01T00:00:00+00:00</time>
        <ele>2834.0</ele>
      </trkpt>
      <trkpt lat="46.506994" lon="8.121811">
        <time>1970-01-01T00:00:00+00:00</time>
        <ele>2834.0</ele>
      </trkpt>
      <trkpt lat="46.507216" lon="8.12139">
        <time>1970-01-01T00:00:00+00:00</time>
        <ele>2840.0</ele>
      </trkpt>
      <trkpt lat="46.50733" lon="8.121455">
        <time>1970-01-01T00:00:00+00:00</time>
        <ele>2839.0</ele>
      </trkpt>
      <trkpt lat="46.507606" lon="8.121073">
        <time>1970-01-01T00:00:00+00:00</time>
        <ele>2842.0</ele>
      </trkpt>
      <trkpt lat="46.507733" lon="8.121068">
        <time>1970-01-01T00:00:00+00:00</time>
        <ele>2841.0</ele>
      </trkpt>
      <trkpt lat="46.508118" lon="8.12067">
        <time>1970-01-01T00:00:00+00:00</time>
        <ele>2844.0</ele>
      </trkpt>
      <trkpt lat="46.508287" lon="8.120281">
        <time>1970-01-01T00:00:00+00:00</time>
        <ele>2849.0</ele>
      </trkpt>
      <trkpt lat="46.50857" lon="8.119982">
        <time>1970-01-01T00:00:00+00:00</time>
        <ele>2852.0</ele>
      </trkpt>
      <trkpt lat="46.508609" lon="8.119683">
        <time>1970-01-01T00:00:00+00:00</time>
        <ele>2854.0</ele>
      </trkpt>
      <trkpt lat="46.50874" lon="8.119345">
        <time>1970-01-01T00:00:00+00:00</time>
        <ele>2856.0</ele>
      </trkpt>
      <trkpt lat="46.508927" lon="8.118524">
        <time>1970-01-01T00:00:00+00:00</time>
        <ele>2862.0</ele>
      </trkpt>
      <trkpt lat="46.509065" lon="8.118274">
        <time>1970-01-01T00:00:00+00:00</time>
        <ele>2864.0</ele>
      </trkpt>
      <trkpt lat="46.509245" lon="8.117406">
        <time>1970-01-01T00:00:00+00:00</time>
        <ele>2870.0</ele>
      </trkpt>
      <trkpt lat="46.509658" lon="8.116415">
        <time>1970-01-01T00:00:00+00:00</time>
        <ele>2875.0</ele>
      </trkpt>
      <trkpt lat="46.50968" lon="8.115948">
        <time>1970-01-01T00:00:00+00:00</time>
        <ele>2878.0</ele>
      </trkpt>
      <trkpt lat="46.510076" lon="8.115416">
        <time>1970-01-01T00:00:00+00:00</time>
        <ele>2882.0</ele>
      </trkpt>
      <trkpt lat="46.510103" lon="8.11524">
        <time>1970-01-01T00:00:00+00:00</time>
        <ele>2883.0</ele>
      </trkpt>
      <trkpt lat="46.510384" lon="8.115002">
        <time>1970-01-01T00:00:00+00:00</time>
        <ele>2888.0</ele>
      </trkpt>
      <trkpt lat="46.510452" lon="8.114574">
        <time>1970-01-01T00:00:00+00:00</time>
        <ele>2890.0</ele>
      </trkpt>
      <trkpt lat="46.510525" lon="8.114768">
        <time>1970-01-01T00:00:00+00:00</time>
        <ele>2891.0</ele>
      </trkpt>
      <trkpt lat="46.510433" lon="8.11467">
        <time>1970-01-01T00:00:00+00:00</time>
        <ele>2890.0</ele>
      </trkpt>
      <trkpt lat="46.510478" lon="8.114628">
        <time>1970-01-01T00:00:00+00:00</time>
        <ele>2891.0</ele>
      </trkpt>
      <trkpt lat="46.510479" lon="8.114686">
        <time>1970-01-01T00:00:00+00:00</time>
        <ele>2890.0</ele>
      </trkpt>
      <trkpt lat="46.510328" lon="8.114119">
        <time>1970-01-01T00:00:00+00:00</time>
        <ele>2889.0</ele>
      </trkpt>
      <trkpt lat="46.510267" lon="8.114028">
        <time>1970-01-01T00:00:00+00:00</time>
        <ele>2889.0</ele>
      </trkpt>
      <trkpt lat="46.51017" lon="8.114046">
        <time>1970-01-01T00:00:00+00:00</time>
        <ele>2887.0</ele>
      </trkpt>
      <trkpt lat="46.509933" lon="8.113427">
        <time>1970-01-01T00:00:00+00:00</time>
        <ele>2888.0</ele>
      </trkpt>
      <trkpt lat="46.509944" lon="8.113053">
        <time>1970-01-01T00:00:00+00:00</time>
        <ele>2888.0</ele>
      </trkpt>
      <trkpt lat="46.510238" lon="8.112606">
        <time>1970-01-01T00:00:00+00:00</time>
        <ele>2891.0</ele>
      </trkpt>
      <trkpt lat="46.510596" lon="8.110995">
        <time>1970-01-01T00:00:00+00:00</time>
        <ele>2899.0</ele>
      </trkpt>
      <trkpt lat="46.511282" lon="8.110332">
        <time>1970-01-01T00:00:00+00:00</time>
        <ele>2906.0</ele>
      </trkpt>
      <trkpt lat="46.511661" lon="8.109698">
        <time>1970-01-01T00:00:00+00:00</time>
        <ele>2911.0</ele>
      </trkpt>
      <trkpt lat="46.511733" lon="8.109683">
        <time>1970-01-01T00:00:00+00:00</time>
        <ele>2911.0</ele>
      </trkpt>
      <trkpt lat="46.511861" lon="8.10949">
        <time>1970-01-01T00:00:00+00:00</time>
        <ele>2914.0</ele>
      </trkpt>
      <trkpt lat="46.512031" lon="8.109429">
        <time>1970-01-01T00:00:00+00:00</time>
        <ele>2916.0</ele>
      </trkpt>
      <trkpt lat="46.51234" lon="8.10904">
        <time>1970-01-01T00:00:00+00:00</time>
        <ele>2918.0</ele>
      </trkpt>
      <trkpt lat="46.51237" lon="8.108864">
        <time>1970-01-01T00:00:00+00:00</time>
        <ele>2918.0</ele>
      </trkpt>
      <trkpt lat="46.512496" lon="8.108644">
        <time>1970-01-01T00:00:00+00:00</time>
        <ele>2920.0</ele>
      </trkpt>
      <trkpt lat="46.512838" lon="8.108437">
        <time>1970-01-01T00:00:00+00:00</time>
        <ele>2921.0</ele>
      </trkpt>
      <trkpt lat="46.513165" lon="8.10808">
        <time>1970-01-01T00:00:00+00:00</time>
        <ele>2921.0</ele>
      </trkpt>
      <trkpt lat="46.513266" lon="8.107714">
        <time>1970-01-01T00:00:00+00:00</time>
        <ele>2921.0</ele>
      </trkpt>
      <trkpt lat="46.513348" lon="8.107666">
        <time>1970-01-01T00:00:00+00:00</time>
        <ele>2921.0</ele>
      </trkpt>
      <trkpt lat="46.513554" lon="8.107131">
        <time>1970-01-01T00:00:00+00:00</time>
        <ele>2924.0</ele>
      </trkpt>
      <trkpt lat="46.513872" lon="8.10674">
        <time>1970-01-01T00:00:00+00:00</time>
        <ele>2926.0</ele>
      </trkpt>
      <trkpt lat="46.514013" lon="8.106155">
        <time>1970-01-01T00:00:00+00:00</time>
        <ele>2930.0</ele>
      </trkpt>
      <trkpt lat="46.514094" lon="8.106062">
        <time>1970-01-01T00:00:00+00:00</time>
        <ele>2930.0</ele>
      </trkpt>
      <trkpt lat="46.514194" lon="8.105761">
        <time>1970-01-01T00:00:00+00:00</time>
        <ele>2933.0</ele>
      </trkpt>
      <trkpt lat="46.514181" lon="8.105583">
        <time>1970-01-01T00:00:00+00:00</time>
        <ele>2935.0</ele>
      </trkpt>
      <trkpt lat="46.514174" lon="8.10564">
        <time>1970-01-01T00:00:00+00:00</time>
        <ele>2934.0</ele>
      </trkpt>
      <trkpt lat="46.514273" lon="8.10547">
        <time>1970-01-01T00:00:00+00:00</time>
        <ele>2937.0</ele>
      </trkpt>
      <trkpt lat="46.51449" lon="8.105436">
        <time>1970-01-01T00:00:00+00:00</time>
        <ele>2938.0</ele>
      </trkpt>
      <trkpt lat="46.514374" lon="8.105371">
        <time>1970-01-01T00:00:00+00:00</time>
        <ele>2939.0</ele>
      </trkpt>
      <trkpt lat="46.514489" lon="8.105159">
        <time>1970-01-01T00:00:00+00:00</time>
        <ele>2942.0</ele>
      </trkpt>
      <trkpt lat="46.514466" lon="8.105094">
        <time>1970-01-01T00:00:00+00:00</time>
        <ele>2943.0</ele>
      </trkpt>
      <trkpt lat="46.514602" lon="8.104704">
        <time>1970-01-01T00:00:00+00:00</time>
        <ele>2948.0</ele>
      </trkpt>
      <trkpt lat="46.514628" lon="8.104284">
        <time>1970-01-01T00:00:00+00:00</time>
        <ele>2956.0</ele>
      </trkpt>
      <trkpt lat="46.514813" lon="8.103587">
        <time>1970-01-01T00:00:00+00:00</time>
        <ele>2969.0</ele>
      </trkpt>
      <trkpt lat="46.514791" lon="8.103673">
        <time>1970-01-01T00:00:00+00:00</time>
        <ele>2968.0</ele>
      </trkpt>
      <trkpt lat="46.514708" lon="8.102759">
        <time>1970-01-01T00:00:00+00:00</time>
        <ele>2981.0</ele>
      </trkpt>
      <trkpt lat="46.514431" lon="8.102543">
        <time>1970-01-01T00:00:00+00:00</time>
        <ele>2987.0</ele>
      </trkpt>
      <trkpt lat="46.514292" lon="8.102852">
        <time>1970-01-01T00:00:00+00:00</time>
        <ele>2984.0</ele>
      </trkpt>
      <trkpt lat="46.514351" lon="8.102599">
        <time>1970-01-01T00:00:00+00:00</time>
        <ele>2987.0</ele>
      </trkpt>
      <trkpt lat="46.514432" lon="8.102657">
        <time>1970-01-01T00:00:00+00:00</time>
        <ele>2985.0</ele>
      </trkpt>
      <trkpt lat="46.514504" lon="8.102542">
        <time>1970-01-01T00:00:00+00:00</time>
        <ele>2986.0</ele>
      </trkpt>
      <trkpt lat="46.514399" lon="8.102597">
        <time>1970-01-01T00:00:00+00:00</time>
        <ele>2987.0</ele>
      </trkpt>
      <trkpt lat="46.514387" lon="8.102551">
        <time>1970-01-01T00:00:00+00:00</time>
        <ele>2987.0</ele>
      </trkpt>
      <trkpt lat="46.514449" lon="8.102721">
        <time>1970-01-01T00:00:00+00:00</time>
        <ele>2984.0</ele>
      </trkpt>
      <trkpt lat="46.514433" lon="8.103107">
        <time>1970-01-01T00:00:00+00:00</time>
        <ele>2979.0</ele>
      </trkpt>
      <trkpt lat="46.514746" lon="8.103465">
        <time>1970-01-01T00:00:00+00:00</time>
        <ele>2971.0</ele>
      </trkpt>
      <trkpt lat="46.514778" lon="8.103579">
        <time>1970-01-01T00:00:00+00:00</time>
        <ele>2969.0</ele>
      </trkpt>
      <trkpt lat="46.514599" lon="8.103517">
        <time>1970-01-01T00:00:00+00:00</time>
        <ele>2971.0</ele>
      </trkpt>
      <trkpt lat="46.514648" lon="8.103425">
        <time>1970-01-01T00:00:00+00:00</time>
        <ele>2972.0</ele>
      </trkpt>
      <trkpt lat="46.514532" lon="8.103586">
        <time>1970-01-01T00:00:00+00:00</time>
        <ele>2970.0</ele>
      </trkpt>
      <trkpt lat="46.514413" lon="8.102959">
        <time>1970-01-01T00:00:00+00:00</time>
        <ele>2982.0</ele>
      </trkpt>
      <trkpt lat="46.514458" lon="8.102618">
        <time>1970-01-01T00:00:00+00:00</time>
        <ele>2986.0</ele>
      </trkpt>
      <trkpt lat="46.514282" lon="8.101936">
        <time>1970-01-01T00:00:00+00:00</time>
        <ele>2999.0</ele>
      </trkpt>
      <trkpt lat="46.514493" lon="8.101756">
        <time>1970-01-01T00:00:00+00:00</time>
        <ele>2999.0</ele>
      </trkpt>
      <trkpt lat="46.514368" lon="8.101778">
        <time>1970-01-01T00:00:00+00:00</time>
        <ele>3000.0</ele>
      </trkpt>
      <trkpt lat="46.514445" lon="8.101587">
        <time>1970-01-01T00:00:00+00:00</time>
        <ele>3001.0</ele>
      </trkpt>
      <trkpt lat="46.514417" lon="8.101215">
        <time>1970-01-01T00:00:00+00:00</time>
        <ele>3005.0</ele>
      </trkpt>
      <trkpt lat="46.514463" lon="8.101499">
        <time>1970-01-01T00:00:00+00:00</time>
        <ele>3002.0</ele>
      </trkpt>
      <trkpt lat="46.514349" lon="8.100892">
        <time>1970-01-01T00:00:00+00:00</time>
        <ele>3009.0</ele>
      </trkpt>
      <trkpt lat="46.514185" lon="8.101221">
        <time>1970-01-01T00:00:00+00:00</time>
        <ele>3009.0</ele>
      </trkpt>
      <trkpt lat="46.51426" lon="8.100513">
        <time>1970-01-01T00:00:00+00:00</time>
        <ele>3016.0</ele>
      </trkpt>
      <trkpt lat="46.514059" lon="8.100478">
        <time>1970-01-01T00:00:00+00:00</time>
        <ele>3022.0</ele>
      </trkpt>
      <trkpt lat="46.514086" lon="8.100301">
        <time>1970-01-01T00:00:00+00:00</time>
        <ele>3023.0</ele>
      </trkpt>
      <trkpt lat="46.514178" lon="8.10053">
        <time>1970-01-01T00:00:00+00:00</time>
        <ele>3018.0</ele>
      </trkpt>
      <trkpt lat="46.51444" lon="8.100284">
        <time>1970-01-01T00:00:00+00:00</time>
        <ele>3018.0</ele>
      </trkpt>
      <trkpt lat="46.514469" lon="8.099799">
        <time>1970-01-01T00:00:00+00:00</time>
        <ele>3024.0</ele>
      </trkpt>
      <trkpt lat="46.514363" lon="8.09945">
        <time>1970-01-01T00:00:00+00:00</time>
        <ele>3030.0</ele>
      </trkpt>
      <trkpt lat="46.514229" lon="8.099541">
        <time>1970-01-01T00:00:00+00:00</time>
        <ele>3029.0</ele>
      </trkpt>
      <trkpt lat="46.514354" lon="8.099215">
        <time>1970-01-01T00:00:00+00:00</time>
        <ele>3035.0</ele>
      </trkpt>
      <trkpt lat="46.514032" lon="8.100049">
        <time>1970-01-01T00:00:00+00:00</time>
        <ele>3028.0</ele>
      </trkpt>
      <trkpt lat="46.514462" lon="8.099523">
        <time>1970-01-01T00:00:00+00:00</time>
        <ele>3029.0</ele>
      </trkpt>
      <trkpt lat="46.514374" lon="8.099367">
        <time>1970-01-01T00:00:00+00:00</time>
        <ele>3032.0</ele>
      </trkpt>
      <trkpt lat="46.514457" lon="8.099066">
        <time>1970-01-01T00:00:00+00:00</time>
        <ele>3037.0</ele>
      </trkpt>
      <trkpt lat="46.514161" lon="8.098353">
        <time>1970-01-01T00:00:00+00:00</time>
        <ele>3048.0</ele>
      </trkpt>
      <trkpt lat="46.514411" lon="8.098329">
        <time>1970-01-01T00:00:00+00:00</time>
        <ele>3047.0</ele>
      </trkpt>
      <trkpt lat="46.514106" lon="8.098117">
        <time>1970-01-01T00:00:00+00:00</time>
        <ele>3052.0</ele>
      </trkpt>
      <trkpt lat="46.513914" lon="8.097895">
        <time>1970-01-01T00:00:00+00:00</time>
        <ele>3061.0</ele>
      </trkpt>
      <trkpt lat="46.514274" lon="8.097943">
        <time>1970-01-01T00:00:00+00:00</time>
        <ele>3052.0</ele>
      </trkpt>
      <trkpt lat="46.514574" lon="8.097708">
        <time>1970-01-01T00:00:00+00:00</time>
        <ele>3053.0</ele>
      </trkpt>
      <trkpt lat="46.51387" lon="8.098118">
        <time>1970-01-01T00:00:00+00:00</time>
        <ele>3061.0</ele>
      </trkpt>
      <trkpt lat="46.513569" lon="8.098146">
        <time>1970-01-01T00:00:00+00:00</time>
        <ele>3079.0</ele>
      </trkpt>
      <trkpt lat="46.513718" lon="8.098009">
        <time>1970-01-01T00:00:00+00:00</time>
        <ele>3069.0</ele>
      </trkpt>
      <trkpt lat="46.514007" lon="8.097337">
        <time>1970-01-01T00:00:00+00:00</time>
        <ele>3064.0</ele>
      </trkpt>
      <trkpt lat="46.513592" lon="8.096864">
        <time>1970-01-01T00:00:00+00:00</time>
        <ele>3085.0</ele>
      </trkpt>
      <trkpt lat="46.514171" lon="8.097341">
        <time>1970-01-01T00:00:00+00:00</time>
        <ele>3061.0</ele>
      </trkpt>
      <trkpt lat="46.513258" lon="8.096845">
        <time>1970-01-01T00:00:00+00:00</time>
        <ele>3110.0</ele>
      </trkpt>
      <trkpt lat="46.513272" lon="8.096978">
        <time>1970-01-01T00:00:00+00:00</time>
        <ele>3108.0</ele>
      </trkpt>
      <trkpt lat="46.513311" lon="8.09692">
        <time>1970-01-01T00:00:00+00:00</time>
        <ele>3106.0</ele>
      </trkpt>
      <trkpt lat="46.513218" lon="8.096181">
        <time>1970-01-01T00:00:00+00:00</time>
        <ele>3118.0</ele>
      </trkpt>
      <trkpt lat="46.513066" lon="8.096072">
        <time>1970-01-01T00:00:00+00:00</time>
        <ele>3131.0</ele>
      </trkpt>
      <trkpt lat="46.513082" lon="8.095687">
        <time>1970-01-01T00:00:00+00:00</time>
        <ele>3134.0</ele>
      </trkpt>
      <trkpt lat="46.513293" lon="8.095663">
        <time>1970-01-01T00:00:00+00:00</time>
        <ele>3119.0</ele>
      </trkpt>
      <trkpt lat="46.513011" lon="8.095388">
        <time>1970-01-01T00:00:00+00:00</time>
        <ele>3148.0</ele>
      </trkpt>
      <trkpt lat="46.51319" lon="8.095284">
        <time>1970-01-01T00:00:00+00:00</time>
        <ele>3131.0</ele>
      </trkpt>
      <trkpt lat="46.512721" lon="8.094632">
        <time>1970-01-01T00:00:00+00:00</time>
        <ele>3201.0</ele>
      </trkpt>
      <trkpt lat="46.512856" lon="8.094501">
        <time>1970-01-01T00:00:00+00:00</time>
        <ele>3185.0</ele>
      </trkpt>
      <trkpt lat="46.512753" lon="8.09423">
        <time>1970-01-01T00:00:00+00:00</time>
        <ele>3202.0</ele>
      </trkpt>
      <trkpt lat="46.512824" lon="8.094278">
        <time>1970-01-01T00:00:00+00:00</time>
        <ele>3192.0</ele>
      </trkpt>
      <trkpt lat="46.512649" lon="8.094324">
        <time>1970-01-01T00:00:00+00:00</time>
        <ele>3213.0</ele>
      </trkpt>
      <trkpt lat="46.512478" lon="8.094253">
        <time>1970-01-01T00:00:00+00:00</time>
        <ele>3229.0</ele>
      </trkpt>
      <trkpt lat="46.512771" lon="8.093881">
        <time>1970-01-01T00:00:00+00:00</time>
        <ele>3201.0</ele>
      </trkpt>
      <trkpt lat="46.51314" lon="8.094009">
        <time>1970-01-01T00:00:00+00:00</time>
        <ele>3151.0</ele>
      </trkpt>
      <trkpt lat="46.51254" lon="8.094036">
        <time>1970-01-01T00:00:00+00:00</time>
        <ele>3224.0</ele>
      </trkpt>
      <trkpt lat="46.512792" lon="8.094122">
        <time>1970-01-01T00:00:00+00:00</time>
        <ele>3197.0</ele>
      </trkpt>
      <trkpt lat="46.51288" lon="8.093371">
        <time>1970-01-01T00:00:00+00:00</time>
        <ele>3183.0</ele>
      </trkpt>
      <trkpt lat="46.5126" lon="8.093455">
        <time>1970-01-01T00:00:00+00:00</time>
        <ele>3216.0</ele>
      </trkpt>
      <trkpt lat="46.512475" lon="8.093303">
        <time>1970-01-01T00:00:00+00:00</time>
        <ele>3230.0</ele>
      </trkpt>
      <trkpt lat="46.512566" lon="8.093758">
        <time>1970-01-01T00:00:00+00:00</time>
        <ele>3222.0</ele>
      </trkpt>
      <trkpt lat="46.512632" lon="8.093596">
        <time>1970-01-01T00:00:00+00:00</time>
        <ele>3214.0</ele>
      </trkpt>
      <trkpt lat="46.512668" lon="8.093611">
        <time>1970-01-01T00:00:00+00:00</time>
        <ele>3210.0</ele>
      </trkpt>
      <trkpt lat="46.512452" lon="8.093129">
        <time>1970-01-01T00:00:00+00:00</time>
        <ele>3231.0</ele>
      </trkpt>
      <trkpt lat="46.512297" lon="8.09335">
        <time>1970-01-01T00:00:00+00:00</time>
        <ele>3249.0</ele>
      </trkpt>
      <trkpt lat="46.512434" lon="8.09303">
        <time>1970-01-01T00:00:00+00:00</time>
        <ele>3233.0</ele>
      </trkpt>
      <trkpt lat="46.512554" lon="8.092894">
        <time>1970-01-01T00:00:00+00:00</time>
        <ele>3215.0</ele>
      </trkpt>
      <trkpt lat="46.512612" lon="8.092443">
        <time>1970-01-01T00:00:00+00:00</time>
        <ele>3205.0</ele>
      </trkpt>
      <trkpt lat="46.512729" lon="8.09248">
        <time>1970-01-01T00:00:00+00:00</time>
        <ele>3195.0</ele>
      </trkpt>
      <trkpt lat="46.512892" lon="8.092389">
        <time>1970-01-01T00:00:00+00:00</time>
        <ele>3177.0</ele>
      </trkpt>
      <trkpt lat="46.512493" lon="8.092071">
        <time>1970-01-01T00:00:00+00:00</time>
        <ele>3218.0</ele>
      </trkpt>
      <trkpt lat="46.512441" lon="8.091795">
        <time>1970-01-01T00:00:00+00:00</time>
        <ele>3224.0</ele>
      </trkpt>
      <trkpt lat="46.512466" lon="8.091535">
        <time>1970-01-01T00:00:00+00:00</time>
        <ele>3221.0</ele>
      </trkpt>
      <trkpt lat="46.512678" lon="8.091423">
        <time>1970-01-01T00:00:00+00:00</time>
        <ele>3200.0</ele>
      </trkpt>
      <trkpt lat="46.512424" lon="8.09153">
        <time>1970-01-01T00:00:00+00:00</time>
        <ele>3226.0</ele>
      </trkpt>
      <trkpt lat="46.512586" lon="8.091436">
        <time>1970-01-01T00:00:00+00:00</time>
        <ele>3207.0</ele>
      </trkpt>
      <trkpt lat="46.51263" lon="8.091317">
        <time>1970-01-01T00:00:00+00:00</time>
        <ele>3204.0</ele>
      </trkpt>
      <trkpt lat="46.512515" lon="8.091359">
        <time>1970-01-01T00:00:00+00:00</time>
        <ele>3215.0</ele>
      </trkpt>
      <trkpt lat="46.512752" lon="8.091406">
        <time>1970-01-01T00:00:00+00:00</time>
        <ele>3195.0</ele>
      </trkpt>
      <trkpt lat="46.512651" lon="8.091045">
        <time>1970-01-01T00:00:00+00:00</time>
        <ele>3204.0</ele>
      </trkpt>
      <trkpt lat="46.514221" lon="8.093481">
        <time>1970-01-01T00:00:00+00:00</time>
        <ele>3112.0</ele>
      </trkpt>
      <trkpt lat="46.514367" lon="8.093614">
        <time>1970-01-01T00:00:00+00:00</time>
        <ele>3105.0</ele>
      </trkpt>
      <trkpt lat="46.514228" lon="8.093387">
        <time>1970-01-01T00:00:00+00:00</time>
        <ele>3113.0</ele>
      </trkpt>
      <trkpt lat="46.514296" lon="8.093479">
        <time>1970-01-01T00:00:00+00:00</time>
        <ele>3110.0</ele>
      </trkpt>
      <trkpt lat="46.514547" lon="8.09343">
        <time>1970-01-01T00:00:00+00:00</time>
        <ele>3101.0</ele>
      </trkpt>
      <trkpt lat="46.513462" lon="8.091733">
        <time>1970-01-01T00:00:00+00:00</time>
        <ele>3154.0</ele>
      </trkpt>
      <trkpt lat="46.512554" lon="8.09099">
        <time>1970-01-01T00:00:00+00:00</time>
        <ele>3211.0</ele>
      </trkpt>
      <trkpt lat="46.512491" lon="8.090758">
        <time>1970-01-01T00:00:00+00:00</time>
        <ele>3220.0</ele>
      </trkpt>
      <trkpt lat="46.512565" lon="8.090542">
        <time>1970-01-01T00:00:00+00:00</time>
        <ele>3214.0</ele>
      </trkpt>
      <trkpt lat="46.512802" lon="8.092584">
        <time>1970-01-01T00:00:00+00:00</time>
        <ele>3187.0</ele>
      </trkpt>
      <trkpt lat="46.512591" lon="8.090977">
        <time>1970-01-01T00:00:00+00:00</time>
        <ele>3208.0</ele>
      </trkpt>
      <trkpt lat="46.512646" lon="8.090872">
        <time>1970-01-01T00:00:00+00:00</time>
        <ele>3206.0</ele>
      </trkpt>
      <trkpt lat="46.512289" lon="8.090543">
        <time>1970-01-01T00:00:00+00:00</time>
        <ele>3243.0</ele>
      </trkpt>
      <trkpt lat="46.512413" lon="8.090563">
        <time>1970-01-01T00:00:00+00:00</time>
        <ele>3228.0</ele>
      </trkpt>
      <trkpt lat="46.51231" lon="8.090618">
        <time>1970-01-01T00:00:00+00:00</time>
        <ele>3240.0</ele>
      </trkpt>
      <trkpt lat="46.512113" lon="8.091595">
        <time>1970-01-01T00:00:00+00:00</time>
        <ele>3264.0</ele>
      </trkpt>
      <trkpt lat="46.512738" lon="8.090983">
        <time>1970-01-01T00:00:00+00:00</time>
        <ele>3199.0</ele>
      </trkpt>
      <trkpt lat="46.511732" lon="8.091497">
        <time>1970-01-01T00:00:00+00:00</time>
        <ele>3301.0</ele>
      </trkpt>
      <trkpt lat="46.512127" lon="8.090873">
        <time>1970-01-01T00:00:00+00:00</time>
        <ele>3263.0</ele>
      </trkpt>
      <trkpt lat="46.51209" lon="8.090613">
        <time>1970-01-01T00:00:00+00:00</time>
        <ele>3266.0</ele>
      </trkpt>
      <trkpt lat="46.511917" lon="8.090471">
        <time>1970-01-01T00:00:00+00:00</time>
        <ele>3290.0</ele>
      </trkpt>
      <trkpt lat="46.510958" lon="8.091219">
        <time>1970-01-01T00:00:00+00:00</time>
        <ele>3348.0</ele>
      </trkpt>
      <trkpt lat="46.510849" lon="8.092027">
        <time>1970-01-01T00:00:00+00:00</time>
        <ele>3326.0</ele>
      </trkpt>
      <trkpt lat="46.51118" lon="8.09151">
        <time>1970-01-01T00:00:00+00:00</time>
        <ele>3329.0</ele>
      </trkpt>
      <trkpt lat="46.51126" lon="8.090893">
        <time>1970-01-01T00:00:00+00:00</time>
        <ele>3343.0</ele>
      </trkpt>
      <trkpt lat="46.5115" lon="8.090136">
        <time>1970-01-01T00:00:00+00:00</time>
        <ele>3346.0</ele>
      </trkpt>
      <trkpt lat="46.511434" lon="8.090124">
        <time>1970-01-01T00:00:00+00:00</time>
        <ele>3352.0</ele>
      </trkpt>
      <trkpt lat="46.511119" lon="8.090425">
        <time>1970-01-01T00:00:00+00:00</time>
        <ele>3362.0</ele>
      </trkpt>
      <trkpt lat="46.511097" lon="8.09032">
        <time>1970-01-01T00:00:00+00:00</time>
        <ele>3365.0</ele>
      </trkpt>
      <trkpt lat="46.511133" lon="8.090258">
        <time>1970-01-01T00:00:00+00:00</time>
        <ele>3365.0</ele>
      </trkpt>
      <trkpt lat="46.511402" lon="8.090375">
        <time>1970-01-01T00:00:00+00:00</time>
        <ele>3350.0</ele>
      </trkpt>
      <trkpt lat="46.511767" lon="8.090346">
        <time>1970-01-01T00:00:00+00:00</time>
        <ele>3314.0</ele>
      </trkpt>
      <trkpt lat="46.511797" lon="8.090407">
        <time>1970-01-01T00:00:00+00:00</time>
        <ele>3309.0</ele>
      </trkpt>
      <trkpt lat="46.51202" lon="8.090129">
        <time>1970-01-01T00:00:00+00:00</time>
        <ele>3270.0</ele>
      </trkpt>
      <trkpt lat="46.512344" lon="8.08999">
        <time>1970-01-01T00:00:00+00:00</time>
        <ele>3237.0</ele>
      </trkpt>
      <trkpt lat="46.5126" lon="8.090177">
        <time>1970-01-01T00:00:00+00:00</time>
        <ele>3215.0</ele>
      </trkpt>
      <trkpt lat="46.512653" lon="8.090148">
        <time>1970-01-01T00:00:00+00:00</time>
        <ele>3213.0</ele>
      </trkpt>
      <trkpt lat="46.512496" lon="8.089672">
        <time>1970-01-01T00:00:00+00:00</time>
        <ele>3227.0</ele>
      </trkpt>
      <trkpt lat="46.512249" lon="8.08934">
        <time>1970-01-01T00:00:00+00:00</time>
        <ele>3247.0</ele>
      </trkpt>
      <trkpt lat="46.514434" lon="8.091304">
        <time>1970-01-01T00:00:00+00:00</time>
        <ele>3145.0</ele>
      </trkpt>
      <trkpt lat="46.514576" lon="8.091301">
        <time>1970-01-01T00:00:00+00:00</time>
        <ele>3142.0</ele>
      </trkpt>
      <trkpt lat="46.514482" lon="8.091255">
        <time>1970-01-01T00:00:00+00:00</time>
        <ele>3145.0</ele>
      </trkpt>
      <trkpt lat="46.514414" lon="8.091331">
        <time>1970-01-01T00:00:00+00:00</time>
        <ele>3145.0</ele>
      </trkpt>
      <trkpt lat="46.515672" lon="8.090932">
        <time>1970-01-01T00:00:00+00:00</time>
        <ele>3135.0</ele>
      </trkpt>
      <trkpt lat="46.51569" lon="8.090988">
        <time>1970-01-01T00:00:00+00:00</time>
        <ele>3134.0</ele>
      </trkpt>
      <trkpt lat="46.51522" lon="8.090555">
        <time>1970-01-01T00:00:00+00:00</time>
        <ele>3148.0</ele>
      </trkpt>
      <trkpt lat="46.514732" lon="8.091318">
        <time>1970-01-01T00:00:00+00:00</time>
        <ele>3138.0</ele>
      </trkpt>
      <trkpt lat="46.514827" lon="8.091226">
        <time>1970-01-01T00:00:00+00:00</time>
        <ele>3139.0</ele>
      </trkpt>
      <trkpt lat="46.514786" lon="8.091159">
        <time>1970-01-01T00:00:00+00:00</time>
        <ele>3141.0</ele>
      </trkpt>
      <trkpt lat="46.514867" lon="8.090756">
        <time>1970-01-01T00:00:00+00:00</time>
        <ele>3148.0</ele>
      </trkpt>
      <trkpt lat="46.516328" lon="8.090981">
        <time>1970-01-01T00:00:00+00:00</time>
        <ele>3134.0</ele>
      </trkpt>
      <trkpt lat="46.516381" lon="8.090923">
        <time>1970-01-01T00:00:00+00:00</time>
        <ele>3136.0</ele>
      </trkpt>
      <trkpt lat="46.514052" lon="8.089124">
        <time>1970-01-01T00:00:00+00:00</time>
        <ele>3187.0</ele>
      </trkpt>
      <trkpt lat="46.513043" lon="8.088875">
        <time>1970-01-01T00:00:00+00:00</time>
        <ele>3210.0</ele>
      </trkpt>
      <trkpt lat="46.513477" lon="8.089102">
        <time>1970-01-01T00:00:00+00:00</time>
        <ele>3196.0</ele>
      </trkpt>
      <trkpt lat="46.514268" lon="8.089101">
        <time>1970-01-01T00:00:00+00:00</time>
        <ele>3183.0</ele>
      </trkpt>
      <trkpt lat="46.516102" lon="8.089549">
        <time>1970-01-01T00:00:00+00:00</time>
        <ele>3165.0</ele>
      </trkpt>
      <trkpt lat="46.516167" lon="8.0895">
        <time>1970-01-01T00:00:00+00:00</time>
        <ele>3167.0</ele>
      </trkpt>
      <trkpt lat="46.515163" lon="8.088321">
        <time>1970-01-01T00:00:00+00:00</time>
        <ele>3186.0</ele>
      </trkpt>
      <trkpt lat="46.516207" lon="8.089016">
        <time>1970-01-01T00:00:00+00:00</time>
        <ele>3182.0</ele>
      </trkpt>
      <trkpt lat="46.515343" lon="8.08781">
        <time>1970-01-01T00:00:00+00:00</time>
        <ele>3194.0</ele>
      </trkpt>
      <trkpt lat="46.514798" lon="8.087175">
        <time>1970-01-01T00:00:00+00:00</time>
        <ele>3206.0</ele>
      </trkpt>
      <trkpt lat="46.516115" lon="8.08838">
        <time>1970-01-01T00:00:00+00:00</time>
        <ele>3194.0</ele>
      </trkpt>
      <trkpt lat="46.514709" lon="8.086346">
        <time>1970-01-01T00:00:00+00:00</time>
        <ele>3218.0</ele>
      </trkpt>
      <trkpt lat="46.51381" lon="8.085241">
        <time>1970-01-01T00:00:00+00:00</time>
        <ele>3243.0</ele>
      </trkpt>
      <trkpt lat="46.516033" lon="8.088035">
        <time>1970-01-01T00:00:00+00:00</time>
        <ele>3203.0</ele>
      </trkpt>
      <trkpt lat="46.515543" lon="8.087471">
        <time>1970-01-01T00:00:00+00:00</time>
        <ele>3203.0</ele>
      </trkpt>
      <trkpt lat="46.515054" lon="8.087069">
        <time>1970-01-01T00:00:00+00:00</time>
        <ele>3206.0</ele>
      </trkpt>
      <trkpt lat="46.515831" lon="8.087413">
        <time>1970-01-01T00:00:00+00:00</time>
        <ele>3214.0</ele>
      </trkpt>
      <trkpt lat="46.515993" lon="8.087662">
        <time>1970-01-01T00:00:00+00:00</time>
        <ele>3214.0</ele>
      </trkpt>
      <trkpt lat="46.514573" lon="8.085714">
        <time>1970-01-01T00:00:00+00:00</time>
        <ele>3232.0</ele>
      </trkpt>
      <trkpt lat="46.51361" lon="8.084521">
        <time>1970-01-01T00:00:00+00:00</time>
        <ele>3260.0</ele>
      </trkpt>
      <trkpt lat="46.514826" lon="8.086042">
        <time>1970-01-01T00:00:00+00:00</time>
        <ele>3225.0</ele>
      </trkpt>
      <trkpt lat="46.5163" lon="8.087665">
        <time>1970-01-01T00:00:00+00:00</time>
        <ele>3228.0</ele>
      </trkpt>
      <trkpt lat="46.515134" lon="8.08617">
        <time>1970-01-01T00:00:00+00:00</time>
        <ele>3224.0</ele>
      </trkpt>
      <trkpt lat="46.514619" lon="8.085604">
        <time>1970-01-01T00:00:00+00:00</time>
        <ele>3234.0</ele>
      </trkpt>
      <trkpt lat="46.515537" lon="8.086235">
        <time>1970-01-01T00:00:00+00:00</time>
        <ele>3230.0</ele>
      </trkpt>
      <trkpt lat="46.516046" lon="8.087022">
        <time>1970-01-01T00:00:00+00:00</time>
        <ele>3235.0</ele>
      </trkpt>
      <trkpt lat="46.515075" lon="8.086656">
        <time>1970-01-01T00:00:00+00:00</time>
        <ele>3213.0</ele>
      </trkpt>
      <trkpt lat="46.514564" lon="8.086384">
        <time>1970-01-01T00:00:00+00:00</time>
        <ele>3218.0</ele>
      </trkpt>
      <trkpt lat="46.51607" lon="8.086781">
        <time>1970-01-01T00:00:00+00:00</time>
        <ele>3243.0</ele>
      </trkpt>
      <trkpt lat="46.51632" lon="8.087027">
        <time>1970-01-01T00:00:00+00:00</time>
        <ele>3248.0</ele>
      </trkpt>
      <trkpt lat="46.515214" lon="8.086289">
        <time>1970-01-01T00:00:00+00:00</time>
        <ele>3223.0</ele>
      </trkpt>
      <trkpt lat="46.514327" lon="8.085843">
        <time>1970-01-01T00:00:00+00:00</time>
        <ele>3229.0</ele>
      </trkpt>
      <trkpt lat="46.513901" lon="8.08603">
        <time>1970-01-01T00:00:00+00:00</time>
        <ele>3228.0</ele>
      </trkpt>
      <trkpt lat="46.513823" lon="8.085919">
        <time>1970-01-01T00:00:00+00:00</time>
        <ele>3231.0</ele>
      </trkpt>
      <trkpt lat="46.513944" lon="8.085717">
        <time>1970-01-01T00:00:00+00:00</time>
        <ele>3234.0</ele>
      </trkpt>
      <trkpt lat="46.513921" lon="8.085625">
        <time>1970-01-01T00:00:00+00:00</time>
        <ele>3236.0</ele>
      </trkpt>
      <trkpt lat="46.51379" lon="8.085597">
        <time>1970-01-01T00:00:00+00:00</time>
        <ele>3238.0</ele>
      </trkpt>
      <trkpt lat="46.514186" lon="8.084327">
        <time>1970-01-01T00:00:00+00:00</time>
        <ele>3264.0</ele>
      </trkpt>
      <trkpt lat="46.514828" lon="8.082999">
        <time>1970-01-01T00:00:00+00:00</time>
        <ele>3305.0</ele>
      </trkpt>
      <trkpt lat="46.515891" lon="8.082996">
        <time>1970-01-01T00:00:00+00:00</time>
        <ele>3329.0</ele>
      </trkpt>
      <trkpt lat="46.515748" lon="8.08283">
        <time>1970-01-01T00:00:00+00:00</time>
        <ele>3336.0</ele>
      </trkpt>
      <trkpt lat="46.515402" lon="8.082708">
        <time>1970-01-01T00:00:00+00:00</time>
        <ele>3336.0</ele>
      </trkpt>
      <trkpt lat="46.515583" lon="8.082661">
        <time>1970-01-01T00:00:00+00:00</time>
        <ele>3342.0</ele>
      </trkpt>
      <trkpt lat="46.514762" lon="8.083098">
        <time>1970-01-01T00:00:00+00:00</time>
        <ele>3299.0</ele>
      </trkpt>
      <trkpt lat="46.515543" lon="8.085558">
        <time>1970-01-01T00:00:00+00:00</time>
        <ele>3252.0</ele>
      </trkpt>
      <trkpt lat="46.516078" lon="8.085766">
        <time>1970-01-01T00:00:00+00:00</time>
        <ele>3271.0</ele>
      </trkpt>
      <trkpt lat="46.515893" lon="8.085663">
        <time>1970-01-01T00:00:00+00:00</time>
        <ele>3263.0</ele>
      </trkpt>
      <trkpt lat="46.516626" lon="8.086175">
        <time>1970-01-01T00:00:00+00:00</time>
        <ele>3280.0</ele>
      </trkpt>
      <trkpt lat="46.515905" lon="8.086964">
        <time>1970-01-01T00:00:00+00:00</time>
        <ele>3229.0</ele>
      </trkpt>
      <trkpt lat="46.515585" lon="8.086291">
        <time>1970-01-01T00:00:00+00:00</time>
        <ele>3231.0</ele>
      </trkpt>
      <trkpt lat="46.515286" lon="8.086103">
        <time>1970-01-01T00:00:00+00:00</time>
        <ele>3229.0</ele>
      </trkpt>
      <trkpt lat="46.514792" lon="8.0861">
        <time>1970-01-01T00:00:00+00:00</time>
        <ele>3223.0</ele>
      </trkpt>
      <trkpt lat="46.514732" lon="8.086776">
        <time>1970-01-01T00:00:00+00:00</time>
        <ele>3212.0</ele>
      </trkpt>
      <trkpt lat="46.514797" lon="8.087734">
        <time>1970-01-01T00:00:00+00:00</time>
        <ele>3197.0</ele>
      </trkpt>
      <trkpt lat="46.514863" lon="8.087736">
        <time>1970-01-01T00:00:00+00:00</time>
        <ele>3197.0</ele>
      </trkpt>
      <trkpt lat="46.51449" lon="8.087336">
        <time>1970-01-01T00:00:00+00:00</time>
        <ele>3207.0</ele>
      </trkpt>
      <trkpt lat="46.514966" lon="8.087884">
        <time>1970-01-01T00:00:00+00:00</time>
        <ele>3194.0</ele>
      </trkpt>
      <trkpt lat="46.514892" lon="8.087723">
        <time>1970-01-01T00:00:00+00:00</time>
        <ele>3197.0</ele>
      </trkpt>
      <trkpt lat="46.515129" lon="8.087772">
        <time>1970-01-01T00:00:00+00:00</time>
        <ele>3196.0</ele>
      </trkpt>
      <trkpt lat="46.51503" lon="8.087588">
        <time>1970-01-01T00:00:00+00:00</time>
        <ele>3200.0</ele>
      </trkpt>
      <trkpt lat="46.515065" lon="8.087672">
        <time>1970-01-01T00:00:00+00:00</time>
        <ele>3198.0</ele>
      </trkpt>
      <trkpt lat="46.514942" lon="8.087041">
        <time>1970-01-01T00:00:00+00:00</time>
        <ele>3207.0</ele>
      </trkpt>
      <trkpt lat="46.514509" lon="8.085603">
        <time>1970-01-01T00:00:00+00:00</time>
        <ele>3233.0</ele>
      </trkpt>
      <trkpt lat="46.514851" lon="8.085322">
        <time>1970-01-01T00:00:00+00:00</time>
        <ele>3242.0</ele>
      </trkpt>
      <trkpt lat="46.514548" lon="8.085246">
        <time>1970-01-01T00:00:00+00:00</time>
        <ele>3239.0</ele>
      </trkpt>
      <trkpt lat="46.515155" lon="8.084626">
        <time>1970-01-01T00:00:00+00:00</time>
        <ele>3267.0</ele>
      </trkpt>
      <trkpt lat="46.515174" lon="8.08548">
        <time>1970-01-01T00:00:00+00:00</time>
        <ele>3245.0</ele>
      </trkpt>
      <trkpt lat="46.515079" lon="8.085343">
        <time>1970-01-01T00:00:00+00:00</time>
        <ele>3246.0</ele>
      </trkpt>
      <trkpt lat="46.515978" lon="8.085064">
        <time>1970-01-01T00:00:00+00:00</time>
        <ele>3281.0</ele>
      </trkpt>
      <trkpt lat="46.515603" lon="8.084738">
        <time>1970-01-01T00:00:00+00:00</time>
        <ele>3275.0</ele>
      </trkpt>
      <trkpt lat="46.514872" lon="8.084412">
        <time>1970-01-01T00:00:00+00:00</time>
        <ele>3268.0</ele>
      </trkpt>
      <trkpt lat="46.514226" lon="8.084449">
        <time>1970-01-01T00:00:00+00:00</time>
        <ele>3260.0</ele>
      </trkpt>
      <trkpt lat="46.513778" lon="8.08465">
        <time>1970-01-01T00:00:00+00:00</time>
        <ele>3255.0</ele>
      </trkpt>
      <trkpt lat="46.513847" lon="8.08468">
        <time>1970-01-01T00:00:00+00:00</time>
        <ele>3254.0</ele>
      </trkpt>
      <trkpt lat="46.514275" lon="8.085614">
        <time>1970-01-01T00:00:00+00:00</time>
        <ele>3233.0</ele>
      </trkpt>
      <trkpt lat="46.514834" lon="8.086956">
        <time>1970-01-01T00:00:00+00:00</time>
        <ele>3208.0</ele>
      </trkpt>
      <trkpt lat="46.513794" lon="8.085694">
        <time>1970-01-01T00:00:00+00:00</time>
        <ele>3236.0</ele>
      </trkpt>
      <trkpt lat="46.514556" lon="8.085017">
        <time>1970-01-01T00:00:00+00:00</time>
        <ele>3244.0</ele>
      </trkpt>
      <trkpt lat="46.514287" lon="8.084283">
        <time>1970-01-01T00:00:00+00:00</time>
        <ele>3264.0</ele>
      </trkpt>
      <trkpt lat="46.513362" lon="8.083056">
        <time>1970-01-01T00:00:00+00:00</time>
        <ele>3271.0</ele>
      </trkpt>
      <trkpt lat="46.513853" lon="8.08332">
        <time>1970-01-01T00:00:00+00:00</time>
        <ele>3272.0</ele>
      </trkpt>
      <trkpt lat="46.514072" lon="8.083316">
        <time>1970-01-01T00:00:00+00:00</time>
        <ele>3275.0</ele>
      </trkpt>
      <trkpt lat="46.513713" lon="8.084494">
        <time>1970-01-01T00:00:00+00:00</time>
        <ele>3259.0</ele>
      </trkpt>
      <trkpt lat="46.513792" lon="8.08455">
        <time>1970-01-01T00:00:00+00:00</time>
        <ele>3258.0</ele>
      </trkpt>
      <trkpt lat="46.513942" lon="8.084322">
        <time>1970-01-01T00:00:00+00:00</time>
        <ele>3264.0</ele>
      </trkpt>
      <trkpt lat="46.514044" lon="8.084268">
        <time>1970-01-01T00:00:00+00:00</time>
        <ele>3264.0</ele>
      </trkpt>
      <trkpt lat="46.513791" lon="8.084371">
        <time>1970-01-01T00:00:00+00:00</time>
        <ele>3262.0</ele>
      </trkpt>
      <trkpt lat="46.513846" lon="8.084428">
        <time>1970-01-01T00:00:00+00:00</time>
        <ele>3261.0</ele>
      </trkpt>
      <trkpt lat="46.514176" lon="8.083825">
        <time>1970-01-01T00:00:00+00:00</time>
        <ele>3270.0</ele>
      </trkpt>
      <trkpt lat="46.513406" lon="8.08332">
        <time>1970-01-01T00:00:00+00:00</time>
        <ele>3274.0</ele>
      </trkpt>
      <trkpt lat="46.51361" lon="8.083244">
        <time>1970-01-01T00:00:00+00:00</time>
        <ele>3271.0</ele>
      </trkpt>
      <trkpt lat="46.513707" lon="8.083427">
        <time>1970-01-01T00:00:00+00:00</time>
        <ele>3271.0</ele>
      </trkpt>
      <trkpt lat="46.5138" lon="8.083807">
        <time>1970-01-01T00:00:00+00:00</time>
        <ele>3269.0</ele>
      </trkpt>
      <trkpt lat="46.51395" lon="8.084066">
        <time>1970-01-01T00:00:00+00:00</time>
        <ele>3266.0</ele>
      </trkpt>
      <trkpt lat="46.514543" lon="8.084278">
        <time>1970-01-01T00:00:00+00:00</time>
        <ele>3267.0</ele>
      </trkpt>
      <trkpt lat="46.514839" lon="8.083634">
        <time>1970-01-01T00:00:00+00:00</time>
        <ele>3284.0</ele>
      </trkpt>
      <trkpt lat="46.513417" lon="8.081983">
        <time>1970-01-01T00:00:00+00:00</time>
        <ele>3251.0</ele>
      </trkpt>
      <trkpt lat="46.51262" lon="8.081262">
        <time>1970-01-01T00:00:00+00:00</time>
        <ele>3223.0</ele>
      </trkpt>
      <trkpt lat="46.511989" lon="8.078946">
        <time>1970-01-01T00:00:00+00:00</time>
        <ele>3142.0</ele>
      </trkpt>
      <trkpt lat="46.511788" lon="8.077976">
        <time>1970-01-01T00:00:00+00:00</time>
        <ele>3114.0</ele>
      </trkpt>
      <trkpt lat="46.511092" lon="8.076097">
        <time>1970-01-01T00:00:00+00:00</time>
        <ele>3080.0</ele>
      </trkpt>
      <trkpt lat="46.51083" lon="8.075224">
        <time>1970-01-01T00:00:00+00:00</time>
        <ele>3066.0</ele>
      </trkpt>
      <trkpt lat="46.511305" lon="8.076133">
        <time>1970-01-01T00:00:00+00:00</time>
        <ele>3088.0</ele>
      </trkpt>
      <trkpt lat="46.511041" lon="8.073971">
        <time>1970-01-01T00:00:00+00:00</time>
        <ele>3053.0</ele>
      </trkpt>
      <trkpt lat="46.51065" lon="8.06995">
        <time>1970-01-01T00:00:00+00:00</time>
        <ele>2965.0</ele>
      </trkpt>
      <trkpt lat="46.510327" lon="8.068315">
        <time>1970-01-01T00:00:00+00:00</time>
        <ele>2947.0</ele>
      </trkpt>
      <trkpt lat="46.509795" lon="8.066757">
        <time>1970-01-01T00:00:00+00:00</time>
        <ele>2926.0</ele>
      </trkpt>
      <trkpt lat="46.508628" lon="8.064138">
        <time>1970-01-01T00:00:00+00:00</time>
        <ele>2884.0</ele>
      </trkpt>
      <trkpt lat="46.507778" lon="8.062513">
        <time>1970-01-01T00:00:00+00:00</time>
        <ele>2867.0</ele>
      </trkpt>
      <trkpt lat="46.507817" lon="8.062002">
        <time>1970-01-01T00:00:00+00:00</time>
        <ele>2867.0</ele>
      </trkpt>
      <trkpt lat="46.507627" lon="8.061867">
        <time>1970-01-01T00:00:00+00:00</time>
        <ele>2864.0</ele>
      </trkpt>
      <trkpt lat="46.50513" lon="8.05851">
        <time>1970-01-01T00:00:00+00:00</time>
        <ele>2811.0</ele>
      </trkpt>
      <trkpt lat="46.504701" lon="8.057306">
        <time>1970-01-01T00:00:00+00:00</time>
        <ele>2802.0</ele>
      </trkpt>
      <trkpt lat="46.504433" lon="8.056859">
        <time>1970-01-01T00:00:00+00:00</time>
        <ele>2798.0</ele>
      </trkpt>
      <trkpt lat="46.503713" lon="8.055947">
        <time>1970-01-01T00:00:00+00:00</time>
        <ele>2793.0</ele>
      </trkpt>
      <trkpt lat="46.502594" lon="8.05324">
        <time>1970-01-01T00:00:00+00:00</time>
        <ele>2732.0</ele>
      </trkpt>
      <trkpt lat="46.501793" lon="8.052326">
        <time>1970-01-01T00:00:00+00:00</time>
        <ele>2736.0</ele>
      </trkpt>
      <trkpt lat="46.501622" lon="8.052374">
        <time>1970-01-01T00:00:00+00:00</time>
        <ele>2749.0</ele>
      </trkpt>
      <trkpt lat="46.501616" lon="8.051986">
        <time>1970-01-01T00:00:00+00:00</time>
        <ele>2729.0</ele>
      </trkpt>
      <trkpt lat="46.501401" lon="8.051837">
        <time>1970-01-01T00:00:00+00:00</time>
        <ele>2733.0</ele>
      </trkpt>
      <trkpt lat="46.501489" lon="8.05128">
        <time>1970-01-01T00:00:00+00:00</time>
        <ele>2722.0</ele>
      </trkpt>
      <trkpt lat="46.50163" lon="8.051376">
        <time>1970-01-01T00:00:00+00:00</time>
        <ele>2722.0</ele>
      </trkpt>
      <trkpt lat="46.501336" lon="8.051655">
        <time>1970-01-01T00:00:00+00:00</time>
        <ele>2731.0</ele>
      </trkpt>
      <trkpt lat="46.50123" lon="8.051341">
        <time>1970-01-01T00:00:00+00:00</time>
        <ele>2725.0</ele>
      </trkpt>
      <trkpt lat="46.501271" lon="8.051232">
        <time>1970-01-01T00:00:00+00:00</time>
        <ele>2721.0</ele>
      </trkpt>
      <trkpt lat="46.501234" lon="8.05126">
        <time>1970-01-01T00:00:00+00:00</time>
        <ele>2722.0</ele>
      </trkpt>
      <trkpt lat="46.500733" lon="8.051924">
        <time>1970-01-01T00:00:00+00:00</time>
        <ele>2747.0</ele>
      </trkpt>
      <trkpt lat="46.500967" lon="8.052107">
        <time>1970-01-01T00:00:00+00:00</time>
        <ele>2762.0</ele>
      </trkpt>
      <trkpt lat="46.500832" lon="8.051845">
        <time>1970-01-01T00:00:00+00:00</time>
        <ele>2744.0</ele>
      </trkpt>
      <trkpt lat="46.500228" lon="8.051891">
        <time>1970-01-01T00:00:00+00:00</time>
        <ele>2731.0</ele>
      </trkpt>
      <trkpt lat="46.499864" lon="8.051844">
        <time>1970-01-01T00:00:00+00:00</time>
        <ele>2716.0</ele>
      </trkpt>
      <trkpt lat="46.500024" lon="8.05163">
        <time>1970-01-01T00:00:00+00:00</time>
        <ele>2712.0</ele>
      </trkpt>
      <trkpt lat="46.499816" lon="8.050625">
        <time>1970-01-01T00:00:00+00:00</time>
        <ele>2683.0</ele>
      </trkpt>
      <trkpt lat="46.499427" lon="8.049564">
        <time>1970-01-01T00:00:00+00:00</time>
        <ele>2667.0</ele>
      </trkpt>
      <trkpt lat="46.499114" lon="8.048914">
        <time>1970-01-01T00:00:00+00:00</time>
        <ele>2664.0</ele>
      </trkpt>
      <trkpt lat="46.499012" lon="8.048801">
        <time>1970-01-01T00:00:00+00:00</time>
        <ele>2663.0</ele>
      </trkpt>
      <trkpt lat="46.499432" lon="8.049179">
        <time>1970-01-01T00:00:00+00:00</time>
        <ele>2668.0</ele>
      </trkpt>
      <trkpt lat="46.499326" lon="8.049093">
        <time>1970-01-01T00:00:00+00:00</time>
        <ele>2666.0</ele>
      </trkpt>
      <trkpt lat="46.500464" lon="8.050699">
        <time>1970-01-01T00:00:00+00:00</time>
        <ele>2695.0</ele>
      </trkpt>
      <trkpt lat="46.500922" lon="8.051498">
        <time>1970-01-01T00:00:00+00:00</time>
        <ele>2730.0</ele>
      </trkpt>
      <trkpt lat="46.500728" lon="8.051662">
        <time>1970-01-01T00:00:00+00:00</time>
        <ele>2733.0</ele>
      </trkpt>
      <trkpt lat="46.500641" lon="8.05166">
        <time>1970-01-01T00:00:00+00:00</time>
        <ele>2731.0</ele>
      </trkpt>
      <trkpt lat="46.500219" lon="8.051386">
        <time>1970-01-01T00:00:00+00:00</time>
        <ele>2710.0</ele>
      </trkpt>
      <trkpt lat="46.499419" lon="8.049449">
        <time>1970-01-01T00:00:00+00:00</time>
        <ele>2667.0</ele>
      </trkpt>
      <trkpt lat="46.499478" lon="8.049368">
        <time>1970-01-01T00:00:00+00:00</time>
        <ele>2668.0</ele>
      </trkpt>
      <trkpt lat="46.499494" lon="8.049722">
        <time>1970-01-01T00:00:00+00:00</time>
        <ele>2669.0</ele>
      </trkpt>
      <trkpt lat="46.499583" lon="8.049552">
        <time>1970-01-01T00:00:00+00:00</time>
        <ele>2671.0</ele>
      </trkpt>
      <trkpt lat="46.499471" lon="8.049617">
        <time>1970-01-01T00:00:00+00:00</time>
        <ele>2668.0</ele>
      </trkpt>
      <trkpt lat="46.499493" lon="8.04972">
        <time>1970-01-01T00:00:00+00:00</time>
        <ele>2669.0</ele>
      </trkpt>
      <trkpt lat="46.49946" lon="8.049663">
        <time>1970-01-01T00:00:00+00:00</time>
        <ele>2668.0</ele>
      </trkpt>
      <trkpt lat="46.500023" lon="8.050138">
        <time>1970-01-01T00:00:00+00:00</time>
        <ele>2682.0</ele>
      </trkpt>
      <trkpt lat="46.500477" lon="8.051383">
        <time>1970-01-01T00:00:00+00:00</time>
        <ele>2716.0</ele>
      </trkpt>
      <trkpt lat="46.50058" lon="8.051934">
        <time>1970-01-01T00:00:00+00:00</time>
        <ele>2743.0</ele>
      </trkpt>
      <trkpt lat="46.500643" lon="8.0519">
        <time>1970-01-01T00:00:00+00:00</time>
        <ele>2743.0</ele>
      </trkpt>
      <trkpt lat="46.500327" lon="8.051596">
        <time>1970-01-01T00:00:00+00:00</time>
        <ele>2721.0</ele>
      </trkpt>
      <trkpt lat="46.500332" lon="8.052062">
        <time>1970-01-01T00:00:00+00:00</time>
        <ele>2747.0</ele>
      </trkpt>
      <trkpt lat="46.500445" lon="8.051922">
        <time>1970-01-01T00:00:00+00:00</time>
        <ele>2739.0</ele>
      </trkpt>
      <trkpt lat="46.500436" lon="8.051984">
        <time>1970-01-01T00:00:00+00:00</time>
        <ele>2742.0</ele>
      </trkpt>
      <trkpt lat="46.500497" lon="8.052008">
        <time>1970-01-01T00:00:00+00:00</time>
        <ele>2746.0</ele>
      </trkpt>
      <trkpt lat="46.500523" lon="8.051876">
        <time>1970-01-01T00:00:00+00:00</time>
        <ele>2739.0</ele>
      </trkpt>
      <trkpt lat="46.500481" lon="8.051951">
        <time>1970-01-01T00:00:00+00:00</time>
        <ele>2742.0</ele>
      </trkpt>
      <trkpt lat="46.500486" lon="8.052274">
        <time>1970-01-01T00:00:00+00:00</time>
        <ele>2771.0</ele>
      </trkpt>
      <trkpt lat="46.500323" lon="8.052202">
        <time>1970-01-01T00:00:00+00:00</time>
        <ele>2760.0</ele>
      </trkpt>
      <trkpt lat="46.500312" lon="8.0524">
        <time>1970-01-01T00:00:00+00:00</time>
        <ele>2781.0</ele>
      </trkpt>
      <trkpt lat="46.500393" lon="8.052645">
        <time>1970-01-01T00:00:00+00:00</time>
        <ele>2808.0</ele>
      </trkpt>
      <trkpt lat="46.500297" lon="8.052592">
        <time>1970-01-01T00:00:00+00:00</time>
        <ele>2801.0</ele>
      </trkpt>
      <trkpt lat="46.500253" lon="8.052798">
        <time>1970-01-01T00:00:00+00:00</time>
        <ele>2817.0</ele>
      </trkpt>
      <trkpt lat="46.500279" lon="8.052868">
        <time>1970-01-01T00:00:00+00:00</time>
        <ele>2821.0</ele>
      </trkpt>
      <trkpt lat="46.500327" lon="8.052821">
        <time>1970-01-01T00:00:00+00:00</time>
        <ele>2821.0</ele>
      </trkpt>
      <trkpt lat="46.500376" lon="8.052868">
        <time>1970-01-01T00:00:00+00:00</time>
        <ele>2824.0</ele>
      </trkpt>
      <trkpt lat="46.500329" lon="8.052672">
        <time>1970-01-01T00:00:00+00:00</time>
        <ele>2809.0</ele>
      </trkpt>
      <trkpt lat="46.500704" lon="8.053086">
        <time>1970-01-01T00:00:00+00:00</time>
        <ele>2835.0</ele>
      </trkpt>
      <trkpt lat="46.500653" lon="8.053167">
        <time>1970-01-01T00:00:00+00:00</time>
        <ele>2838.0</ele>
      </trkpt>
      <trkpt lat="46.500591" lon="8.053069">
        <time>1970-01-01T00:00:00+00:00</time>
        <ele>2833.0</ele>
      </trkpt>
      <trkpt lat="46.502384" lon="8.044755">
        <time>1970-01-01T00:00:00+00:00</time>
        <ele>2691.0</ele>
      </trkpt>
      <trkpt lat="46.502412" lon="8.04381">
        <time>1970-01-01T00:00:00+00:00</time>
        <ele>2688.0</ele>
      </trkpt>
      <trkpt lat="46.500784" lon="8.035398">
        <time>1970-01-01T00:00:00+00:00</time>
        <ele>2689.0</ele>
      </trkpt>
      <trkpt lat="46.500099" lon="8.032464">
        <time>1970-01-01T00:00:00+00:00</time>
        <ele>2697.0</ele>
      </trkpt>
      <trkpt lat="46.499919" lon="8.031415">
        <time>1970-01-01T00:00:00+00:00</time>
        <ele>2698.0</ele>
      </trkpt>
      <trkpt lat="46.499977" lon="8.031441">
        <time>1970-01-01T00:00:00+00:00</time>
        <ele>2698.0</ele>
      </trkpt>
      <trkpt lat="46.499845" lon="8.031038">
        <time>1970-01-01T00:00:00+00:00</time>
        <ele>2699.0</ele>
      </trkpt>
      <trkpt lat="46.499371" lon="8.028906">
        <time>1970-01-01T00:00:00+00:00</time>
        <ele>2703.0</ele>
      </trkpt>
      <trkpt lat="46.498124" lon="8.022486">
        <time>1970-01-01T00:00:00+00:00</time>
        <ele>2737.0</ele>
      </trkpt>
      <trkpt lat="46.496886" lon="8.016782">
        <time>1970-01-01T00:00:00+00:00</time>
        <ele>2759.0</ele>
      </trkpt>
      <trkpt lat="46.496256" lon="8.013423">
        <time>1970-01-01T00:00:00+00:00</time>
        <ele>2770.0</ele>
      </trkpt>
      <trkpt lat="46.495769" lon="8.009472">
        <time>1970-01-01T00:00:00+00:00</time>
        <ele>2776.0</ele>
      </trkpt>
      <trkpt lat="46.495531" lon="8.006755">
        <time>1970-01-01T00:00:00+00:00</time>
        <ele>2788.0</ele>
      </trkpt>
      <trkpt lat="46.495522" lon="8.006302">
        <time>1970-01-01T00:00:00+00:00</time>
        <ele>2793.0</ele>
      </trkpt>
      <trkpt lat="46.495727" lon="8.003529">
        <time>1970-01-01T00:00:00+00:00</time>
        <ele>2826.0</ele>
      </trkpt>
      <trkpt lat="46.495453" lon="8.001931">
        <time>1970-01-01T00:00:00+00:00</time>
        <ele>2849.0</ele>
      </trkpt>
      <trkpt lat="46.495374" lon="8.001714">
        <time>1970-01-01T00:00:00+00:00</time>
        <ele>2852.0</ele>
      </trkpt>
      <trkpt lat="46.495288" lon="8.001692">
        <time>1970-01-01T00:00:00+00:00</time>
        <ele>2853.0</ele>
      </trkpt>
      <trkpt lat="46.495036" lon="8.001244">
        <time>1970-01-01T00:00:00+00:00</time>
        <ele>2859.0</ele>
      </trkpt>
      <trkpt lat="46.493922" lon="7.998293">
        <time>1970-01-01T00:00:00+00:00</time>
        <ele>2892.0</ele>
      </trkpt>
      <trkpt lat="46.493338" lon="7.997412">
        <time>1970-01-01T00:00:00+00:00</time>
        <ele>2895.0</ele>
      </trkpt>
      <trkpt lat="46.492541" lon="7.995401">
        <time>1970-01-01T00:00:00+00:00</time>
        <ele>2898.0</ele>
      </trkpt>
      <trkpt lat="46.491981" lon="7.994286">
        <time>1970-01-01T00:00:00+00:00</time>
        <ele>2901.0</ele>
      </trkpt>
      <trkpt lat="46.491782" lon="7.993702">
        <time>1970-01-01T00:00:00+00:00</time>
        <ele>2899.0</ele>
      </trkpt>
      <trkpt lat="46.491569" lon="7.992774">
        <time>1970-01-01T00:00:00+00:00</time>
        <ele>2895.0</ele>
      </trkpt>
      <trkpt lat="46.49108" lon="7.991362">
        <time>1970-01-01T00:00:00+00:00</time>
        <ele>2896.0</ele>
      </trkpt>
      <trkpt lat="46.490614" lon="7.990734">
        <time>1970-01-01T00:00:00+00:00</time>
        <ele>2902.0</ele>
      </trkpt>
      <trkpt lat="46.489783" lon="7.990081">
        <time>1970-01-01T00:00:00+00:00</time>
        <ele>2916.0</ele>
      </trkpt>
      <trkpt lat="46.489417" lon="7.989908">
        <time>1970-01-01T00:00:00+00:00</time>
        <ele>2921.0</ele>
      </trkpt>
      <trkpt lat="46.48892" lon="7.989235">
        <time>1970-01-01T00:00:00+00:00</time>
        <ele>2930.0</ele>
      </trkpt>
      <trkpt lat="46.48824" lon="7.98757">
        <time>1970-01-01T00:00:00+00:00</time>
        <ele>2952.0</ele>
      </trkpt>
      <trkpt lat="46.487662" lon="7.986608">
        <time>1970-01-01T00:00:00+00:00</time>
        <ele>2962.0</ele>
      </trkpt>
      <trkpt lat="46.487464" lon="7.98614">
        <time>1970-01-01T00:00:00+00:00</time>
        <ele>2965.0</ele>
      </trkpt>
      <trkpt lat="46.48744" lon="7.986175">
        <time>1970-01-01T00:00:00+00:00</time>
        <ele>2965.0</ele>
      </trkpt>
      <trkpt lat="46.487212" lon="7.985552">
        <time>1970-01-01T00:00:00+00:00</time>
        <ele>2969.0</ele>
      </trkpt>
      <trkpt lat="46.486325" lon="7.98394">
        <time>1970-01-01T00:00:00+00:00</time>
        <ele>2972.0</ele>
      </trkpt>
      <trkpt lat="46.485534" lon="7.982285">
        <time>1970-01-01T00:00:00+00:00</time>
        <ele>2976.0</ele>
      </trkpt>
      <trkpt lat="46.484323" lon="7.97892">
        <time>1970-01-01T00:00:00+00:00</time>
        <ele>2999.0</ele>
      </trkpt>
      <trkpt lat="46.483497" lon="7.977012">
        <time>1970-01-01T00:00:00+00:00</time>
        <ele>3026.0</ele>
      </trkpt>
      <trkpt lat="46.482233" lon="7.975049">
        <time>1970-01-01T00:00:00+00:00</time>
        <ele>3060.0</ele>
      </trkpt>
      <trkpt lat="46.481805" lon="7.974263">
        <time>1970-01-01T00:00:00+00:00</time>
        <ele>3067.0</ele>
      </trkpt>
      <trkpt lat="46.480954" lon="7.972279">
        <time>1970-01-01T00:00:00+00:00</time>
        <ele>3078.0</ele>
      </trkpt>
      <trkpt lat="46.480957" lon="7.972336">
        <time>1970-01-01T00:00:00+00:00</time>
        <ele>3078.0</ele>
      </trkpt>
      <trkpt lat="46.480102" lon="7.970559">
        <time>1970-01-01T00:00:00+00:00</time>
        <ele>3087.0</ele>
      </trkpt>
      <trkpt lat="46.479745" lon="7.969485">
        <time>1970-01-01T00:00:00+00:00</time>
        <ele>3092.0</ele>
      </trkpt>
      <trkpt lat="46.479489" lon="7.969065">
        <time>1970-01-01T00:00:00+00:00</time>
        <ele>3097.0</ele>
      </trkpt>
      <trkpt lat="46.478729" lon="7.968156">
        <time>1970-01-01T00:00:00+00:00</time>
        <ele>3114.0</ele>
      </trkpt>
      <trkpt lat="46.478526" lon="7.967612">
        <time>1970-01-01T00:00:00+00:00</time>
        <ele>3124.0</ele>
      </trkpt>
      <trkpt lat="46.478418" lon="7.967497">
        <time>1970-01-01T00:00:00+00:00</time>
        <ele>3125.0</ele>
      </trkpt>
      <trkpt lat="46.477873" lon="7.966388">
        <time>1970-01-01T00:00:00+00:00</time>
        <ele>3150.0</ele>
      </trkpt>
      <trkpt lat="46.477183" lon="7.965158">
        <time>1970-01-01T00:00:00+00:00</time>
        <ele>3162.0</ele>
      </trkpt>
      <trkpt lat="46.476604" lon="7.963663">
        <time>1970-01-01T00:00:00+00:00</time>
        <ele>3188.0</ele>
      </trkpt>
      <trkpt lat="46.476378" lon="7.962944">
        <time>1970-01-01T00:00:00+00:00</time>
        <ele>3201.0</ele>
      </trkpt>
      <trkpt lat="46.47622" lon="7.961853">
        <time>1970-01-01T00:00:00+00:00</time>
        <ele>3222.0</ele>
      </trkpt>
      <trkpt lat="46.475912" lon="7.960541">
        <time>1970-01-01T00:00:00+00:00</time>
        <ele>3242.0</ele>
      </trkpt>
      <trkpt lat="46.475798" lon="7.960367">
        <time>1970-01-01T00:00:00+00:00</time>
        <ele>3241.0</ele>
      </trkpt>
      <trkpt lat="46.475497" lon="7.96011">
        <time>1970-01-01T00:00:00+00:00</time>
        <ele>3226.0</ele>
      </trkpt>
      <trkpt lat="46.475871" lon="7.959942">
        <time>1970-01-01T00:00:00+00:00</time>
        <ele>3261.0</ele>
      </trkpt>
      <trkpt lat="46.475988" lon="7.960074">
        <time>1970-01-01T00:00:00+00:00</time>
        <ele>3263.0</ele>
      </trkpt>
      <trkpt lat="46.476448" lon="7.960284">
        <time>1970-01-01T00:00:00+00:00</time>
        <ele>3269.0</ele>
      </trkpt>
      <trkpt lat="46.476691" lon="7.960123">
        <time>1970-01-01T00:00:00+00:00</time>
        <ele>3279.0</ele>
      </trkpt>
      <trkpt lat="46.476717" lon="7.959942">
        <time>1970-01-01T00:00:00+00:00</time>
        <ele>3286.0</ele>
      </trkpt>
      <trkpt lat="46.476296" lon="7.959345">
        <time>1970-01-01T00:00:00+00:00</time>
        <ele>3305.0</ele>
      </trkpt>
      <trkpt lat="46.476252" lon="7.959174">
        <time>1970-01-01T00:00:00+00:00</time>
        <ele>3312.0</ele>
      </trkpt>
      <trkpt lat="46.476282" lon="7.95912">
        <time>1970-01-01T00:00:00+00:00</time>
        <ele>3316.0</ele>
      </trkpt>
      <trkpt lat="46.476502" lon="7.958895">
        <time>1970-01-01T00:00:00+00:00</time>
        <ele>3334.0</ele>
      </trkpt>
      <trkpt lat="46.477521" lon="7.958233">
        <time>1970-01-01T00:00:00+00:00</time>
        <ele>3338.0</ele>
      </trkpt>
      <trkpt lat="46.477988" lon="7.957509">
        <time>1970-01-01T00:00:00+00:00</time>
        <ele>3345.0</ele>
      </trkpt>
      <trkpt lat="46.478198" lon="7.957309">
        <time>1970-01-01T00:00:00+00:00</time>
        <ele>3347.0</ele>
      </trkpt>
      <trkpt lat="46.47861" lon="7.956707">
        <time>1970-01-01T00:00:00+00:00</time>
        <ele>3363.0</ele>
      </trkpt>
      <trkpt lat="46.479399" lon="7.956158">
        <time>1970-01-01T00:00:00+00:00</time>
        <ele>3367.0</ele>
      </trkpt>
      <trkpt lat="46.479574" lon="7.955972">
        <time>1970-01-01T00:00:00+00:00</time>
        <ele>3370.0</ele>
      </trkpt>
      <trkpt lat="46.481323" lon="7.953269">
        <time>1970-01-01T00:00:00+00:00</time>
        <ele>3412.0</ele>
      </trkpt>
      <trkpt lat="46.481595" lon="7.952751">
        <time>1970-01-01T00:00:00+00:00</time>
        <ele>3418.0</ele>
      </trkpt>
      <trkpt lat="46.482079" lon="7.952133">
        <time>1970-01-01T00:00:00+00:00</time>
        <ele>3424.0</ele>
      </trkpt>
      <trkpt lat="46.481294" lon="7.953025">
        <time>1970-01-01T00:00:00+00:00</time>
        <ele>3415.0</ele>
      </trkpt>
      <trkpt lat="46.480258" lon="7.954501">
        <time>1970-01-01T00:00:00+00:00</time>
        <ele>3395.0</ele>
      </trkpt>
      <trkpt lat="46.479859" lon="7.955236">
        <time>1970-01-01T00:00:00+00:00</time>
        <ele>3385.0</ele>
      </trkpt>
      <trkpt lat="46.479384" lon="7.955955">
        <time>1970-01-01T00:00:00+00:00</time>
        <ele>3371.0</ele>
      </trkpt>
      <trkpt lat="46.477526" lon="7.958016">
        <time>1970-01-01T00:00:00+00:00</time>
        <ele>3345.0</ele>
      </trkpt>
      <trkpt lat="46.47664" lon="7.958708">
        <time>1970-01-01T00:00:00+00:00</time>
        <ele>3348.0</ele>
      </trkpt>
      <trkpt lat="46.47643" lon="7.958954">
        <time>1970-01-01T00:00:00+00:00</time>
        <ele>3329.0</ele>
      </trkpt>
      <trkpt lat="46.476218" lon="7.959369">
        <time>1970-01-01T00:00:00+00:00</time>
        <ele>3302.0</ele>
      </trkpt>
      <trkpt lat="46.47622" lon="7.959873">
        <time>1970-01-01T00:00:00+00:00</time>
        <ele>3282.0</ele>
      </trkpt>
      <trkpt lat="46.475862" lon="7.959839">
        <time>1970-01-01T00:00:00+00:00</time>
        <ele>3264.0</ele>
      </trkpt>
      <trkpt lat="46.47567" lon="7.959998">
        <time>1970-01-01T00:00:00+00:00</time>
        <ele>3247.0</ele>
      </trkpt>
      <trkpt lat="46.475843" lon="7.960381">
        <time>1970-01-01T00:00:00+00:00</time>
        <ele>3243.0</ele>
      </trkpt>
      <trkpt lat="46.475828" lon="7.961171">
        <time>1970-01-01T00:00:00+00:00</time>
        <ele>3220.0</ele>
      </trkpt>
      <trkpt lat="46.475903" lon="7.961921">
        <time>1970-01-01T00:00:00+00:00</time>
        <ele>3206.0</ele>
      </trkpt>
      <trkpt lat="46.476038" lon="7.962604">
        <time>1970-01-01T00:00:00+00:00</time>
        <ele>3197.0</ele>
      </trkpt>
      <trkpt lat="46.47556" lon="7.962993">
        <time>1970-01-01T00:00:00+00:00</time>
        <ele>3172.0</ele>
      </trkpt>
      <trkpt lat="46.474859" lon="7.96283">
        <time>1970-01-01T00:00:00+00:00</time>
        <ele>3146.0</ele>
      </trkpt>
      <trkpt lat="46.474714" lon="7.962564">
        <time>1970-01-01T00:00:00+00:00</time>
        <ele>3137.0</ele>
      </trkpt>
      <trkpt lat="46.474631" lon="7.962533">
        <time>1970-01-01T00:00:00+00:00</time>
        <ele>3134.0</ele>
      </trkpt>
      <trkpt lat="46.47414" lon="7.961659">
        <time>1970-01-01T00:00:00+00:00</time>
        <ele>3103.0</ele>
      </trkpt>
      <trkpt lat="46.473811" lon="7.960058">
        <time>1970-01-01T00:00:00+00:00</time>
        <ele>3078.0</ele>
      </trkpt>
      <trkpt lat="46.473618" lon="7.959399">
        <time>1970-01-01T00:00:00+00:00</time>
        <ele>3072.0</ele>
      </trkpt>
      <trkpt lat="46.473394" lon="7.960073">
        <time>1970-01-01T00:00:00+00:00</time>
        <ele>3060.0</ele>
      </trkpt>
      <trkpt lat="46.472664" lon="7.959844">
        <time>1970-01-01T00:00:00+00:00</time>
        <ele>3034.0</ele>
      </trkpt>
      <trkpt lat="46.470398" lon="7.956977">
        <time>1970-01-01T00:00:00+00:00</time>
        <ele>2976.0</ele>
      </trkpt>
      <trkpt lat="46.470449" lon="7.956585">
        <time>1970-01-01T00:00:00+00:00</time>
        <ele>2964.0</ele>
      </trkpt>
      <trkpt lat="46.47035" lon="7.955909">
        <time>1970-01-01T00:00:00+00:00</time>
        <ele>2947.0</ele>
      </trkpt>
      <trkpt lat="46.470395" lon="7.955809">
        <time>1970-01-01T00:00:00+00:00</time>
        <ele>2946.0</ele>
      </trkpt>
      <trkpt lat="46.47032" lon="7.955077">
        <time>1970-01-01T00:00:00+00:00</time>
        <ele>2920.0</ele>
      </trkpt>
      <trkpt lat="46.469708" lon="7.952959">
        <time>1970-01-01T00:00:00+00:00</time>
        <ele>2856.0</ele>
      </trkpt>
      <trkpt lat="46.468874" lon="7.950808">
        <time>1970-01-01T00:00:00+00:00</time>
        <ele>2846.0</ele>
      </trkpt>
      <trkpt lat="46.467925" lon="7.949477">
        <time>1970-01-01T00:00:00+00:00</time>
        <ele>2829.0</ele>
      </trkpt>
      <trkpt lat="46.467014" lon="7.948569">
        <time>1970-01-01T00:00:00+00:00</time>
        <ele>2813.0</ele>
      </trkpt>
      <trkpt lat="46.465367" lon="7.947103">
        <time>1970-01-01T00:00:00+00:00</time>
        <ele>2772.0</ele>
      </trkpt>
      <trkpt lat="46.46529" lon="7.946755">
        <time>1970-01-01T00:00:00+00:00</time>
        <ele>2766.0</ele>
      </trkpt>
      <trkpt lat="46.464964" lon="7.946017">
        <time>1970-01-01T00:00:00+00:00</time>
        <ele>2751.0</ele>
      </trkpt>
      <trkpt lat="46.464748" lon="7.945256">
        <time>1970-01-01T00:00:00+00:00</time>
        <ele>2737.0</ele>
      </trkpt>
      <trkpt lat="46.464413" lon="7.944485">
        <time>1970-01-01T00:00:00+00:00</time>
        <ele>2719.0</ele>
      </trkpt>
      <trkpt lat="46.464079" lon="7.94394">
        <time>1970-01-01T00:00:00+00:00</time>
        <ele>2705.0</ele>
      </trkpt>
      <trkpt lat="46.463596" lon="7.943534">
        <time>1970-01-01T00:00:00+00:00</time>
        <ele>2694.0</ele>
      </trkpt>
      <trkpt lat="46.463414" lon="7.943471">
        <time>1970-01-01T00:00:00+00:00</time>
        <ele>2692.0</ele>
      </trkpt>
      <trkpt lat="46.46211" lon="7.941085">
        <time>1970-01-01T00:00:00+00:00</time>
        <ele>2642.0</ele>
      </trkpt>
      <trkpt lat="46.461911" lon="7.94043">
        <time>1970-01-01T00:00:00+00:00</time>
        <ele>2632.0</ele>
      </trkpt>
      <trkpt lat="46.461678" lon="7.939874">
        <time>1970-01-01T00:00:00+00:00</time>
        <ele>2621.0</ele>
      </trkpt>
      <trkpt lat="46.461461" lon="7.939656">
        <time>1970-01-01T00:00:00+00:00</time>
        <ele>2612.0</ele>
      </trkpt>
      <trkpt lat="46.46132" lon="7.938953">
        <time>1970-01-01T00:00:00+00:00</time>
        <ele>2594.0</ele>
      </trkpt>
      <trkpt lat="46.461314" lon="7.937899">
        <time>1970-01-01T00:00:00+00:00</time>
        <ele>2580.0</ele>
      </trkpt>
      <trkpt lat="46.461142" lon="7.937225">
        <time>1970-01-01T00:00:00+00:00</time>
        <ele>2568.0</ele>
      </trkpt>
      <trkpt lat="46.460484" lon="7.935897">
        <time>1970-01-01T00:00:00+00:00</time>
        <ele>2545.0</ele>
      </trkpt>
      <trkpt lat="46.460042" lon="7.934768">
        <time>1970-01-01T00:00:00+00:00</time>
        <ele>2521.0</ele>
      </trkpt>
      <trkpt lat="46.459256" lon="7.933434">
        <time>1970-01-01T00:00:00+00:00</time>
        <ele>2492.0</ele>
      </trkpt>
      <trkpt lat="46.45882" lon="7.933066">
        <time>1970-01-01T00:00:00+00:00</time>
        <ele>2483.0</ele>
      </trkpt>
      <trkpt lat="46.458409" lon="7.93295">
        <time>1970-01-01T00:00:00+00:00</time>
        <ele>2482.0</ele>
      </trkpt>
      <trkpt lat="46.458232" lon="7.932231">
        <time>1970-01-01T00:00:00+00:00</time>
        <ele>2475.0</ele>
      </trkpt>
      <trkpt lat="46.457903" lon="7.931434">
        <time>1970-01-01T00:00:00+00:00</time>
        <ele>2465.0</ele>
      </trkpt>
      <trkpt lat="46.457273" lon="7.930665">
        <time>1970-01-01T00:00:00+00:00</time>
        <ele>2448.0</ele>
      </trkpt>
      <trkpt lat="46.456958" lon="7.930387">
        <time>1970-01-01T00:00:00+00:00</time>
        <ele>2440.0</ele>
      </trkpt>
      <trkpt lat="46.456478" lon="7.929738">
        <time>1970-01-01T00:00:00+00:00</time>
        <ele>2429.0</ele>
      </trkpt>
      <trkpt lat="46.4561" lon="7.929041">
        <time>1970-01-01T00:00:00+00:00</time>
        <ele>2418.0</ele>
      </trkpt>
      <trkpt lat="46.456049" lon="7.928208">
        <time>1970-01-01T00:00:00+00:00</time>
        <ele>2413.0</ele>
      </trkpt>
      <trkpt lat="46.456076" lon="7.927804">
        <time>1970-01-01T00:00:00+00:00</time>
        <ele>2407.0</ele>
      </trkpt>
      <trkpt lat="46.455939" lon="7.927401">
        <time>1970-01-01T00:00:00+00:00</time>
        <ele>2400.0</ele>
      </trkpt>
      <trkpt lat="46.455781" lon="7.927197">
        <time>1970-01-01T00:00:00+00:00</time>
        <ele>2394.0</ele>
      </trkpt>
      <trkpt lat="46.45553" lon="7.927223">
        <time>1970-01-01T00:00:00+00:00</time>
        <ele>2391.0</ele>
      </trkpt>
      <trkpt lat="46.45539" lon="7.927069">
        <time>1970-01-01T00:00:00+00:00</time>
        <ele>2388.0</ele>
      </trkpt>
      <trkpt lat="46.455229" lon="7.926677">
        <time>1970-01-01T00:00:00+00:00</time>
        <ele>2381.0</ele>
      </trkpt>
      <trkpt lat="46.454919" lon="7.926372">
        <time>1970-01-01T00:00:00+00:00</time>
        <ele>2372.0</ele>
      </trkpt>
      <trkpt lat="46.454745" lon="7.925949">
        <time>1970-01-01T00:00:00+00:00</time>
        <ele>2365.0</ele>
      </trkpt>
      <trkpt lat="46.454386" lon="7.92547">
        <time>1970-01-01T00:00:00+00:00</time>
        <ele>2354.0</ele>
      </trkpt>
      <trkpt lat="46.454336" lon="7.924609">
        <time>1970-01-01T00:00:00+00:00</time>
        <ele>2344.0</ele>
      </trkpt>
      <trkpt lat="46.453763" lon="7.922969">
        <time>1970-01-01T00:00:00+00:00</time>
        <ele>2326.0</ele>
      </trkpt>
      <trkpt lat="46.453834" lon="7.9227">
        <time>1970-01-01T00:00:00+00:00</time>
        <ele>2324.0</ele>
      </trkpt>
      <trkpt lat="46.453811" lon="7.921547">
        <time>1970-01-01T00:00:00+00:00</time>
        <ele>2315.0</ele>
      </trkpt>
      <trkpt lat="46.453698" lon="7.920276">
        <time>1970-01-01T00:00:00+00:00</time>
        <ele>2299.0</ele>
      </trkpt>
      <trkpt lat="46.453528" lon="7.919568">
        <time>1970-01-01T00:00:00+00:00</time>
        <ele>2285.0</ele>
      </trkpt>
      <trkpt lat="46.452685" lon="7.917808">
        <time>1970-01-01T00:00:00+00:00</time>
        <ele>2251.0</ele>
      </trkpt>
      <trkpt lat="46.45238" lon="7.916943">
        <time>1970-01-01T00:00:00+00:00</time>
        <ele>2235.0</ele>
      </trkpt>
      <trkpt lat="46.452005" lon="7.916136">
        <time>1970-01-01T00:00:00+00:00</time>
        <ele>2219.0</ele>
      </trkpt>
      <trkpt lat="46.451461" lon="7.915441">
        <time>1970-01-01T00:00:00+00:00</time>
        <ele>2199.0</ele>
      </trkpt>
      <trkpt lat="46.450569" lon="7.914599">
        <time>1970-01-01T00:00:00+00:00</time>
        <ele>2176.0</ele>
      </trkpt>
      <trkpt lat="46.450193" lon="7.91406">
        <time>1970-01-01T00:00:00+00:00</time>
        <ele>2164.0</ele>
      </trkpt>
      <trkpt lat="46.449666" lon="7.913797">
        <time>1970-01-01T00:00:00+00:00</time>
        <ele>2164.0</ele>
      </trkpt>
      <trkpt lat="46.449305" lon="7.913175">
        <time>1970-01-01T00:00:00+00:00</time>
        <ele>2153.0</ele>
      </trkpt>
      <trkpt lat="46.448688" lon="7.911671">
        <time>1970-01-01T00:00:00+00:00</time>
        <ele>2127.0</ele>
      </trkpt>
      <trkpt lat="46.448251" lon="7.909955">
        <time>1970-01-01T00:00:00+00:00</time>
        <ele>2093.0</ele>
      </trkpt>
      <trkpt lat="46.447815" lon="7.90891">
        <time>1970-01-01T00:00:00+00:00</time>
        <ele>2082.0</ele>
      </trkpt>
      <trkpt lat="46.44739" lon="7.907703">
        <time>1970-01-01T00:00:00+00:00</time>
        <ele>2071.0</ele>
      </trkpt>
      <trkpt lat="46.446598" lon="7.905203">
        <time>1970-01-01T00:00:00+00:00</time>
        <ele>2043.0</ele>
      </trkpt>
      <trkpt lat="46.446157" lon="7.902957">
        <time>1970-01-01T00:00:00+00:00</time>
        <ele>2018.0</ele>
      </trkpt>
      <trkpt lat="46.445858" lon="7.902056">
        <time>1970-01-01T00:00:00+00:00</time>
        <ele>2005.0</ele>
      </trkpt>
      <trkpt lat="46.445253" lon="7.900846">
        <time>1970-01-01T00:00:00+00:00</time>
        <ele>1993.0</ele>
      </trkpt>
      <trkpt lat="46.444999" lon="7.89995">
        <time>1970-01-01T00:00:00+00:00</time>
        <ele>1989.0</ele>
      </trkpt>
      <trkpt lat="46.444822" lon="7.898568">
        <time>1970-01-01T00:00:00+00:00</time>
        <ele>1982.0</ele>
      </trkpt>
      <trkpt lat="46.444528" lon="7.897992">
        <time>1970-01-01T00:00:00+00:00</time>
        <ele>1979.0</ele>
      </trkpt>
      <trkpt lat="46.444225" lon="7.897584">
        <time>1970-01-01T00:00:00+00:00</time>
        <ele>1975.0</ele>
      </trkpt>
      <trkpt lat="46.443969" lon="7.896831">
        <time>1970-01-01T00:00:00+00:00</time>
        <ele>1972.0</ele>
      </trkpt>
      <trkpt lat="46.443817" lon="7.89578">
        <time>1970-01-01T00:00:00+00:00</time>
        <ele>1968.0</ele>
      </trkpt>
      <trkpt lat="46.443456" lon="7.894202">
        <time>1970-01-01T00:00:00+00:00</time>
        <ele>1962.0</ele>
      </trkpt>
      <trkpt lat="46.443225" lon="7.893615">
        <time>1970-01-01T00:00:00+00:00</time>
        <ele>1952.0</ele>
      </trkpt>
      <trkpt lat="46.442911" lon="7.893238">
        <time>1970-01-01T00:00:00+00:00</time>
        <ele>1950.0</ele>
      </trkpt>
      <trkpt lat="46.442616" lon="7.891223">
        <time>1970-01-01T00:00:00+00:00</time>
        <ele>1939.0</ele>
      </trkpt>
      <trkpt lat="46.442306" lon="7.890079">
        <time>1970-01-01T00:00:00+00:00</time>
        <ele>1928.0</ele>
      </trkpt>
      <trkpt lat="46.441805" lon="7.888597">
        <time>1970-01-01T00:00:00+00:00</time>
        <ele>1921.0</ele>
      </trkpt>
      <trkpt lat="46.441738" lon="7.888251">
        <time>1970-01-01T00:00:00+00:00</time>
        <ele>1917.0</ele>
      </trkpt>
      <trkpt lat="46.441407" lon="7.887837">
        <time>1970-01-01T00:00:00+00:00</time>
        <ele>1913.0</ele>
      </trkpt>
      <trkpt lat="46.441123" lon="7.887163">
        <time>1970-01-01T00:00:00+00:00</time>
        <ele>1911.0</ele>
      </trkpt>
      <trkpt lat="46.440301" lon="7.884813">
        <time>1970-01-01T00:00:00+00:00</time>
        <ele>1895.0</ele>
      </trkpt>
      <trkpt lat="46.440108" lon="7.883874">
        <time>1970-01-01T00:00:00+00:00</time>
        <ele>1886.0</ele>
      </trkpt>
      <trkpt lat="46.439838" lon="7.880799">
        <time>1970-01-01T00:00:00+00:00</time>
        <ele>1861.0</ele>
      </trkpt>
      <trkpt lat="46.439513" lon="7.879917">
        <time>1970-01-01T00:00:00+00:00</time>
        <ele>1856.0</ele>
      </trkpt>
      <trkpt lat="46.439288" lon="7.879488">
        <time>1970-01-01T00:00:00+00:00</time>
        <ele>1855.0</ele>
      </trkpt>
      <trkpt lat="46.43848" lon="7.876919">
        <time>1970-01-01T00:00:00+00:00</time>
        <ele>1846.0</ele>
      </trkpt>
      <trkpt lat="46.437564" lon="7.874564">
        <time>1970-01-01T00:00:00+00:00</time>
        <ele>1842.0</ele>
      </trkpt>
      <trkpt lat="46.437503" lon="7.874198">
        <time>1970-01-01T00:00:00+00:00</time>
        <ele>1839.0</ele>
      </trkpt>
      <trkpt lat="46.437283" lon="7.87374">
        <time>1970-01-01T00:00:00+00:00</time>
        <ele>1838.0</ele>
      </trkpt>
      <trkpt lat="46.437241" lon="7.87222">
        <time>1970-01-01T00:00:00+00:00</time>
        <ele>1825.0</ele>
      </trkpt>
      <trkpt lat="46.437072" lon="7.871502">
        <time>1970-01-01T00:00:00+00:00</time>
        <ele>1820.0</ele>
      </trkpt>
      <trkpt lat="46.436502" lon="7.869642">
        <time>1970-01-01T00:00:00+00:00</time>
        <ele>1803.0</ele>
      </trkpt>
      <trkpt lat="46.436048" lon="7.868691">
        <time>1970-01-01T00:00:00+00:00</time>
        <ele>1795.0</ele>
      </trkpt>
      <trkpt lat="46.435527" lon="7.866957">
        <time>1970-01-01T00:00:00+00:00</time>
        <ele>1781.0</ele>
      </trkpt>
      <trkpt lat="46.435283" lon="7.86645">
        <time>1970-01-01T00:00:00+00:00</time>
        <ele>1776.0</ele>
      </trkpt>
      <trkpt lat="46.435029" lon="7.865481">
        <time>1970-01-01T00:00:00+00:00</time>
        <ele>1770.0</ele>
      </trkpt>
      <trkpt lat="46.435223" lon="7.864685">
        <time>1970-01-01T00:00:00+00:00</time>
        <ele>1771.0</ele>
      </trkpt>
      <trkpt lat="46.434509" lon="7.862386">
        <time>1970-01-01T00:00:00+00:00</time>
        <ele>1766.0</ele>
      </trkpt>
      <trkpt lat="46.434236" lon="7.861254">
        <time>1970-01-01T00:00:00+00:00</time>
        <ele>1765.0</ele>
      </trkpt>
      <trkpt lat="46.434155" lon="7.860648">
        <time>1970-01-01T00:00:00+00:00</time>
        <ele>1769.0</ele>
      </trkpt>
      <trkpt lat="46.433751" lon="7.859272">
        <time>1970-01-01T00:00:00+00:00</time>
        <ele>1770.0</ele>
      </trkpt>
      <trkpt lat="46.433636" lon="7.858535">
        <time>1970-01-01T00:00:00+00:00</time>
        <ele>1781.0</ele>
      </trkpt>
      <trkpt lat="46.433144" lon="7.857827">
        <time>1970-01-01T00:00:00+00:00</time>
        <ele>1770.0</ele>
      </trkpt>
      <trkpt lat="46.432895" lon="7.856914">
        <time>1970-01-01T00:00:00+00:00</time>
        <ele>1760.0</ele>
      </trkpt>
      <trkpt lat="46.432978" lon="7.856493">
        <time>1970-01-01T00:00:00+00:00</time>
        <ele>1752.0</ele>
      </trkpt>
      <trkpt lat="46.433384" lon="7.8562">
        <time>1970-01-01T00:00:00+00:00</time>
        <ele>1759.0</ele>
      </trkpt>
      <trkpt lat="46.433241" lon="7.85543">
        <time>1970-01-01T00:00:00+00:00</time>
        <ele>1752.0</ele>
      </trkpt>
      <trkpt lat="46.43273" lon="7.854267">
        <time>1970-01-01T00:00:00+00:00</time>
        <ele>1744.0</ele>
      </trkpt>
      <trkpt lat="46.431853" lon="7.852801">
        <time>1970-01-01T00:00:00+00:00</time>
        <ele>1723.0</ele>
      </trkpt>
      <trkpt lat="46.432359" lon="7.851754">
        <time>1970-01-01T00:00:00+00:00</time>
        <ele>1717.0</ele>
      </trkpt>
      <trkpt lat="46.432151" lon="7.850547">
        <time>1970-01-01T00:00:00+00:00</time>
        <ele>1699.0</ele>
      </trkpt>
      <trkpt lat="46.432191" lon="7.849985">
        <time>1970-01-01T00:00:00+00:00</time>
        <ele>1695.0</ele>
      </trkpt>
      <trkpt lat="46.43195" lon="7.850501">
        <time>1970-01-01T00:00:00+00:00</time>
        <ele>1691.0</ele>
      </trkpt>
      <trkpt lat="46.43157" lon="7.85101">
        <time>1970-01-01T00:00:00+00:00</time>
        <ele>1691.0</ele>
      </trkpt>
      <trkpt lat="46.430935" lon="7.850969">
        <time>1970-01-01T00:00:00+00:00</time>
        <ele>1684.0</ele>
      </trkpt>
      <trkpt lat="46.430877" lon="7.849842">
        <time>1970-01-01T00:00:00+00:00</time>
        <ele>1675.0</ele>
      </trkpt>
      <trkpt lat="46.43109" lon="7.848703">
        <time>1970-01-01T00:00:00+00:00</time>
        <ele>1666.0</ele>
      </trkpt>
      <trkpt lat="46.43072" lon="7.847904">
        <time>1970-01-01T00:00:00+00:00</time>
        <ele>1665.0</ele>
      </trkpt>
      <trkpt lat="46.430215" lon="7.847967">
        <time>1970-01-01T00:00:00+00:00</time>
        <ele>1653.0</ele>
      </trkpt>
      <trkpt lat="46.429709" lon="7.847387">
        <time>1970-01-01T00:00:00+00:00</time>
        <ele>1648.0</ele>
      </trkpt>
      <trkpt lat="46.429469" lon="7.845232">
        <time>1970-01-01T00:00:00+00:00</time>
        <ele>1641.0</ele>
      </trkpt>
      <trkpt lat="46.429245" lon="7.84432">
        <time>1970-01-01T00:00:00+00:00</time>
        <ele>1636.0</ele>
      </trkpt>
      <trkpt lat="46.428993" lon="7.843684">
        <time>1970-01-01T00:00:00+00:00</time>
        <ele>1631.0</ele>
      </trkpt>
      <trkpt lat="46.428498" lon="7.842723">
        <time>1970-01-01T00:00:00+00:00</time>
        <ele>1624.0</ele>
      </trkpt>
      <trkpt lat="46.428034" lon="7.841201">
        <time>1970-01-01T00:00:00+00:00</time>
        <ele>1617.0</ele>
      </trkpt>
      <trkpt lat="46.427686" lon="7.839606">
        <time>1970-01-01T00:00:00+00:00</time>
        <ele>1606.0</ele>
      </trkpt>
      <trkpt lat="46.42665" lon="7.837763">
        <time>1970-01-01T00:00:00+00:00</time>
        <ele>1601.0</ele>
      </trkpt>
      <trkpt lat="46.426512" lon="7.83736">
        <time>1970-01-01T00:00:00+00:00</time>
        <ele>1602.0</ele>
      </trkpt>
      <trkpt lat="46.426383" lon="7.836709">
        <time>1970-01-01T00:00:00+00:00</time>
        <ele>1603.0</ele>
      </trkpt>
      <trkpt lat="46.426228" lon="7.836241">
        <time>1970-01-01T00:00:00+00:00</time>
        <ele>1601.0</ele>
      </trkpt>
      <trkpt lat="46.425986" lon="7.835752">
        <time>1970-01-01T00:00:00+00:00</time>
        <ele>1603.0</ele>
      </trkpt>
      <trkpt lat="46.425824" lon="7.835138">
        <time>1970-01-01T00:00:00+00:00</time>
        <ele>1598.0</ele>
      </trkpt>
      <trkpt lat="46.425232" lon="7.833977">
        <time>1970-01-01T00:00:00+00:00</time>
        <ele>1598.0</ele>
      </trkpt>
      <trkpt lat="46.424867" lon="7.832681">
        <time>1970-01-01T00:00:00+00:00</time>
        <ele>1588.0</ele>
      </trkpt>
      <trkpt lat="46.424627" lon="7.832129">
        <time>1970-01-01T00:00:00+00:00</time>
        <ele>1585.0</ele>
      </trkpt>
      <trkpt lat="46.424287" lon="7.831549">
        <time>1970-01-01T00:00:00+00:00</time>
        <ele>1583.0</ele>
      </trkpt>
      <trkpt lat="46.424174" lon="7.830507">
        <time>1970-01-01T00:00:00+00:00</time>
        <ele>1575.0</ele>
      </trkpt>
      <trkpt lat="46.422703" lon="7.82818">
        <time>1970-01-01T00:00:00+00:00</time>
        <ele>1564.0</ele>
      </trkpt>
      <trkpt lat="46.421951" lon="7.826765">
        <time>1970-01-01T00:00:00+00:00</time>
        <ele>1551.0</ele>
      </trkpt>
      <trkpt lat="46.421542" lon="7.825577">
        <time>1970-01-01T00:00:00+00:00</time>
        <ele>1544.0</ele>
      </trkpt>
      <trkpt lat="46.421305" lon="7.825223">
        <time>1970-01-01T00:00:00+00:00</time>
        <ele>1545.0</ele>
      </trkpt>
      <trkpt lat="46.420797" lon="7.823876">
        <time>1970-01-01T00:00:00+00:00</time>
        <ele>1539.0</ele>
      </trkpt>
      <trkpt lat="46.420385" lon="7.822513">
        <time>1970-01-01T00:00:00+00:00</time>
        <ele>1533.0</ele>
      </trkpt>
    </trkseg>
  </trk>
</gpx>
